<?xml version='1.0' encoding='UTF-8'?><gpx version="1.1" creator="JPX - https://github.com/jenetics/jpx" xmlns="http://www.topografix.com/GPX/1/1"><trk><trkseg><trkpt lat="14.558023924874158" lon="120.99590505893896"><ele>9.0</ele><time>2026-04-01T06:05:31.003Z</time></trkpt><trkpt lat="14.55807950448535" lon="120.9960132000406"><ele>9.0</ele><time>2026-04-01T06:05:32.003Z</time></trkpt><trkpt lat="14.558110535523" lon="120.99607437315942"><ele>9.0</ele><time>2026-04-01T06:05:34.003Z</time></trkpt><trkpt lat="14.558143559269322" lon="120.99614539805255"><ele>9.0</ele><time>2026-04-01T06:05:36.003Z</time></trkpt><trkpt lat="14.558194999274125" lon="120.99618323393823"><ele>9.0</ele><time>2026-04-01T06:05:40.003Z</time></trkpt><trkpt lat="14.558239265668345" lon="120.9962297905296"><ele>9.0</ele><time>2026-04-01T06:05:46.002Z</time></trkpt><trkpt lat="14.558326027879101" lon="120.99624283457601"><ele>9.0</ele><time>2026-04-01T06:05:49.002Z</time></trkpt><trkpt lat="14.558455341548509" lon="120.99620547503845"><ele>9.0</ele><time>2026-04-01T06:05:51.002Z</time></trkpt><trkpt lat="14.558535325163003" lon="120.99618701771344"><ele>9.0</ele><time>2026-04-01T06:05:52.002Z</time></trkpt><trkpt lat="14.558612335411961" lon="120.99617435267328"><ele>9.0</ele><time>2026-04-01T06:05:53.001Z</time></trkpt><trkpt lat="14.55867810381541" lon="120.99615279489323"><ele>9.0</ele><time>2026-04-01T06:05:54.001Z</time></trkpt><trkpt lat="14.55876186373752" lon="120.9961304396209"><ele>9.0</ele><time>2026-04-01T06:05:55.001Z</time></trkpt><trkpt lat="14.558845078882811" lon="120.99611187702698"><ele>9.0</ele><time>2026-04-01T06:05:56.001Z</time></trkpt><trkpt lat="14.558927093831317" lon="120.99609278861243"><ele>9.0</ele><time>2026-04-01T06:05:57.001Z</time></trkpt><trkpt lat="14.559007601309016" lon="120.99606466316979"><ele>9.0</ele><time>2026-04-01T06:05:58.001Z</time></trkpt><trkpt lat="14.5590889614822" lon="120.99604527490332"><ele>9.0</ele><time>2026-04-01T06:05:59.001Z</time></trkpt><trkpt lat="14.559185270899915" lon="120.9960188833673"><ele>9.0</ele><time>2026-04-01T06:06:00.001Z</time></trkpt><trkpt lat="14.559283864364861" lon="120.996002228544"><ele>9.0</ele><time>2026-04-01T06:06:01.001Z</time></trkpt><trkpt lat="14.559378388335444" lon="120.99598197441831"><ele>9.0</ele><time>2026-04-01T06:06:02.001Z</time></trkpt><trkpt lat="14.559454736377832" lon="120.99596241793738"><ele>9.0</ele><time>2026-04-01T06:06:03.001Z</time></trkpt><trkpt lat="14.559531878951958" lon="120.99593961274658"><ele>9.0</ele><time>2026-04-01T06:06:04.001Z</time></trkpt><trkpt lat="14.559640712842095" lon="120.99591145916403"><ele>9.0</ele><time>2026-04-01T06:06:06.001Z</time></trkpt><trkpt lat="14.55975527699831" lon="120.99588785820991"><ele>8.8</ele><time>2026-04-01T06:06:08.001Z</time></trkpt><trkpt lat="14.559850769045593" lon="120.99586301574803"><ele>8.600000000000001</ele><time>2026-04-01T06:06:10.001Z</time></trkpt><trkpt lat="14.55995660585441" lon="120.9958511583355"><ele>8.4</ele><time>2026-04-01T06:06:12.001Z</time></trkpt><trkpt lat="14.560059206804992" lon="120.99583229687263"><ele>8.200000000000001</ele><time>2026-04-01T06:06:14.001Z</time></trkpt><trkpt lat="14.560132073300744" lon="120.99581680252572"><ele>8.0</ele><time>2026-04-01T06:06:17.001Z</time></trkpt><trkpt lat="14.560198134513088" lon="120.995801035751"><ele>7.833333333333333</ele><time>2026-04-01T06:06:19.001Z</time></trkpt><trkpt lat="14.560313631176117" lon="120.99577494378302"><ele>7.666666666666666</ele><time>2026-04-01T06:06:21.001Z</time></trkpt><trkpt lat="14.560388737451479" lon="120.99576369781458"><ele>7.5</ele><time>2026-04-01T06:06:22.001Z</time></trkpt><trkpt lat="14.560467712855665" lon="120.99574856257536"><ele>7.333333333333334</ele><time>2026-04-01T06:06:23.001Z</time></trkpt><trkpt lat="14.560555201368258" lon="120.99571784662261"><ele>7.166666666666667</ele><time>2026-04-01T06:06:24.001Z</time></trkpt><trkpt lat="14.56062772343004" lon="120.9957148875021"><ele>7.0</ele><time>2026-04-01T06:06:25.001Z</time></trkpt><trkpt lat="14.560718998538345" lon="120.9956885837356"><ele>7.0</ele><time>2026-04-01T06:06:26.001Z</time></trkpt><trkpt lat="14.560814060779904" lon="120.99566886304568"><ele>6.999999999999999</ele><time>2026-04-01T06:06:27.001Z</time></trkpt><trkpt lat="14.560916533533" lon="120.99564554904889"><ele>6.999999999999999</ele><time>2026-04-01T06:06:28.001Z</time></trkpt><trkpt lat="14.561020028332019" lon="120.99561706855528"><ele>7.0</ele><time>2026-04-01T06:06:29.001Z</time></trkpt><trkpt lat="14.561125881456329" lon="120.99559124471455"><ele>7.0</ele><time>2026-04-01T06:06:30.001Z</time></trkpt><trkpt lat="14.561230015971383" lon="120.99556685651193"><ele>7.3999999999999995</ele><time>2026-04-01T06:06:31.001Z</time></trkpt><trkpt lat="14.561333760208942" lon="120.99554666406283"><ele>7.799999999999999</ele><time>2026-04-01T06:06:32.001Z</time></trkpt><trkpt lat="14.561434669289984" lon="120.9955247656208"><ele>8.2</ele><time>2026-04-01T06:06:33.001Z</time></trkpt><trkpt lat="14.561527461021397" lon="120.99549800639883"><ele>8.6</ele><time>2026-04-01T06:06:34.001Z</time></trkpt><trkpt lat="14.561613642777965" lon="120.99547470651412"><ele>9.0</ele><time>2026-04-01T06:06:35.001Z</time></trkpt><trkpt lat="14.561693894730116" lon="120.99545877211828"><ele>9.0</ele><time>2026-04-01T06:06:36.001Z</time></trkpt><trkpt lat="14.56175972443598" lon="120.99544625936626"><ele>9.0</ele><time>2026-04-01T06:06:37.001Z</time></trkpt><trkpt lat="14.561823958943293" lon="120.99541618255809"><ele>9.0</ele><time>2026-04-01T06:06:38.001Z</time></trkpt><trkpt lat="14.56191132766815" lon="120.99540051008134"><ele>9.0</ele><time>2026-04-01T06:06:39.001Z</time></trkpt><trkpt lat="14.561981714392008" lon="120.99538421583885"><ele>9.0</ele><time>2026-04-01T06:06:40.001Z</time></trkpt><trkpt lat="14.562048901250213" lon="120.99537005364934"><ele>9.0</ele><time>2026-04-01T06:06:41.001Z</time></trkpt><trkpt lat="14.562149874715852" lon="120.99533635804016"><ele>9.166666666666666</ele><time>2026-04-01T06:06:43.001Z</time></trkpt><trkpt lat="14.562245835327415" lon="120.99531260496202"><ele>9.333333333333334</ele><time>2026-04-01T06:06:45.001Z</time></trkpt><trkpt lat="14.562310570384671" lon="120.99530348433653"><ele>9.5</ele><time>2026-04-01T06:06:47.001Z</time></trkpt><trkpt lat="14.562393308705424" lon="120.99529619593007"><ele>9.666666666666668</ele><time>2026-04-01T06:06:50.001Z</time></trkpt><trkpt lat="14.562469069121649" lon="120.99530020448725"><ele>9.833333333333334</ele><time>2026-04-01T06:06:53.001Z</time></trkpt><trkpt lat="14.562539175526586" lon="120.9952648155071"><ele>10.0</ele><time>2026-04-01T06:07:45.002Z</time></trkpt><trkpt lat="14.562636294314554" lon="120.99525471145664"><ele>10.0</ele><time>2026-04-01T06:07:47.002Z</time></trkpt><trkpt lat="14.562717464070962" lon="120.99523911079403"><ele>10.0</ele><time>2026-04-01T06:07:50.002Z</time></trkpt><trkpt lat="14.562774544733731" lon="120.99520525245032"><ele>10.0</ele><time>2026-04-01T06:07:52.002Z</time></trkpt><trkpt lat="14.562880269775864" lon="120.99515911571608"><ele>10.0</ele><time>2026-04-01T06:07:54.001Z</time></trkpt><trkpt lat="14.562940494400303" lon="120.99513283467361"><ele>10.0</ele><time>2026-04-01T06:07:55.001Z</time></trkpt><trkpt lat="14.563014026810084" lon="120.99510074630305"><ele>10.0</ele><time>2026-04-01T06:07:56.001Z</time></trkpt><trkpt lat="14.563088077326693" lon="120.99507625060681"><ele>10.333333333333334</ele><time>2026-04-01T06:07:57.001Z</time></trkpt><trkpt lat="14.56315543354597" lon="120.99502509390051"><ele>10.666666666666668</ele><time>2026-04-01T06:07:58.001Z</time></trkpt><trkpt lat="14.563238731216408" lon="120.99497379698431"><ele>11.0</ele><time>2026-04-01T06:07:59.001Z</time></trkpt><trkpt lat="14.563321332593556" lon="120.99492676327971"><ele>11.333333333333334</ele><time>2026-04-01T06:08:00.001Z</time></trkpt><trkpt lat="14.563403873369914" lon="120.99489476685804"><ele>11.666666666666666</ele><time>2026-04-01T06:08:01.001Z</time></trkpt><trkpt lat="14.563483770454008" lon="120.99486141267701"><ele>12.0</ele><time>2026-04-01T06:08:02.001Z</time></trkpt><trkpt lat="14.563559229907199" lon="120.99482650335247"><ele>12.0</ele><time>2026-04-01T06:08:03.001Z</time></trkpt><trkpt lat="14.563641969540823" lon="120.9947850596854"><ele>12.0</ele><time>2026-04-01T06:08:04.001Z</time></trkpt><trkpt lat="14.563735963689531" lon="120.99474524570455"><ele>12.0</ele><time>2026-04-01T06:08:05.001Z</time></trkpt><trkpt lat="14.563829802194636" lon="120.99469702450628"><ele>12.0</ele><time>2026-04-01T06:08:06.001Z</time></trkpt><trkpt lat="14.563928344070794" lon="120.99465815071946"><ele>12.0</ele><time>2026-04-01T06:08:07.001Z</time></trkpt><trkpt lat="14.56404496357278" lon="120.99459934254098"><ele>12.75</ele><time>2026-04-01T06:08:08.001Z</time></trkpt><trkpt lat="14.564154916153885" lon="120.9945511616846"><ele>13.5</ele><time>2026-04-01T06:08:09.001Z</time></trkpt><trkpt lat="14.564263929395857" lon="120.99449927543286"><ele>14.25</ele><time>2026-04-01T06:08:10.001Z</time></trkpt><trkpt lat="14.564368976295455" lon="120.99444936932552"><ele>15.0</ele><time>2026-04-01T06:08:11.001Z</time></trkpt><trkpt lat="14.564462565259205" lon="120.99440368123348"><ele>13.8</ele><time>2026-04-01T06:08:12.001Z</time></trkpt><trkpt lat="14.564552091338486" lon="120.99435902361512"><ele>12.6</ele><time>2026-04-01T06:08:13.001Z</time></trkpt><trkpt lat="14.564640062360406" lon="120.99432016244374"><ele>11.4</ele><time>2026-04-01T06:08:14.001Z</time></trkpt><trkpt lat="14.564716743432161" lon="120.99428351278517"><ele>10.2</ele><time>2026-04-01T06:08:15.001Z</time></trkpt><trkpt lat="14.564801206802722" lon="120.99423811441042"><ele>9.0</ele><time>2026-04-01T06:08:16.001Z</time></trkpt><trkpt lat="14.564877695861686" lon="120.99419716795106"><ele>9.166666666666666</ele><time>2026-04-01T06:08:17.001Z</time></trkpt><trkpt lat="14.564949971398146" lon="120.99417139413099"><ele>9.333333333333334</ele><time>2026-04-01T06:08:18.001Z</time></trkpt><trkpt lat="14.565013232174513" lon="120.9941487658195"><ele>9.5</ele><time>2026-04-01T06:08:19.001Z</time></trkpt><trkpt lat="14.565070827300223" lon="120.99412000243217"><ele>9.666666666666668</ele><time>2026-04-01T06:08:21.001Z</time></trkpt><trkpt lat="14.565146290398044" lon="120.99409454605211"><ele>9.833333333333334</ele><time>2026-04-01T06:08:56.001Z</time></trkpt><trkpt lat="14.565248523373228" lon="120.99403835947045"><ele>10.0</ele><time>2026-04-01T06:08:58.001Z</time></trkpt><trkpt lat="14.56531646443099" lon="120.99400939052836"><ele>9.8</ele><time>2026-04-01T06:08:59.001Z</time></trkpt><trkpt lat="14.56539180186722" lon="120.99397622729417"><ele>9.6</ele><time>2026-04-01T06:09:00.001Z</time></trkpt><trkpt lat="14.565471106110898" lon="120.99393825233041"><ele>9.4</ele><time>2026-04-01T06:09:01.001Z</time></trkpt><trkpt lat="14.56555092432705" lon="120.99389360354837"><ele>9.2</ele><time>2026-04-01T06:09:02.001Z</time></trkpt><trkpt lat="14.565639136802453" lon="120.99384473576531"><ele>9.0</ele><time>2026-04-01T06:09:03.001Z</time></trkpt><trkpt lat="14.565732914095504" lon="120.99379489895797"><ele>9.0</ele><time>2026-04-01T06:09:04.001Z</time></trkpt><trkpt lat="14.56583467950659" lon="120.99374971240562"><ele>9.0</ele><time>2026-04-01T06:09:05.001Z</time></trkpt><trkpt lat="14.565934831647525" lon="120.99370653849127"><ele>9.0</ele><time>2026-04-01T06:09:06.001Z</time></trkpt><trkpt lat="14.566033508697538" lon="120.99366777421461"><ele>9.0</ele><time>2026-04-01T06:09:07.001Z</time></trkpt><trkpt lat="14.56613128094072" lon="120.99362916764514"><ele>9.0</ele><time>2026-04-01T06:09:08.001Z</time></trkpt><trkpt lat="14.566226554286288" lon="120.99359152629896"><ele>9.0</ele><time>2026-04-01T06:09:09.001Z</time></trkpt><trkpt lat="14.566300326404553" lon="120.99354361142404"><ele>9.0</ele><time>2026-04-01T06:09:10.001Z</time></trkpt><trkpt lat="14.566389670152947" lon="120.99349165448861"><ele>9.0</ele><time>2026-04-01T06:09:11.002Z</time></trkpt><trkpt lat="14.56648271388606" lon="120.99345109108882"><ele>9.0</ele><time>2026-04-01T06:09:12.002Z</time></trkpt><trkpt lat="14.566579602238207" lon="120.99340374277705"><ele>9.0</ele><time>2026-04-01T06:09:13.002Z</time></trkpt><trkpt lat="14.566676743856322" lon="120.9933625532945"><ele>9.2</ele><time>2026-04-01T06:09:14.002Z</time></trkpt><trkpt lat="14.566774544761342" lon="120.99331274581056"><ele>9.4</ele><time>2026-04-01T06:09:15.002Z</time></trkpt><trkpt lat="14.566874177729767" lon="120.99329325061736"><ele>9.6</ele><time>2026-04-01T06:09:16.002Z</time></trkpt><trkpt lat="14.56696881430626" lon="120.99323751075737"><ele>9.8</ele><time>2026-04-01T06:09:17.002Z</time></trkpt><trkpt lat="14.567067031595238" lon="120.9931889240444"><ele>10.0</ele><time>2026-04-01T06:09:18.002Z</time></trkpt><trkpt lat="14.567163840641543" lon="120.99313175053322"><ele>10.6</ele><time>2026-04-01T06:09:19.002Z</time></trkpt><trkpt lat="14.567262790019877" lon="120.99307825555526"><ele>11.2</ele><time>2026-04-01T06:09:20.002Z</time></trkpt><trkpt lat="14.567363259960203" lon="120.99302745399669"><ele>11.8</ele><time>2026-04-01T06:09:21.002Z</time></trkpt><trkpt lat="14.567460808405" lon="120.99298298201485"><ele>12.4</ele><time>2026-04-01T06:09:22.002Z</time></trkpt><trkpt lat="14.5675624297183" lon="120.9929334128244"><ele>13.0</ele><time>2026-04-01T06:09:23.002Z</time></trkpt><trkpt lat="14.567664958311866" lon="120.99287805100998"><ele>13.0</ele><time>2026-04-01T06:09:24.002Z</time></trkpt><trkpt lat="14.56777113275355" lon="120.99282824701245"><ele>13.0</ele><time>2026-04-01T06:09:25.002Z</time></trkpt><trkpt lat="14.567876557177211" lon="120.99277647869921"><ele>13.0</ele><time>2026-04-01T06:09:26.002Z</time></trkpt><trkpt lat="14.567979575271469" lon="120.99272523304626"><ele>13.0</ele><time>2026-04-01T06:09:27.002Z</time></trkpt><trkpt lat="14.568087876061458" lon="120.99267399316236"><ele>11.75</ele><time>2026-04-01T06:09:28.002Z</time></trkpt><trkpt lat="14.56819624262119" lon="120.99262516425306"><ele>10.5</ele><time>2026-04-01T06:09:29.002Z</time></trkpt><trkpt lat="14.568307597511732" lon="120.99257166367077"><ele>9.25</ele><time>2026-04-01T06:09:30.002Z</time></trkpt><trkpt lat="14.568420076500052" lon="120.99253339899288"><ele>8.0</ele><time>2026-04-01T06:09:31.002Z</time></trkpt><trkpt lat="14.568528536168657" lon="120.99248239854589"><ele>8.0</ele><time>2026-04-01T06:09:32.002Z</time></trkpt><trkpt lat="14.568637096091683" lon="120.99243228409718"><ele>8.0</ele><time>2026-04-01T06:09:33.002Z</time></trkpt><trkpt lat="14.56873877000906" lon="120.99238537815302"><ele>8.0</ele><time>2026-04-01T06:09:34.002Z</time></trkpt><trkpt lat="14.568839981803366" lon="120.99232978283723"><ele>8.0</ele><time>2026-04-01T06:09:35.002Z</time></trkpt><trkpt lat="14.568939048242456" lon="120.99228497264197"><ele>8.0</ele><time>2026-04-01T06:09:36.002Z</time></trkpt><trkpt lat="14.569038479840728" lon="120.99222711067978"><ele>8.0</ele><time>2026-04-01T06:09:37.002Z</time></trkpt><trkpt lat="14.569148477291531" lon="120.99218569527848"><ele>8.0</ele><time>2026-04-01T06:09:38.002Z</time></trkpt><trkpt lat="14.569249092396197" lon="120.99212935378674"><ele>8.0</ele><time>2026-04-01T06:09:39.002Z</time></trkpt><trkpt lat="14.569344986019896" lon="120.99208213977708"><ele>7.999999999999999</ele><time>2026-04-01T06:09:40.002Z</time></trkpt><trkpt lat="14.569435051528949" lon="120.99203946172207"><ele>8.0</ele><time>2026-04-01T06:09:41.002Z</time></trkpt><trkpt lat="14.569515721148095" lon="120.99201078735203"><ele>8.0</ele><time>2026-04-01T06:09:42.002Z</time></trkpt><trkpt lat="14.569584018648927" lon="120.99197917390705"><ele>8.0</ele><time>2026-04-01T06:09:43.002Z</time></trkpt><trkpt lat="14.569653719417165" lon="120.99194560207133"><ele>7.999999999999999</ele><time>2026-04-01T06:09:44.002Z</time></trkpt><trkpt lat="14.56972603558579" lon="120.99193933459735"><ele>8.0</ele><time>2026-04-01T06:09:45.002Z</time></trkpt><trkpt lat="14.56980038288782" lon="120.99188346679723"><ele>8.166666666666666</ele><time>2026-04-01T06:09:47.002Z</time></trkpt><trkpt lat="14.569857369622286" lon="120.99185307032711"><ele>8.333333333333332</ele><time>2026-04-01T06:09:57.001Z</time></trkpt><trkpt lat="14.569925102647476" lon="120.9918377925687"><ele>8.5</ele><time>2026-04-01T06:10:03.001Z</time></trkpt><trkpt lat="14.569999126334386" lon="120.99179969083146"><ele>8.666666666666666</ele><time>2026-04-01T06:10:18.001Z</time></trkpt><trkpt lat="14.57007867418959" lon="120.99174795951039"><ele>8.833333333333334</ele><time>2026-04-01T06:10:29.001Z</time></trkpt><trkpt lat="14.570143209159879" lon="120.99167877221878"><ele>9.0</ele><time>2026-04-01T06:10:32.001Z</time></trkpt><trkpt lat="14.570207031704037" lon="120.9916443041774"><ele>8.5</ele><time>2026-04-01T06:10:34.001Z</time></trkpt><trkpt lat="14.570438195053233" lon="120.99172469250307"><ele>8.0</ele><time>2026-04-01T06:10:41.001Z</time></trkpt><trkpt lat="14.570505328924034" lon="120.99178357878368"><ele>7.5</ele><time>2026-04-01T06:10:43.001Z</time></trkpt><trkpt lat="14.570565135199605" lon="120.99181566380165"><ele>7.0</ele><time>2026-04-01T06:10:45.001Z</time></trkpt><trkpt lat="14.570634280167932" lon="120.9918661309461"><ele>7.0</ele><time>2026-04-01T06:11:23.001Z</time></trkpt><trkpt lat="14.570690942611112" lon="120.99191009424007"><ele>6.999999999999999</ele><time>2026-04-01T06:11:25.001Z</time></trkpt><trkpt lat="14.57075002019372" lon="120.99195669823588"><ele>6.999999999999999</ele><time>2026-04-01T06:11:27.001Z</time></trkpt><trkpt lat="14.570806714092177" lon="120.99204301068856"><ele>7.0</ele><time>2026-04-01T06:11:29.001Z</time></trkpt><trkpt lat="14.570927898793233" lon="120.99212924925669"><ele>7.0</ele><time>2026-04-01T06:11:31.001Z</time></trkpt><trkpt lat="14.570997193609681" lon="120.9921852863622"><ele>7.0</ele><time>2026-04-01T06:11:32.001Z</time></trkpt><trkpt lat="14.571063925332494" lon="120.99224285498637"><ele>6.999999999999999</ele><time>2026-04-01T06:11:33.001Z</time></trkpt><trkpt lat="14.571133081329146" lon="120.99229442286716"><ele>6.999999999999999</ele><time>2026-04-01T06:11:34.001Z</time></trkpt><trkpt lat="14.571211965802577" lon="120.99235122903639"><ele>7.0</ele><time>2026-04-01T06:11:35.001Z</time></trkpt><trkpt lat="14.571294998353398" lon="120.99241012270015"><ele>7.0</ele><time>2026-04-01T06:11:36.001Z</time></trkpt><trkpt lat="14.571375394296568" lon="120.99247086423976"><ele>6.8</ele><time>2026-04-01T06:11:37.002Z</time></trkpt><trkpt lat="14.571440278848799" lon="120.99252996826"><ele>6.6</ele><time>2026-04-01T06:11:38.002Z</time></trkpt><trkpt lat="14.571506875447197" lon="120.99258367021739"><ele>6.3999999999999995</ele><time>2026-04-01T06:11:39.002Z</time></trkpt><trkpt lat="14.571563690961295" lon="120.9926295999164"><ele>6.199999999999999</ele><time>2026-04-01T06:11:40.002Z</time></trkpt><trkpt lat="14.571657833932525" lon="120.99270787178645"><ele>6.0</ele><time>2026-04-01T06:11:42.002Z</time></trkpt><trkpt lat="14.571744947429517" lon="120.99278299798439"><ele>6.0</ele><time>2026-04-01T06:11:44.002Z</time></trkpt><trkpt lat="14.571819769794562" lon="120.99285282544328"><ele>6.0</ele><time>2026-04-01T06:11:46.002Z</time></trkpt><trkpt lat="14.5718753340628" lon="120.9928991182535"><ele>6.0</ele><time>2026-04-01T06:11:48.002Z</time></trkpt><trkpt lat="14.571934576400361" lon="120.99295152425461"><ele>6.0</ele><time>2026-04-01T06:11:50.002Z</time></trkpt><trkpt lat="14.572003345560953" lon="120.99300650361177"><ele>6.0</ele><time>2026-04-01T06:11:53.002Z</time></trkpt><trkpt lat="14.572061081875596" lon="120.99305241439059"><ele>6.0</ele><time>2026-04-01T06:11:56.002Z</time></trkpt><trkpt lat="14.57213323592792" lon="120.99309102841445"><ele>6.199999999999999</ele><time>2026-04-01T06:12:24.001Z</time></trkpt><trkpt lat="14.572222958378475" lon="120.99316926850369"><ele>6.3999999999999995</ele><time>2026-04-01T06:12:26.001Z</time></trkpt><trkpt lat="14.572279802311566" lon="120.9932268522002"><ele>6.6</ele><time>2026-04-01T06:12:27.001Z</time></trkpt><trkpt lat="14.572347068034475" lon="120.99329204645352"><ele>6.8</ele><time>2026-04-01T06:12:28.001Z</time></trkpt><trkpt lat="14.572428054664417" lon="120.99335896483383"><ele>7.0</ele><time>2026-04-01T06:12:29.001Z</time></trkpt><trkpt lat="14.572509032240688" lon="120.99341205900943"><ele>7.0</ele><time>2026-04-01T06:12:30.001Z</time></trkpt><trkpt lat="14.572595683338678" lon="120.99347194068878"><ele>6.999999999999999</ele><time>2026-04-01T06:12:31.001Z</time></trkpt><trkpt lat="14.572681280348597" lon="120.99353941415806"><ele>6.999999999999999</ele><time>2026-04-01T06:12:32.001Z</time></trkpt><trkpt lat="14.572754920106165" lon="120.99360311170933"><ele>7.0</ele><time>2026-04-01T06:12:33.001Z</time></trkpt><trkpt lat="14.572827991537261" lon="120.9936715563978"><ele>7.0</ele><time>2026-04-01T06:12:34.001Z</time></trkpt><trkpt lat="14.572901585583095" lon="120.99373603496225"><ele>7.000000000000001</ele><time>2026-04-01T06:12:35.001Z</time></trkpt><trkpt lat="14.57296949107411" lon="120.99379319489059"><ele>7.0</ele><time>2026-04-01T06:12:36.001Z</time></trkpt><trkpt lat="14.57303902176646" lon="120.99385233433077"><ele>7.0</ele><time>2026-04-01T06:12:37.001Z</time></trkpt><trkpt lat="14.57310436232025" lon="120.99390729964935"><ele>7.0</ele><time>2026-04-01T06:12:38.001Z</time></trkpt><trkpt lat="14.573173791902363" lon="120.99396152197055"><ele>7.000000000000001</ele><time>2026-04-01T06:12:39.001Z</time></trkpt><trkpt lat="14.57322769344759" lon="120.99400956917705"><ele>7.0</ele><time>2026-04-01T06:12:40.001Z</time></trkpt><trkpt lat="14.573282246420055" lon="120.99405331474647"><ele>7.000000000000001</ele><time>2026-04-01T06:12:41.001Z</time></trkpt><trkpt lat="14.573339724647363" lon="120.99410344893015"><ele>7.0</ele><time>2026-04-01T06:12:42.001Z</time></trkpt><trkpt lat="14.573404183330075" lon="120.99415526279977"><ele>7.0</ele><time>2026-04-01T06:12:43.001Z</time></trkpt><trkpt lat="14.573469424107262" lon="120.99420912900618"><ele>7.0</ele><time>2026-04-01T06:12:44.001Z</time></trkpt><trkpt lat="14.573537763433922" lon="120.99426509577218"><ele>7.000000000000001</ele><time>2026-04-01T06:12:45.001Z</time></trkpt><trkpt lat="14.573613617733608" lon="120.99432146216344"><ele>7.0</ele><time>2026-04-01T06:12:46.001Z</time></trkpt><trkpt lat="14.573691204354473" lon="120.99437637745608"><ele>6.833333333333334</ele><time>2026-04-01T06:12:47.001Z</time></trkpt><trkpt lat="14.573767624028635" lon="120.99442869806713"><ele>6.666666666666667</ele><time>2026-04-01T06:12:48.001Z</time></trkpt><trkpt lat="14.573841459589586" lon="120.99447620225706"><ele>6.5</ele><time>2026-04-01T06:12:49.001Z</time></trkpt><trkpt lat="14.573909727794135" lon="120.99454505340265"><ele>6.333333333333334</ele><time>2026-04-01T06:12:50.001Z</time></trkpt><trkpt lat="14.573964967642256" lon="120.99459059909387"><ele>6.166666666666667</ele><time>2026-04-01T06:12:51.001Z</time></trkpt><trkpt lat="14.574014451980347" lon="120.99463187198042"><ele>6.0</ele><time>2026-04-01T06:12:55.001Z</time></trkpt><trkpt lat="14.574082114404904" lon="120.99469241090065"><ele>6.0</ele><time>2026-04-01T06:12:57.001Z</time></trkpt><trkpt lat="14.5741560646053" lon="120.99476469527296"><ele>6.0</ele><time>2026-04-01T06:12:59.001Z</time></trkpt><trkpt lat="14.574231021929371" lon="120.99481302950687"><ele>6.0</ele><time>2026-04-01T06:13:01.001Z</time></trkpt><trkpt lat="14.574308173058833" lon="120.9948775425305"><ele>6.0</ele><time>2026-04-01T06:13:03.001Z</time></trkpt><trkpt lat="14.574411561434335" lon="120.99496236633034"><ele>6.0</ele><time>2026-04-01T06:13:05.001Z</time></trkpt><trkpt lat="14.574479428488527" lon="120.99501736575712"><ele>5.6</ele><time>2026-04-01T06:13:06.001Z</time></trkpt><trkpt lat="14.574551134441702" lon="120.99506339500721"><ele>5.199999999999999</ele><time>2026-04-01T06:13:07.001Z</time></trkpt><trkpt lat="14.574615063531771" lon="120.9951234988464"><ele>4.800000000000001</ele><time>2026-04-01T06:13:08.001Z</time></trkpt><trkpt lat="14.574701331578815" lon="120.99518673988779"><ele>4.4</ele><time>2026-04-01T06:13:09.001Z</time></trkpt><trkpt lat="14.574778016614973" lon="120.99525730621791"><ele>4.0</ele><time>2026-04-01T06:13:10.001Z</time></trkpt><trkpt lat="14.57490182140514" lon="120.99531597008918"><ele>4.0</ele><time>2026-04-01T06:13:11.001Z</time></trkpt><trkpt lat="14.57499935869072" lon="120.99537197370121"><ele>4.0</ele><time>2026-04-01T06:13:12.001Z</time></trkpt><trkpt lat="14.575100077132262" lon="120.99544519352605"><ele>4.0</ele><time>2026-04-01T06:13:13.001Z</time></trkpt><trkpt lat="14.575192470069902" lon="120.99556093185721"><ele>4.0</ele><time>2026-04-01T06:13:14.001Z</time></trkpt><trkpt lat="14.575307656589938" lon="120.99565702805342"><ele>4.0</ele><time>2026-04-01T06:13:15.001Z</time></trkpt><trkpt lat="14.57541840370656" lon="120.99575548120684"><ele>4.0</ele><time>2026-04-01T06:13:16.001Z</time></trkpt><trkpt lat="14.575536832524556" lon="120.99586082345672"><ele>4.0</ele><time>2026-04-01T06:13:17.001Z</time></trkpt><trkpt lat="14.575647583588012" lon="120.99595702551188"><ele>4.0</ele><time>2026-04-01T06:13:18.001Z</time></trkpt><trkpt lat="14.57575539823781" lon="120.99606022285694"><ele>5.0</ele><time>2026-04-01T06:13:19.001Z</time></trkpt><trkpt lat="14.575857573308554" lon="120.9961404890135"><ele>6.0</ele><time>2026-04-01T06:13:20.001Z</time></trkpt><trkpt lat="14.575953992716972" lon="120.99622049482461"><ele>7.0</ele><time>2026-04-01T06:13:21.001Z</time></trkpt><trkpt lat="14.576048903553193" lon="120.99629071918399"><ele>8.0</ele><time>2026-04-01T06:13:22.001Z</time></trkpt><trkpt lat="14.576135641767973" lon="120.99635180458594"><ele>8.4</ele><time>2026-04-01T06:13:23.001Z</time></trkpt><trkpt lat="14.576219518254574" lon="120.99642056069159"><ele>8.8</ele><time>2026-04-01T06:13:24.001Z</time></trkpt><trkpt lat="14.576305733382496" lon="120.99648976086172"><ele>9.2</ele><time>2026-04-01T06:13:25.001Z</time></trkpt><trkpt lat="14.576382374481295" lon="120.99654715360238"><ele>9.6</ele><time>2026-04-01T06:13:26.001Z</time></trkpt><trkpt lat="14.576457173972475" lon="120.99659410348049"><ele>10.0</ele><time>2026-04-01T06:13:27.001Z</time></trkpt><trkpt lat="14.576527528370535" lon="120.99664754596685"><ele>9.666666666666668</ele><time>2026-04-01T06:13:28.001Z</time></trkpt><trkpt lat="14.576598207258344" lon="120.99669541384122"><ele>9.333333333333334</ele><time>2026-04-01T06:13:29.001Z</time></trkpt><trkpt lat="14.576653345081258" lon="120.99674992909216"><ele>9.0</ele><time>2026-04-01T06:13:30.001Z</time></trkpt><trkpt lat="14.576693999347688" lon="120.99680395515155"><ele>8.666666666666666</ele><time>2026-04-01T06:13:31.001Z</time></trkpt><trkpt lat="14.576775466436985" lon="120.99686267426351"><ele>8.333333333333332</ele><time>2026-04-01T06:13:33.001Z</time></trkpt><trkpt lat="14.576830027718998" lon="120.99693346254071"><ele>8.0</ele><time>2026-04-01T06:13:36.001Z</time></trkpt><trkpt lat="14.576835529162182" lon="120.99685280430727"><ele>8.0</ele><time>2026-04-01T06:14:52.001Z</time></trkpt><trkpt lat="14.576761950689734" lon="120.99675084793103"><ele>8.0</ele><time>2026-04-01T06:14:53.001Z</time></trkpt><trkpt lat="14.576719435124726" lon="120.99666405037729"><ele>8.0</ele><time>2026-04-01T06:14:54.001Z</time></trkpt><trkpt lat="14.576676559415386" lon="120.99657177299082"><ele>8.0</ele><time>2026-04-01T06:14:55.001Z</time></trkpt><trkpt lat="14.576634596198843" lon="120.99647784913445"><ele>8.0</ele><time>2026-04-01T06:14:56.001Z</time></trkpt><trkpt lat="14.57659504309552" lon="120.99638787884592"><ele>5.0</ele><time>2026-04-01T06:14:57.001Z</time></trkpt><trkpt lat="14.577467521915757" lon="120.99740134795452"><ele>5.0</ele><time>2026-04-01T06:14:58.001Z</time></trkpt><trkpt lat="14.577572170949876" lon="120.99748145496109"><ele>5.0</ele><time>2026-04-01T06:14:59.001Z</time></trkpt><trkpt lat="14.577673059917792" lon="120.99755210834653"><ele>5.0</ele><time>2026-04-01T06:15:00.001Z</time></trkpt><trkpt lat="14.577767622579632" lon="120.99762968947638"><ele>5.0</ele><time>2026-04-01T06:15:01.001Z</time></trkpt><trkpt lat="14.577854416641983" lon="120.99770674865356"><ele>5.2</ele><time>2026-04-01T06:15:02.001Z</time></trkpt><trkpt lat="14.577941441980524" lon="120.99778295214756"><ele>5.4</ele><time>2026-04-01T06:15:03.001Z</time></trkpt><trkpt lat="14.578027804435559" lon="120.9978492351068"><ele>5.6</ele><time>2026-04-01T06:15:04.001Z</time></trkpt><trkpt lat="14.57810616301281" lon="120.99791115359643"><ele>5.8</ele><time>2026-04-01T06:15:05.001Z</time></trkpt><trkpt lat="14.578166646278882" lon="120.99796760164809"><ele>6.0</ele><time>2026-04-01T06:15:06.001Z</time></trkpt><trkpt lat="14.578223870464996" lon="120.99801780465647"><ele>6.0</ele><time>2026-04-01T06:15:07.001Z</time></trkpt><trkpt lat="14.578275371799121" lon="120.99806025122862"><ele>6.0</ele><time>2026-04-01T06:15:08.001Z</time></trkpt><trkpt lat="14.57833530141204" lon="120.99812158392433"><ele>6.0</ele><time>2026-04-01T06:15:10.001Z</time></trkpt><trkpt lat="14.578381277038448" lon="120.99818677056426"><ele>6.0</ele><time>2026-04-01T06:15:20.001Z</time></trkpt><trkpt lat="14.578441262706233" lon="120.99823685533252"><ele>6.0</ele><time>2026-04-01T06:15:40.001Z</time></trkpt><trkpt lat="14.578515650084388" lon="120.99828756600452"><ele>6.0</ele><time>2026-04-01T06:15:43.001Z</time></trkpt><trkpt lat="14.578567657844866" lon="120.99833792893091"><ele>6.0</ele><time>2026-04-01T06:15:44.001Z</time></trkpt><trkpt lat="14.578624762931469" lon="120.99837489212678"><ele>6.0</ele><time>2026-04-01T06:15:45.001Z</time></trkpt><trkpt lat="14.578689745706795" lon="120.9984220689242"><ele>6.0</ele><time>2026-04-01T06:15:46.001Z</time></trkpt><trkpt lat="14.578756726678135" lon="120.99848208656455"><ele>6.0</ele><time>2026-04-01T06:15:47.001Z</time></trkpt><trkpt lat="14.578816854596306" lon="120.99855083921256"><ele>6.0</ele><time>2026-04-01T06:15:48.001Z</time></trkpt><trkpt lat="14.578891086528998" lon="120.99861797090425"><ele>6.0</ele><time>2026-04-01T06:15:49.001Z</time></trkpt><trkpt lat="14.578962392705495" lon="120.99867837183042"><ele>6.0</ele><time>2026-04-01T06:15:50.001Z</time></trkpt><trkpt lat="14.579035951285967" lon="120.99874199608351"><ele>6.0</ele><time>2026-04-01T06:15:51.001Z</time></trkpt><trkpt lat="14.57911133239334" lon="120.99880355705886"><ele>6.0</ele><time>2026-04-01T06:15:52.001Z</time></trkpt><trkpt lat="14.579200547242937" lon="120.99885829484082"><ele>6.0</ele><time>2026-04-01T06:15:53.001Z</time></trkpt><trkpt lat="14.579274771908542" lon="120.99891437810733"><ele>6.0</ele><time>2026-04-01T06:15:54.001Z</time></trkpt><trkpt lat="14.57935205073045" lon="120.99897821332398"><ele>6.0</ele><time>2026-04-01T06:15:55.001Z</time></trkpt><trkpt lat="14.579425530353056" lon="120.99903939793451"><ele>6.0</ele><time>2026-04-01T06:15:56.001Z</time></trkpt><trkpt lat="14.579526813765094" lon="120.99907806167535"><ele>6.0</ele><time>2026-04-01T06:15:57.001Z</time></trkpt><trkpt lat="14.579620546289124" lon="120.99912217552718"><ele>6.0</ele><time>2026-04-01T06:15:58.001Z</time></trkpt><trkpt lat="14.57971586475936" lon="120.99918514715264"><ele>6.0</ele><time>2026-04-01T06:15:59.001Z</time></trkpt><trkpt lat="14.579805980143522" lon="120.99926220105051"><ele>7.0</ele><time>2026-04-01T06:16:00.001Z</time></trkpt><trkpt lat="14.579904191695125" lon="120.9993381449257"><ele>8.0</ele><time>2026-04-01T06:16:01.001Z</time></trkpt><trkpt lat="14.58001380016381" lon="120.99940127765323"><ele>9.0</ele><time>2026-04-01T06:16:02.001Z</time></trkpt><trkpt lat="14.580109198073691" lon="120.99947330487319"><ele>10.0</ele><time>2026-04-01T06:16:03.001Z</time></trkpt><trkpt lat="14.58020777642942" lon="120.99954134976043"><ele>10.0</ele><time>2026-04-01T06:16:04.001Z</time></trkpt><trkpt lat="14.580325333335015" lon="120.99963607402668"><ele>10.0</ele><time>2026-04-01T06:16:05.001Z</time></trkpt><trkpt lat="14.580392324310049" lon="120.9996985843909"><ele>10.0</ele><time>2026-04-01T06:16:06.001Z</time></trkpt><trkpt lat="14.58045452936815" lon="120.99976250276735"><ele>10.0</ele><time>2026-04-01T06:16:07.001Z</time></trkpt><trkpt lat="14.580507346835764" lon="120.99981071560872"><ele>10.0</ele><time>2026-04-01T06:16:08Z</time></trkpt><trkpt lat="14.5805623477986" lon="120.99985709150542"><ele>9.6</ele><time>2026-04-01T06:16:09Z</time></trkpt><trkpt lat="14.580617760952775" lon="120.99990694581184"><ele>9.2</ele><time>2026-04-01T06:16:10Z</time></trkpt><trkpt lat="14.58070407493919" lon="120.99997942710056"><ele>8.8</ele><time>2026-04-01T06:16:12Z</time></trkpt><trkpt lat="14.580770847233403" lon="121.00002635223967"><ele>8.4</ele><time>2026-04-01T06:16:13Z</time></trkpt><trkpt lat="14.580838421917672" lon="121.00008568891332"><ele>8.0</ele><time>2026-04-01T06:16:14Z</time></trkpt><trkpt lat="14.580921295474397" lon="121.00015350963753"><ele>8.0</ele><time>2026-04-01T06:16:15Z</time></trkpt><trkpt lat="14.580991482709498" lon="121.00021800556104"><ele>8.0</ele><time>2026-04-01T06:16:16Z</time></trkpt><trkpt lat="14.581062113604881" lon="121.00027904499794"><ele>8.0</ele><time>2026-04-01T06:16:17Z</time></trkpt><trkpt lat="14.58114077379935" lon="121.00035298213413"><ele>8.0</ele><time>2026-04-01T06:16:18Z</time></trkpt><trkpt lat="14.581225313479257" lon="121.00043082285184"><ele>8.0</ele><time>2026-04-01T06:16:19Z</time></trkpt><trkpt lat="14.581318142219898" lon="121.00050926056333"><ele>8.0</ele><time>2026-04-01T06:16:20Z</time></trkpt><trkpt lat="14.581420248941402" lon="121.00059380000263"><ele>8.0</ele><time>2026-04-01T06:16:21Z</time></trkpt><trkpt lat="14.581526916879435" lon="121.00067068167616"><ele>8.0</ele><time>2026-04-01T06:16:22Z</time></trkpt><trkpt lat="14.581634807369841" lon="121.0007680780264"><ele>8.0</ele><time>2026-04-01T06:16:23Z</time></trkpt><trkpt lat="14.58173593876758" lon="121.00085502784334"><ele>8.200000000000001</ele><time>2026-04-01T06:16:24Z</time></trkpt><trkpt lat="14.581824449136535" lon="121.00092748838952"><ele>8.4</ele><time>2026-04-01T06:16:25Z</time></trkpt><trkpt lat="14.58188917284673" lon="121.00099087449382"><ele>8.600000000000001</ele><time>2026-04-01T06:16:26Z</time></trkpt><trkpt lat="14.581966612895194" lon="121.00105969461077"><ele>8.8</ele><time>2026-04-01T06:16:27Z</time></trkpt><trkpt lat="14.582019389642868" lon="121.00111046594064"><ele>9.0</ele><time>2026-04-01T06:16:28Z</time></trkpt><trkpt lat="14.582092634191753" lon="121.00117366981468"><ele>9.0</ele><time>2026-04-01T06:16:30Z</time></trkpt><trkpt lat="14.582148285181423" lon="121.0012148640073"><ele>9.0</ele><time>2026-04-01T06:16:32Z</time></trkpt><trkpt lat="14.582232329339735" lon="121.00129646744504"><ele>9.0</ele><time>2026-04-01T06:16:34Z</time></trkpt><trkpt lat="14.582286772668505" lon="121.00134763075329"><ele>9.0</ele><time>2026-04-01T06:16:35Z</time></trkpt><trkpt lat="14.582348808674217" lon="121.00139956322431"><ele>9.0</ele><time>2026-04-01T06:16:36Z</time></trkpt><trkpt lat="14.582416235767813" lon="121.00147069986886"><ele>9.0</ele><time>2026-04-01T06:16:37Z</time></trkpt><trkpt lat="14.58249053332803" lon="121.00152593809659"><ele>9.0</ele><time>2026-04-01T06:16:38Z</time></trkpt><trkpt lat="14.582556085123988" lon="121.00158225662881"><ele>9.0</ele><time>2026-04-01T06:16:39Z</time></trkpt><trkpt lat="14.582622572970834" lon="121.00164319785759"><ele>9.0</ele><time>2026-04-01T06:16:40Z</time></trkpt><trkpt lat="14.582693687730211" lon="121.00171316866553"><ele>9.0</ele><time>2026-04-01T06:16:41Z</time></trkpt><trkpt lat="14.582772663797293" lon="121.00179064740196"><ele>9.0</ele><time>2026-04-01T06:16:42Z</time></trkpt><trkpt lat="14.582856519991237" lon="121.0018649119194"><ele>8.8</ele><time>2026-04-01T06:16:43Z</time></trkpt><trkpt lat="14.582923752394558" lon="121.00193353125339"><ele>8.600000000000001</ele><time>2026-04-01T06:16:44Z</time></trkpt><trkpt lat="14.582993152227484" lon="121.00200528638938"><ele>8.4</ele><time>2026-04-01T06:16:45Z</time></trkpt><trkpt lat="14.583065662889528" lon="121.00207301160654"><ele>8.200000000000001</ele><time>2026-04-01T06:16:46Z</time></trkpt><trkpt lat="14.583143821401483" lon="121.00214772983175"><ele>8.0</ele><time>2026-04-01T06:16:47Z</time></trkpt><trkpt lat="14.583224378933167" lon="121.0022170778599"><ele>8.0</ele><time>2026-04-01T06:16:48Z</time></trkpt><trkpt lat="14.583304734207484" lon="121.00229301672792"><ele>8.0</ele><time>2026-04-01T06:16:49Z</time></trkpt><trkpt lat="14.583393589804096" lon="121.00236701859286"><ele>8.0</ele><time>2026-04-01T06:16:50Z</time></trkpt><trkpt lat="14.583490461494891" lon="121.00244778854794"><ele>8.0</ele><time>2026-04-01T06:16:51Z</time></trkpt><trkpt lat="14.583563558571429" lon="121.00251164669112"><ele>8.0</ele><time>2026-04-01T06:16:52Z</time></trkpt><trkpt lat="14.583658162657795" lon="121.00256662664896"><ele>7.800000000000001</ele><time>2026-04-01T06:16:53Z</time></trkpt><trkpt lat="14.583729210435639" lon="121.00260897632229"><ele>7.6000000000000005</ele><time>2026-04-01T06:16:54Z</time></trkpt><trkpt lat="14.583828057569605" lon="121.00264092269124"><ele>7.3999999999999995</ele><time>2026-04-01T06:16:55Z</time></trkpt><trkpt lat="14.583924896950702" lon="121.00266828356403"><ele>7.199999999999999</ele><time>2026-04-01T06:16:56Z</time></trkpt><trkpt lat="14.584025080378412" lon="121.00266807577688"><ele>7.0</ele><time>2026-04-01T06:16:57Z</time></trkpt><trkpt lat="14.584121310698562" lon="121.00264674931788"><ele>7.0</ele><time>2026-04-01T06:16:58Z</time></trkpt><trkpt lat="14.584201460630897" lon="121.00260742298917"><ele>6.999999999999999</ele><time>2026-04-01T06:16:59Z</time></trkpt><trkpt lat="14.58429084652645" lon="121.00256596588034"><ele>6.999999999999999</ele><time>2026-04-01T06:17:00Z</time></trkpt><trkpt lat="14.584376104705386" lon="121.0025004680981"><ele>7.0</ele><time>2026-04-01T06:17:01Z</time></trkpt><trkpt lat="14.584470076548309" lon="121.00245393834949"><ele>7.0</ele><time>2026-04-01T06:17:02Z</time></trkpt><trkpt lat="14.58457726692871" lon="121.00240573271955"><ele>7.199999999999999</ele><time>2026-04-01T06:17:03Z</time></trkpt><trkpt lat="14.584663541955267" lon="121.00236942461918"><ele>7.3999999999999995</ele><time>2026-04-01T06:17:04Z</time></trkpt><trkpt lat="14.584757385427357" lon="121.00233630963446"><ele>7.6000000000000005</ele><time>2026-04-01T06:17:05Z</time></trkpt><trkpt lat="14.584849852293067" lon="121.00230823079013"><ele>7.800000000000001</ele><time>2026-04-01T06:17:06Z</time></trkpt><trkpt lat="14.5849355342729" lon="121.00229435175517"><ele>8.0</ele><time>2026-04-01T06:17:07Z</time></trkpt><trkpt lat="14.585016797358055" lon="121.00227656578312"><ele>7.999999999999999</ele><time>2026-04-01T06:17:08.001Z</time></trkpt><trkpt lat="14.585096575410054" lon="121.00226611418971"><ele>8.0</ele><time>2026-04-01T06:17:09.001Z</time></trkpt><trkpt lat="14.585171989751707" lon="121.00225454183779"><ele>8.0</ele><time>2026-04-01T06:17:10.001Z</time></trkpt><trkpt lat="14.58524880154767" lon="121.00223082415621"><ele>8.0</ele><time>2026-04-01T06:17:11.001Z</time></trkpt><trkpt lat="14.58532895686615" lon="121.00220979074949"><ele>7.999999999999999</ele><time>2026-04-01T06:17:12.001Z</time></trkpt><trkpt lat="14.585414138626026" lon="121.00219446493534"><ele>8.0</ele><time>2026-04-01T06:17:13.001Z</time></trkpt><trkpt lat="14.585512752528478" lon="121.00218715615351"><ele>7.6000000000000005</ele><time>2026-04-01T06:17:14.001Z</time></trkpt><trkpt lat="14.585611097962927" lon="121.0021856893365"><ele>7.200000000000001</ele><time>2026-04-01T06:17:15.001Z</time></trkpt><trkpt lat="14.585727537079912" lon="121.00219640204912"><ele>6.8</ele><time>2026-04-01T06:17:16.001Z</time></trkpt><trkpt lat="14.585841525205769" lon="121.00217442532502"><ele>6.4</ele><time>2026-04-01T06:17:17.001Z</time></trkpt><trkpt lat="14.585951239613888" lon="121.00215793318132"><ele>6.0</ele><time>2026-04-01T06:17:18.001Z</time></trkpt><trkpt lat="14.586036167724307" lon="121.00215289724859"><ele>6.0</ele><time>2026-04-01T06:17:19.001Z</time></trkpt><trkpt lat="14.586102943021196" lon="121.0021366444129"><ele>6.0</ele><time>2026-04-01T06:17:20.001Z</time></trkpt><trkpt lat="14.586236821377154" lon="121.0021270668606"><ele>6.0</ele><time>2026-04-01T06:17:22.001Z</time></trkpt><trkpt lat="14.586301976454978" lon="121.00212059187521"><ele>6.0</ele><time>2026-04-01T06:17:23.001Z</time></trkpt><trkpt lat="14.586385592926305" lon="121.00211219494216"><ele>6.0</ele><time>2026-04-01T06:17:24.001Z</time></trkpt><trkpt lat="14.586483395179945" lon="121.0021029117853"><ele>7.0</ele><time>2026-04-01T06:17:25.001Z</time></trkpt><trkpt lat="14.586593333878442" lon="121.00209695529318"><ele>8.0</ele><time>2026-04-01T06:17:26.001Z</time></trkpt><trkpt lat="14.586715320030157" lon="121.00209571232669"><ele>9.0</ele><time>2026-04-01T06:17:27.001Z</time></trkpt><trkpt lat="14.586844222546873" lon="121.00208036800429"><ele>10.0</ele><time>2026-04-01T06:17:28.001Z</time></trkpt><trkpt lat="14.586971963971209" lon="121.00207014702109"><ele>10.0</ele><time>2026-04-01T06:17:29.001Z</time></trkpt><trkpt lat="14.587102929108944" lon="121.00205649321428"><ele>10.0</ele><time>2026-04-01T06:17:30.001Z</time></trkpt><trkpt lat="14.587233454214246" lon="121.00204907551641"><ele>10.0</ele><time>2026-04-01T06:17:31.001Z</time></trkpt><trkpt lat="14.58736165621014" lon="121.00204123062763"><ele>10.0</ele><time>2026-04-01T06:17:32.001Z</time></trkpt><trkpt lat="14.587498888342205" lon="121.0020280427961"><ele>10.0</ele><time>2026-04-01T06:17:33.001Z</time></trkpt><trkpt lat="14.58761933434776" lon="121.00202042961902"><ele>10.0</ele><time>2026-04-01T06:17:34.001Z</time></trkpt><trkpt lat="14.587735091504978" lon="121.00201046943663"><ele>10.0</ele><time>2026-04-01T06:17:35.001Z</time></trkpt><trkpt lat="14.587851986858322" lon="121.00200991945516"><ele>10.0</ele><time>2026-04-01T06:17:36.001Z</time></trkpt><trkpt lat="14.587975738056516" lon="121.00199667599533"><ele>9.0</ele><time>2026-04-01T06:17:37.001Z</time></trkpt><trkpt lat="14.588094257539264" lon="121.00199334124137"><ele>8.0</ele><time>2026-04-01T06:17:38.001Z</time></trkpt><trkpt lat="14.588204873084582" lon="121.00198797534728"><ele>7.0</ele><time>2026-04-01T06:17:39.001Z</time></trkpt><trkpt lat="14.588321799125643" lon="121.00197974642678"><ele>6.0</ele><time>2026-04-01T06:17:40.001Z</time></trkpt><trkpt lat="14.58844669292796" lon="121.00197097076021"><ele>6.0</ele><time>2026-04-01T06:17:41.001Z</time></trkpt><trkpt lat="14.588567747138246" lon="121.00196645395918"><ele>6.0</ele><time>2026-04-01T06:17:42.001Z</time></trkpt><trkpt lat="14.588689919091644" lon="121.00196139941329"><ele>6.0</ele><time>2026-04-01T06:17:43.001Z</time></trkpt><trkpt lat="14.588807457610992" lon="121.00195604000108"><ele>6.0</ele><time>2026-04-01T06:17:44.001Z</time></trkpt><trkpt lat="14.588925484719756" lon="121.00194833257943"><ele>6.0</ele><time>2026-04-01T06:17:45.001Z</time></trkpt><trkpt lat="14.589041987779726" lon="121.00194596360392"><ele>6.0</ele><time>2026-04-01T06:17:46.001Z</time></trkpt><trkpt lat="14.589167511288373" lon="121.00193410899277"><ele>6.0</ele><time>2026-04-01T06:17:47.001Z</time></trkpt><trkpt lat="14.58928908786765" lon="121.00192804549849"><ele>6.0</ele><time>2026-04-01T06:17:48.001Z</time></trkpt><trkpt lat="14.589410037636217" lon="121.00191970690439"><ele>6.0</ele><time>2026-04-01T06:17:49.001Z</time></trkpt><trkpt lat="14.589521849556753" lon="121.00191346234261"><ele>6.0</ele><time>2026-04-01T06:17:50.001Z</time></trkpt><trkpt lat="14.589625779782061" lon="121.00190537424614"><ele>6.0</ele><time>2026-04-01T06:17:51.001Z</time></trkpt><trkpt lat="14.589731345158375" lon="121.00189432364247"><ele>6.0</ele><time>2026-04-01T06:17:52.001Z</time></trkpt><trkpt lat="14.589834748275024" lon="121.00188771954909"><ele>6.0</ele><time>2026-04-01T06:17:53.001Z</time></trkpt><trkpt lat="14.589943210198001" lon="121.00187924585762"><ele>6.0</ele><time>2026-04-01T06:17:54.001Z</time></trkpt><trkpt lat="14.590043423294892" lon="121.00186708425524"><ele>6.0</ele><time>2026-04-01T06:17:55.001Z</time></trkpt><trkpt lat="14.590138622662629" lon="121.00186285537676"><ele>6.0</ele><time>2026-04-01T06:17:56.001Z</time></trkpt><trkpt lat="14.5902290364509" lon="121.00185202444361"><ele>6.0</ele><time>2026-04-01T06:17:57.001Z</time></trkpt><trkpt lat="14.590324009409736" lon="121.00183757042268"><ele>6.0</ele><time>2026-04-01T06:17:58.001Z</time></trkpt><trkpt lat="14.590419728127378" lon="121.00183014242403"><ele>5.8</ele><time>2026-04-01T06:17:59.001Z</time></trkpt><trkpt lat="14.590522975196997" lon="121.00181594058455"><ele>5.6</ele><time>2026-04-01T06:18:00.001Z</time></trkpt><trkpt lat="14.590625496887943" lon="121.00180993306037"><ele>5.4</ele><time>2026-04-01T06:18:01.001Z</time></trkpt><trkpt lat="14.590724429717058" lon="121.00180072683888"><ele>5.2</ele><time>2026-04-01T06:18:02.001Z</time></trkpt><trkpt lat="14.590815393710027" lon="121.0017871114157"><ele>5.0</ele><time>2026-04-01T06:18:03.001Z</time></trkpt><trkpt lat="14.590898642521825" lon="121.00177502731087"><ele>5.0</ele><time>2026-04-01T06:18:04.001Z</time></trkpt><trkpt lat="14.590973221180914" lon="121.00176381162633"><ele>5.0</ele><time>2026-04-01T06:18:05.001Z</time></trkpt><trkpt lat="14.591083370898575" lon="121.00175854618321"><ele>5.0</ele><time>2026-04-01T06:18:07.001Z</time></trkpt><trkpt lat="14.591212438794717" lon="121.00174638328642"><ele>5.0</ele><time>2026-04-01T06:18:09.001Z</time></trkpt><trkpt lat="14.591292246872982" lon="121.00173826899687"><ele>5.0</ele><time>2026-04-01T06:18:10.001Z</time></trkpt><trkpt lat="14.591387001325737" lon="121.00172417993393"><ele>4.833333333333334</ele><time>2026-04-01T06:18:11.001Z</time></trkpt><trkpt lat="14.591477350289814" lon="121.00171812948234"><ele>4.666666666666667</ele><time>2026-04-01T06:18:12.001Z</time></trkpt><trkpt lat="14.591574158482693" lon="121.00171156868326"><ele>4.5</ele><time>2026-04-01T06:18:13Z</time></trkpt><trkpt lat="14.591664291727435" lon="121.00170539072"><ele>4.333333333333333</ele><time>2026-04-01T06:18:14Z</time></trkpt><trkpt lat="14.591741230431406" lon="121.00169606554785"><ele>4.166666666666666</ele><time>2026-04-01T06:18:15Z</time></trkpt><trkpt lat="14.591814179616206" lon="121.00169104522092"><ele>4.0</ele><time>2026-04-01T06:18:16Z</time></trkpt><trkpt lat="14.591877574610141" lon="121.0016888351538"><ele>3.9999999999999996</ele><time>2026-04-01T06:18:17Z</time></trkpt><trkpt lat="14.591965370661192" lon="121.00168449071407"><ele>4.0</ele><time>2026-04-01T06:18:19Z</time></trkpt><trkpt lat="14.59203555952584" lon="121.00168895822524"><ele>4.0</ele><time>2026-04-01T06:18:23Z</time></trkpt><trkpt lat="14.592109556240807" lon="121.00170445370172"><ele>4.0</ele><time>2026-04-01T06:18:29Z</time></trkpt><trkpt lat="14.592183528361566" lon="121.0016940749309"><ele>3.9999999999999996</ele><time>2026-04-01T06:18:43Z</time></trkpt><trkpt lat="14.592297216399668" lon="121.00169654728964"><ele>4.0</ele><time>2026-04-01T06:18:45.001Z</time></trkpt><trkpt lat="14.592408041018174" lon="121.00169648199049"><ele>3.6666666666666665</ele><time>2026-04-01T06:18:47.001Z</time></trkpt><trkpt lat="14.592472981973367" lon="121.00169323189766"><ele>3.333333333333333</ele><time>2026-04-01T06:18:48.001Z</time></trkpt><trkpt lat="14.592563741082964" lon="121.00168894549867"><ele>3.0</ele><time>2026-04-01T06:18:50.001Z</time></trkpt><trkpt lat="14.59264656492529" lon="121.00168544311505"><ele>2.6666666666666665</ele><time>2026-04-01T06:18:52.001Z</time></trkpt><trkpt lat="14.592745467650962" lon="121.0016794051269"><ele>2.333333333333333</ele><time>2026-04-01T06:18:54.001Z</time></trkpt><trkpt lat="14.59283065162141" lon="121.00167208002846"><ele>2.0</ele><time>2026-04-01T06:18:56.001Z</time></trkpt><trkpt lat="14.59292095332128" lon="121.0016635423909"><ele>3.333333333333333</ele><time>2026-04-01T06:18:58.001Z</time></trkpt><trkpt lat="14.592984737022606" lon="121.00166277213131"><ele>4.666666666666667</ele><time>2026-04-01T06:18:59.001Z</time></trkpt><trkpt lat="14.59311589082272" lon="121.0016507347881"><ele>6.0</ele><time>2026-04-01T06:19:01.001Z</time></trkpt><trkpt lat="14.59318662523935" lon="121.00164532200269"><ele>7.333333333333334</ele><time>2026-04-01T06:19:02.001Z</time></trkpt><trkpt lat="14.593264991747773" lon="121.00164206542287"><ele>8.666666666666668</ele><time>2026-04-01T06:19:03.001Z</time></trkpt><trkpt lat="14.593344465150874" lon="121.00162813682843"><ele>10.0</ele><time>2026-04-01T06:19:04.001Z</time></trkpt><trkpt lat="14.593426746078537" lon="121.00160952823498"><ele>10.0</ele><time>2026-04-01T06:19:05.001Z</time></trkpt><trkpt lat="14.59351825291173" lon="121.0015964927934"><ele>10.0</ele><time>2026-04-01T06:19:06.001Z</time></trkpt><trkpt lat="14.593630158415316" lon="121.0015836064272"><ele>10.0</ele><time>2026-04-01T06:19:07.001Z</time></trkpt><trkpt lat="14.593734327013683" lon="121.00157307922932"><ele>10.0</ele><time>2026-04-01T06:19:08.001Z</time></trkpt><trkpt lat="14.59384113310187" lon="121.00156939031528"><ele>10.0</ele><time>2026-04-01T06:19:09.001Z</time></trkpt><trkpt lat="14.593938147318724" lon="121.0015668085116"><ele>9.166666666666668</ele><time>2026-04-01T06:19:10.001Z</time></trkpt><trkpt lat="14.594032666569452" lon="121.00156107957531"><ele>8.333333333333334</ele><time>2026-04-01T06:19:11.001Z</time></trkpt><trkpt lat="14.594112187587893" lon="121.00155703929418"><ele>7.5</ele><time>2026-04-01T06:19:12.001Z</time></trkpt><trkpt lat="14.594192262523677" lon="121.0015520274492"><ele>6.666666666666667</ele><time>2026-04-01T06:19:13.001Z</time></trkpt><trkpt lat="14.594279349661443" lon="121.00154079854494"><ele>5.833333333333334</ele><time>2026-04-01T06:19:14.001Z</time></trkpt><trkpt lat="14.594364923517402" lon="121.001537080121"><ele>5.0</ele><time>2026-04-01T06:19:15.001Z</time></trkpt><trkpt lat="14.594461867849718" lon="121.00152953915078"><ele>6.0</ele><time>2026-04-01T06:19:16.001Z</time></trkpt><trkpt lat="14.59455788770722" lon="121.00152748827233"><ele>7.0</ele><time>2026-04-01T06:19:17.001Z</time></trkpt><trkpt lat="14.594650704034333" lon="121.00152119778197"><ele>8.0</ele><time>2026-04-01T06:19:18.001Z</time></trkpt><trkpt lat="14.594755416687802" lon="121.00151371967544"><ele>9.0</ele><time>2026-04-01T06:19:19.001Z</time></trkpt><trkpt lat="14.59487100130707" lon="121.00150164740998"><ele>10.0</ele><time>2026-04-01T06:19:20.001Z</time></trkpt><trkpt lat="14.594998374053539" lon="121.00147942414632"><ele>10.0</ele><time>2026-04-01T06:19:21.001Z</time></trkpt><trkpt lat="14.595131378413798" lon="121.00148016016921"><ele>10.0</ele><time>2026-04-01T06:19:22.001Z</time></trkpt><trkpt lat="14.595261179408414" lon="121.00147166607803"><ele>10.0</ele><time>2026-04-01T06:19:23.001Z</time></trkpt><trkpt lat="14.595408822740737" lon="121.0014621488375"><ele>10.0</ele><time>2026-04-01T06:19:24.001Z</time></trkpt><trkpt lat="14.595500794720866" lon="121.0014728631183"><ele>8.75</ele><time>2026-04-01T06:19:26.001Z</time></trkpt><trkpt lat="14.595616846784928" lon="121.00146885542044"><ele>7.5</ele><time>2026-04-01T06:19:27.001Z</time></trkpt><trkpt lat="14.595726991312644" lon="121.00146278518393"><ele>6.25</ele><time>2026-04-01T06:19:28.001Z</time></trkpt><trkpt lat="14.595836603935924" lon="121.00145422673043"><ele>5.0</ele><time>2026-04-01T06:19:29.001Z</time></trkpt><trkpt lat="14.595951974041013" lon="121.00144192195731"><ele>5.0</ele><time>2026-04-01T06:19:30.001Z</time></trkpt><trkpt lat="14.596065723780336" lon="121.00143080663588"><ele>5.0</ele><time>2026-04-01T06:19:31.001Z</time></trkpt><trkpt lat="14.596170795735562" lon="121.00142762108887"><ele>5.0</ele><time>2026-04-01T06:19:32.001Z</time></trkpt><trkpt lat="14.596266992060208" lon="121.00142759252202"><ele>5.0</ele><time>2026-04-01T06:19:33.001Z</time></trkpt><trkpt lat="14.596362554167468" lon="121.0014231641707"><ele>5.0</ele><time>2026-04-01T06:19:34.001Z</time></trkpt><trkpt lat="14.596456931753371" lon="121.00141787360604"><ele>4.6</ele><time>2026-04-01T06:19:35.001Z</time></trkpt><trkpt lat="14.596547128918818" lon="121.00141196347636"><ele>4.2</ele><time>2026-04-01T06:19:36.001Z</time></trkpt><trkpt lat="14.59663613730788" lon="121.00140450110268"><ele>3.8</ele><time>2026-04-01T06:19:37.001Z</time></trkpt><trkpt lat="14.596725344603726" lon="121.0013970953369"><ele>3.4</ele><time>2026-04-01T06:19:38.001Z</time></trkpt><trkpt lat="14.596821771264187" lon="121.0013913459708"><ele>3.0</ele><time>2026-04-01T06:19:39.001Z</time></trkpt><trkpt lat="14.59692156667054" lon="121.00137971873417"><ele>3.8</ele><time>2026-04-01T06:19:40.001Z</time></trkpt><trkpt lat="14.597025889946368" lon="121.00136595118326"><ele>4.6</ele><time>2026-04-01T06:19:41.001Z</time></trkpt><trkpt lat="14.597129497272611" lon="121.00134322523016"><ele>5.3999999999999995</ele><time>2026-04-01T06:19:42.001Z</time></trkpt><trkpt lat="14.597241428057666" lon="121.00131776788399"><ele>6.199999999999999</ele><time>2026-04-01T06:19:43.001Z</time></trkpt><trkpt lat="14.59735902135423" lon="121.0012870599492"><ele>7.0</ele><time>2026-04-01T06:19:44.001Z</time></trkpt><trkpt lat="14.597481184201076" lon="121.00125046539284"><ele>7.0</ele><time>2026-04-01T06:19:45.001Z</time></trkpt><trkpt lat="14.597595302075673" lon="121.00120194997903"><ele>7.0</ele><time>2026-04-01T06:19:46.001Z</time></trkpt><trkpt lat="14.597702412154998" lon="121.00114756176619"><ele>7.0</ele><time>2026-04-01T06:19:47.001Z</time></trkpt><trkpt lat="14.597798611670727" lon="121.00109634183316"><ele>7.0</ele><time>2026-04-01T06:19:48.001Z</time></trkpt><trkpt lat="14.59788707276329" lon="121.0010472875169"><ele>7.000000000000001</ele><time>2026-04-01T06:19:49.001Z</time></trkpt><trkpt lat="14.597974719105741" lon="121.00100765281344"><ele>7.0</ele><time>2026-04-01T06:19:50.001Z</time></trkpt><trkpt lat="14.598055105345125" lon="121.00097306358553"><ele>7.0</ele><time>2026-04-01T06:19:51.001Z</time></trkpt><trkpt lat="14.598154819241605" lon="121.00091725349343"><ele>7.0</ele><time>2026-04-01T06:19:53.001Z</time></trkpt><trkpt lat="14.598229137013005" lon="121.00087521791629"><ele>7.000000000000001</ele><time>2026-04-01T06:19:55.001Z</time></trkpt><trkpt lat="14.598286921250548" lon="121.00084523509553"><ele>7.0</ele><time>2026-04-01T06:19:57.001Z</time></trkpt><trkpt lat="14.59837631074864" lon="121.00079963001843"><ele>7.0</ele><time>2026-04-01T06:20:00.001Z</time></trkpt><trkpt lat="14.598468914253363" lon="121.00076341989927"><ele>6.999999999999999</ele><time>2026-04-01T06:20:02.001Z</time></trkpt><trkpt lat="14.598533258829745" lon="121.00072847943875"><ele>6.999999999999999</ele><time>2026-04-01T06:20:03.001Z</time></trkpt><trkpt lat="14.598612862656015" lon="121.00068066237466"><ele>7.0</ele><time>2026-04-01T06:20:04.001Z</time></trkpt><trkpt lat="14.598707905480575" lon="121.00062669151168"><ele>7.0</ele><time>2026-04-01T06:20:05.001Z</time></trkpt><trkpt lat="14.598813009713584" lon="121.00057480680131"><ele>6.5</ele><time>2026-04-01T06:20:06.001Z</time></trkpt><trkpt lat="14.598924106991632" lon="121.00053159739205"><ele>6.0</ele><time>2026-04-01T06:20:07.001Z</time></trkpt><trkpt lat="14.599009044732929" lon="121.00048787978528"><ele>5.5</ele><time>2026-04-01T06:20:08.001Z</time></trkpt><trkpt lat="14.59909109658343" lon="121.00045362470632"><ele>5.0</ele><time>2026-04-01T06:20:09.001Z</time></trkpt><trkpt lat="14.599223257332625" lon="121.0003737366043"><ele>5.0</ele><time>2026-04-01T06:20:10.001Z</time></trkpt><trkpt lat="14.59934262980816" lon="121.00031809827793"><ele>5.0</ele><time>2026-04-01T06:20:11.001Z</time></trkpt><trkpt lat="14.599466393963441" lon="121.00025435735749"><ele>5.0</ele><time>2026-04-01T06:20:12.001Z</time></trkpt><trkpt lat="14.599587862282275" lon="121.00019171127714"><ele>5.0</ele><time>2026-04-01T06:20:13.001Z</time></trkpt><trkpt lat="14.599711774527208" lon="121.0001271497021"><ele>4.75</ele><time>2026-04-01T06:20:14.001Z</time></trkpt><trkpt lat="14.599838454079812" lon="121.00006155133309"><ele>4.5</ele><time>2026-04-01T06:20:15.001Z</time></trkpt><trkpt lat="14.599969673901912" lon="120.99999335136987"><ele>4.25</ele><time>2026-04-01T06:20:16.001Z</time></trkpt><trkpt lat="14.600100350486562" lon="120.99992081892918"><ele>4.0</ele><time>2026-04-01T06:20:17.001Z</time></trkpt><trkpt lat="14.600228670988994" lon="120.99984475820938"><ele>5.666666666666666</ele><time>2026-04-01T06:20:18.001Z</time></trkpt><trkpt lat="14.60035908446751" lon="120.9997707919513"><ele>7.333333333333333</ele><time>2026-04-01T06:20:19.001Z</time></trkpt><trkpt lat="14.600490421652962" lon="120.99970081732181"><ele>9.0</ele><time>2026-04-01T06:20:20.001Z</time></trkpt><trkpt lat="14.60062821795735" lon="120.99962779188701"><ele>9.0</ele><time>2026-04-01T06:20:21.001Z</time></trkpt><trkpt lat="14.600766181185389" lon="120.99955332728665"><ele>9.0</ele><time>2026-04-01T06:20:22.001Z</time></trkpt><trkpt lat="14.600905942565165" lon="120.99948348215489"><ele>9.0</ele><time>2026-04-01T06:20:23.001Z</time></trkpt><trkpt lat="14.601042811732558" lon="120.99941444000557"><ele>8.75</ele><time>2026-04-01T06:20:24.001Z</time></trkpt><trkpt lat="14.601172192044457" lon="120.99934573768296"><ele>8.5</ele><time>2026-04-01T06:20:25.001Z</time></trkpt><trkpt lat="14.60129530604863" lon="120.99928390356149"><ele>8.25</ele><time>2026-04-01T06:20:26.001Z</time></trkpt><trkpt lat="14.601420661223864" lon="120.99921818391435"><ele>8.0</ele><time>2026-04-01T06:20:27.001Z</time></trkpt><trkpt lat="14.60154477588939" lon="120.99915369243067"><ele>8.0</ele><time>2026-04-01T06:20:28.001Z</time></trkpt><trkpt lat="14.601668663671196" lon="120.99908856264983"><ele>8.0</ele><time>2026-04-01T06:20:29.001Z</time></trkpt><trkpt lat="14.601796046571254" lon="120.99902129441048"><ele>8.0</ele><time>2026-04-01T06:20:30.001Z</time></trkpt><trkpt lat="14.601926567794978" lon="120.99895263387148"><ele>8.0</ele><time>2026-04-01T06:20:31.001Z</time></trkpt><trkpt lat="14.602064657078394" lon="120.99888292091674"><ele>8.0</ele><time>2026-04-01T06:20:32.001Z</time></trkpt><trkpt lat="14.602202408715945" lon="120.99881363953209"><ele>8.0</ele><time>2026-04-01T06:20:33.001Z</time></trkpt><trkpt lat="14.602328148145544" lon="120.99876122717401"><ele>8.0</ele><time>2026-04-01T06:20:34.001Z</time></trkpt><trkpt lat="14.602461928980784" lon="120.99868238053249"><ele>8.0</ele><time>2026-04-01T06:20:35.001Z</time></trkpt><trkpt lat="14.602598230415998" lon="120.99861594226317"><ele>8.0</ele><time>2026-04-01T06:20:36.001Z</time></trkpt><trkpt lat="14.602737579862785" lon="120.99854046943571"><ele>8.0</ele><time>2026-04-01T06:20:37.001Z</time></trkpt><trkpt lat="14.6028728801184" lon="120.99846934976166"><ele>8.0</ele><time>2026-04-01T06:20:38.001Z</time></trkpt><trkpt lat="14.603014315167215" lon="120.9983903869299"><ele>7.0</ele><time>2026-04-01T06:20:39.001Z</time></trkpt><trkpt lat="14.603155096683693" lon="120.99832916836387"><ele>6.0</ele><time>2026-04-01T06:20:40.001Z</time></trkpt><trkpt lat="14.60328382408043" lon="120.99826447769182"><ele>5.0</ele><time>2026-04-01T06:20:41.001Z</time></trkpt><trkpt lat="14.60339953568898" lon="120.9982127813903"><ele>4.0</ele><time>2026-04-01T06:20:42.001Z</time></trkpt><trkpt lat="14.603519018220162" lon="120.99815699481661"><ele>4.0</ele><time>2026-04-01T06:20:43.001Z</time></trkpt><trkpt lat="14.603628753665891" lon="120.99811269206748"><ele>4.0</ele><time>2026-04-01T06:20:44.001Z</time></trkpt><trkpt lat="14.603727900702797" lon="120.99805015821721"><ele>4.0</ele><time>2026-04-01T06:20:45.001Z</time></trkpt><trkpt lat="14.603831501431758" lon="120.99799775651378"><ele>4.0</ele><time>2026-04-01T06:20:46.001Z</time></trkpt><trkpt lat="14.603926019813663" lon="120.99794880424692"><ele>4.0</ele><time>2026-04-01T06:20:47.001Z</time></trkpt><trkpt lat="14.604014495142762" lon="120.99790040652272"><ele>4.0</ele><time>2026-04-01T06:20:48.001Z</time></trkpt><trkpt lat="14.604107667644323" lon="120.9978570630674"><ele>4.0</ele><time>2026-04-01T06:20:49.001Z</time></trkpt><trkpt lat="14.604207020996332" lon="120.99780989376532"><ele>4.0</ele><time>2026-04-01T06:20:50.001Z</time></trkpt><trkpt lat="14.604306861883526" lon="120.99776021791382"><ele>4.0</ele><time>2026-04-01T06:20:51.001Z</time></trkpt><trkpt lat="14.60440184327415" lon="120.99770391601382"><ele>4.0</ele><time>2026-04-01T06:20:52.001Z</time></trkpt><trkpt lat="14.604486111081087" lon="120.99765694364635"><ele>4.0</ele><time>2026-04-01T06:20:53.001Z</time></trkpt><trkpt lat="14.60457133148516" lon="120.99761638353237"><ele>4.0</ele><time>2026-04-01T06:20:54.001Z</time></trkpt><trkpt lat="14.604656293257031" lon="120.99756714322906"><ele>4.0</ele><time>2026-04-01T06:20:55.001Z</time></trkpt><trkpt lat="14.604742121575516" lon="120.99752204594111"><ele>4.0</ele><time>2026-04-01T06:20:56.001Z</time></trkpt><trkpt lat="14.604832021578067" lon="120.99746535376809"><ele>4.800000000000001</ele><time>2026-04-01T06:20:57.001Z</time></trkpt><trkpt lat="14.604914258671235" lon="120.99740593341858"><ele>5.6000000000000005</ele><time>2026-04-01T06:20:58.001Z</time></trkpt><trkpt lat="14.605004797801206" lon="120.9973429984967"><ele>6.4</ele><time>2026-04-01T06:20:59.001Z</time></trkpt><trkpt lat="14.605093114384921" lon="120.99728192609712"><ele>7.2</ele><time>2026-04-01T06:21:00.001Z</time></trkpt><trkpt lat="14.605180806891218" lon="120.9972113960949"><ele>8.0</ele><time>2026-04-01T06:21:01.001Z</time></trkpt><trkpt lat="14.605279148534017" lon="120.9971309685788"><ele>8.25</ele><time>2026-04-01T06:21:02.001Z</time></trkpt><trkpt lat="14.605366877316483" lon="120.99706215096019"><ele>8.5</ele><time>2026-04-01T06:21:03.001Z</time></trkpt><trkpt lat="14.60546011573191" lon="120.9969763595797"><ele>8.75</ele><time>2026-04-01T06:21:04.001Z</time></trkpt><trkpt lat="14.605564716376051" lon="120.99687085227387"><ele>9.0</ele><time>2026-04-01T06:21:05.001Z</time></trkpt><trkpt lat="14.60566272050488" lon="120.99677022160101"><ele>9.0</ele><time>2026-04-01T06:21:06.001Z</time></trkpt><trkpt lat="14.605760066029976" lon="120.99668320904046"><ele>9.0</ele><time>2026-04-01T06:21:07.001Z</time></trkpt><trkpt lat="14.605856648538978" lon="120.99659394952195"><ele>9.0</ele><time>2026-04-01T06:21:08.001Z</time></trkpt><trkpt lat="14.605955356809819" lon="120.99650071193035"><ele>9.0</ele><time>2026-04-01T06:21:09.001Z</time></trkpt><trkpt lat="14.606050785635093" lon="120.99641783047764"><ele>8.75</ele><time>2026-04-01T06:21:10.001Z</time></trkpt><trkpt lat="14.606146317095494" lon="120.99632234194661"><ele>8.5</ele><time>2026-04-01T06:21:11.001Z</time></trkpt><trkpt lat="14.606235152107578" lon="120.99623392305818"><ele>8.25</ele><time>2026-04-01T06:21:12.001Z</time></trkpt><trkpt lat="14.606314497908784" lon="120.99615330356619"><ele>8.0</ele><time>2026-04-01T06:21:13.001Z</time></trkpt><trkpt lat="14.60639510672945" lon="120.99607620513451"><ele>7.75</ele><time>2026-04-01T06:21:14.001Z</time></trkpt><trkpt lat="14.606482779800718" lon="120.99598946901784"><ele>7.5</ele><time>2026-04-01T06:21:15.001Z</time></trkpt><trkpt lat="14.606569764141511" lon="120.99590925198872"><ele>7.25</ele><time>2026-04-01T06:21:16.001Z</time></trkpt><trkpt lat="14.606659533486726" lon="120.99582478728176"><ele>7.0</ele><time>2026-04-01T06:21:17.001Z</time></trkpt><trkpt lat="14.606752417229954" lon="120.99573683381283"><ele>7.0</ele><time>2026-04-01T06:21:18.001Z</time></trkpt><trkpt lat="14.606850251502843" lon="120.99564302120764"><ele>7.0</ele><time>2026-04-01T06:21:19.001Z</time></trkpt><trkpt lat="14.606945870230652" lon="120.9955454241323"><ele>7.0</ele><time>2026-04-01T06:21:20.001Z</time></trkpt><trkpt lat="14.607046829034026" lon="120.99544626069112"><ele>7.0</ele><time>2026-04-01T06:21:21.001Z</time></trkpt><trkpt lat="14.607144717016142" lon="120.99535168297012"><ele>6.5</ele><time>2026-04-01T06:21:22.001Z</time></trkpt><trkpt lat="14.607235757778383" lon="120.99526353076286"><ele>6.0</ele><time>2026-04-01T06:21:23.001Z</time></trkpt><trkpt lat="14.607320111604695" lon="120.99517943906388"><ele>5.5</ele><time>2026-04-01T06:21:24.001Z</time></trkpt><trkpt lat="14.607395891332864" lon="120.99510208180148"><ele>5.0</ele><time>2026-04-01T06:21:25.001Z</time></trkpt><trkpt lat="14.607471722223416" lon="120.99502191439498"><ele>5.75</ele><time>2026-04-01T06:21:26.001Z</time></trkpt><trkpt lat="14.607549417435447" lon="120.99493709401958"><ele>6.5</ele><time>2026-04-01T06:21:27.001Z</time></trkpt><trkpt lat="14.607629907094633" lon="120.99484513484147"><ele>7.25</ele><time>2026-04-01T06:21:28.001Z</time></trkpt><trkpt lat="14.60771716540766" lon="120.9947468060841"><ele>8.0</ele><time>2026-04-01T06:21:29.001Z</time></trkpt><trkpt lat="14.607816951224331" lon="120.99464861423881"><ele>7.5</ele><time>2026-04-01T06:21:30.001Z</time></trkpt><trkpt lat="14.607918131332523" lon="120.99456205203218"><ele>7.0</ele><time>2026-04-01T06:21:31.001Z</time></trkpt><trkpt lat="14.608010280891085" lon="120.99447509744986"><ele>6.5</ele><time>2026-04-01T06:21:32.001Z</time></trkpt><trkpt lat="14.608094177753765" lon="120.99439328189641"><ele>6.0</ele><time>2026-04-01T06:21:33.001Z</time></trkpt><trkpt lat="14.608178158426576" lon="120.99431820289097"><ele>6.0</ele><time>2026-04-01T06:21:34.001Z</time></trkpt><trkpt lat="14.608253466003124" lon="120.99424799087487"><ele>6.0</ele><time>2026-04-01T06:21:35.001Z</time></trkpt><trkpt lat="14.608315626095012" lon="120.99418796877892"><ele>6.0</ele><time>2026-04-01T06:21:36.001Z</time></trkpt><trkpt lat="14.608374826627859" lon="120.9941303711444"><ele>6.0</ele><time>2026-04-01T06:21:37.001Z</time></trkpt><trkpt lat="14.60842943972796" lon="120.99409102289513"><ele>6.0</ele><time>2026-04-01T06:21:38.001Z</time></trkpt><trkpt lat="14.608478681851757" lon="120.99404518231448"><ele>6.0</ele><time>2026-04-01T06:21:39.001Z</time></trkpt><trkpt lat="14.608547732363753" lon="120.99396503352926"><ele>6.166666666666667</ele><time>2026-04-01T06:21:41.001Z</time></trkpt><trkpt lat="14.608620252518062" lon="120.9939187600769"><ele>6.333333333333334</ele><time>2026-04-01T06:21:44.001Z</time></trkpt><trkpt lat="14.60869465787093" lon="120.99383367150081"><ele>6.5</ele><time>2026-04-01T06:21:47.001Z</time></trkpt><trkpt lat="14.608755245830455" lon="120.9938029143092"><ele>6.666666666666667</ele><time>2026-04-01T06:21:49.001Z</time></trkpt><trkpt lat="14.608812373390439" lon="120.99374992318721"><ele>6.833333333333334</ele><time>2026-04-01T06:21:52.001Z</time></trkpt><trkpt lat="14.608876960525302" lon="120.99369821480332"><ele>7.0</ele><time>2026-04-01T06:21:56.001Z</time></trkpt><trkpt lat="14.608927974422611" lon="120.99365212296212"><ele>6.714285714285714</ele><time>2026-04-01T06:21:59.001Z</time></trkpt><trkpt lat="14.60897520688161" lon="120.99359829197648"><ele>6.428571428571429</ele><time>2026-04-01T06:22:06.001Z</time></trkpt><trkpt lat="14.609028825817916" lon="120.99355391295965"><ele>6.142857142857142</ele><time>2026-04-01T06:22:11.001Z</time></trkpt><trkpt lat="14.609080664613005" lon="120.99351151007754"><ele>5.857142857142858</ele><time>2026-04-01T06:22:46.001Z</time></trkpt><trkpt lat="14.60913608757895" lon="120.99347108149335"><ele>5.571428571428571</ele><time>2026-04-01T06:22:49.001Z</time></trkpt><trkpt lat="14.609189011234088" lon="120.99342283745428"><ele>5.285714285714286</ele><time>2026-04-01T06:22:51.001Z</time></trkpt><trkpt lat="14.609266017406348" lon="120.99337700035937"><ele>5.0</ele><time>2026-04-01T06:22:54.001Z</time></trkpt><trkpt lat="14.609323971231401" lon="120.99330673805098"><ele>5.0</ele><time>2026-04-01T06:22:57.001Z</time></trkpt><trkpt lat="14.609433138046" lon="120.99334217721655"><ele>5.0</ele><time>2026-04-01T06:22:58.001Z</time></trkpt><trkpt lat="14.609519354464153" lon="120.99333189285065"><ele>5.0</ele><time>2026-04-01T06:22:59.001Z</time></trkpt><trkpt lat="14.609611736966057" lon="120.99333337341446"><ele>5.0</ele><time>2026-04-01T06:23:00.001Z</time></trkpt><trkpt lat="14.609704878475148" lon="120.99334202491495"><ele>5.0</ele><time>2026-04-01T06:23:01.001Z</time></trkpt><trkpt lat="14.609795574643735" lon="120.99334475460596"><ele>5.4</ele><time>2026-04-01T06:23:02.001Z</time></trkpt><trkpt lat="14.609872951978737" lon="120.99334540641328"><ele>5.8</ele><time>2026-04-01T06:23:03.001Z</time></trkpt><trkpt lat="14.609943566728969" lon="120.99334725803581"><ele>6.199999999999999</ele><time>2026-04-01T06:23:04.001Z</time></trkpt><trkpt lat="14.61004764918398" lon="120.99334625082878"><ele>6.6</ele><time>2026-04-01T06:23:06.001Z</time></trkpt><trkpt lat="14.610125517579245" lon="120.99336666547599"><ele>7.0</ele><time>2026-04-01T06:23:09.001Z</time></trkpt><trkpt lat="14.610215183587458" lon="120.99348397343732"><ele>7.000000000000001</ele><time>2026-04-01T06:23:11.001Z</time></trkpt><trkpt lat="14.610254933447981" lon="120.99355458074895"><ele>7.0</ele><time>2026-04-01T06:23:12.001Z</time></trkpt><trkpt lat="14.610303567016544" lon="120.99360470180709"><ele>7.0</ele><time>2026-04-01T06:23:13.001Z</time></trkpt><trkpt lat="14.610365440177278" lon="120.99368884125003"><ele>7.0</ele><time>2026-04-01T06:23:15.001Z</time></trkpt><trkpt lat="14.610409818372151" lon="120.99373557793255"><ele>7.000000000000001</ele><time>2026-04-01T06:23:16.001Z</time></trkpt><trkpt lat="14.610459276192033" lon="120.99378239255655"><ele>7.0</ele><time>2026-04-01T06:23:17.001Z</time></trkpt><trkpt lat="14.610505023790129" lon="120.99383988209539"><ele>7.199999999999999</ele><time>2026-04-01T06:23:18.001Z</time></trkpt><trkpt lat="14.610582621442093" lon="120.99391829859806"><ele>7.3999999999999995</ele><time>2026-04-01T06:23:20.001Z</time></trkpt><trkpt lat="14.610657284092218" lon="120.9939839898077"><ele>7.6000000000000005</ele><time>2026-04-01T06:23:22.001Z</time></trkpt><trkpt lat="14.610751069462939" lon="120.99407918757673"><ele>7.800000000000001</ele><time>2026-04-01T06:23:24.001Z</time></trkpt><trkpt lat="14.610808201495479" lon="120.99413809377286"><ele>8.0</ele><time>2026-04-01T06:23:25.001Z</time></trkpt><trkpt lat="14.6108699759175" lon="120.9941995128726"><ele>7.999999999999999</ele><time>2026-04-01T06:23:26.001Z</time></trkpt><trkpt lat="14.610921973969127" lon="120.99425928004865"><ele>8.0</ele><time>2026-04-01T06:23:27.001Z</time></trkpt><trkpt lat="14.61097108189947" lon="120.99432234900094"><ele>8.0</ele><time>2026-04-01T06:23:28.001Z</time></trkpt><trkpt lat="14.611036108506266" lon="120.99437797016513"><ele>8.0</ele><time>2026-04-01T06:23:29.001Z</time></trkpt><trkpt lat="14.611090996501849" lon="120.99443823552498"><ele>7.999999999999999</ele><time>2026-04-01T06:23:30.001Z</time></trkpt><trkpt lat="14.611139308649976" lon="120.99449815340442"><ele>8.0</ele><time>2026-04-01T06:23:31.001Z</time></trkpt><trkpt lat="14.611194166859788" lon="120.99455849622278"><ele>7.4</ele><time>2026-04-01T06:23:32.001Z</time></trkpt><trkpt lat="14.611241975126209" lon="120.99461435933127"><ele>6.800000000000001</ele><time>2026-04-01T06:23:33.001Z</time></trkpt><trkpt lat="14.611328397379816" lon="120.99470922535856"><ele>6.2</ele><time>2026-04-01T06:23:35.001Z</time></trkpt><trkpt lat="14.611374463719658" lon="120.9947578845114"><ele>5.6</ele><time>2026-04-01T06:23:36.001Z</time></trkpt><trkpt lat="14.611425436379882" lon="120.99481089696432"><ele>5.0</ele><time>2026-04-01T06:23:37.001Z</time></trkpt><trkpt lat="14.611512068665663" lon="120.99490179277093"><ele>5.0</ele><time>2026-04-01T06:23:39.001Z</time></trkpt><trkpt lat="14.611578359731409" lon="120.994974223033"><ele>5.0</ele><time>2026-04-01T06:23:41.001Z</time></trkpt><trkpt lat="14.611656779061615" lon="120.99505492856339"><ele>5.0</ele><time>2026-04-01T06:23:43.001Z</time></trkpt><trkpt lat="14.611705330661364" lon="120.99511013044035"><ele>5.0</ele><time>2026-04-01T06:23:44.001Z</time></trkpt><trkpt lat="14.611755466242343" lon="120.99516862768171"><ele>5.0</ele><time>2026-04-01T06:23:45.001Z</time></trkpt><trkpt lat="14.611812448983056" lon="120.99522940853578"><ele>5.0</ele><time>2026-04-01T06:23:46.001Z</time></trkpt><trkpt lat="14.611874996195281" lon="120.99529997740598"><ele>5.4</ele><time>2026-04-01T06:23:47.001Z</time></trkpt><trkpt lat="14.611937087802652" lon="120.99536912397214"><ele>5.8</ele><time>2026-04-01T06:23:48.001Z</time></trkpt><trkpt lat="14.611998441172501" lon="120.99544297250658"><ele>6.199999999999999</ele><time>2026-04-01T06:23:49.001Z</time></trkpt><trkpt lat="14.612067575807302" lon="120.99551559931231"><ele>6.6</ele><time>2026-04-01T06:23:50.001Z</time></trkpt><trkpt lat="14.612128890551354" lon="120.99558588010869"><ele>7.0</ele><time>2026-04-01T06:23:51.001Z</time></trkpt><trkpt lat="14.612198244788102" lon="120.99565777167214"><ele>7.166666666666667</ele><time>2026-04-01T06:23:52.001Z</time></trkpt><trkpt lat="14.61225452360368" lon="120.9957273132221"><ele>7.333333333333334</ele><time>2026-04-01T06:23:53.001Z</time></trkpt><trkpt lat="14.612307710148032" lon="120.99579113999467"><ele>7.5</ele><time>2026-04-01T06:23:54.001Z</time></trkpt><trkpt lat="14.612369889060732" lon="120.99585758254891"><ele>7.666666666666666</ele><time>2026-04-01T06:23:55.001Z</time></trkpt><trkpt lat="14.612430947276923" lon="120.9959274558341"><ele>7.833333333333333</ele><time>2026-04-01T06:23:56.001Z</time></trkpt><trkpt lat="14.612498110110408" lon="120.99599936372068"><ele>8.0</ele><time>2026-04-01T06:23:57.001Z</time></trkpt><trkpt lat="14.612563762605255" lon="120.99607560240742"><ele>7.666666666666666</ele><time>2026-04-01T06:23:58.001Z</time></trkpt><trkpt lat="14.6126215783809" lon="120.99614159212149"><ele>7.333333333333333</ele><time>2026-04-01T06:23:59.001Z</time></trkpt><trkpt lat="14.612676558086825" lon="120.9962047343256"><ele>7.0</ele><time>2026-04-01T06:24:00.001Z</time></trkpt><trkpt lat="14.612733003174062" lon="120.99626039361094"><ele>6.666666666666666</ele><time>2026-04-01T06:24:01.001Z</time></trkpt><trkpt lat="14.612817943953504" lon="120.99635309455671"><ele>6.333333333333333</ele><time>2026-04-01T06:24:03.001Z</time></trkpt><trkpt lat="14.61286924782889" lon="120.99640836148882"><ele>6.0</ele><time>2026-04-01T06:24:04.001Z</time></trkpt><trkpt lat="14.612919741050606" lon="120.99646564039051"><ele>6.0</ele><time>2026-04-01T06:24:05.001Z</time></trkpt><trkpt lat="14.612972092276788" lon="120.99652171269601"><ele>6.0</ele><time>2026-04-01T06:24:06.001Z</time></trkpt><trkpt lat="14.613033958058363" lon="120.996588423476"><ele>6.0</ele><time>2026-04-01T06:24:07.001Z</time></trkpt><trkpt lat="14.613090868788452" lon="120.99665099464832"><ele>6.0</ele><time>2026-04-01T06:24:08.001Z</time></trkpt><trkpt lat="14.61315247585718" lon="120.9967233412023"><ele>6.0</ele><time>2026-04-01T06:24:09.001Z</time></trkpt><trkpt lat="14.613226104955183" lon="120.99679623597612"><ele>6.0</ele><time>2026-04-01T06:24:10.001Z</time></trkpt><trkpt lat="14.613291472258833" lon="120.99686622942306"><ele>6.4</ele><time>2026-04-01T06:24:11.001Z</time></trkpt><trkpt lat="14.61336471086318" lon="120.9969384765884"><ele>6.8</ele><time>2026-04-01T06:24:12.001Z</time></trkpt><trkpt lat="14.613429670989902" lon="120.99700677433461"><ele>7.200000000000001</ele><time>2026-04-01T06:24:13.001Z</time></trkpt><trkpt lat="14.613493610752592" lon="120.99707647544015"><ele>7.6000000000000005</ele><time>2026-04-01T06:24:14.001Z</time></trkpt><trkpt lat="14.613563996874468" lon="120.99714928710458"><ele>8.0</ele><time>2026-04-01T06:24:15.001Z</time></trkpt><trkpt lat="14.613628737147437" lon="120.99722264420559"><ele>7.999999999999999</ele><time>2026-04-01T06:24:16.001Z</time></trkpt><trkpt lat="14.613687980668306" lon="120.99728773008657"><ele>8.0</ele><time>2026-04-01T06:24:17.001Z</time></trkpt><trkpt lat="14.613740047655913" lon="120.99734748289733"><ele>8.0</ele><time>2026-04-01T06:24:18.001Z</time></trkpt><trkpt lat="14.61378542413424" lon="120.99740551524174"><ele>8.0</ele><time>2026-04-01T06:24:19.001Z</time></trkpt><trkpt lat="14.613830841624207" lon="120.99746318740439"><ele>7.999999999999999</ele><time>2026-04-01T06:24:20.001Z</time></trkpt><trkpt lat="14.613874511846163" lon="120.99751188498082"><ele>8.0</ele><time>2026-04-01T06:24:21.001Z</time></trkpt><trkpt lat="14.613948035060137" lon="120.99758614014625"><ele>8.0</ele><time>2026-04-01T06:24:23.001Z</time></trkpt><trkpt lat="14.614000640278194" lon="120.99765204414891"><ele>8.0</ele><time>2026-04-01T06:24:25.001Z</time></trkpt><trkpt lat="14.61407765087541" lon="120.99772381350178"><ele>8.0</ele><time>2026-04-01T06:24:27.001Z</time></trkpt><trkpt lat="14.614122117163943" lon="120.99777264721192"><ele>8.0</ele><time>2026-04-01T06:24:28.001Z</time></trkpt><trkpt lat="14.614208350354362" lon="120.99785438428151"><ele>8.0</ele><time>2026-04-01T06:24:30.001Z</time></trkpt><trkpt lat="14.614284960773915" lon="120.99793506076522"><ele>7.999999999999999</ele><time>2026-04-01T06:24:32.001Z</time></trkpt><trkpt lat="14.614359460301618" lon="120.99801436257218"><ele>8.0</ele><time>2026-04-01T06:24:34.001Z</time></trkpt><trkpt lat="14.614417292748366" lon="120.99806240791291"><ele>8.0</ele><time>2026-04-01T06:24:35.001Z</time></trkpt><trkpt lat="14.614456756172805" lon="120.99811406420535"><ele>8.0</ele><time>2026-04-01T06:24:36.001Z</time></trkpt><trkpt lat="14.614526815165531" lon="120.99817952652243"><ele>7.999999999999999</ele><time>2026-04-01T06:24:38.001Z</time></trkpt><trkpt lat="14.614597630101144" lon="120.99824772405434"><ele>8.0</ele><time>2026-04-01T06:24:43.001Z</time></trkpt><trkpt lat="14.614676507947536" lon="120.9983234871293"><ele>8.0</ele><time>2026-04-01T06:24:45.001Z</time></trkpt><trkpt lat="14.614732659173937" lon="120.99837966480227"><ele>8.0</ele><time>2026-04-01T06:24:46.001Z</time></trkpt><trkpt lat="14.614823679250778" lon="120.9984752168802"><ele>8.0</ele><time>2026-04-01T06:24:48.001Z</time></trkpt><trkpt lat="14.614908032249822" lon="120.99856460349608"><ele>8.0</ele><time>2026-04-01T06:24:50.001Z</time></trkpt><trkpt lat="14.614952005773317" lon="120.99861395482681"><ele>8.0</ele><time>2026-04-01T06:24:51.001Z</time></trkpt><trkpt lat="14.61500093973153" lon="120.99866287184615"><ele>7.999999999999999</ele><time>2026-04-01T06:24:52.001Z</time></trkpt><trkpt lat="14.61504806213398" lon="120.99871461856927"><ele>8.0</ele><time>2026-04-01T06:24:53.001Z</time></trkpt><trkpt lat="14.615093869465037" lon="120.99876676369084"><ele>8.0</ele><time>2026-04-01T06:24:54.001Z</time></trkpt><trkpt lat="14.615151165797949" lon="120.99883176360508"><ele>8.0</ele><time>2026-04-01T06:24:55.001Z</time></trkpt><trkpt lat="14.615205457889509" lon="120.99888825521943"><ele>7.999999999999999</ele><time>2026-04-01T06:24:56.001Z</time></trkpt><trkpt lat="14.615264443965764" lon="120.99895183157672"><ele>8.0</ele><time>2026-04-01T06:24:57.001Z</time></trkpt><trkpt lat="14.615324798398122" lon="120.99902506289233"><ele>7.800000000000001</ele><time>2026-04-01T06:24:58.001Z</time></trkpt><trkpt lat="14.615394006010806" lon="120.99909690041375"><ele>7.6000000000000005</ele><time>2026-04-01T06:24:59.001Z</time></trkpt><trkpt lat="14.615463063336382" lon="120.99917607990645"><ele>7.3999999999999995</ele><time>2026-04-01T06:25:00.001Z</time></trkpt><trkpt lat="14.61553429679133" lon="120.99925771202372"><ele>7.199999999999999</ele><time>2026-04-01T06:25:01.001Z</time></trkpt><trkpt lat="14.615604448159406" lon="120.99933843465038"><ele>7.0</ele><time>2026-04-01T06:25:02.001Z</time></trkpt><trkpt lat="14.61567594558781" lon="120.99941785265268"><ele>8.0</ele><time>2026-04-01T06:25:03.001Z</time></trkpt><trkpt lat="14.61574724884426" lon="120.99949817720987"><ele>9.0</ele><time>2026-04-01T06:25:04.001Z</time></trkpt><trkpt lat="14.615824611428195" lon="120.99958017628944"><ele>10.0</ele><time>2026-04-01T06:25:05.001Z</time></trkpt><trkpt lat="14.615893657358427" lon="120.99966130606693"><ele>11.0</ele><time>2026-04-01T06:25:06.001Z</time></trkpt><trkpt lat="14.61597075334928" lon="120.99974853604252"><ele>12.0</ele><time>2026-04-01T06:25:07.001Z</time></trkpt><trkpt lat="14.616046781104377" lon="120.9998363739428"><ele>12.0</ele><time>2026-04-01T06:25:08.001Z</time></trkpt><trkpt lat="14.616122648817347" lon="120.99992263767975"><ele>12.0</ele><time>2026-04-01T06:25:09.001Z</time></trkpt><trkpt lat="14.616203122525722" lon="121.00000738594821"><ele>12.0</ele><time>2026-04-01T06:25:10.001Z</time></trkpt><trkpt lat="14.6162786408006" lon="121.00008380440546"><ele>12.0</ele><time>2026-04-01T06:25:11.001Z</time></trkpt><trkpt lat="14.616340918692085" lon="121.0001538380458"><ele>12.0</ele><time>2026-04-01T06:25:12.001Z</time></trkpt><trkpt lat="14.616398655232304" lon="121.00021731923617"><ele>13.666666666666666</ele><time>2026-04-01T06:25:13.001Z</time></trkpt><trkpt lat="14.616454379442933" lon="121.00028238897883"><ele>15.333333333333332</ele><time>2026-04-01T06:25:14.001Z</time></trkpt><trkpt lat="14.616515182418834" lon="121.00034882493921"><ele>17.0</ele><time>2026-04-01T06:25:15.001Z</time></trkpt><trkpt lat="14.616578438871885" lon="121.00041538718008"><ele>18.666666666666664</ele><time>2026-04-01T06:25:16.001Z</time></trkpt><trkpt lat="14.616633016159337" lon="121.00047945138591"><ele>20.333333333333332</ele><time>2026-04-01T06:25:17.001Z</time></trkpt><trkpt lat="14.616698993280078" lon="121.00055476854885"><ele>22.0</ele><time>2026-04-01T06:25:18.001Z</time></trkpt><trkpt lat="14.6167605401727" lon="121.00062424134502"><ele>22.0</ele><time>2026-04-01T06:25:19.001Z</time></trkpt><trkpt lat="14.616824611990703" lon="121.00069186388316"><ele>22.0</ele><time>2026-04-01T06:25:20.001Z</time></trkpt><trkpt lat="14.616889393162891" lon="121.00076702886128"><ele>22.0</ele><time>2026-04-01T06:25:21.001Z</time></trkpt><trkpt lat="14.616951994786383" lon="121.00083629026962"><ele>22.0</ele><time>2026-04-01T06:25:22.001Z</time></trkpt><trkpt lat="14.61701816042769" lon="121.0009055632345"><ele>22.0</ele><time>2026-04-01T06:25:23.001Z</time></trkpt><trkpt lat="14.617080761144292" lon="121.0009758744846"><ele>21.5</ele><time>2026-04-01T06:25:24.001Z</time></trkpt><trkpt lat="14.617144344839506" lon="121.0010488592757"><ele>21.0</ele><time>2026-04-01T06:25:25.001Z</time></trkpt><trkpt lat="14.61721350959242" lon="121.00112159084225"><ele>20.5</ele><time>2026-04-01T06:25:26.001Z</time></trkpt><trkpt lat="14.617261966152038" lon="121.00120405228282"><ele>20.0</ele><time>2026-04-01T06:25:27.001Z</time></trkpt><trkpt lat="14.617319369392135" lon="121.00127131303437"><ele>19.5</ele><time>2026-04-01T06:25:28.001Z</time></trkpt><trkpt lat="14.617362475174525" lon="121.00132182110977"><ele>19.0</ele><time>2026-04-01T06:25:29.001Z</time></trkpt><trkpt lat="14.617430284301824" lon="121.00140127468484"><ele>19.0</ele><time>2026-04-01T06:25:31.001Z</time></trkpt><trkpt lat="14.61749798878821" lon="121.00148418795992"><ele>19.0</ele><time>2026-04-01T06:25:34.001Z</time></trkpt><trkpt lat="14.617554755167063" lon="121.0015356617165"><ele>19.0</ele><time>2026-04-01T06:25:36.001Z</time></trkpt><trkpt lat="14.61758332185976" lon="121.00160146688181"><ele>19.0</ele><time>2026-04-01T06:25:38.001Z</time></trkpt><trkpt lat="14.61761241868457" lon="121.00167180944109"><ele>19.0</ele><time>2026-04-01T06:25:40.001Z</time></trkpt><trkpt lat="14.61763105530224" lon="121.0017592093528"><ele>19.0</ele><time>2026-04-01T06:25:42.001Z</time></trkpt><trkpt lat="14.617677752982516" lon="121.00184946161042"><ele>18.666666666666664</ele><time>2026-04-01T06:25:44.001Z</time></trkpt><trkpt lat="14.617738034790328" lon="121.00187461063508"><ele>18.333333333333332</ele><time>2026-04-01T06:25:45.001Z</time></trkpt><trkpt lat="14.61778405905425" lon="121.00192130980497"><ele>18.0</ele><time>2026-04-01T06:25:46.001Z</time></trkpt><trkpt lat="14.61785864854911" lon="121.00193893838338"><ele>17.666666666666668</ele><time>2026-04-01T06:25:47.001Z</time></trkpt><trkpt lat="14.61791741530052" lon="121.00196667977971"><ele>17.333333333333336</ele><time>2026-04-01T06:25:48.001Z</time></trkpt><trkpt lat="14.61801382430044" lon="121.00202192096748"><ele>17.0</ele><time>2026-04-01T06:25:50.001Z</time></trkpt><trkpt lat="14.618067474228813" lon="121.00207574335002"><ele>17.0</ele><time>2026-04-01T06:25:51.001Z</time></trkpt><trkpt lat="14.618128874354277" lon="121.00213978224551"><ele>17.0</ele><time>2026-04-01T06:25:52.001Z</time></trkpt><trkpt lat="14.618189561353178" lon="121.00221928923482"><ele>17.0</ele><time>2026-04-01T06:25:53.001Z</time></trkpt><trkpt lat="14.618257798500634" lon="121.00230161820748"><ele>17.0</ele><time>2026-04-01T06:25:54.001Z</time></trkpt><trkpt lat="14.61833066153893" lon="121.00238806320903"><ele>17.0</ele><time>2026-04-01T06:25:55.001Z</time></trkpt><trkpt lat="14.6184026561521" lon="121.00247553881117"><ele>16.8</ele><time>2026-04-01T06:25:56.001Z</time></trkpt><trkpt lat="14.61847344022856" lon="121.00256102720351"><ele>16.6</ele><time>2026-04-01T06:25:57.001Z</time></trkpt><trkpt lat="14.618544867533922" lon="121.00264540818677"><ele>16.400000000000002</ele><time>2026-04-01T06:25:58.001Z</time></trkpt><trkpt lat="14.618617309171567" lon="121.00272706293008"><ele>16.2</ele><time>2026-04-01T06:25:59.001Z</time></trkpt><trkpt lat="14.61868648476528" lon="121.00280644092989"><ele>16.0</ele><time>2026-04-01T06:26:00.001Z</time></trkpt><trkpt lat="14.618753121058878" lon="121.00288226028003"><ele>16.0</ele><time>2026-04-01T06:26:01.001Z</time></trkpt><trkpt lat="14.618814901446285" lon="121.00295290461192"><ele>16.0</ele><time>2026-04-01T06:26:02.001Z</time></trkpt><trkpt lat="14.618871230022178" lon="121.00301868241523"><ele>16.0</ele><time>2026-04-01T06:26:03.001Z</time></trkpt><trkpt lat="14.618928671036848" lon="121.00308612705277"><ele>16.0</ele><time>2026-04-01T06:26:04.001Z</time></trkpt><trkpt lat="14.618989101145583" lon="121.00315496116066"><ele>16.0</ele><time>2026-04-01T06:26:05.001Z</time></trkpt><trkpt lat="14.619054876715058" lon="121.00322902576376"><ele>16.0</ele><time>2026-04-01T06:26:06.001Z</time></trkpt><trkpt lat="14.6191164254829" lon="121.00330948263293"><ele>16.0</ele><time>2026-04-01T06:26:07.001Z</time></trkpt><trkpt lat="14.619188600356832" lon="121.00338903401422"><ele>16.0</ele><time>2026-04-01T06:26:08.001Z</time></trkpt><trkpt lat="14.61926161184895" lon="121.00346471213786"><ele>16.0</ele><time>2026-04-01T06:26:09.001Z</time></trkpt><trkpt lat="14.619327030835517" lon="121.0035416452254"><ele>16.0</ele><time>2026-04-01T06:26:10.001Z</time></trkpt><trkpt lat="14.619388656073523" lon="121.00360961070285"><ele>16.333333333333332</ele><time>2026-04-01T06:26:11.001Z</time></trkpt><trkpt lat="14.619443858290568" lon="121.00367886735422"><ele>16.666666666666664</ele><time>2026-04-01T06:26:12.001Z</time></trkpt><trkpt lat="14.619498902256616" lon="121.00374227343731"><ele>17.0</ele><time>2026-04-01T06:26:13.001Z</time></trkpt><trkpt lat="14.619551409300025" lon="121.00379805417666"><ele>17.333333333333332</ele><time>2026-04-01T06:26:14.001Z</time></trkpt><trkpt lat="14.619600982968674" lon="121.00385179694837"><ele>17.666666666666668</ele><time>2026-04-01T06:26:15.001Z</time></trkpt><trkpt lat="14.619642414202135" lon="121.00390130847616"><ele>18.0</ele><time>2026-04-01T06:26:16.001Z</time></trkpt><trkpt lat="14.619687155365408" lon="121.0039670950469"><ele>18.0</ele><time>2026-04-01T06:26:18.001Z</time></trkpt><trkpt lat="14.619733825006815" lon="121.00403078737214"><ele>18.0</ele><time>2026-04-01T06:26:20.001Z</time></trkpt><trkpt lat="14.61981179547658" lon="121.00410923706248"><ele>18.0</ele><time>2026-04-01T06:26:22.001Z</time></trkpt><trkpt lat="14.619861162620602" lon="121.00416701085504"><ele>18.0</ele><time>2026-04-01T06:26:25.001Z</time></trkpt><trkpt lat="14.619937321717087" lon="121.00423276736275"><ele>18.0</ele><time>2026-04-01T06:27:32.001Z</time></trkpt><trkpt lat="14.619974662019445" lon="121.00428537334071"><ele>18.0</ele><time>2026-04-01T06:27:33.001Z</time></trkpt><trkpt lat="14.620067356777342" lon="121.00436910634429"><ele>17.333333333333332</ele><time>2026-04-01T06:27:35.001Z</time></trkpt><trkpt lat="14.620136875123336" lon="121.00442067323284"><ele>16.666666666666668</ele><time>2026-04-01T06:27:36.001Z</time></trkpt><trkpt lat="14.620211878183412" lon="121.00449040772192"><ele>16.0</ele><time>2026-04-01T06:27:37.001Z</time></trkpt><trkpt lat="14.62027152925824" lon="121.0045557453219"><ele>15.333333333333334</ele><time>2026-04-01T06:27:38.001Z</time></trkpt><trkpt lat="14.62032443197501" lon="121.0046078561874"><ele>14.666666666666668</ele><time>2026-04-01T06:27:39.001Z</time></trkpt><trkpt lat="14.620394338453847" lon="121.00467934945345"><ele>14.0</ele><time>2026-04-01T06:27:40.001Z</time></trkpt><trkpt lat="14.620501396541185" lon="121.00478894069701"><ele>14.0</ele><time>2026-04-01T06:27:42.001Z</time></trkpt><trkpt lat="14.620571100352409" lon="121.00486384241583"><ele>13.999999999999998</ele><time>2026-04-01T06:27:43.001Z</time></trkpt><trkpt lat="14.620644836747001" lon="121.00494379111429"><ele>13.999999999999998</ele><time>2026-04-01T06:27:44.001Z</time></trkpt><trkpt lat="14.62072514368764" lon="121.0050309910187"><ele>14.0</ele><time>2026-04-01T06:27:45.001Z</time></trkpt><trkpt lat="14.62080412054942" lon="121.00511440036071"><ele>14.0</ele><time>2026-04-01T06:27:46.001Z</time></trkpt><trkpt lat="14.620877649200024" lon="121.00519618856907"><ele>14.75</ele><time>2026-04-01T06:27:47.001Z</time></trkpt><trkpt lat="14.620957234376412" lon="121.00527683713102"><ele>15.5</ele><time>2026-04-01T06:27:48.001Z</time></trkpt><trkpt lat="14.621041387137817" lon="121.00535990737482"><ele>16.25</ele><time>2026-04-01T06:27:49.001Z</time></trkpt><trkpt lat="14.621129078995343" lon="121.0054508147777"><ele>17.0</ele><time>2026-04-01T06:27:50.001Z</time></trkpt><trkpt lat="14.62121614465252" lon="121.00554442301582"><ele>17.0</ele><time>2026-04-01T06:27:51.001Z</time></trkpt><trkpt lat="14.62130759253808" lon="121.00564718893153"><ele>17.0</ele><time>2026-04-01T06:27:52.001Z</time></trkpt><trkpt lat="14.621394800562458" lon="121.00574265314198"><ele>17.0</ele><time>2026-04-01T06:27:53.001Z</time></trkpt><trkpt lat="14.621471629447127" lon="121.00583221298935"><ele>17.0</ele><time>2026-04-01T06:27:54.001Z</time></trkpt><trkpt lat="14.621542994057913" lon="121.00591655035963"><ele>17.6</ele><time>2026-04-01T06:27:55.001Z</time></trkpt><trkpt lat="14.621615104944803" lon="121.0060008227984"><ele>18.2</ele><time>2026-04-01T06:27:56.001Z</time></trkpt><trkpt lat="14.621681085555403" lon="121.00607786799512"><ele>18.8</ele><time>2026-04-01T06:27:57.001Z</time></trkpt><trkpt lat="14.621739886177455" lon="121.00614981223411"><ele>19.4</ele><time>2026-04-01T06:27:58.001Z</time></trkpt><trkpt lat="14.621793949358748" lon="121.00621795796587"><ele>20.0</ele><time>2026-04-01T06:27:59.001Z</time></trkpt><trkpt lat="14.621855271560346" lon="121.0062896980999"><ele>20.0</ele><time>2026-04-01T06:28:00.001Z</time></trkpt><trkpt lat="14.621918250961913" lon="121.00635981087126"><ele>20.0</ele><time>2026-04-01T06:28:01.001Z</time></trkpt><trkpt lat="14.621993129433848" lon="121.0064395186044"><ele>20.0</ele><time>2026-04-01T06:28:02.001Z</time></trkpt><trkpt lat="14.622070532771053" lon="121.00652123215313"><ele>20.0</ele><time>2026-04-01T06:28:03.001Z</time></trkpt><trkpt lat="14.622148641493505" lon="121.00660330278374"><ele>20.0</ele><time>2026-04-01T06:28:04.001Z</time></trkpt><trkpt lat="14.622230560732424" lon="121.00669016769008"><ele>19.5</ele><time>2026-04-01T06:28:05.001Z</time></trkpt><trkpt lat="14.622312845705258" lon="121.00677890090867"><ele>19.0</ele><time>2026-04-01T06:28:06.001Z</time></trkpt><trkpt lat="14.622398954833825" lon="121.0068701147686"><ele>18.5</ele><time>2026-04-01T06:28:07.001Z</time></trkpt><trkpt lat="14.622488373089197" lon="121.00695957886893"><ele>18.0</ele><time>2026-04-01T06:28:08.001Z</time></trkpt><trkpt lat="14.622572836703506" lon="121.0070448989764"><ele>18.0</ele><time>2026-04-01T06:28:09.001Z</time></trkpt><trkpt lat="14.622655967024054" lon="121.00713464014224"><ele>18.0</ele><time>2026-04-01T06:28:10.001Z</time></trkpt><trkpt lat="14.622737606065428" lon="121.00722153338651"><ele>18.0</ele><time>2026-04-01T06:28:11.001Z</time></trkpt><trkpt lat="14.622819704852018" lon="121.0073097792171"><ele>18.0</ele><time>2026-04-01T06:28:12.001Z</time></trkpt><trkpt lat="14.622904250795898" lon="121.00739939034746"><ele>18.25</ele><time>2026-04-01T06:28:13.001Z</time></trkpt><trkpt lat="14.622983663193306" lon="121.00749363712764"><ele>18.5</ele><time>2026-04-01T06:28:14.001Z</time></trkpt><trkpt lat="14.623070941069516" lon="121.00758362165774"><ele>18.75</ele><time>2026-04-01T06:28:15.001Z</time></trkpt><trkpt lat="14.623156222828982" lon="121.007682215604"><ele>19.0</ele><time>2026-04-01T06:28:16.001Z</time></trkpt><trkpt lat="14.623230533211276" lon="121.00776954091829"><ele>19.0</ele><time>2026-04-01T06:28:17.001Z</time></trkpt><trkpt lat="14.623304686084328" lon="121.00785376792884"><ele>19.0</ele><time>2026-04-01T06:28:18.001Z</time></trkpt><trkpt lat="14.623376198514858" lon="121.00793410116283"><ele>19.0</ele><time>2026-04-01T06:28:19.001Z</time></trkpt><trkpt lat="14.623448856180177" lon="121.00801460737459"><ele>19.0</ele><time>2026-04-01T06:28:20.001Z</time></trkpt><trkpt lat="14.623518895980407" lon="121.008097223696"><ele>19.0</ele><time>2026-04-01T06:28:21.001Z</time></trkpt><trkpt lat="14.623596068721932" lon="121.00818159461629"><ele>18.666666666666664</ele><time>2026-04-01T06:28:22.001Z</time></trkpt><trkpt lat="14.623655989890223" lon="121.00824921421852"><ele>18.333333333333332</ele><time>2026-04-01T06:28:23.001Z</time></trkpt><trkpt lat="14.623705621036926" lon="121.0083136775626"><ele>18.0</ele><time>2026-04-01T06:28:24.001Z</time></trkpt><trkpt lat="14.623759525061715" lon="121.00838173562865"><ele>17.666666666666668</ele><time>2026-04-01T06:28:25.001Z</time></trkpt><trkpt lat="14.623809299586767" lon="121.00844664902343"><ele>17.333333333333336</ele><time>2026-04-01T06:28:26.001Z</time></trkpt><trkpt lat="14.62386093130998" lon="121.00851303805506"><ele>17.0</ele><time>2026-04-01T06:28:27.001Z</time></trkpt><trkpt lat="14.623919054961789" lon="121.00857349847148"><ele>16.2</ele><time>2026-04-01T06:28:28.001Z</time></trkpt><trkpt lat="14.623988770391465" lon="121.00865327929417"><ele>15.399999999999999</ele><time>2026-04-01T06:28:29.001Z</time></trkpt><trkpt lat="14.62405281992612" lon="121.00873189217526"><ele>14.600000000000001</ele><time>2026-04-01T06:28:30.001Z</time></trkpt><trkpt lat="14.62412043770861" lon="121.0088089853252"><ele>13.8</ele><time>2026-04-01T06:28:31.001Z</time></trkpt><trkpt lat="14.624193245047591" lon="121.00888561661561"><ele>13.0</ele><time>2026-04-01T06:28:32.001Z</time></trkpt><trkpt lat="14.624257846307353" lon="121.0089698042803"><ele>13.0</ele><time>2026-04-01T06:28:33.001Z</time></trkpt><trkpt lat="14.624321929800931" lon="121.00905077625998"><ele>13.0</ele><time>2026-04-01T06:28:34.001Z</time></trkpt><trkpt lat="14.624387511883626" lon="121.00912386110451"><ele>13.0</ele><time>2026-04-01T06:28:35.001Z</time></trkpt><trkpt lat="14.624450760196309" lon="121.00919449074165"><ele>13.0</ele><time>2026-04-01T06:28:36.001Z</time></trkpt><trkpt lat="14.62451384742001" lon="121.00926257229072"><ele>13.0</ele><time>2026-04-01T06:28:37.001Z</time></trkpt><trkpt lat="14.624579521665888" lon="121.00933041571888"><ele>13.0</ele><time>2026-04-01T06:28:38.001Z</time></trkpt><trkpt lat="14.62464795930198" lon="121.00940175511165"><ele>13.0</ele><time>2026-04-01T06:28:39.001Z</time></trkpt><trkpt lat="14.62471946896627" lon="121.00947517060851"><ele>13.0</ele><time>2026-04-01T06:28:40.001Z</time></trkpt><trkpt lat="14.62478972644291" lon="121.00955488920467"><ele>13.0</ele><time>2026-04-01T06:28:41.001Z</time></trkpt><trkpt lat="14.624865721170782" lon="121.00963922544713"><ele>13.0</ele><time>2026-04-01T06:28:42.001Z</time></trkpt><trkpt lat="14.624940727762908" lon="121.00972220419041"><ele>13.0</ele><time>2026-04-01T06:28:43Z</time></trkpt><trkpt lat="14.62502169470454" lon="121.0098087299197"><ele>13.0</ele><time>2026-04-01T06:28:44Z</time></trkpt><trkpt lat="14.625101823341529" lon="121.00989775840563"><ele>13.0</ele><time>2026-04-01T06:28:45Z</time></trkpt><trkpt lat="14.62518566239899" lon="121.00998832919933"><ele>13.0</ele><time>2026-04-01T06:28:46Z</time></trkpt><trkpt lat="14.625273434493128" lon="121.0100817593477"><ele>13.5</ele><time>2026-04-01T06:28:47Z</time></trkpt><trkpt lat="14.62536001546286" lon="121.01017006309411"><ele>14.0</ele><time>2026-04-01T06:28:48Z</time></trkpt><trkpt lat="14.6254527932381" lon="121.01026356009413"><ele>14.5</ele><time>2026-04-01T06:28:49Z</time></trkpt><trkpt lat="14.625542879218884" lon="121.0103575534173"><ele>15.0</ele><time>2026-04-01T06:28:50Z</time></trkpt><trkpt lat="14.625629908170685" lon="121.01044452789465"><ele>15.0</ele><time>2026-04-01T06:28:51Z</time></trkpt><trkpt lat="14.625712672461264" lon="121.01053592158051"><ele>15.0</ele><time>2026-04-01T06:28:52Z</time></trkpt><trkpt lat="14.625795563010309" lon="121.01062599319901"><ele>15.0</ele><time>2026-04-01T06:28:53Z</time></trkpt><trkpt lat="14.62586428935712" lon="121.01070357579493"><ele>15.0</ele><time>2026-04-01T06:28:54Z</time></trkpt><trkpt lat="14.625927290912696" lon="121.0107722552828"><ele>15.0</ele><time>2026-04-01T06:28:55Z</time></trkpt><trkpt lat="14.625991510545726" lon="121.01084898637713"><ele>15.0</ele><time>2026-04-01T06:28:57Z</time></trkpt><trkpt lat="14.626037473180109" lon="121.01089565302992"><ele>15.0</ele><time>2026-04-01T06:28:59Z</time></trkpt><trkpt lat="14.62610503115212" lon="121.0109407321399"><ele>15.0</ele><time>2026-04-01T06:29:01Z</time></trkpt><trkpt lat="14.626167374384945" lon="121.01099110408832"><ele>15.0</ele><time>2026-04-01T06:29:03Z</time></trkpt><trkpt lat="14.626255148586333" lon="121.01106020302895"><ele>15.0</ele><time>2026-04-01T06:29:05Z</time></trkpt><trkpt lat="14.626310007610297" lon="121.01111881334755"><ele>15.0</ele><time>2026-04-01T06:29:06Z</time></trkpt><trkpt lat="14.626398872959566" lon="121.01121164217851"><ele>15.0</ele><time>2026-04-01T06:29:07Z</time></trkpt><trkpt lat="14.62647427150725" lon="121.01129331282512"><ele>15.0</ele><time>2026-04-01T06:29:08Z</time></trkpt><trkpt lat="14.62654982923678" lon="121.01138103678146"><ele>15.0</ele><time>2026-04-01T06:29:09Z</time></trkpt><trkpt lat="14.626633113053469" lon="121.01147943831526"><ele>15.0</ele><time>2026-04-01T06:29:10Z</time></trkpt><trkpt lat="14.626724075891241" lon="121.0115843046799"><ele>15.75</ele><time>2026-04-01T06:29:11Z</time></trkpt><trkpt lat="14.626813006962758" lon="121.01169352963187"><ele>16.5</ele><time>2026-04-01T06:29:12Z</time></trkpt><trkpt lat="14.6269098831162" lon="121.01180186651754"><ele>17.25</ele><time>2026-04-01T06:29:13Z</time></trkpt><trkpt lat="14.627011803477773" lon="121.0119117983019"><ele>18.0</ele><time>2026-04-01T06:29:14Z</time></trkpt><trkpt lat="14.627112457774935" lon="121.0120144345125"><ele>18.5</ele><time>2026-04-01T06:29:15Z</time></trkpt><trkpt lat="14.62719779090592" lon="121.0121113550628"><ele>19.0</ele><time>2026-04-01T06:29:16Z</time></trkpt><trkpt lat="14.627287599902239" lon="121.01221498342223"><ele>19.5</ele><time>2026-04-01T06:29:17Z</time></trkpt><trkpt lat="14.627384627765956" lon="121.01231802492437"><ele>20.0</ele><time>2026-04-01T06:29:18Z</time></trkpt><trkpt lat="14.6274789173319" lon="121.01241776973217"><ele>19.25</ele><time>2026-04-01T06:29:19Z</time></trkpt><trkpt lat="14.627573901995444" lon="121.01252287256989"><ele>18.5</ele><time>2026-04-01T06:29:20Z</time></trkpt><trkpt lat="14.627666700338107" lon="121.01262311408708"><ele>17.75</ele><time>2026-04-01T06:29:21Z</time></trkpt><trkpt lat="14.627762178385609" lon="121.01272568937257"><ele>17.0</ele><time>2026-04-01T06:29:22.001Z</time></trkpt><trkpt lat="14.62785746480389" lon="121.01283879084956"><ele>16.25</ele><time>2026-04-01T06:29:23.001Z</time></trkpt><trkpt lat="14.62794165623665" lon="121.01292623838145"><ele>15.5</ele><time>2026-04-01T06:29:24.001Z</time></trkpt><trkpt lat="14.62802326063563" lon="121.01302469504348"><ele>14.75</ele><time>2026-04-01T06:29:25.001Z</time></trkpt><trkpt lat="14.628090848987755" lon="121.0131045284279"><ele>14.0</ele><time>2026-04-01T06:29:26.001Z</time></trkpt><trkpt lat="14.628165851778645" lon="121.0131943777661"><ele>14.0</ele><time>2026-04-01T06:29:27.001Z</time></trkpt><trkpt lat="14.628239250675511" lon="121.0132797473373"><ele>14.0</ele><time>2026-04-01T06:29:28.001Z</time></trkpt><trkpt lat="14.62831663463525" lon="121.01337366894762"><ele>14.0</ele><time>2026-04-01T06:29:29.001Z</time></trkpt><trkpt lat="14.628394584316618" lon="121.01347537321092"><ele>14.0</ele><time>2026-04-01T06:29:30.001Z</time></trkpt><trkpt lat="14.628460186219003" lon="121.01356339888524"><ele>14.0</ele><time>2026-04-01T06:29:31.001Z</time></trkpt><trkpt lat="14.628538706453856" lon="121.01365516114554"><ele>14.0</ele><time>2026-04-01T06:29:32.001Z</time></trkpt><trkpt lat="14.628650443539502" lon="121.01372953659185"><ele>14.0</ele><time>2026-04-01T06:29:33.001Z</time></trkpt><trkpt lat="14.628741025862444" lon="121.01382899754314"><ele>14.0</ele><time>2026-04-01T06:29:35.001Z</time></trkpt><trkpt lat="14.628792471152037" lon="121.01389649323413"><ele>13.571428571428571</ele><time>2026-04-01T06:29:37.001Z</time></trkpt><trkpt lat="14.628845737033682" lon="121.01394749330969"><ele>13.142857142857142</ele><time>2026-04-01T06:29:38.001Z</time></trkpt><trkpt lat="14.628908943573517" lon="121.01400565703429"><ele>12.714285714285715</ele><time>2026-04-01T06:29:39.001Z</time></trkpt><trkpt lat="14.628959197233387" lon="121.01406482454325"><ele>12.285714285714285</ele><time>2026-04-01T06:29:40.001Z</time></trkpt><trkpt lat="14.629005520237659" lon="121.01411879301594"><ele>11.857142857142858</ele><time>2026-04-01T06:29:41.001Z</time></trkpt><trkpt lat="14.629052607411548" lon="121.01417251491401"><ele>11.428571428571429</ele><time>2026-04-01T06:29:42.001Z</time></trkpt><trkpt lat="14.62910430513552" lon="121.0142277528622"><ele>11.0</ele><time>2026-04-01T06:29:43.001Z</time></trkpt><trkpt lat="14.629157795223628" lon="121.01428338225045"><ele>11.666666666666666</ele><time>2026-04-01T06:29:44.001Z</time></trkpt><trkpt lat="14.629211386069862" lon="121.01434618682778"><ele>12.333333333333332</ele><time>2026-04-01T06:29:45.001Z</time></trkpt><trkpt lat="14.629266236664707" lon="121.01440605035573"><ele>13.0</ele><time>2026-04-01T06:29:46.001Z</time></trkpt><trkpt lat="14.629324188339899" lon="121.01447425548407"><ele>13.666666666666666</ele><time>2026-04-01T06:29:47.001Z</time></trkpt><trkpt lat="14.629383652031386" lon="121.01453801405096"><ele>14.333333333333334</ele><time>2026-04-01T06:29:48.001Z</time></trkpt><trkpt lat="14.629436165026284" lon="121.01459175180058"><ele>15.0</ele><time>2026-04-01T06:29:49.001Z</time></trkpt><trkpt lat="14.629493873067224" lon="121.01465886460056"><ele>15.0</ele><time>2026-04-01T06:29:50.001Z</time></trkpt><trkpt lat="14.629557884367472" lon="121.0147270753465"><ele>15.0</ele><time>2026-04-01T06:29:51.001Z</time></trkpt><trkpt lat="14.629622463067614" lon="121.0147952094484"><ele>15.0</ele><time>2026-04-01T06:29:52.001Z</time></trkpt><trkpt lat="14.629700835033134" lon="121.01487331479161"><ele>15.0</ele><time>2026-04-01T06:29:53.001Z</time></trkpt><trkpt lat="14.629783059071462" lon="121.01495686979996"><ele>15.0</ele><time>2026-04-01T06:29:54.001Z</time></trkpt><trkpt lat="14.629862256289982" lon="121.01504541416006"><ele>14.5</ele><time>2026-04-01T06:29:55.001Z</time></trkpt><trkpt lat="14.62995087623665" lon="121.01514507216986"><ele>14.0</ele><time>2026-04-01T06:29:56.001Z</time></trkpt><trkpt lat="14.630043692845272" lon="121.01524698715428"><ele>13.5</ele><time>2026-04-01T06:29:57.001Z</time></trkpt><trkpt lat="14.63013645377135" lon="121.01535282397325"><ele>13.0</ele><time>2026-04-01T06:29:58.001Z</time></trkpt><trkpt lat="14.630229841244207" lon="121.01546112199252"><ele>13.5</ele><time>2026-04-01T06:29:59.001Z</time></trkpt><trkpt lat="14.630325929921115" lon="121.01557092929657"><ele>14.0</ele><time>2026-04-01T06:30:00.001Z</time></trkpt><trkpt lat="14.630422608830392" lon="121.01568057375059"><ele>14.5</ele><time>2026-04-01T06:30:01.001Z</time></trkpt><trkpt lat="14.630519437701707" lon="121.01579505857242"><ele>15.0</ele><time>2026-04-01T06:30:02.001Z</time></trkpt><trkpt lat="14.630619817310713" lon="121.01591210693456"><ele>15.0</ele><time>2026-04-01T06:30:03.001Z</time></trkpt><trkpt lat="14.630720586853702" lon="121.01603494878057"><ele>15.0</ele><time>2026-04-01T06:30:04.001Z</time></trkpt><trkpt lat="14.630821720431037" lon="121.01616145709855"><ele>15.0</ele><time>2026-04-01T06:30:05.001Z</time></trkpt><trkpt lat="14.630917961293722" lon="121.01629371802795"><ele>15.0</ele><time>2026-04-01T06:30:06.001Z</time></trkpt><trkpt lat="14.630992163976185" lon="121.0164173488651"><ele>15.0</ele><time>2026-04-01T06:30:07.001Z</time></trkpt><trkpt lat="14.63106776024604" lon="121.01654286133173"><ele>15.0</ele><time>2026-04-01T06:30:08.001Z</time></trkpt><trkpt lat="14.63113179994432" lon="121.01665671629897"><ele>15.0</ele><time>2026-04-01T06:30:09.001Z</time></trkpt><trkpt lat="14.63118975334228" lon="121.01675458580516"><ele>15.166666666666666</ele><time>2026-04-01T06:30:10.001Z</time></trkpt><trkpt lat="14.631250909224892" lon="121.01684674447903"><ele>15.333333333333332</ele><time>2026-04-01T06:30:11.001Z</time></trkpt><trkpt lat="14.631308260674182" lon="121.01693079784883"><ele>15.5</ele><time>2026-04-01T06:30:12.001Z</time></trkpt><trkpt lat="14.631349508282977" lon="121.0170055039558"><ele>15.666666666666666</ele><time>2026-04-01T06:30:13.001Z</time></trkpt><trkpt lat="14.631387184955967" lon="121.01706778398292"><ele>15.833333333333332</ele><time>2026-04-01T06:30:14.001Z</time></trkpt><trkpt lat="14.631430604206916" lon="121.01714228600919"><ele>16.0</ele><time>2026-04-01T06:30:15.001Z</time></trkpt><trkpt lat="14.631479811185669" lon="121.017216112018"><ele>16.0</ele><time>2026-04-01T06:30:16.001Z</time></trkpt><trkpt lat="14.631539068739036" lon="121.01730696447618"><ele>16.0</ele><time>2026-04-01T06:30:17.001Z</time></trkpt><trkpt lat="14.631608058669414" lon="121.01740773083822"><ele>16.0</ele><time>2026-04-01T06:30:18.001Z</time></trkpt><trkpt lat="14.6316738790459" lon="121.01749281849817"><ele>16.0</ele><time>2026-04-01T06:30:19.001Z</time></trkpt><trkpt lat="14.631735349452972" lon="121.01759278591837"><ele>16.0</ele><time>2026-04-01T06:30:20.001Z</time></trkpt><trkpt lat="14.631798690178016" lon="121.01770546407694"><ele>15.75</ele><time>2026-04-01T06:30:21.001Z</time></trkpt><trkpt lat="14.631884670262698" lon="121.01781582193917"><ele>15.5</ele><time>2026-04-01T06:30:22.001Z</time></trkpt><trkpt lat="14.631963210122464" lon="121.01793783972103"><ele>15.25</ele><time>2026-04-01T06:30:23.001Z</time></trkpt><trkpt lat="14.632022810907172" lon="121.01806526760778"><ele>15.0</ele><time>2026-04-01T06:30:24.001Z</time></trkpt><trkpt lat="14.632095675087987" lon="121.01818062214548"><ele>15.5</ele><time>2026-04-01T06:30:25.001Z</time></trkpt><trkpt lat="14.632170699038237" lon="121.01829879468188"><ele>16.0</ele><time>2026-04-01T06:30:26.001Z</time></trkpt><trkpt lat="14.63224681101931" lon="121.01841911932792"><ele>16.5</ele><time>2026-04-01T06:30:27.001Z</time></trkpt><trkpt lat="14.632320081354594" lon="121.01853588759779"><ele>17.0</ele><time>2026-04-01T06:30:28.001Z</time></trkpt><trkpt lat="14.632390097671337" lon="121.01864850892012"><ele>17.0</ele><time>2026-04-01T06:30:29.001Z</time></trkpt><trkpt lat="14.632460571598413" lon="121.01876516850068"><ele>17.0</ele><time>2026-04-01T06:30:30.001Z</time></trkpt><trkpt lat="14.63252020151307" lon="121.01886207073666"><ele>17.0</ele><time>2026-04-01T06:30:31.001Z</time></trkpt><trkpt lat="14.63258662622829" lon="121.01896505247906"><ele>17.0</ele><time>2026-04-01T06:30:32.001Z</time></trkpt><trkpt lat="14.632660929629159" lon="121.01907579970171"><ele>17.75</ele><time>2026-04-01T06:30:33.001Z</time></trkpt><trkpt lat="14.632728961894031" lon="121.01918756544801"><ele>18.5</ele><time>2026-04-01T06:30:34.001Z</time></trkpt><trkpt lat="14.632803562059696" lon="121.01930157547906"><ele>19.25</ele><time>2026-04-01T06:30:35.001Z</time></trkpt><trkpt lat="14.632880127871394" lon="121.0194213558629"><ele>20.0</ele><time>2026-04-01T06:30:36.001Z</time></trkpt><trkpt lat="14.632951651651767" lon="121.01953892091267"><ele>20.25</ele><time>2026-04-01T06:30:37.001Z</time></trkpt><trkpt lat="14.633018441220797" lon="121.01965314526589"><ele>20.5</ele><time>2026-04-01T06:30:38.001Z</time></trkpt><trkpt lat="14.633085690273525" lon="121.01977046476892"><ele>20.75</ele><time>2026-04-01T06:30:39.001Z</time></trkpt><trkpt lat="14.633161317504504" lon="121.01987136623741"><ele>21.0</ele><time>2026-04-01T06:30:40.001Z</time></trkpt><trkpt lat="14.633230420164093" lon="121.01998302148226"><ele>21.25</ele><time>2026-04-01T06:30:41.001Z</time></trkpt><trkpt lat="14.633296325366397" lon="121.02008951116918"><ele>21.5</ele><time>2026-04-01T06:30:42.001Z</time></trkpt><trkpt lat="14.633351406888941" lon="121.02020501725586"><ele>21.75</ele><time>2026-04-01T06:30:43.001Z</time></trkpt><trkpt lat="14.633433131622066" lon="121.02031079996571"><ele>22.0</ele><time>2026-04-01T06:30:44.001Z</time></trkpt><trkpt lat="14.633510980569094" lon="121.02042081047831"><ele>22.0</ele><time>2026-04-01T06:30:45.001Z</time></trkpt><trkpt lat="14.633589393129455" lon="121.02053494085797"><ele>22.0</ele><time>2026-04-01T06:30:46.001Z</time></trkpt><trkpt lat="14.633654934673107" lon="121.02065481948115"><ele>22.0</ele><time>2026-04-01T06:30:47.001Z</time></trkpt><trkpt lat="14.633720950675238" lon="121.020784580576"><ele>22.0</ele><time>2026-04-01T06:30:48.001Z</time></trkpt><trkpt lat="14.633810196903031" lon="121.02090655824266"><ele>21.333333333333332</ele><time>2026-04-01T06:30:49Z</time></trkpt><trkpt lat="14.63389150172572" lon="121.02103854681889"><ele>20.666666666666668</ele><time>2026-04-01T06:30:50Z</time></trkpt><trkpt lat="14.633970199677737" lon="121.02117192279457"><ele>20.0</ele><time>2026-04-01T06:30:51Z</time></trkpt><trkpt lat="14.634050283681377" lon="121.0213004879549"><ele>20.0</ele><time>2026-04-01T06:30:52Z</time></trkpt><trkpt lat="14.634130277179267" lon="121.02142661621836"><ele>20.0</ele><time>2026-04-01T06:30:53Z</time></trkpt><trkpt lat="14.634205388798703" lon="121.02155040638644"><ele>20.0</ele><time>2026-04-01T06:30:54Z</time></trkpt><trkpt lat="14.634284041532693" lon="121.0216787284261"><ele>20.0</ele><time>2026-04-01T06:30:55Z</time></trkpt><trkpt lat="14.63436842192699" lon="121.02180548103044"><ele>20.0</ele><time>2026-04-01T06:30:56Z</time></trkpt><trkpt lat="14.634443984887834" lon="121.02192718741576"><ele>20.0</ele><time>2026-04-01T06:30:57Z</time></trkpt><trkpt lat="14.634514180729777" lon="121.02204500434286"><ele>20.0</ele><time>2026-04-01T06:30:58Z</time></trkpt><trkpt lat="14.634582029232654" lon="121.02215403442212"><ele>20.0</ele><time>2026-04-01T06:30:59Z</time></trkpt><trkpt lat="14.634649619167268" lon="121.02225767382131"><ele>20.2</ele><time>2026-04-01T06:31:00Z</time></trkpt><trkpt lat="14.634696776753877" lon="121.02233838351609"><ele>20.4</ele><time>2026-04-01T06:31:01Z</time></trkpt><trkpt lat="14.634736556504583" lon="121.02240155344191"><ele>20.6</ele><time>2026-04-01T06:31:02Z</time></trkpt><trkpt lat="14.634813595942587" lon="121.02249666427193"><ele>20.8</ele><time>2026-04-01T06:31:04Z</time></trkpt><trkpt lat="14.634870433959437" lon="121.02258716685597"><ele>21.0</ele><time>2026-04-01T06:31:06Z</time></trkpt><trkpt lat="14.634923704501844" lon="121.02267228260337"><ele>20.6</ele><time>2026-04-01T06:31:08Z</time></trkpt><trkpt lat="14.634985131994123" lon="121.02277861647562"><ele>20.200000000000003</ele><time>2026-04-01T06:31:10Z</time></trkpt><trkpt lat="14.635027510470733" lon="121.02285354957579"><ele>19.799999999999997</ele><time>2026-04-01T06:31:11Z</time></trkpt><trkpt lat="14.635067898495818" lon="121.02292870937619"><ele>19.4</ele><time>2026-04-01T06:31:12Z</time></trkpt><trkpt lat="14.635114626101437" lon="121.02301006133875"><ele>19.0</ele><time>2026-04-01T06:31:13Z</time></trkpt><trkpt lat="14.63516898794446" lon="121.02309646205343"><ele>19.0</ele><time>2026-04-01T06:31:14Z</time></trkpt><trkpt lat="14.635225849170409" lon="121.02319030764222"><ele>19.0</ele><time>2026-04-01T06:31:15Z</time></trkpt><trkpt lat="14.635282942899694" lon="121.02328639956743"><ele>19.0</ele><time>2026-04-01T06:31:16Z</time></trkpt><trkpt lat="14.635341227622625" lon="121.02338749449561"><ele>19.0</ele><time>2026-04-01T06:31:17Z</time></trkpt><trkpt lat="14.635398413701937" lon="121.02348639447244"><ele>19.0</ele><time>2026-04-01T06:31:18Z</time></trkpt><trkpt lat="14.635458774164993" lon="121.02359480114264"><ele>20.4</ele><time>2026-04-01T06:31:19Z</time></trkpt><trkpt lat="14.635518733500923" lon="121.0236980936366"><ele>21.799999999999997</ele><time>2026-04-01T06:31:20Z</time></trkpt><trkpt lat="14.635580310695833" lon="121.02379989364151"><ele>23.200000000000003</ele><time>2026-04-01T06:31:21Z</time></trkpt><trkpt lat="14.635640379419238" lon="121.02388539669394"><ele>24.6</ele><time>2026-04-01T06:31:22Z</time></trkpt><trkpt lat="14.635692636216724" lon="121.02397225787661"><ele>26.0</ele><time>2026-04-01T06:31:23Z</time></trkpt><trkpt lat="14.63574268916978" lon="121.02405461427088"><ele>25.999999999999996</ele><time>2026-04-01T06:31:24Z</time></trkpt><trkpt lat="14.63578597002366" lon="121.02412091536505"><ele>26.0</ele><time>2026-04-01T06:31:25Z</time></trkpt><trkpt lat="14.635827495028298" lon="121.02418291579296"><ele>26.0</ele><time>2026-04-01T06:31:26Z</time></trkpt><trkpt lat="14.635865064009248" lon="121.02424903463375"><ele>26.0</ele><time>2026-04-01T06:31:27Z</time></trkpt><trkpt lat="14.635910980605875" lon="121.02432169007037"><ele>25.999999999999996</ele><time>2026-04-01T06:31:28Z</time></trkpt><trkpt lat="14.63595510124913" lon="121.02439747329525"><ele>26.0</ele><time>2026-04-01T06:31:29.001Z</time></trkpt><trkpt lat="14.635993842360191" lon="121.02447413587349"><ele>26.666666666666664</ele><time>2026-04-01T06:31:30.001Z</time></trkpt><trkpt lat="14.636041763341721" lon="121.02453657414003"><ele>27.333333333333332</ele><time>2026-04-01T06:31:31.001Z</time></trkpt><trkpt lat="14.63608766929656" lon="121.02461091651026"><ele>28.0</ele><time>2026-04-01T06:31:32.001Z</time></trkpt><trkpt lat="14.636133798111645" lon="121.02468561979695"><ele>28.666666666666664</ele><time>2026-04-01T06:31:33.001Z</time></trkpt><trkpt lat="14.636179157587158" lon="121.02475911690674"><ele>29.333333333333332</ele><time>2026-04-01T06:31:34.001Z</time></trkpt><trkpt lat="14.63621585405519" lon="121.02481886755592"><ele>30.0</ele><time>2026-04-01T06:31:35.001Z</time></trkpt><trkpt lat="14.636249621639038" lon="121.02487384931075"><ele>30.0</ele><time>2026-04-01T06:31:36.001Z</time></trkpt><trkpt lat="14.636308036781834" lon="121.0249689631786"><ele>30.0</ele><time>2026-04-01T06:31:38.001Z</time></trkpt><trkpt lat="14.636364092590389" lon="121.02505922884599"><ele>30.0</ele><time>2026-04-01T06:31:40.001Z</time></trkpt><trkpt lat="14.636421616573164" lon="121.02515153929546"><ele>30.0</ele><time>2026-04-01T06:31:42.001Z</time></trkpt><trkpt lat="14.636457914203433" lon="121.0252097871918"><ele>30.0</ele><time>2026-04-01T06:31:43.001Z</time></trkpt><trkpt lat="14.636498887629253" lon="121.02527719589087"><ele>30.0</ele><time>2026-04-01T06:31:44.001Z</time></trkpt><trkpt lat="14.636539319638228" lon="121.0253443352906"><ele>30.0</ele><time>2026-04-01T06:31:45.001Z</time></trkpt><trkpt lat="14.63657968124773" lon="121.02541136157562"><ele>30.0</ele><time>2026-04-01T06:31:46.001Z</time></trkpt><trkpt lat="14.636625386201992" lon="121.02548736377767"><ele>30.0</ele><time>2026-04-01T06:31:47.001Z</time></trkpt><trkpt lat="14.636670863549549" lon="121.02556298749063"><ele>30.0</ele><time>2026-04-01T06:31:48.001Z</time></trkpt><trkpt lat="14.63670984286429" lon="121.02562779563883"><ele>30.0</ele><time>2026-04-01T06:31:49.001Z</time></trkpt><trkpt lat="14.636748400023174" lon="121.02569276799822"><ele>30.0</ele><time>2026-04-01T06:31:50.001Z</time></trkpt><trkpt lat="14.636785654654563" lon="121.02575554537381"><ele>30.0</ele><time>2026-04-01T06:31:51.001Z</time></trkpt><trkpt lat="14.636821310015224" lon="121.02581562772816"><ele>30.0</ele><time>2026-04-01T06:31:52.001Z</time></trkpt><trkpt lat="14.636741410824243" lon="121.02594373188145"><ele>30.0</ele><time>2026-04-01T06:31:53.001Z</time></trkpt><trkpt lat="14.636751337111086" lon="121.0260176520156"><ele>30.0</ele><time>2026-04-01T06:31:54.001Z</time></trkpt><trkpt lat="14.63676792217516" lon="121.02610115105529"><ele>30.0</ele><time>2026-04-01T06:31:55.001Z</time></trkpt><trkpt lat="14.636782097958127" lon="121.02619933732771"><ele>29.4</ele><time>2026-04-01T06:31:56.001Z</time></trkpt><trkpt lat="14.636776635177885" lon="121.02629160119875"><ele>28.8</ele><time>2026-04-01T06:31:57.001Z</time></trkpt><trkpt lat="14.636766924030745" lon="121.02638643355671"><ele>28.200000000000003</ele><time>2026-04-01T06:31:58.001Z</time></trkpt><trkpt lat="14.636764371371363" lon="121.0264567669694"><ele>27.6</ele><time>2026-04-01T06:31:59.001Z</time></trkpt><trkpt lat="14.636746987854085" lon="121.02658957869167"><ele>27.0</ele><time>2026-04-01T06:32:01.001Z</time></trkpt><trkpt lat="14.636742170583927" lon="121.02667527659759"><ele>28.166666666666668</ele><time>2026-04-01T06:32:02.001Z</time></trkpt><trkpt lat="14.63670663220035" lon="121.02675998182485"><ele>29.333333333333336</ele><time>2026-04-01T06:32:03.001Z</time></trkpt><trkpt lat="14.636695360571562" lon="121.02682943850802"><ele>30.5</ele><time>2026-04-01T06:32:05.001Z</time></trkpt><trkpt lat="14.636667371557513" lon="121.02692846299308"><ele>31.666666666666668</ele><time>2026-04-01T06:32:08.001Z</time></trkpt><trkpt lat="14.63664898236091" lon="121.02700655717975"><ele>32.833333333333336</ele><time>2026-04-01T06:32:10.001Z</time></trkpt><trkpt lat="14.636643954397622" lon="121.02708021350003"><ele>34.0</ele><time>2026-04-01T06:32:12.001Z</time></trkpt><trkpt lat="14.636627828509694" lon="121.02714979980439"><ele>34.0</ele><time>2026-04-01T06:32:14.001Z</time></trkpt><trkpt lat="14.63660471792877" lon="121.02726563057512"><ele>34.0</ele><time>2026-04-01T06:32:16.001Z</time></trkpt><trkpt lat="14.636590669654765" lon="121.02735032749203"><ele>34.0</ele><time>2026-04-01T06:32:17.001Z</time></trkpt><trkpt lat="14.636564514155767" lon="121.02741275650628"><ele>34.0</ele><time>2026-04-01T06:32:18.001Z</time></trkpt><trkpt lat="14.636536715655637" lon="121.02749028849978"><ele>34.0</ele><time>2026-04-01T06:32:20.001Z</time></trkpt><trkpt lat="14.636546276114242" lon="121.02760029063019"><ele>33.0</ele><time>2026-04-01T06:32:21.001Z</time></trkpt><trkpt lat="14.636649817586504" lon="121.02774578083792"><ele>32.0</ele><time>2026-04-01T06:32:22.001Z</time></trkpt><trkpt lat="14.636685882787644" lon="121.0278261166234"><ele>31.0</ele><time>2026-04-01T06:32:23.001Z</time></trkpt><trkpt lat="14.636735791088432" lon="121.02790537815731"><ele>30.0</ele><time>2026-04-01T06:32:24.001Z</time></trkpt><trkpt lat="14.636793988512132" lon="121.02799746992031"><ele>30.0</ele><time>2026-04-01T06:32:25.001Z</time></trkpt><trkpt lat="14.636854175856735" lon="121.02809404511493"><ele>30.0</ele><time>2026-04-01T06:32:26.001Z</time></trkpt><trkpt lat="14.636923101919757" lon="121.02818607066862"><ele>30.0</ele><time>2026-04-01T06:32:27.001Z</time></trkpt><trkpt lat="14.636964400797883" lon="121.02828059267415"><ele>30.0</ele><time>2026-04-01T06:32:28.001Z</time></trkpt><trkpt lat="14.637016683980631" lon="121.02835566903592"><ele>30.0</ele><time>2026-04-01T06:32:29.001Z</time></trkpt><trkpt lat="14.637068653909692" lon="121.02843216255353"><ele>28.6</ele><time>2026-04-01T06:32:30.001Z</time></trkpt><trkpt lat="14.63710436275489" lon="121.02849857705034"><ele>27.2</ele><time>2026-04-01T06:32:31.001Z</time></trkpt><trkpt lat="14.637148244664006" lon="121.02856854183295"><ele>25.799999999999997</ele><time>2026-04-01T06:32:32.001Z</time></trkpt><trkpt lat="14.637204366327843" lon="121.02865137685849"><ele>24.4</ele><time>2026-04-01T06:32:33.001Z</time></trkpt><trkpt lat="14.637257753793557" lon="121.0287464487407"><ele>23.0</ele><time>2026-04-01T06:32:34.001Z</time></trkpt><trkpt lat="14.637315792699843" lon="121.02884101946047"><ele>23.0</ele><time>2026-04-01T06:32:35.001Z</time></trkpt><trkpt lat="14.637378549615663" lon="121.02894111156469"><ele>23.0</ele><time>2026-04-01T06:32:36.001Z</time></trkpt><trkpt lat="14.63743871700393" lon="121.02904310364087"><ele>23.0</ele><time>2026-04-01T06:32:37.001Z</time></trkpt><trkpt lat="14.637504627535403" lon="121.02915062091361"><ele>23.0</ele><time>2026-04-01T06:32:38.001Z</time></trkpt><trkpt lat="14.637571446854654" lon="121.02925942033116"><ele>22.0</ele><time>2026-04-01T06:32:39.001Z</time></trkpt><trkpt lat="14.637638872653744" lon="121.02936976957058"><ele>21.0</ele><time>2026-04-01T06:32:40.001Z</time></trkpt><trkpt lat="14.637707204824004" lon="121.02948099367684"><ele>20.0</ele><time>2026-04-01T06:32:41.001Z</time></trkpt><trkpt lat="14.637777502283612" lon="121.0295951474219"><ele>19.0</ele><time>2026-04-01T06:32:42.001Z</time></trkpt><trkpt lat="14.637846775776595" lon="121.02971039755585"><ele>19.0</ele><time>2026-04-01T06:32:43.001Z</time></trkpt><trkpt lat="14.637918109193278" lon="121.02982464304932"><ele>19.0</ele><time>2026-04-01T06:32:44.001Z</time></trkpt><trkpt lat="14.637990359551516" lon="121.0299405973133"><ele>19.0</ele><time>2026-04-01T06:32:45.001Z</time></trkpt><trkpt lat="14.638060718345354" lon="121.03005650821281"><ele>19.0</ele><time>2026-04-01T06:32:46.001Z</time></trkpt><trkpt lat="14.638125779357692" lon="121.03015662845425"><ele>21.4</ele><time>2026-04-01T06:32:47.001Z</time></trkpt><trkpt lat="14.638189100070665" lon="121.03025394109271"><ele>23.799999999999997</ele><time>2026-04-01T06:32:48.001Z</time></trkpt><trkpt lat="14.63824310114582" lon="121.03034272483816"><ele>26.200000000000003</ele><time>2026-04-01T06:32:49.001Z</time></trkpt><trkpt lat="14.638297870894586" lon="121.03043834381612"><ele>28.6</ele><time>2026-04-01T06:32:50.001Z</time></trkpt><trkpt lat="14.638353686017778" lon="121.03052633549228"><ele>31.0</ele><time>2026-04-01T06:32:51.001Z</time></trkpt><trkpt lat="14.638401384970697" lon="121.03060419799854"><ele>31.000000000000004</ele><time>2026-04-01T06:32:52.001Z</time></trkpt><trkpt lat="14.638447036486047" lon="121.030677433978"><ele>31.0</ele><time>2026-04-01T06:32:53.001Z</time></trkpt><trkpt lat="14.638486929772903" lon="121.03074545289543"><ele>31.0</ele><time>2026-04-01T06:32:54.001Z</time></trkpt><trkpt lat="14.638520918156756" lon="121.03080651511127"><ele>31.0</ele><time>2026-04-01T06:32:55Z</time></trkpt><trkpt lat="14.638570714760494" lon="121.03090526700738"><ele>31.000000000000004</ele><time>2026-04-01T06:32:57Z</time></trkpt><trkpt lat="14.638619199316997" lon="121.0309756724149"><ele>31.0</ele><time>2026-04-01T06:32:59Z</time></trkpt><trkpt lat="14.638665445233732" lon="121.03104310990669"><ele>30.6</ele><time>2026-04-01T06:33:01Z</time></trkpt><trkpt lat="14.638731229458605" lon="121.03113270497862"><ele>30.200000000000003</ele><time>2026-04-01T06:33:03Z</time></trkpt><trkpt lat="14.638793462728806" lon="121.03123431361509"><ele>29.799999999999997</ele><time>2026-04-01T06:33:05Z</time></trkpt><trkpt lat="14.638839019799839" lon="121.03130054351863"><ele>29.4</ele><time>2026-04-01T06:33:06Z</time></trkpt><trkpt lat="14.638878812565546" lon="121.03137187098856"><ele>29.0</ele><time>2026-04-01T06:33:07Z</time></trkpt><trkpt lat="14.63892716939362" lon="121.03143673886566"><ele>28.999999999999996</ele><time>2026-04-01T06:33:08Z</time></trkpt><trkpt lat="14.638977617801698" lon="121.03151066025463"><ele>29.0</ele><time>2026-04-01T06:33:09Z</time></trkpt><trkpt lat="14.639024607591463" lon="121.03158826238932"><ele>29.0</ele><time>2026-04-01T06:33:10Z</time></trkpt><trkpt lat="14.639072288389675" lon="121.03166460873564"><ele>29.0</ele><time>2026-04-01T06:33:11Z</time></trkpt><trkpt lat="14.639116140883791" lon="121.03174007344826"><ele>28.999999999999996</ele><time>2026-04-01T06:33:12Z</time></trkpt><trkpt lat="14.639159582182806" lon="121.03181988921423"><ele>29.0</ele><time>2026-04-01T06:33:13Z</time></trkpt><trkpt lat="14.63919792625491" lon="121.03189452372052"><ele>29.333333333333332</ele><time>2026-04-01T06:33:14Z</time></trkpt><trkpt lat="14.639234210995635" lon="121.03197030668028"><ele>29.666666666666664</ele><time>2026-04-01T06:33:15Z</time></trkpt><trkpt lat="14.639287804428783" lon="121.03204690450296"><ele>30.0</ele><time>2026-04-01T06:33:16Z</time></trkpt><trkpt lat="14.639345867378916" lon="121.03213581950747"><ele>30.333333333333336</ele><time>2026-04-01T06:33:17Z</time></trkpt><trkpt lat="14.639394938888353" lon="121.03220587480443"><ele>30.666666666666668</ele><time>2026-04-01T06:33:18Z</time></trkpt><trkpt lat="14.639437761415945" lon="121.03228589255474"><ele>31.0</ele><time>2026-04-01T06:33:19Z</time></trkpt><trkpt lat="14.639484911117403" lon="121.03235900528911"><ele>31.000000000000004</ele><time>2026-04-01T06:33:20Z</time></trkpt><trkpt lat="14.639530479097042" lon="121.03243125807575"><ele>31.0</ele><time>2026-04-01T06:33:21Z</time></trkpt><trkpt lat="14.63957598210079" lon="121.03250782291659"><ele>31.0</ele><time>2026-04-01T06:33:22Z</time></trkpt><trkpt lat="14.63961991040771" lon="121.03258285703339"><ele>31.0</ele><time>2026-04-01T06:33:23Z</time></trkpt><trkpt lat="14.639670048407531" lon="121.03266101658073"><ele>31.000000000000004</ele><time>2026-04-01T06:33:24Z</time></trkpt><trkpt lat="14.639715898356293" lon="121.03273747430327"><ele>31.0</ele><time>2026-04-01T06:33:25Z</time></trkpt><trkpt lat="14.639761461091945" lon="121.03281680796775"><ele>31.333333333333336</ele><time>2026-04-01T06:33:26Z</time></trkpt><trkpt lat="14.639799063788683" lon="121.03288823492073"><ele>31.666666666666668</ele><time>2026-04-01T06:33:27Z</time></trkpt><trkpt lat="14.639837449458847" lon="121.03295582024211"><ele>32.0</ele><time>2026-04-01T06:33:28Z</time></trkpt><trkpt lat="14.639883289466535" lon="121.03302924940502"><ele>32.333333333333336</ele><time>2026-04-01T06:33:29Z</time></trkpt><trkpt lat="14.63992754434013" lon="121.03310069119753"><ele>32.666666666666664</ele><time>2026-04-01T06:33:30Z</time></trkpt><trkpt lat="14.639974491130667" lon="121.03317865183153"><ele>33.0</ele><time>2026-04-01T06:33:31Z</time></trkpt><trkpt lat="14.640024749161274" lon="121.0332674569423"><ele>33.333333333333336</ele><time>2026-04-01T06:33:32Z</time></trkpt><trkpt lat="14.640075407400175" lon="121.03335475365687"><ele>33.666666666666664</ele><time>2026-04-01T06:33:33Z</time></trkpt><trkpt lat="14.640123825859208" lon="121.03343294280769"><ele>34.0</ele><time>2026-04-01T06:33:34Z</time></trkpt><trkpt lat="14.640169650940301" lon="121.03350133371084"><ele>34.33333333333333</ele><time>2026-04-01T06:33:35Z</time></trkpt><trkpt lat="14.640209124411491" lon="121.03355230409296"><ele>34.666666666666664</ele><time>2026-04-01T06:33:37Z</time></trkpt><trkpt lat="14.64024880993798" lon="121.03361047745113"><ele>35.0</ele><time>2026-04-01T06:33:42Z</time></trkpt><trkpt lat="14.640285967143194" lon="121.03366993939699"><ele>34.666666666666664</ele><time>2026-04-01T06:33:44Z</time></trkpt><trkpt lat="14.640338265848056" lon="121.03374539117614"><ele>34.33333333333333</ele><time>2026-04-01T06:33:47.001Z</time></trkpt><trkpt lat="14.640460528924182" lon="121.03374580726101"><ele>34.0</ele><time>2026-04-01T06:35:54.001Z</time></trkpt><trkpt lat="14.640435839320288" lon="121.03367608563619"><ele>33.666666666666664</ele><time>2026-04-01T06:36:19.001Z</time></trkpt><trkpt lat="14.640494778646866" lon="121.03370265983602"><ele>33.333333333333336</ele><time>2026-04-01T07:22:17Z</time></trkpt><trkpt lat="14.640539949419239" lon="121.03376166567062"><ele>33.0</ele><time>2026-04-01T07:22:43Z</time></trkpt><trkpt lat="14.640441130860879" lon="121.03374328554867"><ele>33.0</ele><time>2026-04-01T07:31:50Z</time></trkpt><trkpt lat="14.640427180959193" lon="121.03390579683055"><ele>33.0</ele><time>2026-04-01T07:32:29Z</time></trkpt><trkpt lat="14.640494659809255" lon="121.03401455772949"><ele>33.0</ele><time>2026-04-01T07:32:31Z</time></trkpt><trkpt lat="14.640536245193562" lon="121.0340772456657"><ele>33.0</ele><time>2026-04-01T07:32:32Z</time></trkpt><trkpt lat="14.640581525222586" lon="121.0341416405866"><ele>33.0</ele><time>2026-04-01T07:32:33Z</time></trkpt><trkpt lat="14.640631113927931" lon="121.03421029551738"><ele>33.833333333333336</ele><time>2026-04-01T07:32:34Z</time></trkpt><trkpt lat="14.640672343490918" lon="121.03427622179152"><ele>34.666666666666664</ele><time>2026-04-01T07:32:35Z</time></trkpt><trkpt lat="14.640714834948074" lon="121.03435112105785"><ele>35.5</ele><time>2026-04-01T07:32:36Z</time></trkpt><trkpt lat="14.640760963733817" lon="121.03442776733009"><ele>36.33333333333333</ele><time>2026-04-01T07:32:37Z</time></trkpt><trkpt lat="14.64080671706462" lon="121.03450230724371"><ele>37.166666666666664</ele><time>2026-04-01T07:32:38Z</time></trkpt><trkpt lat="14.640833570950344" lon="121.03457065306407"><ele>38.0</ele><time>2026-04-01T07:32:39Z</time></trkpt><trkpt lat="14.640874401739369" lon="121.03462270626109"><ele>38.0</ele><time>2026-04-01T07:32:40Z</time></trkpt><trkpt lat="14.6408943752933" lon="121.0346849686802"><ele>38.0</ele><time>2026-04-01T07:32:41Z</time></trkpt><trkpt lat="14.640944561801826" lon="121.03475230872552"><ele>38.0</ele><time>2026-04-01T07:32:42Z</time></trkpt><trkpt lat="14.640988537333365" lon="121.03481732727958"><ele>38.0</ele><time>2026-04-01T07:32:43Z</time></trkpt><trkpt lat="14.64102653330346" lon="121.03488990942822"><ele>38.0</ele><time>2026-04-01T07:32:44Z</time></trkpt><trkpt lat="14.641068226916376" lon="121.03496285093433"><ele>38.0</ele><time>2026-04-01T07:32:45Z</time></trkpt><trkpt lat="14.641126323074472" lon="121.0350263459363"><ele>37.666666666666664</ele><time>2026-04-01T07:32:46Z</time></trkpt><trkpt lat="14.641165531901322" lon="121.03511081610179"><ele>37.33333333333333</ele><time>2026-04-01T07:32:47Z</time></trkpt><trkpt lat="14.641211951196063" lon="121.03517834569647"><ele>37.0</ele><time>2026-04-01T07:32:48Z</time></trkpt><trkpt lat="14.641251003945497" lon="121.03524551693818"><ele>36.666666666666664</ele><time>2026-04-01T07:32:49Z</time></trkpt><trkpt lat="14.641291730483415" lon="121.0353174903347"><ele>36.333333333333336</ele><time>2026-04-01T07:32:50Z</time></trkpt><trkpt lat="14.64134480683541" lon="121.03538152053142"><ele>36.0</ele><time>2026-04-01T07:32:51Z</time></trkpt><trkpt lat="14.641392526989224" lon="121.03544706597003"><ele>36.0</ele><time>2026-04-01T07:32:52Z</time></trkpt><trkpt lat="14.641432156085715" lon="121.03551056848634"><ele>36.0</ele><time>2026-04-01T07:32:53Z</time></trkpt><trkpt lat="14.641487961402234" lon="121.03561345812726"><ele>36.0</ele><time>2026-04-01T07:32:55Z</time></trkpt><trkpt lat="14.641554100845903" lon="121.03571937434802"><ele>36.0</ele><time>2026-04-01T07:32:57Z</time></trkpt><trkpt lat="14.64159122673129" lon="121.03578329708016"><ele>36.0</ele><time>2026-04-01T07:32:58Z</time></trkpt><trkpt lat="14.641629500168222" lon="121.03584193574567"><ele>36.0</ele><time>2026-04-01T07:32:59Z</time></trkpt><trkpt lat="14.641672053388145" lon="121.03590894271308"><ele>36.0</ele><time>2026-04-01T07:33:00Z</time></trkpt><trkpt lat="14.641711470415906" lon="121.03597228381983"><ele>36.0</ele><time>2026-04-01T07:33:01Z</time></trkpt><trkpt lat="14.641767748814939" lon="121.03606193877056"><ele>36.0</ele><time>2026-04-01T07:33:03Z</time></trkpt><trkpt lat="14.641799777838083" lon="121.03613194138956"><ele>36.0</ele><time>2026-04-01T07:33:05Z</time></trkpt><trkpt lat="14.641694844942155" lon="121.03622506516358"><ele>36.0</ele><time>2026-04-01T07:33:08Z</time></trkpt><trkpt lat="14.641626248242964" lon="121.03627149187083"><ele>36.0</ele><time>2026-04-01T07:33:09Z</time></trkpt><trkpt lat="14.641559730255924" lon="121.03632998316486"><ele>36.0</ele><time>2026-04-01T07:33:10Z</time></trkpt><trkpt lat="14.641486405048944" lon="121.03638654823224"><ele>36.0</ele><time>2026-04-01T07:33:11Z</time></trkpt><trkpt lat="14.641404080895132" lon="121.03644337274758"><ele>36.0</ele><time>2026-04-01T07:33:12Z</time></trkpt><trkpt lat="14.64133115142427" lon="121.03649171765659"><ele>36.0</ele><time>2026-04-01T07:33:13Z</time></trkpt><trkpt lat="14.641255260249956" lon="121.03654422773822"><ele>36.0</ele><time>2026-04-01T07:33:14Z</time></trkpt><trkpt lat="14.641178984659433" lon="121.03658687516393"><ele>36.0</ele><time>2026-04-01T07:33:15Z</time></trkpt><trkpt lat="14.641075534550154" lon="121.03665869076654"><ele>36.0</ele><time>2026-04-01T07:33:17Z</time></trkpt><trkpt lat="14.64100534169908" lon="121.0367024483252"><ele>36.0</ele><time>2026-04-01T07:33:19Z</time></trkpt><trkpt lat="14.64090339639445" lon="121.03674820734292"><ele>36.0</ele><time>2026-04-01T07:33:22Z</time></trkpt><trkpt lat="14.640869916990159" lon="121.03682502795102"><ele>36.833333333333336</ele><time>2026-04-01T07:33:23Z</time></trkpt><trkpt lat="14.640800318195941" lon="121.03687020711648"><ele>37.666666666666664</ele><time>2026-04-01T07:33:24Z</time></trkpt><trkpt lat="14.640729950067566" lon="121.03691657752344"><ele>38.5</ele><time>2026-04-01T07:33:25Z</time></trkpt><trkpt lat="14.64065704582652" lon="121.03696461914488"><ele>39.33333333333333</ele><time>2026-04-01T07:33:26Z</time></trkpt><trkpt lat="14.640575404967876" lon="121.03701841793539"><ele>40.166666666666664</ele><time>2026-04-01T07:33:27Z</time></trkpt><trkpt lat="14.640503175079285" lon="121.037066015177"><ele>41.0</ele><time>2026-04-01T07:33:28Z</time></trkpt><trkpt lat="14.640433132457341" lon="121.03710941917925"><ele>41.0</ele><time>2026-04-01T07:33:29Z</time></trkpt><trkpt lat="14.640346680782228" lon="121.03716753988998"><ele>41.0</ele><time>2026-04-01T07:33:30Z</time></trkpt><trkpt lat="14.640239671182837" lon="121.03720088408988"><ele>41.0</ele><time>2026-04-01T07:33:31Z</time></trkpt><trkpt lat="14.640142821674669" lon="121.03726049425798"><ele>41.0</ele><time>2026-04-01T07:33:32Z</time></trkpt><trkpt lat="14.640057510130847" lon="121.03732399544252"><ele>41.0</ele><time>2026-04-01T07:33:33Z</time></trkpt><trkpt lat="14.639964158838058" lon="121.03738915042025"><ele>41.5</ele><time>2026-04-01T07:33:34Z</time></trkpt><trkpt lat="14.639865965661155" lon="121.03745231174867"><ele>42.0</ele><time>2026-04-01T07:33:35Z</time></trkpt><trkpt lat="14.639763392040017" lon="121.03751293838845"><ele>42.5</ele><time>2026-04-01T07:33:36Z</time></trkpt><trkpt lat="14.639661419905108" lon="121.03757869172868"><ele>43.0</ele><time>2026-04-01T07:33:37Z</time></trkpt><trkpt lat="14.639556514791721" lon="121.0376462823277"><ele>43.0</ele><time>2026-04-01T07:33:38Z</time></trkpt><trkpt lat="14.639467791477493" lon="121.03774093497165"><ele>43.0</ele><time>2026-04-01T07:33:39Z</time></trkpt><trkpt lat="14.639364327511894" lon="121.03780884904343"><ele>43.0</ele><time>2026-04-01T07:33:40Z</time></trkpt><trkpt lat="14.639263298616264" lon="121.03787497581935"><ele>43.0</ele><time>2026-04-01T07:33:41Z</time></trkpt><trkpt lat="14.639161729001497" lon="121.03794145652364"><ele>42.599999999999994</ele><time>2026-04-01T07:33:42Z</time></trkpt><trkpt lat="14.63906824950027" lon="121.03798868056717"><ele>42.199999999999996</ele><time>2026-04-01T07:33:43Z</time></trkpt><trkpt lat="14.638995984633867" lon="121.03803975484585"><ele>41.8</ele><time>2026-04-01T07:33:44Z</time></trkpt><trkpt lat="14.638927599319837" lon="121.03807894071507"><ele>41.4</ele><time>2026-04-01T07:33:45Z</time></trkpt><trkpt lat="14.638843741072177" lon="121.03813968398148"><ele>41.0</ele><time>2026-04-01T07:33:46Z</time></trkpt><trkpt lat="14.638774834077878" lon="121.03819630840232"><ele>41.0</ele><time>2026-04-01T07:33:47Z</time></trkpt><trkpt lat="14.63869770884342" lon="121.03824918145828"><ele>41.0</ele><time>2026-04-01T07:33:49Z</time></trkpt><trkpt lat="14.638638764760378" lon="121.03828181701002"><ele>41.0</ele><time>2026-04-01T07:34:43.999Z</time></trkpt><trkpt lat="14.638539420035256" lon="121.03834704217944"><ele>41.0</ele><time>2026-04-01T07:34:45.999Z</time></trkpt><trkpt lat="14.638467554760831" lon="121.03839543013818"><ele>41.0</ele><time>2026-04-01T07:34:46.999Z</time></trkpt><trkpt lat="14.63835888789916" lon="121.03840264360554"><ele>41.75</ele><time>2026-04-01T07:34:47.999Z</time></trkpt><trkpt lat="14.638277745006013" lon="121.03846643328589"><ele>42.5</ele><time>2026-04-01T07:34:48.999Z</time></trkpt><trkpt lat="14.638184648877598" lon="121.03853354087688"><ele>43.25</ele><time>2026-04-01T07:34:49.999Z</time></trkpt><trkpt lat="14.63808718053819" lon="121.03860117470883"><ele>44.0</ele><time>2026-04-01T07:34:50.999Z</time></trkpt><trkpt lat="14.637986867643571" lon="121.0386691318582"><ele>44.0</ele><time>2026-04-01T07:34:51.999Z</time></trkpt><trkpt lat="14.637881191097469" lon="121.03873794798406"><ele>44.0</ele><time>2026-04-01T07:34:52.999Z</time></trkpt><trkpt lat="14.637781502139246" lon="121.03880341139224"><ele>44.0</ele><time>2026-04-01T07:34:53.999Z</time></trkpt><trkpt lat="14.63768775728078" lon="121.03886620083142"><ele>44.0</ele><time>2026-04-01T07:34:54.999Z</time></trkpt><trkpt lat="14.637591081236478" lon="121.03893001351119"><ele>43.800000000000004</ele><time>2026-04-01T07:34:55.999Z</time></trkpt><trkpt lat="14.637499799701766" lon="121.03898859359475"><ele>43.6</ele><time>2026-04-01T07:34:56.999Z</time></trkpt><trkpt lat="14.637407595861166" lon="121.03904918931396"><ele>43.4</ele><time>2026-04-01T07:34:57.999Z</time></trkpt><trkpt lat="14.637314670390502" lon="121.03911256660284"><ele>43.2</ele><time>2026-04-01T07:34:58.999Z</time></trkpt><trkpt lat="14.637224303543286" lon="121.03917906357447"><ele>43.0</ele><time>2026-04-01T07:34:59.999Z</time></trkpt><trkpt lat="14.63713282121643" lon="121.03924739914888"><ele>43.0</ele><time>2026-04-01T07:35:00.999Z</time></trkpt><trkpt lat="14.637046636804852" lon="121.03931108882765"><ele>43.0</ele><time>2026-04-01T07:35:01.999Z</time></trkpt><trkpt lat="14.636960241171769" lon="121.03937101859577"><ele>43.0</ele><time>2026-04-01T07:35:02.999Z</time></trkpt><trkpt lat="14.636880466061667" lon="121.03943149944219"><ele>43.0</ele><time>2026-04-01T07:35:03.999Z</time></trkpt><trkpt lat="14.63679217334925" lon="121.03948980327011"><ele>43.0</ele><time>2026-04-01T07:35:04.999Z</time></trkpt><trkpt lat="14.63671510475742" lon="121.03954009681338"><ele>42.199999999999996</ele><time>2026-04-01T07:35:05.999Z</time></trkpt><trkpt lat="14.636638844885043" lon="121.0395954930499"><ele>41.4</ele><time>2026-04-01T07:35:06.999Z</time></trkpt><trkpt lat="14.636548289588067" lon="121.03963652858938"><ele>40.599999999999994</ele><time>2026-04-01T07:35:07.999Z</time></trkpt><trkpt lat="14.636464106689742" lon="121.0396921245492"><ele>39.8</ele><time>2026-04-01T07:35:08.999Z</time></trkpt><trkpt lat="14.636378809640325" lon="121.0397477481538"><ele>39.0</ele><time>2026-04-01T07:35:09.999Z</time></trkpt><trkpt lat="14.636293722664163" lon="121.03981144619961"><ele>39.0</ele><time>2026-04-01T07:35:10.999Z</time></trkpt><trkpt lat="14.63619437513867" lon="121.03986303437907"><ele>39.0</ele><time>2026-04-01T07:35:11.999Z</time></trkpt><trkpt lat="14.636097256170192" lon="121.03991469895986"><ele>39.0</ele><time>2026-04-01T07:35:12.999Z</time></trkpt><trkpt lat="14.636002269852563" lon="121.03996565957729"><ele>39.0</ele><time>2026-04-01T07:35:13.999Z</time></trkpt><trkpt lat="14.635908457225083" lon="121.04002273836879"><ele>39.0</ele><time>2026-04-01T07:35:14.999Z</time></trkpt><trkpt lat="14.635811823203175" lon="121.0400858337509"><ele>39.75</ele><time>2026-04-01T07:35:15.999Z</time></trkpt><trkpt lat="14.635710366412855" lon="121.04015373163757"><ele>40.5</ele><time>2026-04-01T07:35:16.999Z</time></trkpt><trkpt lat="14.635612403809947" lon="121.04021749585404"><ele>41.25</ele><time>2026-04-01T07:35:17.999Z</time></trkpt><trkpt lat="14.635508493565519" lon="121.04028709242688"><ele>42.0</ele><time>2026-04-01T07:35:18.999Z</time></trkpt><trkpt lat="14.635399781220721" lon="121.04035714308093"><ele>41.75</ele><time>2026-04-01T07:35:19.999Z</time></trkpt><trkpt lat="14.635289176830911" lon="121.04042532939779"><ele>41.5</ele><time>2026-04-01T07:35:20.999Z</time></trkpt><trkpt lat="14.635181721964482" lon="121.04049727676043"><ele>41.25</ele><time>2026-04-01T07:35:21.999Z</time></trkpt><trkpt lat="14.635082414431379" lon="121.0405530664506"><ele>41.0</ele><time>2026-04-01T07:35:22.999Z</time></trkpt><trkpt lat="14.63498867160499" lon="121.04062042388747"><ele>41.0</ele><time>2026-04-01T07:35:23.999Z</time></trkpt><trkpt lat="14.634908941443062" lon="121.0406737472836"><ele>41.0</ele><time>2026-04-01T07:35:24.999Z</time></trkpt><trkpt lat="14.634832848827772" lon="121.04072317932238"><ele>41.0</ele><time>2026-04-01T07:35:25.999Z</time></trkpt><trkpt lat="14.634761653720302" lon="121.04076533270663"><ele>41.0</ele><time>2026-04-01T07:35:26.999Z</time></trkpt><trkpt lat="14.634689582164958" lon="121.04080856443207"><ele>41.0</ele><time>2026-04-01T07:35:27.999Z</time></trkpt><trkpt lat="14.634611487811945" lon="121.04085297240293"><ele>41.0</ele><time>2026-04-01T07:35:28.999Z</time></trkpt><trkpt lat="14.63452275628901" lon="121.04091078361697"><ele>41.4</ele><time>2026-04-01T07:35:29.999Z</time></trkpt><trkpt lat="14.634442765638969" lon="121.04097298714947"><ele>41.8</ele><time>2026-04-01T07:35:30.999Z</time></trkpt><trkpt lat="14.634357949580679" lon="121.04102393295946"><ele>42.199999999999996</ele><time>2026-04-01T07:35:31.999Z</time></trkpt><trkpt lat="14.634265166590094" lon="121.04106546341232"><ele>42.599999999999994</ele><time>2026-04-01T07:35:33Z</time></trkpt><trkpt lat="14.634181178251607" lon="121.04111284267947"><ele>43.0</ele><time>2026-04-01T07:35:34Z</time></trkpt><trkpt lat="14.634117417283848" lon="121.04117082470012"><ele>43.0</ele><time>2026-04-01T07:35:35Z</time></trkpt><trkpt lat="14.634064627118603" lon="121.04120837315492"><ele>43.0</ele><time>2026-04-01T07:35:36Z</time></trkpt><trkpt lat="14.633968897163971" lon="121.04127774802161"><ele>43.0</ele><time>2026-04-01T07:35:38Z</time></trkpt><trkpt lat="14.63389353455477" lon="121.0413305187708"><ele>43.0</ele><time>2026-04-01T07:35:40Z</time></trkpt><trkpt lat="14.633815723609525" lon="121.04137677898878"><ele>43.0</ele><time>2026-04-01T07:35:43Z</time></trkpt><trkpt lat="14.63370618676917" lon="121.0414408950615"><ele>43.00000000000001</ele><time>2026-04-01T07:35:45Z</time></trkpt><trkpt lat="14.633646261983634" lon="121.04148231683709"><ele>43.0</ele><time>2026-04-01T07:35:46Z</time></trkpt><trkpt lat="14.633586482789525" lon="121.04153089335541"><ele>43.0</ele><time>2026-04-01T07:35:47Z</time></trkpt><trkpt lat="14.633529142318386" lon="121.04157739833796"><ele>43.0</ele><time>2026-04-01T07:35:48Z</time></trkpt><trkpt lat="14.633474409936817" lon="121.04162762131767"><ele>43.0</ele><time>2026-04-01T07:35:49Z</time></trkpt><trkpt lat="14.633430745779366" lon="121.04167567059254"><ele>43.00000000000001</ele><time>2026-04-01T07:35:50Z</time></trkpt><trkpt lat="14.63337179094966" lon="121.04170399032178"><ele>43.0</ele><time>2026-04-01T07:35:51Z</time></trkpt><trkpt lat="14.63335874515754" lon="121.0418309783905"><ele>43.333333333333336</ele><time>2026-04-01T07:35:52Z</time></trkpt><trkpt lat="14.633340682535245" lon="121.04191865060042"><ele>43.66666666666667</ele><time>2026-04-01T07:35:53Z</time></trkpt><trkpt lat="14.633328351423073" lon="121.04200453766003"><ele>44.0</ele><time>2026-04-01T07:35:54Z</time></trkpt><trkpt lat="14.633309552758373" lon="121.04208750243636"><ele>44.333333333333336</ele><time>2026-04-01T07:35:55Z</time></trkpt><trkpt lat="14.633287912724962" lon="121.04218531223621"><ele>44.666666666666664</ele><time>2026-04-01T07:35:56Z</time></trkpt><trkpt lat="14.633262787043021" lon="121.04228017697487"><ele>45.0</ele><time>2026-04-01T07:35:57Z</time></trkpt><trkpt lat="14.633243168869418" lon="121.04238749773324"><ele>45.6</ele><time>2026-04-01T07:35:58Z</time></trkpt><trkpt lat="14.633221704027548" lon="121.04248927966334"><ele>46.2</ele><time>2026-04-01T07:35:59Z</time></trkpt><trkpt lat="14.633193484099298" lon="121.04259000025495"><ele>46.8</ele><time>2026-04-01T07:36:00Z</time></trkpt><trkpt lat="14.6331765081296" lon="121.04268782724512"><ele>47.4</ele><time>2026-04-01T07:36:01Z</time></trkpt><trkpt lat="14.633157116186148" lon="121.04277546086108"><ele>48.0</ele><time>2026-04-01T07:36:02Z</time></trkpt><trkpt lat="14.633141921099691" lon="121.04284378741264"><ele>48.0</ele><time>2026-04-01T07:36:03Z</time></trkpt><trkpt lat="14.633130053515456" lon="121.04290934881745"><ele>48.0</ele><time>2026-04-01T07:36:04Z</time></trkpt><trkpt lat="14.633100465909738" lon="121.04302292555016"><ele>48.0</ele><time>2026-04-01T07:36:06Z</time></trkpt><trkpt lat="14.63307075551798" lon="121.04314849577274"><ele>48.0</ele><time>2026-04-01T07:36:08Z</time></trkpt><trkpt lat="14.633049408701767" lon="121.0432690168631"><ele>48.0</ele><time>2026-04-01T07:36:10Z</time></trkpt><trkpt lat="14.633031244457923" lon="121.04334352952947"><ele>48.166666666666664</ele><time>2026-04-01T07:36:11Z</time></trkpt><trkpt lat="14.632998918942677" lon="121.0434774837755"><ele>48.33333333333333</ele><time>2026-04-01T07:36:13Z</time></trkpt><trkpt lat="14.632990161583724" lon="121.04355033588972"><ele>48.5</ele><time>2026-04-01T07:36:14Z</time></trkpt><trkpt lat="14.632974388163325" lon="121.04362189364252"><ele>48.666666666666664</ele><time>2026-04-01T07:36:15Z</time></trkpt><trkpt lat="14.632943838744167" lon="121.04372067912875"><ele>48.83333333333333</ele><time>2026-04-01T07:36:17Z</time></trkpt><trkpt lat="14.632927563883577" lon="121.04378599504051"><ele>49.0</ele><time>2026-04-01T07:36:18Z</time></trkpt><trkpt lat="14.632904516748244" lon="121.04386185720683"><ele>49.0</ele><time>2026-04-01T07:36:19Z</time></trkpt><trkpt lat="14.63289957128202" lon="121.04397179198187"><ele>49.0</ele><time>2026-04-01T07:36:21Z</time></trkpt><trkpt lat="14.632879303076706" lon="121.0440795281928"><ele>49.0</ele><time>2026-04-01T07:36:24Z</time></trkpt><trkpt lat="14.632858374963243" lon="121.04419077187026"><ele>49.0</ele><time>2026-04-01T07:36:26Z</time></trkpt><trkpt lat="14.632865154356436" lon="121.04428596426571"><ele>49.0</ele><time>2026-04-01T07:36:28Z</time></trkpt><trkpt lat="14.632884096632733" lon="121.04435400308923"><ele>49.6</ele><time>2026-04-01T07:36:35Z</time></trkpt><trkpt lat="14.632904024433524" lon="121.04443606521461"><ele>50.2</ele><time>2026-04-01T07:36:43.999Z</time></trkpt><trkpt lat="14.632939889760035" lon="121.04452402306488"><ele>50.800000000000004</ele><time>2026-04-01T07:36:45.999Z</time></trkpt><trkpt lat="14.632975681868242" lon="121.04463053818908"><ele>51.400000000000006</ele><time>2026-04-01T07:36:47.999Z</time></trkpt><trkpt lat="14.633023858842334" lon="121.0447474509602"><ele>52.0</ele><time>2026-04-01T07:36:49.999Z</time></trkpt><trkpt lat="14.633065170490587" lon="121.04480639571703"><ele>51.99999999999999</ele><time>2026-04-01T07:36:50.999Z</time></trkpt><trkpt lat="14.633119075559014" lon="121.04491845189806"><ele>52.0</ele><time>2026-04-01T07:36:52.999Z</time></trkpt><trkpt lat="14.633165043506262" lon="121.04497793255766"><ele>52.0</ele><time>2026-04-01T07:36:53.999Z</time></trkpt><trkpt lat="14.633221196627863" lon="121.04502590545206"><ele>52.0</ele><time>2026-04-01T07:36:54.999Z</time></trkpt><trkpt lat="14.633277391855955" lon="121.04507468829576"><ele>51.99999999999999</ele><time>2026-04-01T07:36:55.999Z</time></trkpt><trkpt lat="14.633341243467441" lon="121.04511289871388"><ele>52.0</ele><time>2026-04-01T07:36:56.999Z</time></trkpt><trkpt lat="14.633405866009602" lon="121.04513740833194"><ele>50.6</ele><time>2026-04-01T07:36:57.999Z</time></trkpt><trkpt lat="14.633478761501625" lon="121.04516337351639"><ele>49.2</ele><time>2026-04-01T07:36:58.999Z</time></trkpt><trkpt lat="14.633581609155916" lon="121.04519380062546"><ele>47.8</ele><time>2026-04-01T07:37:00.999Z</time></trkpt><trkpt lat="14.633668870306973" lon="121.0452169166713"><ele>46.4</ele><time>2026-04-01T07:37:02.999Z</time></trkpt><trkpt lat="14.633795076198888" lon="121.04525977442549"><ele>45.0</ele><time>2026-04-01T07:37:04.999Z</time></trkpt><trkpt lat="14.633872845337958" lon="121.04528184943332"><ele>45.0</ele><time>2026-04-01T07:37:05.999Z</time></trkpt><trkpt lat="14.633954285664004" lon="121.04530857590014"><ele>45.0</ele><time>2026-04-01T07:37:06.999Z</time></trkpt><trkpt lat="14.634038187359835" lon="121.04532942028112"><ele>45.0</ele><time>2026-04-01T07:37:07.999Z</time></trkpt><trkpt lat="14.63412363688526" lon="121.04535333532888"><ele>45.0</ele><time>2026-04-01T07:37:08.999Z</time></trkpt><trkpt lat="14.634188722987442" lon="121.04537026674484"><ele>45.0</ele><time>2026-04-01T07:37:09.999Z</time></trkpt><trkpt lat="14.634256250338717" lon="121.04538558527165"><ele>45.0</ele><time>2026-04-01T07:37:10.999Z</time></trkpt><trkpt lat="14.634325141458737" lon="121.04540140074162"><ele>45.0</ele><time>2026-04-01T07:37:12Z</time></trkpt><trkpt lat="14.634389610042284" lon="121.04540965698995"><ele>45.0</ele><time>2026-04-01T07:37:13Z</time></trkpt><trkpt lat="14.634460042700221" lon="121.04544177852469"><ele>45.0</ele><time>2026-04-01T07:37:15Z</time></trkpt><trkpt lat="14.634464531759619" lon="121.04556877904443"><ele>45.0</ele><time>2026-04-01T07:37:18Z</time></trkpt><trkpt lat="14.634445435773296" lon="121.04563247874816"><ele>45.0</ele><time>2026-04-01T07:37:19Z</time></trkpt><trkpt lat="14.63441755030993" lon="121.04571061106991"><ele>45.0</ele><time>2026-04-01T07:37:20Z</time></trkpt><trkpt lat="14.63439575826193" lon="121.04579889443595"><ele>45.2</ele><time>2026-04-01T07:37:21Z</time></trkpt><trkpt lat="14.634378483350558" lon="121.04589765604695"><ele>45.4</ele><time>2026-04-01T07:37:22Z</time></trkpt><trkpt lat="14.634354586562063" lon="121.04599234892883"><ele>45.599999999999994</ele><time>2026-04-01T07:37:23Z</time></trkpt><trkpt lat="14.634333230439273" lon="121.04608397451085"><ele>45.8</ele><time>2026-04-01T07:37:24Z</time></trkpt><trkpt lat="14.634307693769419" lon="121.04617946502296"><ele>46.0</ele><time>2026-04-01T07:37:25Z</time></trkpt><trkpt lat="14.634278559490408" lon="121.04627449602279"><ele>46.0</ele><time>2026-04-01T07:37:26Z</time></trkpt><trkpt lat="14.63424619413389" lon="121.04636357969255"><ele>46.0</ele><time>2026-04-01T07:37:27Z</time></trkpt><trkpt lat="14.634216889067806" lon="121.04644098742352"><ele>46.0</ele><time>2026-04-01T07:37:28Z</time></trkpt><trkpt lat="14.634188446265505" lon="121.04651574069179"><ele>46.0</ele><time>2026-04-01T07:37:29Z</time></trkpt><trkpt lat="14.634154729671437" lon="121.04659322253443"><ele>46.0</ele><time>2026-04-01T07:37:30Z</time></trkpt><trkpt lat="14.634124249437404" lon="121.04666139570207"><ele>46.0</ele><time>2026-04-01T07:37:31Z</time></trkpt><trkpt lat="14.63409654466483" lon="121.04672602952434"><ele>46.333333333333336</ele><time>2026-04-01T07:37:32Z</time></trkpt><trkpt lat="14.634072793640422" lon="121.04678651848025"><ele>46.66666666666667</ele><time>2026-04-01T07:37:33Z</time></trkpt><trkpt lat="14.634044491953492" lon="121.04684847937254"><ele>47.0</ele><time>2026-04-01T07:37:34Z</time></trkpt><trkpt lat="14.63400158781558" lon="121.04692212596262"><ele>47.333333333333336</ele><time>2026-04-01T07:37:36Z</time></trkpt><trkpt lat="14.633953542222772" lon="121.04701324965005"><ele>47.666666666666664</ele><time>2026-04-01T07:37:38Z</time></trkpt><trkpt lat="14.63392303527848" lon="121.04708557438218"><ele>48.0</ele><time>2026-04-01T07:37:40Z</time></trkpt><trkpt lat="14.633898132968598" lon="121.04714678154578"><ele>48.0</ele><time>2026-04-01T07:37:42Z</time></trkpt><trkpt lat="14.63396382436491" lon="121.04724447680728"><ele>48.0</ele><time>2026-04-01T07:37:44Z</time></trkpt><trkpt lat="14.634040804438795" lon="121.0472504800621"><ele>48.0</ele><time>2026-04-01T07:37:45Z</time></trkpt><trkpt lat="14.634120308165574" lon="121.04727065129818"><ele>48.0</ele><time>2026-04-01T07:37:46Z</time></trkpt><trkpt lat="14.63421259230715" lon="121.04729287629267"><ele>48.0</ele><time>2026-04-01T07:37:47Z</time></trkpt><trkpt lat="14.63430711672413" lon="121.04732043242228"><ele>48.0</ele><time>2026-04-01T07:37:48Z</time></trkpt><trkpt lat="14.634399974300338" lon="121.04734437882155"><ele>48.0</ele><time>2026-04-01T07:37:49Z</time></trkpt><trkpt lat="14.63449214075917" lon="121.04737186022265"><ele>48.0</ele><time>2026-04-01T07:37:50Z</time></trkpt><trkpt lat="14.634583264515275" lon="121.04739317913685"><ele>48.0</ele><time>2026-04-01T07:37:51Z</time></trkpt><trkpt lat="14.634679699609542" lon="121.0474149323424"><ele>48.0</ele><time>2026-04-01T07:37:52Z</time></trkpt><trkpt lat="14.634773594132822" lon="121.04744208194062"><ele>48.4</ele><time>2026-04-01T07:37:53Z</time></trkpt><trkpt lat="14.634873015590545" lon="121.04747111786739"><ele>48.8</ele><time>2026-04-01T07:37:54Z</time></trkpt><trkpt lat="14.634969089581455" lon="121.04749194323308"><ele>49.2</ele><time>2026-04-01T07:37:55Z</time></trkpt><trkpt lat="14.635066833397104" lon="121.04750823712081"><ele>49.6</ele><time>2026-04-01T07:37:56Z</time></trkpt><trkpt lat="14.635147071065088" lon="121.04752912272532"><ele>50.0</ele><time>2026-04-01T07:37:57Z</time></trkpt><trkpt lat="14.635221388961869" lon="121.0475490512046"><ele>51.0</ele><time>2026-04-01T07:37:58Z</time></trkpt><trkpt lat="14.635307845003787" lon="121.04756813682022"><ele>52.0</ele><time>2026-04-01T07:37:59Z</time></trkpt><trkpt lat="14.63539669316372" lon="121.04758720634655"><ele>53.0</ele><time>2026-04-01T07:38:00Z</time></trkpt><trkpt lat="14.635489395721953" lon="121.0476044921906"><ele>54.0</ele><time>2026-04-01T07:38:01Z</time></trkpt><trkpt lat="14.635590787227079" lon="121.04762555264155"><ele>55.0</ele><time>2026-04-01T07:38:02Z</time></trkpt><trkpt lat="14.635693164872647" lon="121.04765167347337"><ele>55.0</ele><time>2026-04-01T07:38:03Z</time></trkpt><trkpt lat="14.635799495834052" lon="121.04767586366255"><ele>55.0</ele><time>2026-04-01T07:38:04Z</time></trkpt><trkpt lat="14.635900804309275" lon="121.04769941064538"><ele>55.0</ele><time>2026-04-01T07:38:05Z</time></trkpt><trkpt lat="14.636005862078527" lon="121.04771920963745"><ele>55.0</ele><time>2026-04-01T07:38:06Z</time></trkpt><trkpt lat="14.636122674874361" lon="121.0477414220415"><ele>55.0</ele><time>2026-04-01T07:38:07Z</time></trkpt><trkpt lat="14.636242830204127" lon="121.04776686808754"><ele>54.5</ele><time>2026-04-01T07:38:08Z</time></trkpt><trkpt lat="14.636361665847796" lon="121.04780127713677"><ele>54.0</ele><time>2026-04-01T07:38:09Z</time></trkpt><trkpt lat="14.636481690771202" lon="121.04783288424606"><ele>53.5</ele><time>2026-04-01T07:38:10Z</time></trkpt><trkpt lat="14.636597821071962" lon="121.04786105566272"><ele>53.0</ele><time>2026-04-01T07:38:11Z</time></trkpt><trkpt lat="14.636711695062246" lon="121.04788880724867"><ele>53.0</ele><time>2026-04-01T07:38:12Z</time></trkpt><trkpt lat="14.636814147889826" lon="121.04791218734287"><ele>53.0</ele><time>2026-04-01T07:38:13Z</time></trkpt><trkpt lat="14.636917713619432" lon="121.04793246986944"><ele>53.0</ele><time>2026-04-01T07:38:14Z</time></trkpt><trkpt lat="14.637008923492075" lon="121.04796469732594"><ele>53.0</ele><time>2026-04-01T07:38:15Z</time></trkpt><trkpt lat="14.637095480812423" lon="121.04797385344389"><ele>53.0</ele><time>2026-04-01T07:38:16Z</time></trkpt><trkpt lat="14.637211478939614" lon="121.04800434764732"><ele>52.333333333333336</ele><time>2026-04-01T07:38:18Z</time></trkpt><trkpt lat="14.637278374554986" lon="121.04802515293864"><ele>51.66666666666667</ele><time>2026-04-01T07:38:19Z</time></trkpt><trkpt lat="14.63734203232014" lon="121.04804060498527"><ele>51.0</ele><time>2026-04-01T07:38:20Z</time></trkpt><trkpt lat="14.63741108429711" lon="121.04806031603013"><ele>50.33333333333333</ele><time>2026-04-01T07:38:21Z</time></trkpt><trkpt lat="14.637495401622486" lon="121.04810032437395"><ele>49.666666666666664</ele><time>2026-04-01T07:38:23Z</time></trkpt><trkpt lat="14.63751818897578" lon="121.04821817430178"><ele>49.0</ele><time>2026-04-01T07:38:26Z</time></trkpt><trkpt lat="14.637499991124528" lon="121.04828709283738"><ele>49.166666666666664</ele><time>2026-04-01T07:38:27Z</time></trkpt><trkpt lat="14.637486660214924" lon="121.04836215551718"><ele>49.33333333333333</ele><time>2026-04-01T07:38:28Z</time></trkpt><trkpt lat="14.637471302248164" lon="121.04844258213623"><ele>49.5</ele><time>2026-04-01T07:38:29Z</time></trkpt><trkpt lat="14.63745199887576" lon="121.04853330330498"><ele>49.66666666666667</ele><time>2026-04-01T07:38:30Z</time></trkpt><trkpt lat="14.63743249443746" lon="121.04862330555673"><ele>49.833333333333336</ele><time>2026-04-01T07:38:31Z</time></trkpt><trkpt lat="14.637411133753577" lon="121.04871633741296"><ele>50.0</ele><time>2026-04-01T07:38:32Z</time></trkpt><trkpt lat="14.637390634141253" lon="121.04881666183061"><ele>50.0</ele><time>2026-04-01T07:38:33Z</time></trkpt><trkpt lat="14.637367348237152" lon="121.04891547455699"><ele>50.0</ele><time>2026-04-01T07:38:34Z</time></trkpt><trkpt lat="14.637345065951502" lon="121.04901829055287"><ele>50.0</ele><time>2026-04-01T07:38:35Z</time></trkpt><trkpt lat="14.637325773351922" lon="121.04911758010327"><ele>50.0</ele><time>2026-04-01T07:38:36Z</time></trkpt><trkpt lat="14.63730380707653" lon="121.04921631049774"><ele>50.0</ele><time>2026-04-01T07:38:37Z</time></trkpt><trkpt lat="14.637286076827083" lon="121.04930798084564"><ele>50.6</ele><time>2026-04-01T07:38:38Z</time></trkpt><trkpt lat="14.637264076759031" lon="121.04939692656181"><ele>51.2</ele><time>2026-04-01T07:38:39Z</time></trkpt><trkpt lat="14.637244809543983" lon="121.04948990467877"><ele>51.8</ele><time>2026-04-01T07:38:40Z</time></trkpt><trkpt lat="14.637228305703493" lon="121.04957295096268"><ele>52.4</ele><time>2026-04-01T07:38:41Z</time></trkpt><trkpt lat="14.637214365993" lon="121.04964390086208"><ele>53.0</ele><time>2026-04-01T07:38:41.999Z</time></trkpt><trkpt lat="14.637189161317009" lon="121.0497646404229"><ele>53.00000000000001</ele><time>2026-04-01T07:38:43.999Z</time></trkpt><trkpt lat="14.6371656380618" lon="121.04987126541718"><ele>53.0</ele><time>2026-04-01T07:38:45.999Z</time></trkpt><trkpt lat="14.637148574456788" lon="121.04997203036032"><ele>53.0</ele><time>2026-04-01T07:38:48.999Z</time></trkpt><trkpt lat="14.637137736783398" lon="121.05003632995732"><ele>53.0</ele><time>2026-04-01T07:38:49.999Z</time></trkpt><trkpt lat="14.637121864779335" lon="121.05011126924177"><ele>53.00000000000001</ele><time>2026-04-01T07:38:50.999Z</time></trkpt><trkpt lat="14.63709935014877" lon="121.05019291270224"><ele>53.0</ele><time>2026-04-01T07:38:51.999Z</time></trkpt><trkpt lat="14.637075551772286" lon="121.05028443896512"><ele>53.00000000000001</ele><time>2026-04-01T07:38:52.999Z</time></trkpt><trkpt lat="14.637053059352146" lon="121.05037672998174"><ele>53.0</ele><time>2026-04-01T07:38:53.999Z</time></trkpt><trkpt lat="14.63703474844353" lon="121.0504656013132"><ele>53.0</ele><time>2026-04-01T07:38:54.999Z</time></trkpt><trkpt lat="14.63701806557511" lon="121.05056046542657"><ele>53.0</ele><time>2026-04-01T07:38:55.999Z</time></trkpt><trkpt lat="14.636993525437033" lon="121.05064200363857"><ele>53.00000000000001</ele><time>2026-04-01T07:38:56.999Z</time></trkpt><trkpt lat="14.636968655853245" lon="121.05073036724762"><ele>53.0</ele><time>2026-04-01T07:38:57.999Z</time></trkpt><trkpt lat="14.636941868115944" lon="121.0508422173201"><ele>52.833333333333336</ele><time>2026-04-01T07:38:58.999Z</time></trkpt><trkpt lat="14.6369214374198" lon="121.05093668171479"><ele>52.66666666666667</ele><time>2026-04-01T07:38:59.999Z</time></trkpt><trkpt lat="14.636900771573895" lon="121.0510268064915"><ele>52.5</ele><time>2026-04-01T07:39:01Z</time></trkpt><trkpt lat="14.636881879179619" lon="121.05111670759615"><ele>52.33333333333333</ele><time>2026-04-01T07:39:02Z</time></trkpt><trkpt lat="14.636865672515286" lon="121.0512070908315"><ele>52.166666666666664</ele><time>2026-04-01T07:39:03Z</time></trkpt><trkpt lat="14.636849738907607" lon="121.0512788480209"><ele>52.0</ele><time>2026-04-01T07:39:04Z</time></trkpt><trkpt lat="14.63681686003996" lon="121.05136985378554"><ele>51.99999999999999</ele><time>2026-04-01T07:39:06Z</time></trkpt><trkpt lat="14.636795258581298" lon="121.05148468972546"><ele>52.0</ele><time>2026-04-01T07:39:10Z</time></trkpt><trkpt lat="14.636783134149141" lon="121.05155336989931"><ele>52.0</ele><time>2026-04-01T07:39:11Z</time></trkpt><trkpt lat="14.636771573006529" lon="121.05163443976465"><ele>52.0</ele><time>2026-04-01T07:39:12Z</time></trkpt><trkpt lat="14.636756080610741" lon="121.0517074812479"><ele>51.99999999999999</ele><time>2026-04-01T07:39:13Z</time></trkpt><trkpt lat="14.636742531854779" lon="121.0517811322808"><ele>52.0</ele><time>2026-04-01T07:39:14Z</time></trkpt><trkpt lat="14.636730069290959" lon="121.05185282888148"><ele>51.2</ele><time>2026-04-01T07:39:15Z</time></trkpt><trkpt lat="14.636707748635512" lon="121.05195911970051"><ele>50.400000000000006</ele><time>2026-04-01T07:39:17Z</time></trkpt><trkpt lat="14.636689082704573" lon="121.05203378985989"><ele>49.599999999999994</ele><time>2026-04-01T07:39:19Z</time></trkpt><trkpt lat="14.636663989279523" lon="121.05212963504354"><ele>48.8</ele><time>2026-04-01T07:39:22Z</time></trkpt><trkpt lat="14.636648744953677" lon="121.0522381801359"><ele>48.0</ele><time>2026-04-01T07:39:24Z</time></trkpt><trkpt lat="14.636628816090857" lon="121.05235197238247"><ele>48.0</ele><time>2026-04-01T07:39:26Z</time></trkpt><trkpt lat="14.63660057509653" lon="121.05247796264635"><ele>48.0</ele><time>2026-04-01T07:39:28Z</time></trkpt><trkpt lat="14.636588029671096" lon="121.0525421242369"><ele>48.0</ele><time>2026-04-01T07:39:29Z</time></trkpt><trkpt lat="14.636574350156815" lon="121.05260835289036"><ele>48.0</ele><time>2026-04-01T07:39:30Z</time></trkpt><trkpt lat="14.636557928753247" lon="121.05268128456142"><ele>48.0</ele><time>2026-04-01T07:39:31Z</time></trkpt><trkpt lat="14.636541913392243" lon="121.05275484020036"><ele>48.0</ele><time>2026-04-01T07:39:32Z</time></trkpt><trkpt lat="14.636524164320235" lon="121.05283398141634"><ele>48.0</ele><time>2026-04-01T07:39:33Z</time></trkpt><trkpt lat="14.636506979464482" lon="121.05290528439897"><ele>48.0</ele><time>2026-04-01T07:39:34Z</time></trkpt><trkpt lat="14.636493342667325" lon="121.05299478653068"><ele>48.0</ele><time>2026-04-01T07:39:35Z</time></trkpt><trkpt lat="14.636472217193997" lon="121.05308912764612"><ele>48.0</ele><time>2026-04-01T07:39:36Z</time></trkpt><trkpt lat="14.63645486136815" lon="121.05317613020468"><ele>48.0</ele><time>2026-04-01T07:39:37Z</time></trkpt><trkpt lat="14.636435436138681" lon="121.0532686946223"><ele>48.0</ele><time>2026-04-01T07:39:38Z</time></trkpt><trkpt lat="14.636411710890647" lon="121.05336033874231"><ele>48.42857142857142</ele><time>2026-04-01T07:39:39Z</time></trkpt><trkpt lat="14.636393744157282" lon="121.05344457128274"><ele>48.857142857142854</ele><time>2026-04-01T07:39:40Z</time></trkpt><trkpt lat="14.636374597429365" lon="121.05351505680211"><ele>49.285714285714285</ele><time>2026-04-01T07:39:41Z</time></trkpt><trkpt lat="14.636359548973875" lon="121.05357994438887"><ele>49.71428571428571</ele><time>2026-04-01T07:39:42Z</time></trkpt><trkpt lat="14.636348934224658" lon="121.05365488599726"><ele>50.142857142857146</ele><time>2026-04-01T07:39:43Z</time></trkpt><trkpt lat="14.636340265715742" lon="121.05372274593933"><ele>50.57142857142857</ele><time>2026-04-01T07:39:44Z</time></trkpt><trkpt lat="14.636325909272939" lon="121.05379587924561"><ele>51.0</ele><time>2026-04-01T07:39:45Z</time></trkpt><trkpt lat="14.636302218886671" lon="121.05391444875727"><ele>51.0</ele><time>2026-04-01T07:39:47Z</time></trkpt><trkpt lat="14.636290392698776" lon="121.05398122525537"><ele>51.0</ele><time>2026-04-01T07:39:48Z</time></trkpt><trkpt lat="14.636273252333806" lon="121.05410142932716"><ele>51.0</ele><time>2026-04-01T07:39:50Z</time></trkpt><trkpt lat="14.636246118035993" lon="121.05421069050787"><ele>51.0</ele><time>2026-04-01T07:39:52Z</time></trkpt><trkpt lat="14.636225530430652" lon="121.05427978860665"><ele>51.0</ele><time>2026-04-01T07:39:54Z</time></trkpt><trkpt lat="14.636215008022614" lon="121.05435138083182"><ele>51.0</ele><time>2026-04-01T07:39:57Z</time></trkpt><trkpt lat="14.636196799100006" lon="121.05442137679388"><ele>51.0</ele><time>2026-04-01T07:39:59Z</time></trkpt><trkpt lat="14.636163682271699" lon="121.05451168393861"><ele>51.0</ele><time>2026-04-01T07:40:02Z</time></trkpt><trkpt lat="14.636141685225615" lon="121.05458142439988"><ele>51.0</ele><time>2026-04-01T07:40:04Z</time></trkpt><trkpt lat="14.636111669669962" lon="121.05467915023951"><ele>51.0</ele><time>2026-04-01T07:40:06Z</time></trkpt><trkpt lat="14.636091534286162" lon="121.05474258600728"><ele>51.0</ele><time>2026-04-01T07:40:07Z</time></trkpt><trkpt lat="14.636069531515055" lon="121.05482328373242"><ele>51.0</ele><time>2026-04-01T07:40:08Z</time></trkpt><trkpt lat="14.6360354020514" lon="121.05490181177439"><ele>51.0</ele><time>2026-04-01T07:40:09Z</time></trkpt><trkpt lat="14.636004937094663" lon="121.05498469002133"><ele>51.0</ele><time>2026-04-01T07:40:10Z</time></trkpt><trkpt lat="14.635977317531628" lon="121.05507113655116"><ele>51.0</ele><time>2026-04-01T07:40:11Z</time></trkpt><trkpt lat="14.635944064238561" lon="121.05515659881472"><ele>51.0</ele><time>2026-04-01T07:40:12Z</time></trkpt><trkpt lat="14.635937377983778" lon="121.05525450327758"><ele>51.0</ele><time>2026-04-01T07:40:13Z</time></trkpt><trkpt lat="14.635930780554748" lon="121.0553611228387"><ele>51.0</ele><time>2026-04-01T07:40:14Z</time></trkpt><trkpt lat="14.635911123043735" lon="121.05546117327935"><ele>51.0</ele><time>2026-04-01T07:40:15Z</time></trkpt><trkpt lat="14.635884803204442" lon="121.05556637854926"><ele>51.0</ele><time>2026-04-01T07:40:16Z</time></trkpt><trkpt lat="14.635838532855155" lon="121.05565964887897"><ele>51.0</ele><time>2026-04-01T07:40:17Z</time></trkpt><trkpt lat="14.635790918604396" lon="121.05575346851764"><ele>51.0</ele><time>2026-04-01T07:40:18Z</time></trkpt><trkpt lat="14.635744664924847" lon="121.05584268200464"><ele>50.599999999999994</ele><time>2026-04-01T07:40:19Z</time></trkpt><trkpt lat="14.63569496541873" lon="121.05592521734373"><ele>50.2</ele><time>2026-04-01T07:40:20Z</time></trkpt><trkpt lat="14.635651169571696" lon="121.05599640486494"><ele>49.8</ele><time>2026-04-01T07:40:21Z</time></trkpt><trkpt lat="14.635597813081963" lon="121.05607391567011"><ele>49.400000000000006</ele><time>2026-04-01T07:40:22Z</time></trkpt><trkpt lat="14.635541757211593" lon="121.0561512759769"><ele>49.0</ele><time>2026-04-01T07:40:23Z</time></trkpt><trkpt lat="14.635477327621128" lon="121.05623166332738"><ele>49.0</ele><time>2026-04-01T07:40:24Z</time></trkpt><trkpt lat="14.635414145401473" lon="121.0563125482244"><ele>49.0</ele><time>2026-04-01T07:40:25Z</time></trkpt><trkpt lat="14.635359002276132" lon="121.05640143682457"><ele>49.0</ele><time>2026-04-01T07:40:26Z</time></trkpt><trkpt lat="14.63531265985814" lon="121.05649550304109"><ele>49.0</ele><time>2026-04-01T07:40:27Z</time></trkpt><trkpt lat="14.635270247422888" lon="121.05658799118693"><ele>49.0</ele><time>2026-04-01T07:40:28Z</time></trkpt><trkpt lat="14.635237995056565" lon="121.05668520675717"><ele>49.2</ele><time>2026-04-01T07:40:29Z</time></trkpt><trkpt lat="14.635214262815763" lon="121.05678508497532"><ele>49.400000000000006</ele><time>2026-04-01T07:40:30Z</time></trkpt><trkpt lat="14.635193897688085" lon="121.05689116935903"><ele>49.6</ele><time>2026-04-01T07:40:31Z</time></trkpt><trkpt lat="14.635181715380838" lon="121.05699823157053"><ele>49.8</ele><time>2026-04-01T07:40:32Z</time></trkpt><trkpt lat="14.63517922708548" lon="121.05710216934891"><ele>50.0</ele><time>2026-04-01T07:40:33Z</time></trkpt><trkpt lat="14.635185640844002" lon="121.05721971232916"><ele>50.0</ele><time>2026-04-01T07:40:34Z</time></trkpt><trkpt lat="14.63520233969491" lon="121.05734101394863"><ele>50.0</ele><time>2026-04-01T07:40:35Z</time></trkpt><trkpt lat="14.63522529916889" lon="121.05746825351817"><ele>50.0</ele><time>2026-04-01T07:40:36Z</time></trkpt><trkpt lat="14.635248085920532" lon="121.05759516729314"><ele>50.0</ele><time>2026-04-01T07:40:37Z</time></trkpt><trkpt lat="14.635271657814672" lon="121.05772081702933"><ele>50.0</ele><time>2026-04-01T07:40:38Z</time></trkpt><trkpt lat="14.635302582504192" lon="121.05784301176791"><ele>50.0</ele><time>2026-04-01T07:40:39Z</time></trkpt><trkpt lat="14.63533356045788" lon="121.05796069331271"><ele>50.0</ele><time>2026-04-01T07:40:40Z</time></trkpt><trkpt lat="14.635364109424476" lon="121.05806534362233"><ele>50.0</ele><time>2026-04-01T07:40:41Z</time></trkpt><trkpt lat="14.635393596620643" lon="121.05816039416139"><ele>50.0</ele><time>2026-04-01T07:40:42Z</time></trkpt><trkpt lat="14.635409684275361" lon="121.05822924148234"><ele>49.2</ele><time>2026-04-01T07:40:43Z</time></trkpt><trkpt lat="14.635430180191493" lon="121.05831401473597"><ele>48.4</ele><time>2026-04-01T07:40:45Z</time></trkpt><trkpt lat="14.635469172778766" lon="121.05837968677469"><ele>47.599999999999994</ele><time>2026-04-01T07:40:48Z</time></trkpt><trkpt lat="14.635525823901808" lon="121.0584491403722"><ele>46.8</ele><time>2026-04-01T07:41:27Z</time></trkpt><trkpt lat="14.635495719388684" lon="121.05853792104308"><ele>46.0</ele><time>2026-04-01T07:41:30Z</time></trkpt><trkpt lat="14.635376120988196" lon="121.0585638447586"><ele>45.5</ele><time>2026-04-01T07:41:32Z</time></trkpt><trkpt lat="14.635293658764596" lon="121.05858178927919"><ele>45.0</ele><time>2026-04-01T07:41:33Z</time></trkpt><trkpt lat="14.635215111656711" lon="121.05859157488537"><ele>44.5</ele><time>2026-04-01T07:41:34Z</time></trkpt><trkpt lat="14.63513253310316" lon="121.05859810181778"><ele>44.0</ele><time>2026-04-01T07:41:35Z</time></trkpt><trkpt lat="14.635047254316149" lon="121.05860649248801"><ele>43.5</ele><time>2026-04-01T07:41:36Z</time></trkpt><trkpt lat="14.63496065665031" lon="121.05862223423092"><ele>43.0</ele><time>2026-04-01T07:41:37Z</time></trkpt><trkpt lat="14.634870955239895" lon="121.05865076064347"><ele>43.0</ele><time>2026-04-01T07:41:38Z</time></trkpt><trkpt lat="14.634789402598903" lon="121.05868404102576"><ele>43.0</ele><time>2026-04-01T07:41:39Z</time></trkpt><trkpt lat="14.634714243485265" lon="121.05872377284486"><ele>43.0</ele><time>2026-04-01T07:41:40Z</time></trkpt><trkpt lat="14.634643443104624" lon="121.05875436564139"><ele>43.0</ele><time>2026-04-01T07:41:41Z</time></trkpt><trkpt lat="14.634576350209217" lon="121.05877690197798"><ele>43.0</ele><time>2026-04-01T07:41:42Z</time></trkpt><trkpt lat="14.634512874601034" lon="121.05879326737329"><ele>43.0</ele><time>2026-04-01T07:41:43Z</time></trkpt><trkpt lat="14.634422105743775" lon="121.05878507127024"><ele>43.2</ele><time>2026-04-01T07:41:45Z</time></trkpt><trkpt lat="14.63438186715839" lon="121.05867876121962"><ele>43.4</ele><time>2026-04-01T07:41:47Z</time></trkpt><trkpt lat="14.634373422137678" lon="121.05859948431475"><ele>43.6</ele><time>2026-04-01T07:41:48Z</time></trkpt><trkpt lat="14.634361314263119" lon="121.05850996178178"><ele>43.800000000000004</ele><time>2026-04-01T07:41:49Z</time></trkpt><trkpt lat="14.63433750695211" lon="121.05841593820072"><ele>44.0</ele><time>2026-04-01T07:41:50Z</time></trkpt><trkpt lat="14.634316485358672" lon="121.05831251436466"><ele>44.6</ele><time>2026-04-01T07:41:51Z</time></trkpt><trkpt lat="14.63429243940837" lon="121.05820720943842"><ele>45.2</ele><time>2026-04-01T07:41:52Z</time></trkpt><trkpt lat="14.634263397983359" lon="121.0581011020716"><ele>45.800000000000004</ele><time>2026-04-01T07:41:53Z</time></trkpt><trkpt lat="14.634232687158192" lon="121.05799575253228"><ele>46.400000000000006</ele><time>2026-04-01T07:41:54Z</time></trkpt><trkpt lat="14.63419534409446" lon="121.05788741490788"><ele>47.0</ele><time>2026-04-01T07:41:55Z</time></trkpt><trkpt lat="14.634159258590302" lon="121.05778122190759"><ele>47.0</ele><time>2026-04-01T07:41:56Z</time></trkpt><trkpt lat="14.634125718631106" lon="121.0576636778703"><ele>47.0</ele><time>2026-04-01T07:41:57Z</time></trkpt><trkpt lat="14.634096899484533" lon="121.05755236196087"><ele>47.0</ele><time>2026-04-01T07:41:58Z</time></trkpt><trkpt lat="14.634065310306996" lon="121.05744471627744"><ele>47.0</ele><time>2026-04-01T07:41:59Z</time></trkpt><trkpt lat="14.634031366917032" lon="121.0573333969222"><ele>47.25</ele><time>2026-04-01T07:42:00Z</time></trkpt><trkpt lat="14.634001387341376" lon="121.05721404967917"><ele>47.5</ele><time>2026-04-01T07:42:01Z</time></trkpt><trkpt lat="14.633978007178198" lon="121.0571073630345"><ele>47.75</ele><time>2026-04-01T07:42:02Z</time></trkpt><trkpt lat="14.633950550627205" lon="121.05698852882577"><ele>48.0</ele><time>2026-04-01T07:42:03Z</time></trkpt><trkpt lat="14.633920598875271" lon="121.05687331124581"><ele>48.0</ele><time>2026-04-01T07:42:04Z</time></trkpt><trkpt lat="14.633890698358169" lon="121.05675257155367"><ele>48.0</ele><time>2026-04-01T07:42:05Z</time></trkpt><trkpt lat="14.633854119322326" lon="121.05663628155709"><ele>48.0</ele><time>2026-04-01T07:42:06Z</time></trkpt><trkpt lat="14.633812433835486" lon="121.05651711887559"><ele>48.0</ele><time>2026-04-01T07:42:07Z</time></trkpt><trkpt lat="14.633773008814424" lon="121.05639718957468"><ele>47.5</ele><time>2026-04-01T07:42:08Z</time></trkpt><trkpt lat="14.633739782542813" lon="121.05628048765651"><ele>47.0</ele><time>2026-04-01T07:42:09Z</time></trkpt><trkpt lat="14.63370464182256" lon="121.0561676909056"><ele>46.5</ele><time>2026-04-01T07:42:10Z</time></trkpt><trkpt lat="14.633670044615197" lon="121.05605632966817"><ele>46.0</ele><time>2026-04-01T07:42:11Z</time></trkpt><trkpt lat="14.633640806747705" lon="121.0559507223272"><ele>46.0</ele><time>2026-04-01T07:42:12Z</time></trkpt><trkpt lat="14.63361256556847" lon="121.05584804584822"><ele>46.0</ele><time>2026-04-01T07:42:13Z</time></trkpt><trkpt lat="14.633585870818292" lon="121.05575430576667"><ele>46.0</ele><time>2026-04-01T07:42:14Z</time></trkpt><trkpt lat="14.633566295021549" lon="121.0556571886442"><ele>46.0</ele><time>2026-04-01T07:42:15Z</time></trkpt><trkpt lat="14.63353860224353" lon="121.05557366471619"><ele>46.0</ele><time>2026-04-01T07:42:16Z</time></trkpt><trkpt lat="14.633517051626363" lon="121.05549986169589"><ele>44.75</ele><time>2026-04-01T07:42:17Z</time></trkpt><trkpt lat="14.633501772369486" lon="121.05539414932761"><ele>43.5</ele><time>2026-04-01T07:42:19Z</time></trkpt><trkpt lat="14.633493579405922" lon="121.0553162423005"><ele>42.25</ele><time>2026-04-01T07:42:22Z</time></trkpt><trkpt lat="14.633434507349838" lon="121.05529354361849"><ele>41.0</ele><time>2026-04-01T07:44:17Z</time></trkpt><trkpt lat="14.633569194549274" lon="121.05549965236042"><ele>42.33333333333333</ele><time>2026-04-01T07:45:12.036Z</time></trkpt><trkpt lat="14.633683011321622" lon="121.05551855698681"><ele>43.666666666666664</ele><time>2026-04-01T07:45:15.038Z</time></trkpt><trkpt lat="14.633861287726344" lon="121.05557040215734"><ele>45.0</ele><time>2026-04-01T07:45:16.04Z</time></trkpt><trkpt lat="14.634249390975336" lon="121.05564175734169"><ele>45.0</ele><time>2026-04-01T07:45:17.038Z</time></trkpt><trkpt lat="14.63417750836125" lon="121.05564371223429"><ele>45.0</ele><time>2026-04-01T07:45:18.039Z</time></trkpt><trkpt lat="14.634004833392238" lon="121.05563137307828"><ele>45.0</ele><time>2026-04-01T07:45:20.04Z</time></trkpt><trkpt lat="14.633868087091649" lon="121.05558706304453"><ele>45.0</ele><time>2026-04-01T07:45:21.037Z</time></trkpt><trkpt lat="14.633656434259711" lon="121.05550845841904"><ele>44.2</ele><time>2026-04-01T07:45:22.036Z</time></trkpt><trkpt lat="14.633576514616617" lon="121.0554758020595"><ele>43.4</ele><time>2026-04-01T07:45:23.037Z</time></trkpt><trkpt lat="14.633492230878312" lon="121.05546599191217"><ele>42.599999999999994</ele><time>2026-04-01T07:45:24.036Z</time></trkpt><trkpt lat="14.633327557712168" lon="121.05545210392827"><ele>41.8</ele><time>2026-04-01T07:45:32.031Z</time></trkpt><trkpt lat="14.633261667030158" lon="121.05545235441873"><ele>41.0</ele><time>2026-04-01T07:45:41.025Z</time></trkpt><trkpt lat="14.63318034462882" lon="121.05540164126718"><ele>41.0</ele><time>2026-04-01T07:47:13.015Z</time></trkpt><trkpt lat="14.633002232005841" lon="121.05539872975865"><ele>41.0</ele><time>2026-04-01T07:47:16.015Z</time></trkpt><trkpt lat="14.632922450117007" lon="121.05529874053622"><ele>41.0</ele><time>2026-04-01T07:47:32.016Z</time></trkpt><trkpt lat="14.633044305606008" lon="121.05532398985369"><ele>41.0</ele><time>2026-04-01T07:47:36.016Z</time></trkpt><trkpt lat="14.633158074618233" lon="121.05542649548867"><ele>41.0</ele><time>2026-04-01T07:47:50.016Z</time></trkpt><trkpt lat="14.63332111104128" lon="121.05545904220729"><ele>41.0</ele><time>2026-04-01T07:59:11.005Z</time></trkpt><trkpt lat="14.633320152457129" lon="121.0553789780475"><ele>41.0</ele><time>2026-04-01T08:02:12.001Z</time></trkpt><trkpt lat="14.633244591718254" lon="121.05539064985597"><ele>41.0</ele><time>2026-04-01T08:02:26.001Z</time></trkpt><trkpt lat="14.63320843806853" lon="121.05531398056385"><ele>41.0</ele><time>2026-04-01T08:05:31.001Z</time></trkpt><trkpt lat="14.63313495806701" lon="121.05527634253144"><ele>41.0</ele><time>2026-04-01T08:05:45.001Z</time></trkpt><trkpt lat="14.633268233510519" lon="121.05525569596271"><ele>41.0</ele><time>2026-04-01T08:05:54.001Z</time></trkpt><trkpt lat="14.6332984168233" lon="121.05557984877959"><ele>41.0</ele><time>2026-04-01T08:34:29.007Z</time></trkpt><trkpt lat="14.633432788246346" lon="121.05537007063103"><ele>41.0</ele><time>2026-04-01T08:34:30.007Z</time></trkpt><trkpt lat="14.633418862749311" lon="121.05529182064761"><ele>41.0</ele><time>2026-04-01T08:37:37Z</time></trkpt><trkpt lat="14.633389703567797" lon="121.05521878316124"><ele>41.0</ele><time>2026-04-01T08:37:50Z</time></trkpt><trkpt lat="14.633366577178808" lon="121.05512937421004"><ele>41.0</ele><time>2026-04-01T08:37:52Z</time></trkpt><trkpt lat="14.633399559434595" lon="121.0550134639779"><ele>41.0</ele><time>2026-04-01T08:37:54Z</time></trkpt><trkpt lat="14.633377781862718" lon="121.05490430608378"><ele>41.0</ele><time>2026-04-01T08:37:56Z</time></trkpt><trkpt lat="14.633372313939061" lon="121.05479978760248"><ele>41.0</ele><time>2026-04-01T08:37:58Z</time></trkpt><trkpt lat="14.63335196532855" lon="121.05470986321137"><ele>41.0</ele><time>2026-04-01T08:38:00Z</time></trkpt><trkpt lat="14.633329965882538" lon="121.05461402115868"><ele>41.33333333333333</ele><time>2026-04-01T08:38:02Z</time></trkpt><trkpt lat="14.633310960903477" lon="121.05454314614758"><ele>41.666666666666664</ele><time>2026-04-01T08:38:04Z</time></trkpt><trkpt lat="14.633286572506146" lon="121.0544801190919"><ele>42.0</ele><time>2026-04-01T08:38:07Z</time></trkpt><trkpt lat="14.633260568350146" lon="121.054398653598"><ele>42.333333333333336</ele><time>2026-04-01T08:38:46Z</time></trkpt><trkpt lat="14.633235859748199" lon="121.05432603799242"><ele>42.66666666666667</ele><time>2026-04-01T08:38:47Z</time></trkpt><trkpt lat="14.633209901272322" lon="121.05424806011854"><ele>43.0</ele><time>2026-04-01T08:38:48Z</time></trkpt><trkpt lat="14.6331850479241" lon="121.05415331558605"><ele>42.8</ele><time>2026-04-01T08:38:49Z</time></trkpt><trkpt lat="14.6331536947258" lon="121.05405404370872"><ele>42.599999999999994</ele><time>2026-04-01T08:38:50Z</time></trkpt><trkpt lat="14.633115029954423" lon="121.0539419212549"><ele>42.400000000000006</ele><time>2026-04-01T08:38:51Z</time></trkpt><trkpt lat="14.63307995243019" lon="121.05383617262832"><ele>42.2</ele><time>2026-04-01T08:38:52Z</time></trkpt><trkpt lat="14.633043715150917" lon="121.05371977392956"><ele>42.0</ele><time>2026-04-01T08:38:53Z</time></trkpt><trkpt lat="14.633006387770878" lon="121.05359171497149"><ele>42.0</ele><time>2026-04-01T08:38:54Z</time></trkpt><trkpt lat="14.632968594959259" lon="121.05345961411818"><ele>42.0</ele><time>2026-04-01T08:38:55Z</time></trkpt><trkpt lat="14.632931726161328" lon="121.05332583762596"><ele>42.0</ele><time>2026-04-01T08:38:56Z</time></trkpt><trkpt lat="14.632891201525473" lon="121.05318961755985"><ele>42.0</ele><time>2026-04-01T08:38:57Z</time></trkpt><trkpt lat="14.632856915895612" lon="121.05305446523342"><ele>42.25</ele><time>2026-04-01T08:38:58Z</time></trkpt><trkpt lat="14.632820761469718" lon="121.05291543620218"><ele>42.5</ele><time>2026-04-01T08:38:59Z</time></trkpt><trkpt lat="14.632783229739559" lon="121.05277509223534"><ele>42.75</ele><time>2026-04-01T08:39:00Z</time></trkpt><trkpt lat="14.632745246863639" lon="121.05263563399548"><ele>43.0</ele><time>2026-04-01T08:39:01Z</time></trkpt><trkpt lat="14.632702762946636" lon="121.05249710297178"><ele>43.25</ele><time>2026-04-01T08:39:02Z</time></trkpt><trkpt lat="14.632663361555217" lon="121.05235448117082"><ele>43.5</ele><time>2026-04-01T08:39:03Z</time></trkpt><trkpt lat="14.632626316144284" lon="121.05221098256551"><ele>43.75</ele><time>2026-04-01T08:39:04Z</time></trkpt><trkpt lat="14.632585696540126" lon="121.0520619076701"><ele>44.0</ele><time>2026-04-01T08:39:05Z</time></trkpt><trkpt lat="14.632540285585108" lon="121.05191337631825"><ele>44.0</ele><time>2026-04-01T08:39:06Z</time></trkpt><trkpt lat="14.632494067644757" lon="121.05176056499596"><ele>44.0</ele><time>2026-04-01T08:39:07Z</time></trkpt><trkpt lat="14.632447365498752" lon="121.05160348352406"><ele>44.0</ele><time>2026-04-01T08:39:08Z</time></trkpt><trkpt lat="14.632403605521466" lon="121.05143902120452"><ele>43.33333333333333</ele><time>2026-04-01T08:39:09Z</time></trkpt><trkpt lat="14.632355949648858" lon="121.05127008100276"><ele>42.666666666666664</ele><time>2026-04-01T08:39:10Z</time></trkpt><trkpt lat="14.632305329905932" lon="121.05109744511826"><ele>42.0</ele><time>2026-04-01T08:39:11Z</time></trkpt><trkpt lat="14.632252400047925" lon="121.0509184766421"><ele>42.0</ele><time>2026-04-01T08:39:12Z</time></trkpt><trkpt lat="14.632205036604327" lon="121.05075488562024"><ele>42.0</ele><time>2026-04-01T08:39:13Z</time></trkpt><trkpt lat="14.632159399028135" lon="121.05059401638015"><ele>42.0</ele><time>2026-04-01T08:39:14Z</time></trkpt><trkpt lat="14.632116855404172" lon="121.05044902872287"><ele>42.0</ele><time>2026-04-01T08:39:15Z</time></trkpt><trkpt lat="14.632078461428739" lon="121.05030871255457"><ele>42.0</ele><time>2026-04-01T08:39:16Z</time></trkpt><trkpt lat="14.632041240451077" lon="121.05017530380583"><ele>42.0</ele><time>2026-04-01T08:39:17Z</time></trkpt><trkpt lat="14.632005859801291" lon="121.05005938403629"><ele>42.0</ele><time>2026-04-01T08:39:18Z</time></trkpt><trkpt lat="14.631972629684483" lon="121.04995504354304"><ele>41.6</ele><time>2026-04-01T08:39:19Z</time></trkpt><trkpt lat="14.631948564596335" lon="121.04986010146695"><ele>41.2</ele><time>2026-04-01T08:39:20Z</time></trkpt><trkpt lat="14.631919112284804" lon="121.04976139284662"><ele>40.8</ele><time>2026-04-01T08:39:21Z</time></trkpt><trkpt lat="14.631889342647117" lon="121.04965806439267"><ele>40.4</ele><time>2026-04-01T08:39:22Z</time></trkpt><trkpt lat="14.63185339993821" lon="121.04954334672199"><ele>40.0</ele><time>2026-04-01T08:39:23Z</time></trkpt><trkpt lat="14.63181674699584" lon="121.049424833785"><ele>40.0</ele><time>2026-04-01T08:39:24Z</time></trkpt><trkpt lat="14.631781098075502" lon="121.0493005108487"><ele>40.0</ele><time>2026-04-01T08:39:25Z</time></trkpt><trkpt lat="14.631746269015153" lon="121.04917467273499"><ele>40.0</ele><time>2026-04-01T08:39:26Z</time></trkpt><trkpt lat="14.631716114811562" lon="121.04904968216788"><ele>40.0</ele><time>2026-04-01T08:39:27Z</time></trkpt><trkpt lat="14.631687111729883" lon="121.04892058163148"><ele>39.5</ele><time>2026-04-01T08:39:28Z</time></trkpt><trkpt lat="14.631652373824839" lon="121.04879692166696"><ele>39.0</ele><time>2026-04-01T08:39:29Z</time></trkpt><trkpt lat="14.631617590946952" lon="121.04867142392123"><ele>38.5</ele><time>2026-04-01T08:39:30Z</time></trkpt><trkpt lat="14.631587382254564" lon="121.04855358302575"><ele>38.0</ele><time>2026-04-01T08:39:31Z</time></trkpt><trkpt lat="14.631558481652469" lon="121.04845023381594"><ele>38.0</ele><time>2026-04-01T08:39:32Z</time></trkpt><trkpt lat="14.631529711838546" lon="121.04834943395747"><ele>38.0</ele><time>2026-04-01T08:39:33Z</time></trkpt><trkpt lat="14.631500668153045" lon="121.04825617095759"><ele>38.0</ele><time>2026-04-01T08:39:34Z</time></trkpt><trkpt lat="14.631473643787006" lon="121.04816658812027"><ele>38.0</ele><time>2026-04-01T08:39:35Z</time></trkpt><trkpt lat="14.631448337143526" lon="121.04808054212249"><ele>38.0</ele><time>2026-04-01T08:39:36Z</time></trkpt><trkpt lat="14.631426504561677" lon="121.04800416000656"><ele>38.166666666666664</ele><time>2026-04-01T08:39:37Z</time></trkpt><trkpt lat="14.631404794707922" lon="121.04793861113976"><ele>38.33333333333333</ele><time>2026-04-01T08:39:38Z</time></trkpt><trkpt lat="14.631387851906608" lon="121.04787432186946"><ele>38.5</ele><time>2026-04-01T08:39:39Z</time></trkpt><trkpt lat="14.631357377282402" lon="121.04777645428948"><ele>38.666666666666664</ele><time>2026-04-01T08:39:41Z</time></trkpt><trkpt lat="14.631325872684624" lon="121.04765600630739"><ele>38.833333333333336</ele><time>2026-04-01T08:39:43Z</time></trkpt><trkpt lat="14.631302332100326" lon="121.04759499769503"><ele>39.0</ele><time>2026-04-01T08:39:44Z</time></trkpt><trkpt lat="14.631284751254869" lon="121.04752387078865"><ele>39.333333333333336</ele><time>2026-04-01T08:39:45Z</time></trkpt><trkpt lat="14.631256507931889" lon="121.04740372611273"><ele>39.666666666666664</ele><time>2026-04-01T08:39:47Z</time></trkpt><trkpt lat="14.63122492390902" lon="121.04731095066164"><ele>40.0</ele><time>2026-04-01T08:39:49Z</time></trkpt><trkpt lat="14.631205645531383" lon="121.04724465314071"><ele>40.33333333333333</ele><time>2026-04-01T08:39:51Z</time></trkpt><trkpt lat="14.631170941996293" lon="121.04717717326709"><ele>40.666666666666664</ele><time>2026-04-01T08:39:54Z</time></trkpt><trkpt lat="14.63114229120441" lon="121.04709368628595"><ele>41.0</ele><time>2026-04-01T08:39:59Z</time></trkpt><trkpt lat="14.631140728761805" lon="121.04701633108603"><ele>40.99999999999999</ele><time>2026-04-01T08:40:02Z</time></trkpt><trkpt lat="14.631135045016505" lon="121.0469481787215"><ele>41.0</ele><time>2026-04-01T08:40:05Z</time></trkpt><trkpt lat="14.631108279854297" lon="121.04687726538161"><ele>41.0</ele><time>2026-04-01T08:40:07Z</time></trkpt><trkpt lat="14.631087718248683" lon="121.0467951092233"><ele>41.0</ele><time>2026-04-01T08:40:09Z</time></trkpt><trkpt lat="14.63106791833745" lon="121.04673236625993"><ele>41.0</ele><time>2026-04-01T08:40:11Z</time></trkpt><trkpt lat="14.631046306636508" lon="121.04666234394377"><ele>40.99999999999999</ele><time>2026-04-01T08:40:13Z</time></trkpt><trkpt lat="14.631030832177816" lon="121.04659381424511"><ele>41.0</ele><time>2026-04-01T08:40:15Z</time></trkpt><trkpt lat="14.631008762646083" lon="121.0465296915321"><ele>41.0</ele><time>2026-04-01T08:40:17Z</time></trkpt><trkpt lat="14.630978393040285" lon="121.04642560737891"><ele>41.0</ele><time>2026-04-01T08:40:19Z</time></trkpt><trkpt lat="14.630948110549085" lon="121.04631888753434"><ele>41.0</ele><time>2026-04-01T08:40:21Z</time></trkpt><trkpt lat="14.630917946086507" lon="121.04621650660377"><ele>41.0</ele><time>2026-04-01T08:40:23Z</time></trkpt><trkpt lat="14.630896918199317" lon="121.04614361243661"><ele>41.0</ele><time>2026-04-01T08:40:25Z</time></trkpt><trkpt lat="14.63088483147505" lon="121.04607937052454"><ele>41.0</ele><time>2026-04-01T08:40:27Z</time></trkpt><trkpt lat="14.630882360643074" lon="121.04598848056933"><ele>41.0</ele><time>2026-04-01T08:40:29Z</time></trkpt><trkpt lat="14.630859581411736" lon="121.0458819591672"><ele>41.0</ele><time>2026-04-01T08:40:31Z</time></trkpt><trkpt lat="14.63100843321516" lon="121.04578468259497"><ele>41.0</ele><time>2026-04-01T08:40:32Z</time></trkpt><trkpt lat="14.63107714504878" lon="121.04573186876652"><ele>41.0</ele><time>2026-04-01T08:40:33Z</time></trkpt><trkpt lat="14.631177926130432" lon="121.04570671067418"><ele>41.0</ele><time>2026-04-01T08:40:35Z</time></trkpt><trkpt lat="14.631286900035121" lon="121.04566360918737"><ele>41.0</ele><time>2026-04-01T08:40:37Z</time></trkpt><trkpt lat="14.631361717424452" lon="121.04562184895043"><ele>41.0</ele><time>2026-04-01T08:40:38Z</time></trkpt><trkpt lat="14.631460713421726" lon="121.04556709315634"><ele>41.0</ele><time>2026-04-01T08:40:39Z</time></trkpt><trkpt lat="14.631556606052177" lon="121.04550900707389"><ele>41.0</ele><time>2026-04-01T08:40:40Z</time></trkpt><trkpt lat="14.631661094297742" lon="121.04546453827803"><ele>41.0</ele><time>2026-04-01T08:40:41Z</time></trkpt><trkpt lat="14.6317665987402" lon="121.04541531144848"><ele>41.0</ele><time>2026-04-01T08:40:42Z</time></trkpt><trkpt lat="14.631871185298609" lon="121.04537476377392"><ele>41.0</ele><time>2026-04-01T08:40:43Z</time></trkpt><trkpt lat="14.631973911964794" lon="121.04533662796096"><ele>41.8</ele><time>2026-04-01T08:40:44Z</time></trkpt><trkpt lat="14.632069468870018" lon="121.04528719208847"><ele>42.599999999999994</ele><time>2026-04-01T08:40:45Z</time></trkpt><trkpt lat="14.632164604700039" lon="121.04524620899683"><ele>43.4</ele><time>2026-04-01T08:40:46Z</time></trkpt><trkpt lat="14.632269417024975" lon="121.0451974794451"><ele>44.2</ele><time>2026-04-01T08:40:47Z</time></trkpt><trkpt lat="14.632364033147615" lon="121.04514472097797"><ele>45.0</ele><time>2026-04-01T08:40:48Z</time></trkpt><trkpt lat="14.632456340643987" lon="121.04510584231465"><ele>45.0</ele><time>2026-04-01T08:40:49Z</time></trkpt><trkpt lat="14.63253792268318" lon="121.04507580661607"><ele>45.0</ele><time>2026-04-01T08:40:50Z</time></trkpt><trkpt lat="14.632611616567935" lon="121.04504361428013"><ele>45.0</ele><time>2026-04-01T08:40:51Z</time></trkpt><trkpt lat="14.63268202722849" lon="121.04500459480886"><ele>45.0</ele><time>2026-04-01T08:40:52Z</time></trkpt><trkpt lat="14.63274709403778" lon="121.04496404556973"><ele>45.0</ele><time>2026-04-01T08:40:53Z</time></trkpt><trkpt lat="14.632804437595457" lon="121.04492554439652"><ele>45.0</ele><time>2026-04-01T08:40:54Z</time></trkpt><trkpt lat="14.632864432827903" lon="121.04489600987476"><ele>45.0</ele><time>2026-04-01T08:40:55Z</time></trkpt><trkpt lat="14.632936575987008" lon="121.04486920393991"><ele>45.0</ele><time>2026-04-01T08:40:57Z</time></trkpt><trkpt lat="14.632853690928014" lon="121.04490204114781"><ele>45.0</ele><time>2026-04-01T08:41:02Z</time></trkpt><trkpt lat="14.632746848104636" lon="121.04496043080353"><ele>45.0</ele><time>2026-04-01T08:41:04Z</time></trkpt><trkpt lat="14.632656620601258" lon="121.04500653349973"><ele>45.0</ele><time>2026-04-01T08:41:05Z</time></trkpt><trkpt lat="14.632506842677289" lon="121.04498434293238"><ele>45.0</ele><time>2026-04-01T08:41:06Z</time></trkpt><trkpt lat="14.632412894528159" lon="121.04503023094409"><ele>45.0</ele><time>2026-04-01T08:41:07Z</time></trkpt><trkpt lat="14.63231407908046" lon="121.04507266788207"><ele>45.0</ele><time>2026-04-01T08:41:08Z</time></trkpt><trkpt lat="14.63222731510153" lon="121.04511434514681"><ele>45.0</ele><time>2026-04-01T08:41:09Z</time></trkpt><trkpt lat="14.63212589279343" lon="121.04516571280865"><ele>45.0</ele><time>2026-04-01T08:41:10Z</time></trkpt><trkpt lat="14.632033929850856" lon="121.04520134519365"><ele>44.0</ele><time>2026-04-01T08:41:11Z</time></trkpt><trkpt lat="14.631920607699186" lon="121.04525574720803"><ele>43.0</ele><time>2026-04-01T08:41:12Z</time></trkpt><trkpt lat="14.631805001208058" lon="121.04530908074607"><ele>42.0</ele><time>2026-04-01T08:41:13Z</time></trkpt><trkpt lat="14.63169150860278" lon="121.04536766622738"><ele>41.0</ele><time>2026-04-01T08:41:14Z</time></trkpt><trkpt lat="14.631576974933461" lon="121.04542901196128"><ele>41.0</ele><time>2026-04-01T08:41:15Z</time></trkpt><trkpt lat="14.631458484298888" lon="121.04548664096455"><ele>41.0</ele><time>2026-04-01T08:41:16Z</time></trkpt><trkpt lat="14.63134792095075" lon="121.04554409680645"><ele>41.0</ele><time>2026-04-01T08:41:17Z</time></trkpt><trkpt lat="14.631229333518586" lon="121.04559777850538"><ele>41.0</ele><time>2026-04-01T08:41:18Z</time></trkpt><trkpt lat="14.631111916486093" lon="121.04565382922524"><ele>41.0</ele><time>2026-04-01T08:41:19Z</time></trkpt><trkpt lat="14.631004047314695" lon="121.04570165745837"><ele>41.0</ele><time>2026-04-01T08:41:20Z</time></trkpt><trkpt lat="14.630897993671766" lon="121.04574191918174"><ele>41.0</ele><time>2026-04-01T08:41:21Z</time></trkpt><trkpt lat="14.63080447249856" lon="121.04577796753928"><ele>41.0</ele><time>2026-04-01T08:41:22Z</time></trkpt><trkpt lat="14.630715429591953" lon="121.0458025964987"><ele>41.0</ele><time>2026-04-01T08:41:23Z</time></trkpt><trkpt lat="14.63063012170098" lon="121.04582184931097"><ele>41.0</ele><time>2026-04-01T08:41:24Z</time></trkpt><trkpt lat="14.630546123408736" lon="121.04583996856425"><ele>41.0</ele><time>2026-04-01T08:41:25Z</time></trkpt><trkpt lat="14.630460025779355" lon="121.04586494979999"><ele>41.0</ele><time>2026-04-01T08:41:26Z</time></trkpt><trkpt lat="14.630387621162788" lon="121.04590354440927"><ele>41.0</ele><time>2026-04-01T08:41:27Z</time></trkpt><trkpt lat="14.63031869190879" lon="121.04593393715527"><ele>41.0</ele><time>2026-04-01T08:41:28Z</time></trkpt><trkpt lat="14.630257709049898" lon="121.04595499216124"><ele>41.0</ele><time>2026-04-01T08:41:29Z</time></trkpt><trkpt lat="14.630171753966996" lon="121.04597906974293"><ele>41.4</ele><time>2026-04-01T08:41:31Z</time></trkpt><trkpt lat="14.630072267079454" lon="121.04600474257055"><ele>41.8</ele><time>2026-04-01T08:41:33Z</time></trkpt><trkpt lat="14.629956488493773" lon="121.04606883056769"><ele>42.199999999999996</ele><time>2026-04-01T08:41:35Z</time></trkpt><trkpt lat="14.629889560659462" lon="121.04609910281155"><ele>42.599999999999994</ele><time>2026-04-01T08:41:36Z</time></trkpt><trkpt lat="14.629809162069309" lon="121.04612396572595"><ele>43.0</ele><time>2026-04-01T08:41:37Z</time></trkpt><trkpt lat="14.629738966490647" lon="121.04616636555042"><ele>43.0</ele><time>2026-04-01T08:41:38Z</time></trkpt><trkpt lat="14.629672283242687" lon="121.04620276722837"><ele>43.0</ele><time>2026-04-01T08:41:39Z</time></trkpt><trkpt lat="14.629613629361302" lon="121.04623349930596"><ele>43.0</ele><time>2026-04-01T08:41:40Z</time></trkpt><trkpt lat="14.629557725528755" lon="121.0462668412261"><ele>43.0</ele><time>2026-04-01T08:41:41Z</time></trkpt><trkpt lat="14.629451850070591" lon="121.04632030434179"><ele>43.0</ele><time>2026-04-01T08:41:43Z</time></trkpt><trkpt lat="14.629391057088913" lon="121.04634604402898"><ele>43.0</ele><time>2026-04-01T08:41:44Z</time></trkpt><trkpt lat="14.629330480882347" lon="121.04637781427795"><ele>42.333333333333336</ele><time>2026-04-01T08:41:45Z</time></trkpt><trkpt lat="14.629264007842831" lon="121.04641317188131"><ele>41.66666666666667</ele><time>2026-04-01T08:41:46Z</time></trkpt><trkpt lat="14.629197198963423" lon="121.04644584144602"><ele>41.0</ele><time>2026-04-01T08:41:47Z</time></trkpt><trkpt lat="14.629127623798178" lon="121.04647390699712"><ele>40.333333333333336</ele><time>2026-04-01T08:41:48Z</time></trkpt><trkpt lat="14.629061984328624" lon="121.04650570857166"><ele>39.666666666666664</ele><time>2026-04-01T08:41:49Z</time></trkpt><trkpt lat="14.628993355969241" lon="121.04654054445774"><ele>39.0</ele><time>2026-04-01T08:41:50Z</time></trkpt><trkpt lat="14.628921452504821" lon="121.04657589902841"><ele>39.0</ele><time>2026-04-01T08:41:51Z</time></trkpt><trkpt lat="14.62884768311011" lon="121.04661598940683"><ele>39.0</ele><time>2026-04-01T08:41:52Z</time></trkpt><trkpt lat="14.628787116957401" lon="121.04664907920139"><ele>39.0</ele><time>2026-04-01T08:41:53Z</time></trkpt><trkpt lat="14.628722963402401" lon="121.046687761016"><ele>39.0</ele><time>2026-04-01T08:41:54Z</time></trkpt><trkpt lat="14.628659027345133" lon="121.04672573359053"><ele>39.0</ele><time>2026-04-01T08:41:55Z</time></trkpt><trkpt lat="14.628594589364107" lon="121.04675504239243"><ele>39.0</ele><time>2026-04-01T08:41:56Z</time></trkpt><trkpt lat="14.628527546796093" lon="121.04679303574406"><ele>39.0</ele><time>2026-04-01T08:41:57Z</time></trkpt><trkpt lat="14.628418153612895" lon="121.04684853564756"><ele>39.285714285714285</ele><time>2026-04-01T08:41:59Z</time></trkpt><trkpt lat="14.628357014584568" lon="121.046867366663"><ele>39.57142857142857</ele><time>2026-04-01T08:42:00Z</time></trkpt><trkpt lat="14.62829458929196" lon="121.04690393952613"><ele>39.857142857142854</ele><time>2026-04-01T08:42:01Z</time></trkpt><trkpt lat="14.628227984502123" lon="121.04693649768808"><ele>40.14285714285714</ele><time>2026-04-01T08:42:02Z</time></trkpt><trkpt lat="14.628158804069606" lon="121.04696201822155"><ele>40.42857142857143</ele><time>2026-04-01T08:42:03Z</time></trkpt><trkpt lat="14.628091872713746" lon="121.04699016299077"><ele>40.71428571428571</ele><time>2026-04-01T08:42:04Z</time></trkpt><trkpt lat="14.628012462583932" lon="121.04702567311323"><ele>41.0</ele><time>2026-04-01T08:42:05Z</time></trkpt><trkpt lat="14.627944086377548" lon="121.04705530081335"><ele>41.0</ele><time>2026-04-01T08:42:06Z</time></trkpt><trkpt lat="14.62786790425316" lon="121.04708861655672"><ele>41.0</ele><time>2026-04-01T08:42:07Z</time></trkpt><trkpt lat="14.627779975081316" lon="121.0471213023796"><ele>41.0</ele><time>2026-04-01T08:42:08Z</time></trkpt><trkpt lat="14.627672923471968" lon="121.04714884949087"><ele>41.0</ele><time>2026-04-01T08:42:09Z</time></trkpt><trkpt lat="14.627556379917035" lon="121.04718766761297"><ele>41.0</ele><time>2026-04-01T08:42:10Z</time></trkpt><trkpt lat="14.627493216716044" lon="121.04722921428426"><ele>42.0</ele><time>2026-04-01T08:42:11Z</time></trkpt><trkpt lat="14.627415215200616" lon="121.04726890815806"><ele>43.0</ele><time>2026-04-01T08:42:12Z</time></trkpt><trkpt lat="14.62732640286336" lon="121.04730626302596"><ele>44.0</ele><time>2026-04-01T08:42:13Z</time></trkpt><trkpt lat="14.627223174283321" lon="121.0473614200796"><ele>45.0</ele><time>2026-04-01T08:42:14Z</time></trkpt><trkpt lat="14.627123279749428" lon="121.04741494691406"><ele>46.0</ele><time>2026-04-01T08:42:15Z</time></trkpt><trkpt lat="14.627042750562591" lon="121.04745486748342"><ele>45.833333333333336</ele><time>2026-04-01T08:42:16Z</time></trkpt><trkpt lat="14.626963155927012" lon="121.04749118600498"><ele>45.66666666666667</ele><time>2026-04-01T08:42:17Z</time></trkpt><trkpt lat="14.626897284206038" lon="121.04752739283549"><ele>45.5</ele><time>2026-04-01T08:42:18Z</time></trkpt><trkpt lat="14.626830681567816" lon="121.04755143404422"><ele>45.333333333333336</ele><time>2026-04-01T08:42:19Z</time></trkpt><trkpt lat="14.626765243266759" lon="121.04758066421346"><ele>45.166666666666664</ele><time>2026-04-01T08:42:20Z</time></trkpt><trkpt lat="14.626699896574063" lon="121.0476148298174"><ele>45.0</ele><time>2026-04-01T08:42:21Z</time></trkpt><trkpt lat="14.626625299102662" lon="121.0476468145292"><ele>45.0</ele><time>2026-04-01T08:42:22Z</time></trkpt><trkpt lat="14.626561822679212" lon="121.04768586330403"><ele>45.0</ele><time>2026-04-01T08:42:23Z</time></trkpt><trkpt lat="14.626492458612184" lon="121.0477141488298"><ele>45.0</ele><time>2026-04-01T08:42:24Z</time></trkpt><trkpt lat="14.626425211406863" lon="121.04774068038446"><ele>45.0</ele><time>2026-04-01T08:42:25Z</time></trkpt><trkpt lat="14.626356019920308" lon="121.04777109251788"><ele>45.0</ele><time>2026-04-01T08:42:26Z</time></trkpt><trkpt lat="14.626295982328578" lon="121.04779886912598"><ele>45.0</ele><time>2026-04-01T08:42:27Z</time></trkpt><trkpt lat="14.626234905000901" lon="121.04781939845158"><ele>45.0</ele><time>2026-04-01T08:42:28Z</time></trkpt><trkpt lat="14.626120405932564" lon="121.0478720940691"><ele>45.4</ele><time>2026-04-01T08:42:30Z</time></trkpt><trkpt lat="14.626062167732178" lon="121.04789989090366"><ele>45.8</ele><time>2026-04-01T08:42:31Z</time></trkpt><trkpt lat="14.625948283768565" lon="121.04795186833287"><ele>46.2</ele><time>2026-04-01T08:42:33Z</time></trkpt><trkpt lat="14.625859153129916" lon="121.04798016745774"><ele>46.6</ele><time>2026-04-01T08:42:35Z</time></trkpt><trkpt lat="14.62575346722283" lon="121.0480228371379"><ele>47.0</ele><time>2026-04-01T08:42:37Z</time></trkpt><trkpt lat="14.6256797105577" lon="121.04806497104576"><ele>47.0</ele><time>2026-04-01T08:42:39Z</time></trkpt><trkpt lat="14.625608683754141" lon="121.04809495726106"><ele>47.0</ele><time>2026-04-01T08:42:42Z</time></trkpt><trkpt lat="14.625549151260694" lon="121.04812014130972"><ele>47.0</ele><time>2026-04-01T08:42:46Z</time></trkpt><trkpt lat="14.625477494900723" lon="121.04815479920462"><ele>47.0</ele><time>2026-04-01T08:42:49Z</time></trkpt><trkpt lat="14.625405570232484" lon="121.04817448017651"><ele>47.0</ele><time>2026-04-01T08:42:51Z</time></trkpt><trkpt lat="14.62529178860874" lon="121.04821767554786"><ele>47.0</ele><time>2026-04-01T08:42:53Z</time></trkpt><trkpt lat="14.625196740495316" lon="121.04827298407318"><ele>46.857142857142854</ele><time>2026-04-01T08:42:55Z</time></trkpt><trkpt lat="14.625134312660576" lon="121.04830762826415"><ele>46.71428571428571</ele><time>2026-04-01T08:42:57Z</time></trkpt><trkpt lat="14.625071508623584" lon="121.04833546814402"><ele>46.57142857142857</ele><time>2026-04-01T08:43:00Z</time></trkpt><trkpt lat="14.625008840043522" lon="121.0483704357621"><ele>46.42857142857143</ele><time>2026-04-01T08:43:04Z</time></trkpt><trkpt lat="14.62493390226691" lon="121.04840596009375"><ele>46.285714285714285</ele><time>2026-04-01T08:43:07Z</time></trkpt><trkpt lat="14.624863624036452" lon="121.0484398986666"><ele>46.142857142857146</ele><time>2026-04-01T08:43:12Z</time></trkpt><trkpt lat="14.624804279946186" lon="121.04848043466676"><ele>46.0</ele><time>2026-04-01T08:43:16Z</time></trkpt><trkpt lat="14.62474247969905" lon="121.04851493738043"><ele>46.0</ele><time>2026-04-01T08:43:19Z</time></trkpt><trkpt lat="14.624667177037892" lon="121.04855559317947"><ele>46.0</ele><time>2026-04-01T08:43:22Z</time></trkpt><trkpt lat="14.624572874061352" lon="121.04860278357272"><ele>46.0</ele><time>2026-04-01T08:43:24Z</time></trkpt><trkpt lat="14.624481559517266" lon="121.04865085951221"><ele>46.0</ele><time>2026-04-01T08:43:26Z</time></trkpt><trkpt lat="14.62437637540719" lon="121.04869698372937"><ele>46.0</ele><time>2026-04-01T08:43:28Z</time></trkpt><trkpt lat="14.624297245695528" lon="121.04873230612623"><ele>45.833333333333336</ele><time>2026-04-01T08:43:29Z</time></trkpt><trkpt lat="14.624223074893559" lon="121.04877314013657"><ele>45.66666666666667</ele><time>2026-04-01T08:43:30Z</time></trkpt><trkpt lat="14.624132874018045" lon="121.04882634540452"><ele>45.5</ele><time>2026-04-01T08:43:31Z</time></trkpt><trkpt lat="14.624055621119872" lon="121.04886092784233"><ele>45.333333333333336</ele><time>2026-04-01T08:43:32Z</time></trkpt><trkpt lat="14.623981003163514" lon="121.04890220924099"><ele>45.166666666666664</ele><time>2026-04-01T08:43:33Z</time></trkpt><trkpt lat="14.623918728576413" lon="121.04893575295225"><ele>45.0</ele><time>2026-04-01T08:43:34Z</time></trkpt><trkpt lat="14.623808450793492" lon="121.0489905736152"><ele>45.0</ele><time>2026-04-01T08:43:36Z</time></trkpt><trkpt lat="14.623735162735493" lon="121.04902239391402"><ele>45.0</ele><time>2026-04-01T08:43:38Z</time></trkpt><trkpt lat="14.623649587725923" lon="121.04907272308012"><ele>45.0</ele><time>2026-04-01T08:43:40Z</time></trkpt><trkpt lat="14.623557098540156" lon="121.04913089671258"><ele>45.0</ele><time>2026-04-01T08:43:42Z</time></trkpt><trkpt lat="14.623470220243734" lon="121.04916754060841"><ele>45.0</ele><time>2026-04-01T08:43:44Z</time></trkpt><trkpt lat="14.623383950675294" lon="121.04920870231227"><ele>45.666666666666664</ele><time>2026-04-01T08:43:46Z</time></trkpt><trkpt lat="14.623277940145138" lon="121.04926132166449"><ele>46.33333333333333</ele><time>2026-04-01T08:43:48Z</time></trkpt><trkpt lat="14.623210316019321" lon="121.04929347416399"><ele>47.0</ele><time>2026-04-01T08:43:49Z</time></trkpt><trkpt lat="14.623144447939353" lon="121.04932661584377"><ele>47.666666666666664</ele><time>2026-04-01T08:43:50Z</time></trkpt><trkpt lat="14.62307052564106" lon="121.0493603127615"><ele>48.33333333333333</ele><time>2026-04-01T08:43:51Z</time></trkpt><trkpt lat="14.623001090039654" lon="121.04939175890853"><ele>49.0</ele><time>2026-04-01T08:43:52Z</time></trkpt><trkpt lat="14.622919577765837" lon="121.04943336938797"><ele>49.0</ele><time>2026-04-01T08:43:53Z</time></trkpt><trkpt lat="14.622842873541792" lon="121.04947312424804"><ele>49.0</ele><time>2026-04-01T08:43:54Z</time></trkpt><trkpt lat="14.622759842872762" lon="121.04951042740922"><ele>49.0</ele><time>2026-04-01T08:43:55Z</time></trkpt><trkpt lat="14.622662669848497" lon="121.04954755982993"><ele>49.0</ele><time>2026-04-01T08:43:56Z</time></trkpt><trkpt lat="14.622563740402521" lon="121.04959163939043"><ele>49.0</ele><time>2026-04-01T08:43:57Z</time></trkpt><trkpt lat="14.622463976423713" lon="121.04965460336375"><ele>48.5</ele><time>2026-04-01T08:43:58Z</time></trkpt><trkpt lat="14.622356224869948" lon="121.04970507392238"><ele>48.0</ele><time>2026-04-01T08:43:59Z</time></trkpt><trkpt lat="14.6222448275883" lon="121.04974866351418"><ele>47.5</ele><time>2026-04-01T08:44:00Z</time></trkpt><trkpt lat="14.622143648198604" lon="121.04978944492859"><ele>47.0</ele><time>2026-04-01T08:44:01Z</time></trkpt><trkpt lat="14.622049613002973" lon="121.04984219865423"><ele>47.2</ele><time>2026-04-01T08:44:02Z</time></trkpt><trkpt lat="14.621946830402772" lon="121.04988532380423"><ele>47.400000000000006</ele><time>2026-04-01T08:44:03Z</time></trkpt><trkpt lat="14.621854101804658" lon="121.04993269828965"><ele>47.599999999999994</ele><time>2026-04-01T08:44:04Z</time></trkpt><trkpt lat="14.621768369193724" lon="121.04997364628036"><ele>47.8</ele><time>2026-04-01T08:44:05Z</time></trkpt><trkpt lat="14.62167634466506" lon="121.0500137569909"><ele>48.0</ele><time>2026-04-01T08:44:06Z</time></trkpt><trkpt lat="14.621591042606708" lon="121.0500632764776"><ele>48.0</ele><time>2026-04-01T08:44:07Z</time></trkpt><trkpt lat="14.62151024719725" lon="121.0501193068382"><ele>48.0</ele><time>2026-04-01T08:44:08Z</time></trkpt><trkpt lat="14.621431620452986" lon="121.05017419057225"><ele>48.0</ele><time>2026-04-01T08:44:09Z</time></trkpt><trkpt lat="14.62134139160217" lon="121.05022690838207"><ele>48.0</ele><time>2026-04-01T08:44:10Z</time></trkpt><trkpt lat="14.621243223728063" lon="121.05028337210992"><ele>48.0</ele><time>2026-04-01T08:44:11Z</time></trkpt><trkpt lat="14.621110079922408" lon="121.050293726554"><ele>47.5</ele><time>2026-04-01T08:44:12Z</time></trkpt><trkpt lat="14.620977734682041" lon="121.05035605090387"><ele>47.0</ele><time>2026-04-01T08:44:13Z</time></trkpt><trkpt lat="14.620889379718763" lon="121.0504479376028"><ele>46.5</ele><time>2026-04-01T08:44:14Z</time></trkpt><trkpt lat="14.620757078588982" lon="121.05045370886062"><ele>46.0</ele><time>2026-04-01T08:44:15Z</time></trkpt><trkpt lat="14.620645351936938" lon="121.05049321619683"><ele>46.0</ele><time>2026-04-01T08:44:16Z</time></trkpt><trkpt lat="14.620531141467485" lon="121.05053594180528"><ele>46.0</ele><time>2026-04-01T08:44:17Z</time></trkpt><trkpt lat="14.620425813229383" lon="121.05058070634247"><ele>46.0</ele><time>2026-04-01T08:44:18Z</time></trkpt><trkpt lat="14.620336116521878" lon="121.05062194095991"><ele>46.0</ele><time>2026-04-01T08:44:19Z</time></trkpt><trkpt lat="14.62025189632786" lon="121.0506659516967"><ele>46.0</ele><time>2026-04-01T08:44:20Z</time></trkpt><trkpt lat="14.62016368167462" lon="121.05070330379358"><ele>46.0</ele><time>2026-04-01T08:44:21Z</time></trkpt><trkpt lat="14.620077488028308" lon="121.05073650156694"><ele>46.0</ele><time>2026-04-01T08:44:22Z</time></trkpt><trkpt lat="14.619997146598086" lon="121.05077816780718"><ele>46.0</ele><time>2026-04-01T08:44:23Z</time></trkpt><trkpt lat="14.619918061264768" lon="121.05082167087485"><ele>46.0</ele><time>2026-04-01T08:44:24Z</time></trkpt><trkpt lat="14.619845810676845" lon="121.05087102270375"><ele>46.0</ele><time>2026-04-01T08:44:25Z</time></trkpt><trkpt lat="14.619777289749813" lon="121.05092060678523"><ele>46.0</ele><time>2026-04-01T08:44:26Z</time></trkpt><trkpt lat="14.619695272629574" lon="121.05096292425326"><ele>46.0</ele><time>2026-04-01T08:44:27Z</time></trkpt><trkpt lat="14.619619086303704" lon="121.05100294142046"><ele>46.0</ele><time>2026-04-01T08:44:28Z</time></trkpt><trkpt lat="14.619563158415277" lon="121.05103388214286"><ele>46.0</ele><time>2026-04-01T08:44:29Z</time></trkpt><trkpt lat="14.619498507471665" lon="121.05106998264105"><ele>46.0</ele><time>2026-04-01T08:44:30Z</time></trkpt><trkpt lat="14.619434293815422" lon="121.05109972135405"><ele>46.0</ele><time>2026-04-01T08:44:31Z</time></trkpt><trkpt lat="14.619373217401165" lon="121.05113192477654"><ele>46.0</ele><time>2026-04-01T08:44:32Z</time></trkpt><trkpt lat="14.619314143320215" lon="121.05116118630856"><ele>46.0</ele><time>2026-04-01T08:44:33Z</time></trkpt><trkpt lat="14.619192568971076" lon="121.05119670672535"><ele>46.0</ele><time>2026-04-01T08:44:35Z</time></trkpt><trkpt lat="14.619029125439114" lon="121.05120446739882"><ele>46.0</ele><time>2026-04-01T08:44:37Z</time></trkpt><trkpt lat="14.618953530120871" lon="121.05123492475337"><ele>46.0</ele><time>2026-04-01T08:44:38Z</time></trkpt><trkpt lat="14.618856793611027" lon="121.05128560091008"><ele>46.0</ele><time>2026-04-01T08:44:40Z</time></trkpt><trkpt lat="14.618776998623208" lon="121.05133122234575"><ele>46.0</ele><time>2026-04-01T08:44:41Z</time></trkpt><trkpt lat="14.618666701112847" lon="121.05137149975316"><ele>45.333333333333336</ele><time>2026-04-01T08:44:43Z</time></trkpt><trkpt lat="14.61858856291593" lon="121.05140694370212"><ele>44.66666666666667</ele><time>2026-04-01T08:44:44Z</time></trkpt><trkpt lat="14.618503702368656" lon="121.05144605105528"><ele>44.0</ele><time>2026-04-01T08:44:45Z</time></trkpt><trkpt lat="14.618429915633753" lon="121.05147486941674"><ele>43.333333333333336</ele><time>2026-04-01T08:44:46Z</time></trkpt><trkpt lat="14.618354951873087" lon="121.05151135440401"><ele>42.666666666666664</ele><time>2026-04-01T08:44:47Z</time></trkpt><trkpt lat="14.618277739176847" lon="121.05154140076255"><ele>42.0</ele><time>2026-04-01T08:44:48Z</time></trkpt><trkpt lat="14.61821078410084" lon="121.05156957633682"><ele>42.0</ele><time>2026-04-01T08:44:49Z</time></trkpt><trkpt lat="14.618150580206054" lon="121.05159808620823"><ele>42.0</ele><time>2026-04-01T08:44:50Z</time></trkpt><trkpt lat="14.618090872876374" lon="121.05162514597394"><ele>42.0</ele><time>2026-04-01T08:44:51Z</time></trkpt><trkpt lat="14.618030594545136" lon="121.05165250483809"><ele>42.0</ele><time>2026-04-01T08:44:52Z</time></trkpt><trkpt lat="14.617968213351592" lon="121.05167984573957"><ele>42.0</ele><time>2026-04-01T08:44:53Z</time></trkpt><trkpt lat="14.617911510994793" lon="121.0517133340728"><ele>42.0</ele><time>2026-04-01T08:44:54Z</time></trkpt><trkpt lat="14.617747605908534" lon="121.05179928034136"><ele>43.2</ele><time>2026-04-01T08:44:56Z</time></trkpt><trkpt lat="14.61766741139013" lon="121.05183626247417"><ele>44.400000000000006</ele><time>2026-04-01T08:44:57Z</time></trkpt><trkpt lat="14.617579362598756" lon="121.05187693167923"><ele>45.599999999999994</ele><time>2026-04-01T08:44:58Z</time></trkpt><trkpt lat="14.617492164591454" lon="121.05191656842567"><ele>46.8</ele><time>2026-04-01T08:44:59Z</time></trkpt><trkpt lat="14.617417066820733" lon="121.0519558337389"><ele>48.0</ele><time>2026-04-01T08:45:00Z</time></trkpt><trkpt lat="14.61733062421707" lon="121.05199902875188"><ele>48.0</ele><time>2026-04-01T08:45:01Z</time></trkpt><trkpt lat="14.617252032832367" lon="121.05203257471335"><ele>48.0</ele><time>2026-04-01T08:45:02Z</time></trkpt><trkpt lat="14.617179279061626" lon="121.05206539104289"><ele>48.0</ele><time>2026-04-01T08:45:03Z</time></trkpt><trkpt lat="14.617102026329883" lon="121.05208837283203"><ele>48.0</ele><time>2026-04-01T08:45:04Z</time></trkpt><trkpt lat="14.617015712852869" lon="121.05212005206846"><ele>48.0</ele><time>2026-04-01T08:45:05Z</time></trkpt><trkpt lat="14.616943916398194" lon="121.05215546831413"><ele>48.0</ele><time>2026-04-01T08:45:06Z</time></trkpt><trkpt lat="14.616855953200556" lon="121.05219660202502"><ele>48.5</ele><time>2026-04-01T08:45:07Z</time></trkpt><trkpt lat="14.616759763773423" lon="121.05225727660974"><ele>49.0</ele><time>2026-04-01T08:45:08Z</time></trkpt><trkpt lat="14.616660815806153" lon="121.05231985893562"><ele>49.5</ele><time>2026-04-01T08:45:09Z</time></trkpt><trkpt lat="14.616557526550995" lon="121.05235915759785"><ele>50.0</ele><time>2026-04-01T08:45:10Z</time></trkpt><trkpt lat="14.61644934571281" lon="121.05239447863462"><ele>50.0</ele><time>2026-04-01T08:45:11Z</time></trkpt><trkpt lat="14.61634027307435" lon="121.05243687349987"><ele>50.0</ele><time>2026-04-01T08:45:12Z</time></trkpt><trkpt lat="14.61625443148336" lon="121.05248857409693"><ele>50.0</ele><time>2026-04-01T08:45:13Z</time></trkpt><trkpt lat="14.6161915009742" lon="121.05252616649172"><ele>50.0</ele><time>2026-04-01T08:45:14Z</time></trkpt><trkpt lat="14.61610401873998" lon="121.05255659126624"><ele>50.0</ele><time>2026-04-01T08:45:15Z</time></trkpt><trkpt lat="14.616021468569409" lon="121.05258641296795"><ele>50.4</ele><time>2026-04-01T08:45:16Z</time></trkpt><trkpt lat="14.615926764499564" lon="121.05264652394533"><ele>50.8</ele><time>2026-04-01T08:45:17Z</time></trkpt><trkpt lat="14.615840744839323" lon="121.05268892548825"><ele>51.2</ele><time>2026-04-01T08:45:18Z</time></trkpt><trkpt lat="14.615750206990805" lon="121.0527284601135"><ele>51.6</ele><time>2026-04-01T08:45:19Z</time></trkpt><trkpt lat="14.615659402599686" lon="121.05277398328393"><ele>52.0</ele><time>2026-04-01T08:45:20Z</time></trkpt><trkpt lat="14.615570622413104" lon="121.05281077431464"><ele>52.0</ele><time>2026-04-01T08:45:21Z</time></trkpt><trkpt lat="14.615482054086335" lon="121.05284734363218"><ele>52.0</ele><time>2026-04-01T08:45:22Z</time></trkpt><trkpt lat="14.615392917197525" lon="121.05288662637273"><ele>52.0</ele><time>2026-04-01T08:45:23Z</time></trkpt><trkpt lat="14.615297632013744" lon="121.0529317335775"><ele>52.0</ele><time>2026-04-01T08:45:24Z</time></trkpt><trkpt lat="14.615196181195303" lon="121.05296980543854"><ele>52.0</ele><time>2026-04-01T08:45:25Z</time></trkpt><trkpt lat="14.615084523417496" lon="121.05299356432127"><ele>49.75</ele><time>2026-04-01T08:45:26Z</time></trkpt><trkpt lat="14.61497469274947" lon="121.05302505785257"><ele>47.5</ele><time>2026-04-01T08:45:27Z</time></trkpt><trkpt lat="14.614870546664374" lon="121.05308765756853"><ele>45.25</ele><time>2026-04-01T08:45:28Z</time></trkpt><trkpt lat="14.614766074197666" lon="121.05314106819505"><ele>43.0</ele><time>2026-04-01T08:45:29Z</time></trkpt><trkpt lat="14.614662043716695" lon="121.05319896674145"><ele>43.0</ele><time>2026-04-01T08:45:30Z</time></trkpt><trkpt lat="14.614546901832739" lon="121.0532270750107"><ele>43.0</ele><time>2026-04-01T08:45:31Z</time></trkpt><trkpt lat="14.614425340862232" lon="121.05327283717898"><ele>43.0</ele><time>2026-04-01T08:45:32Z</time></trkpt><trkpt lat="14.614327941572087" lon="121.05331975265793"><ele>43.0</ele><time>2026-04-01T08:45:33Z</time></trkpt><trkpt lat="14.614224037103455" lon="121.05336634874577"><ele>43.2</ele><time>2026-04-01T08:45:34Z</time></trkpt><trkpt lat="14.614131691419233" lon="121.05342347629059"><ele>43.4</ele><time>2026-04-01T08:45:35Z</time></trkpt><trkpt lat="14.614037480384857" lon="121.05345483738027"><ele>43.6</ele><time>2026-04-01T08:45:36Z</time></trkpt><trkpt lat="14.613945215077038" lon="121.0534795320672"><ele>43.800000000000004</ele><time>2026-04-01T08:45:37Z</time></trkpt><trkpt lat="14.613864831189144" lon="121.0535142630293"><ele>44.0</ele><time>2026-04-01T08:45:38Z</time></trkpt><trkpt lat="14.613782981792843" lon="121.0535485412051"><ele>44.0</ele><time>2026-04-01T08:45:39Z</time></trkpt><trkpt lat="14.613708156420888" lon="121.05359750801789"><ele>44.0</ele><time>2026-04-01T08:45:40Z</time></trkpt><trkpt lat="14.613630958499092" lon="121.05362397106411"><ele>44.0</ele><time>2026-04-01T08:45:41Z</time></trkpt><trkpt lat="14.613552325921995" lon="121.05365318903007"><ele>44.0</ele><time>2026-04-01T08:45:42Z</time></trkpt><trkpt lat="14.61348214609704" lon="121.05368811469455"><ele>44.0</ele><time>2026-04-01T08:45:43Z</time></trkpt><trkpt lat="14.613409298849769" lon="121.05371744227767"><ele>44.0</ele><time>2026-04-01T08:45:44Z</time></trkpt><trkpt lat="14.613329401344911" lon="121.05375628111365"><ele>43.33333333333333</ele><time>2026-04-01T08:45:45Z</time></trkpt><trkpt lat="14.613249871958937" lon="121.0537961181885"><ele>42.666666666666664</ele><time>2026-04-01T08:45:46Z</time></trkpt><trkpt lat="14.613165910679017" lon="121.05383822118243"><ele>42.0</ele><time>2026-04-01T08:45:47Z</time></trkpt><trkpt lat="14.613082926318455" lon="121.05387318249308"><ele>41.333333333333336</ele><time>2026-04-01T08:45:48Z</time></trkpt><trkpt lat="14.613003433831295" lon="121.05391395859914"><ele>40.66666666666667</ele><time>2026-04-01T08:45:49Z</time></trkpt><trkpt lat="14.612925289811935" lon="121.05394869452968"><ele>40.0</ele><time>2026-04-01T08:45:50Z</time></trkpt><trkpt lat="14.612850661506096" lon="121.053978860369"><ele>39.857142857142854</ele><time>2026-04-01T08:45:51Z</time></trkpt><trkpt lat="14.61277527644761" lon="121.05400992912271"><ele>39.714285714285715</ele><time>2026-04-01T08:45:52Z</time></trkpt><trkpt lat="14.612700755326655" lon="121.05404500223959"><ele>39.57142857142857</ele><time>2026-04-01T08:45:53Z</time></trkpt><trkpt lat="14.612642495031855" lon="121.05407326810203"><ele>39.42857142857143</ele><time>2026-04-01T08:45:54Z</time></trkpt><trkpt lat="14.612583323662543" lon="121.05409937249432"><ele>39.285714285714285</ele><time>2026-04-01T08:45:55Z</time></trkpt><trkpt lat="14.612519517098168" lon="121.0541261083473"><ele>39.142857142857146</ele><time>2026-04-01T08:45:56Z</time></trkpt><trkpt lat="14.612457811341644" lon="121.05415738862786"><ele>39.0</ele><time>2026-04-01T08:45:57Z</time></trkpt><trkpt lat="14.612386702195288" lon="121.05418619864952"><ele>39.5</ele><time>2026-04-01T08:45:58Z</time></trkpt><trkpt lat="14.612319592961693" lon="121.05422098753951"><ele>40.0</ele><time>2026-04-01T08:45:59Z</time></trkpt><trkpt lat="14.612243697929875" lon="121.05425507751038"><ele>40.5</ele><time>2026-04-01T08:46:00Z</time></trkpt><trkpt lat="14.612168663614286" lon="121.05429283643403"><ele>41.0</ele><time>2026-04-01T08:46:01Z</time></trkpt><trkpt lat="14.612098021312462" lon="121.05432246099186"><ele>41.5</ele><time>2026-04-01T08:46:02Z</time></trkpt><trkpt lat="14.612034253124062" lon="121.0543585505531"><ele>42.0</ele><time>2026-04-01T08:46:03Z</time></trkpt><trkpt lat="14.611965036823346" lon="121.05439320791677"><ele>42.333333333333336</ele><time>2026-04-01T08:46:04Z</time></trkpt><trkpt lat="14.611892757806634" lon="121.05442985502242"><ele>42.666666666666664</ele><time>2026-04-01T08:46:05Z</time></trkpt><trkpt lat="14.611814793947923" lon="121.05446218480157"><ele>43.0</ele><time>2026-04-01T08:46:06Z</time></trkpt><trkpt lat="14.611738066187648" lon="121.0544995009035"><ele>43.33333333333333</ele><time>2026-04-01T08:46:07Z</time></trkpt><trkpt lat="14.61166489768384" lon="121.05453376933976"><ele>43.666666666666664</ele><time>2026-04-01T08:46:08Z</time></trkpt><trkpt lat="14.611587144312608" lon="121.05457217458692"><ele>44.0</ele><time>2026-04-01T08:46:09Z</time></trkpt><trkpt lat="14.611509903435053" lon="121.05460487010953"><ele>44.0</ele><time>2026-04-01T08:46:10Z</time></trkpt><trkpt lat="14.611437087770714" lon="121.054640892336"><ele>44.0</ele><time>2026-04-01T08:46:11Z</time></trkpt><trkpt lat="14.611364308373393" lon="121.05467841078588"><ele>44.0</ele><time>2026-04-01T08:46:12Z</time></trkpt><trkpt lat="14.611284459629525" lon="121.05471720577145"><ele>44.0</ele><time>2026-04-01T08:46:13Z</time></trkpt><trkpt lat="14.611206515778163" lon="121.05475744705788"><ele>44.0</ele><time>2026-04-01T08:46:14Z</time></trkpt><trkpt lat="14.61112622598372" lon="121.0547956352594"><ele>44.0</ele><time>2026-04-01T08:46:15Z</time></trkpt><trkpt lat="14.6110445129094" lon="121.05483635724067"><ele>43.666666666666664</ele><time>2026-04-01T08:46:16Z</time></trkpt><trkpt lat="14.610965220921363" lon="121.05487215754435"><ele>43.33333333333333</ele><time>2026-04-01T08:46:17Z</time></trkpt><trkpt lat="14.610897313524381" lon="121.05490629985219"><ele>43.0</ele><time>2026-04-01T08:46:18Z</time></trkpt><trkpt lat="14.610821669676062" lon="121.05493995523348"><ele>42.666666666666664</ele><time>2026-04-01T08:46:19Z</time></trkpt><trkpt lat="14.610742960882867" lon="121.0549767410291"><ele>42.333333333333336</ele><time>2026-04-01T08:46:20Z</time></trkpt><trkpt lat="14.61065989515296" lon="121.0550126823536"><ele>42.0</ele><time>2026-04-01T08:46:21Z</time></trkpt><trkpt lat="14.610576613759532" lon="121.05505746396896"><ele>41.8</ele><time>2026-04-01T08:46:22Z</time></trkpt><trkpt lat="14.610484795242506" lon="121.05509975914353"><ele>41.6</ele><time>2026-04-01T08:46:23Z</time></trkpt><trkpt lat="14.610389526852225" lon="121.05514297002857"><ele>41.4</ele><time>2026-04-01T08:46:24Z</time></trkpt><trkpt lat="14.610297903614248" lon="121.05518567620358"><ele>41.199999999999996</ele><time>2026-04-01T08:46:25Z</time></trkpt><trkpt lat="14.6101982941503" lon="121.05522502328151"><ele>41.0</ele><time>2026-04-01T08:46:26Z</time></trkpt><trkpt lat="14.61010541117719" lon="121.0552714116128"><ele>41.0</ele><time>2026-04-01T08:46:27Z</time></trkpt><trkpt lat="14.610001907844953" lon="121.05531564708726"><ele>41.0</ele><time>2026-04-01T08:46:28Z</time></trkpt><trkpt lat="14.609906583176603" lon="121.05535732629698"><ele>41.0</ele><time>2026-04-01T08:46:29Z</time></trkpt><trkpt lat="14.609812958962094" lon="121.05540066192461"><ele>41.0</ele><time>2026-04-01T08:46:30Z</time></trkpt><trkpt lat="14.609715687989143" lon="121.05544679760862"><ele>41.0</ele><time>2026-04-01T08:46:31Z</time></trkpt><trkpt lat="14.609614522774722" lon="121.05549212475806"><ele>41.0</ele><time>2026-04-01T08:46:32Z</time></trkpt><trkpt lat="14.609516014131874" lon="121.05553704238729"><ele>41.0</ele><time>2026-04-01T08:46:33Z</time></trkpt><trkpt lat="14.609420748175587" lon="121.0555819943899"><ele>41.0</ele><time>2026-04-01T08:46:34Z</time></trkpt><trkpt lat="14.60932536456975" lon="121.05562371699425"><ele>41.0</ele><time>2026-04-01T08:46:35Z</time></trkpt><trkpt lat="14.609236575286674" lon="121.05566268357767"><ele>41.0</ele><time>2026-04-01T08:46:36Z</time></trkpt><trkpt lat="14.609144149905244" lon="121.05570235959051"><ele>41.0</ele><time>2026-04-01T08:46:37Z</time></trkpt><trkpt lat="14.609058409159063" lon="121.05573611349517"><ele>41.0</ele><time>2026-04-01T08:46:38Z</time></trkpt><trkpt lat="14.608969364034214" lon="121.0557811424733"><ele>41.0</ele><time>2026-04-01T08:46:39Z</time></trkpt><trkpt lat="14.608876930780458" lon="121.05581698372747"><ele>41.0</ele><time>2026-04-01T08:46:40Z</time></trkpt><trkpt lat="14.608781772170797" lon="121.05585802375903"><ele>41.0</ele><time>2026-04-01T08:46:41Z</time></trkpt><trkpt lat="14.608680193700392" lon="121.05589801415198"><ele>41.8</ele><time>2026-04-01T08:46:42Z</time></trkpt><trkpt lat="14.608574061500152" lon="121.05594695167346"><ele>42.599999999999994</ele><time>2026-04-01T08:46:43Z</time></trkpt><trkpt lat="14.608474896098691" lon="121.0559880784453"><ele>43.4</ele><time>2026-04-01T08:46:44Z</time></trkpt><trkpt lat="14.608378505747584" lon="121.05603290773989"><ele>44.2</ele><time>2026-04-01T08:46:45Z</time></trkpt><trkpt lat="14.608272905087905" lon="121.05608122906706"><ele>45.0</ele><time>2026-04-01T08:46:46Z</time></trkpt><trkpt lat="14.608167190260353" lon="121.05612276469698"><ele>45.0</ele><time>2026-04-01T08:46:47Z</time></trkpt><trkpt lat="14.608067508724385" lon="121.05618251413266"><ele>45.0</ele><time>2026-04-01T08:46:48Z</time></trkpt><trkpt lat="14.607958256832255" lon="121.05623820030597"><ele>45.0</ele><time>2026-04-01T08:46:49Z</time></trkpt><trkpt lat="14.607840745707739" lon="121.0562916021233"><ele>45.0</ele><time>2026-04-01T08:46:50Z</time></trkpt><trkpt lat="14.60771963445223" lon="121.05633418976547"><ele>44.75</ele><time>2026-04-01T08:46:51Z</time></trkpt><trkpt lat="14.60758688054983" lon="121.05639192492276"><ele>44.5</ele><time>2026-04-01T08:46:52Z</time></trkpt><trkpt lat="14.607454641086656" lon="121.05645213567139"><ele>44.25</ele><time>2026-04-01T08:46:53Z</time></trkpt><trkpt lat="14.607323634658576" lon="121.05650630929892"><ele>44.0</ele><time>2026-04-01T08:46:54Z</time></trkpt><trkpt lat="14.607189647666813" lon="121.05655668280748"><ele>44.0</ele><time>2026-04-01T08:46:55Z</time></trkpt><trkpt lat="14.607057596297636" lon="121.05660442375977"><ele>44.0</ele><time>2026-04-01T08:46:56Z</time></trkpt><trkpt lat="14.606947353560756" lon="121.05665923439273"><ele>44.0</ele><time>2026-04-01T08:46:57Z</time></trkpt><trkpt lat="14.606814595264051" lon="121.05671949271411"><ele>44.0</ele><time>2026-04-01T08:46:58Z</time></trkpt><trkpt lat="14.606702553955579" lon="121.05677611976886"><ele>46.0</ele><time>2026-04-01T08:46:59Z</time></trkpt><trkpt lat="14.606599183389237" lon="121.05683849590145"><ele>48.0</ele><time>2026-04-01T08:47:00Z</time></trkpt><trkpt lat="14.606471947456901" lon="121.05687060144459"><ele>50.0</ele><time>2026-04-01T08:47:01Z</time></trkpt><trkpt lat="14.606349257944679" lon="121.05692328453955"><ele>52.0</ele><time>2026-04-01T08:47:02.001Z</time></trkpt><trkpt lat="14.606239043188904" lon="121.05698421351377"><ele>53.5</ele><time>2026-04-01T08:47:03.001Z</time></trkpt><trkpt lat="14.606125715036693" lon="121.05702278361214"><ele>55.0</ele><time>2026-04-01T08:47:04.001Z</time></trkpt><trkpt lat="14.606011907419004" lon="121.05708871081515"><ele>56.5</ele><time>2026-04-01T08:47:05.001Z</time></trkpt><trkpt lat="14.60588657639697" lon="121.05715071048269"><ele>58.0</ele><time>2026-04-01T08:47:06.001Z</time></trkpt><trkpt lat="14.605756593514435" lon="121.05721206232315"><ele>58.0</ele><time>2026-04-01T08:47:07.001Z</time></trkpt><trkpt lat="14.605605797216777" lon="121.0572844705139"><ele>58.0</ele><time>2026-04-01T08:47:08.001Z</time></trkpt><trkpt lat="14.605498571223809" lon="121.05732427446368"><ele>58.0</ele><time>2026-04-01T08:47:09Z</time></trkpt><trkpt lat="14.605369887824448" lon="121.05738105239148"><ele>58.0</ele><time>2026-04-01T08:47:10Z</time></trkpt><trkpt lat="14.605237544588961" lon="121.05744582818149"><ele>56.0</ele><time>2026-04-01T08:47:11Z</time></trkpt><trkpt lat="14.605103986792164" lon="121.05750495063174"><ele>54.0</ele><time>2026-04-01T08:47:12Z</time></trkpt><trkpt lat="14.604974792523176" lon="121.05756964674741"><ele>52.0</ele><time>2026-04-01T08:47:13Z</time></trkpt><trkpt lat="14.60483587725648" lon="121.05762571323386"><ele>50.0</ele><time>2026-04-01T08:47:14Z</time></trkpt><trkpt lat="14.604705956713207" lon="121.0576832976861"><ele>50.0</ele><time>2026-04-01T08:47:15Z</time></trkpt><trkpt lat="14.604558854603814" lon="121.05774248191999"><ele>50.0</ele><time>2026-04-01T08:47:16Z</time></trkpt><trkpt lat="14.604430894565516" lon="121.05780760121955"><ele>50.0</ele><time>2026-04-01T08:47:17Z</time></trkpt><trkpt lat="14.604302209229488" lon="121.05786729708346"><ele>50.0</ele><time>2026-04-01T08:47:18Z</time></trkpt><trkpt lat="14.604164168223258" lon="121.05791202433605"><ele>48.5</ele><time>2026-04-01T08:47:19Z</time></trkpt><trkpt lat="14.604044579625201" lon="121.0579653227716"><ele>47.0</ele><time>2026-04-01T08:47:20Z</time></trkpt><trkpt lat="14.603922397116516" lon="121.0580181005598"><ele>45.5</ele><time>2026-04-01T08:47:21Z</time></trkpt><trkpt lat="14.603794439647505" lon="121.0580752882082"><ele>44.0</ele><time>2026-04-01T08:47:22Z</time></trkpt><trkpt lat="14.603663715656635" lon="121.05813649468438"><ele>44.25</ele><time>2026-04-01T08:47:23Z</time></trkpt><trkpt lat="14.603529777790252" lon="121.05819906648864"><ele>44.5</ele><time>2026-04-01T08:47:24Z</time></trkpt><trkpt lat="14.60339866587735" lon="121.05826054860641"><ele>44.75</ele><time>2026-04-01T08:47:25Z</time></trkpt><trkpt lat="14.603259826949287" lon="121.05832331171116"><ele>45.0</ele><time>2026-04-01T08:47:26Z</time></trkpt><trkpt lat="14.603119165268195" lon="121.05838820880622"><ele>45.0</ele><time>2026-04-01T08:47:27Z</time></trkpt><trkpt lat="14.60297409499702" lon="121.0584555611732"><ele>45.0</ele><time>2026-04-01T08:47:28Z</time></trkpt><trkpt lat="14.602825924873997" lon="121.05852457087224"><ele>45.0</ele><time>2026-04-01T08:47:29Z</time></trkpt><trkpt lat="14.602680088611551" lon="121.05859791354014"><ele>45.666666666666664</ele><time>2026-04-01T08:47:30Z</time></trkpt><trkpt lat="14.602521949082105" lon="121.05867774959891"><ele>46.33333333333333</ele><time>2026-04-01T08:47:31Z</time></trkpt><trkpt lat="14.602372577940068" lon="121.05874466197905"><ele>47.0</ele><time>2026-04-01T08:47:32Z</time></trkpt><trkpt lat="14.602235847213656" lon="121.05881341770846"><ele>47.0</ele><time>2026-04-01T08:47:33Z</time></trkpt><trkpt lat="14.602110032637242" lon="121.05888117334871"><ele>47.0</ele><time>2026-04-01T08:47:34Z</time></trkpt><trkpt lat="14.601988008401124" lon="121.05894139560647"><ele>47.0</ele><time>2026-04-01T08:47:35Z</time></trkpt><trkpt lat="14.601851575027746" lon="121.05896101003685"><ele>47.0</ele><time>2026-04-01T08:47:36Z</time></trkpt><trkpt lat="14.601738599457846" lon="121.05899468431166"><ele>46.8</ele><time>2026-04-01T08:47:37Z</time></trkpt><trkpt lat="14.601629900572483" lon="121.05903311077778"><ele>46.6</ele><time>2026-04-01T08:47:38Z</time></trkpt><trkpt lat="14.601534452680617" lon="121.05907549724681"><ele>46.4</ele><time>2026-04-01T08:47:39Z</time></trkpt><trkpt lat="14.601441040704714" lon="121.05910068730653"><ele>46.199999999999996</ele><time>2026-04-01T08:47:40.001Z</time></trkpt><trkpt lat="14.601361123251326" lon="121.05912669309701"><ele>46.0</ele><time>2026-04-01T08:47:41.001Z</time></trkpt><trkpt lat="14.601285481163787" lon="121.05915052063148"><ele>46.0</ele><time>2026-04-01T08:47:42.001Z</time></trkpt><trkpt lat="14.601220370789068" lon="121.05917356422749"><ele>46.0</ele><time>2026-04-01T08:47:43.001Z</time></trkpt><trkpt lat="14.601160171469747" lon="121.05919709224894"><ele>46.0</ele><time>2026-04-01T08:47:44.001Z</time></trkpt><trkpt lat="14.601082195439442" lon="121.0592115827547"><ele>46.0</ele><time>2026-04-01T08:47:45.001Z</time></trkpt><trkpt lat="14.601000777733361" lon="121.05922625218435"><ele>46.0</ele><time>2026-04-01T08:47:46.001Z</time></trkpt><trkpt lat="14.600919116138737" lon="121.05924853760759"><ele>46.0</ele><time>2026-04-01T08:47:47.001Z</time></trkpt><trkpt lat="14.600831657227026" lon="121.05926935618479"><ele>46.0</ele><time>2026-04-01T08:47:48.001Z</time></trkpt><trkpt lat="14.600743390390019" lon="121.05928760601333"><ele>46.0</ele><time>2026-04-01T08:47:49.001Z</time></trkpt><trkpt lat="14.600651420243508" lon="121.05930460999507"><ele>46.0</ele><time>2026-04-01T08:47:50.001Z</time></trkpt><trkpt lat="14.600556239728727" lon="121.05932600666951"><ele>46.0</ele><time>2026-04-01T08:47:51.001Z</time></trkpt><trkpt lat="14.600455578683214" lon="121.0593497651087"><ele>46.0</ele><time>2026-04-01T08:47:52.001Z</time></trkpt><trkpt lat="14.600361426990002" lon="121.05936648941375"><ele>46.333333333333336</ele><time>2026-04-01T08:47:53.001Z</time></trkpt><trkpt lat="14.600284996817116" lon="121.05938112377294"><ele>46.66666666666667</ele><time>2026-04-01T08:47:54.001Z</time></trkpt><trkpt lat="14.600224226478186" lon="121.05940937501526"><ele>47.0</ele><time>2026-04-01T08:47:55.001Z</time></trkpt><trkpt lat="14.600104086682157" lon="121.0594077402427"><ele>47.333333333333336</ele><time>2026-04-01T08:47:56.001Z</time></trkpt><trkpt lat="14.600018799185287" lon="121.05942408369796"><ele>47.666666666666664</ele><time>2026-04-01T08:47:57.001Z</time></trkpt><trkpt lat="14.599927888803718" lon="121.05943808065668"><ele>48.0</ele><time>2026-04-01T08:47:58.001Z</time></trkpt><trkpt lat="14.599823736297497" lon="121.05946565312983"><ele>48.0</ele><time>2026-04-01T08:47:59.001Z</time></trkpt><trkpt lat="14.599735772958347" lon="121.05947760668839"><ele>48.0</ele><time>2026-04-01T08:48:00.001Z</time></trkpt><trkpt lat="14.599661573391057" lon="121.0594908452571"><ele>48.0</ele><time>2026-04-01T08:48:01.001Z</time></trkpt><trkpt lat="14.599597422878066" lon="121.05950408258394"><ele>48.0</ele><time>2026-04-01T08:48:02.001Z</time></trkpt><trkpt lat="14.599495421648468" lon="121.0595178299774"><ele>48.0</ele><time>2026-04-01T08:48:04.001Z</time></trkpt><trkpt lat="14.599392788677878" lon="121.05953487808426"><ele>48.0</ele><time>2026-04-01T08:48:06.001Z</time></trkpt><trkpt lat="14.599326806670199" lon="121.05954049041483"><ele>47.833333333333336</ele><time>2026-04-01T08:48:07.001Z</time></trkpt><trkpt lat="14.59925853496641" lon="121.05954528793619"><ele>47.666666666666664</ele><time>2026-04-01T08:48:08.001Z</time></trkpt><trkpt lat="14.599184435113086" lon="121.05954898234273"><ele>47.5</ele><time>2026-04-01T08:48:09.001Z</time></trkpt><trkpt lat="14.599105335867389" lon="121.05955109605607"><ele>47.33333333333333</ele><time>2026-04-01T08:48:10.001Z</time></trkpt><trkpt lat="14.599022414187464" lon="121.05955637421884"><ele>47.166666666666664</ele><time>2026-04-01T08:48:11.001Z</time></trkpt><trkpt lat="14.598931525105382" lon="121.05956122712185"><ele>47.0</ele><time>2026-04-01T08:48:12.001Z</time></trkpt><trkpt lat="14.598835467776919" lon="121.05956355099396"><ele>47.0</ele><time>2026-04-01T08:48:13.001Z</time></trkpt><trkpt lat="14.598732532160241" lon="121.05956615342156"><ele>47.0</ele><time>2026-04-01T08:48:14.001Z</time></trkpt><trkpt lat="14.598627449674968" lon="121.05956569477233"><ele>47.0</ele><time>2026-04-01T08:48:15.001Z</time></trkpt><trkpt lat="14.59852147087933" lon="121.05956375292361"><ele>47.0</ele><time>2026-04-01T08:48:16.001Z</time></trkpt><trkpt lat="14.598423831028104" lon="121.05956464194871"><ele>47.0</ele><time>2026-04-01T08:48:17.001Z</time></trkpt><trkpt lat="14.598331211822847" lon="121.05956534691754"><ele>46.83333333333333</ele><time>2026-04-01T08:48:18.001Z</time></trkpt><trkpt lat="14.598239075889257" lon="121.0595610339522"><ele>46.666666666666664</ele><time>2026-04-01T08:48:19.001Z</time></trkpt><trkpt lat="14.598143570882833" lon="121.05955451700653"><ele>46.5</ele><time>2026-04-01T08:48:20.001Z</time></trkpt><trkpt lat="14.598053629315945" lon="121.05955420718873"><ele>46.333333333333336</ele><time>2026-04-01T08:48:21.001Z</time></trkpt><trkpt lat="14.597974189852978" lon="121.05955063862876"><ele>46.16666666666667</ele><time>2026-04-01T08:48:22.001Z</time></trkpt><trkpt lat="14.597891311649407" lon="121.05954633650158"><ele>46.0</ele><time>2026-04-01T08:48:23.001Z</time></trkpt><trkpt lat="14.597808957074912" lon="121.05954053887857"><ele>45.66666666666667</ele><time>2026-04-01T08:48:24.001Z</time></trkpt><trkpt lat="14.597727464985716" lon="121.05953739509168"><ele>45.333333333333336</ele><time>2026-04-01T08:48:25.001Z</time></trkpt><trkpt lat="14.597644893486544" lon="121.05953337197548"><ele>45.0</ele><time>2026-04-01T08:48:26.001Z</time></trkpt><trkpt lat="14.597570622016796" lon="121.05953241948886"><ele>44.666666666666664</ele><time>2026-04-01T08:48:27.001Z</time></trkpt><trkpt lat="14.597504364136627" lon="121.05952744172903"><ele>44.33333333333333</ele><time>2026-04-01T08:48:28.001Z</time></trkpt><trkpt lat="14.597380384303428" lon="121.05951356372546"><ele>44.0</ele><time>2026-04-01T08:48:30.001Z</time></trkpt><trkpt lat="14.5973115851706" lon="121.05950954725763"><ele>44.0</ele><time>2026-04-01T08:48:31.001Z</time></trkpt><trkpt lat="14.597239010037516" lon="121.05950061066534"><ele>44.0</ele><time>2026-04-01T08:48:32.001Z</time></trkpt><trkpt lat="14.597169552334305" lon="121.05948570162003"><ele>44.0</ele><time>2026-04-01T08:48:33.001Z</time></trkpt><trkpt lat="14.597076734557685" lon="121.05946957849069"><ele>44.0</ele><time>2026-04-01T08:48:34.001Z</time></trkpt><trkpt lat="14.596979218113562" lon="121.05945190083168"><ele>44.0</ele><time>2026-04-01T08:48:35.001Z</time></trkpt><trkpt lat="14.596873859169753" lon="121.05942716554146"><ele>44.0</ele><time>2026-04-01T08:48:36.001Z</time></trkpt><trkpt lat="14.596760763870318" lon="121.05939767818121"><ele>44.25</ele><time>2026-04-01T08:48:37.001Z</time></trkpt><trkpt lat="14.596652557560038" lon="121.0593629688867"><ele>44.5</ele><time>2026-04-01T08:48:38.001Z</time></trkpt><trkpt lat="14.596529082083883" lon="121.05933175623822"><ele>44.75</ele><time>2026-04-01T08:48:39.001Z</time></trkpt><trkpt lat="14.596415729381688" lon="121.05930098892583"><ele>45.0</ele><time>2026-04-01T08:48:40.001Z</time></trkpt><trkpt lat="14.596296564495082" lon="121.05926727538281"><ele>45.0</ele><time>2026-04-01T08:48:41.001Z</time></trkpt><trkpt lat="14.596176233388269" lon="121.05923483414936"><ele>45.0</ele><time>2026-04-01T08:48:42.001Z</time></trkpt><trkpt lat="14.596058339034162" lon="121.0592005191834"><ele>45.0</ele><time>2026-04-01T08:48:43.001Z</time></trkpt><trkpt lat="14.59594580088016" lon="121.05916180256291"><ele>45.0</ele><time>2026-04-01T08:48:44.001Z</time></trkpt><trkpt lat="14.595844399084074" lon="121.05912547548637"><ele>44.2</ele><time>2026-04-01T08:48:45.001Z</time></trkpt><trkpt lat="14.595744081709533" lon="121.05909095557469"><ele>43.4</ele><time>2026-04-01T08:48:46.001Z</time></trkpt><trkpt lat="14.595655292483595" lon="121.05905494281768"><ele>42.599999999999994</ele><time>2026-04-01T08:48:47.001Z</time></trkpt><trkpt lat="14.595571778606441" lon="121.05902219446365"><ele>41.8</ele><time>2026-04-01T08:48:48.001Z</time></trkpt><trkpt lat="14.595488793979099" lon="121.05899007364945"><ele>41.0</ele><time>2026-04-01T08:48:49.001Z</time></trkpt><trkpt lat="14.595413517308994" lon="121.05896115900765"><ele>41.0</ele><time>2026-04-01T08:48:50.001Z</time></trkpt><trkpt lat="14.59534332904646" lon="121.05893467631181"><ele>41.0</ele><time>2026-04-01T08:48:51.001Z</time></trkpt><trkpt lat="14.595274320131653" lon="121.05891351446694"><ele>41.0</ele><time>2026-04-01T08:48:52.001Z</time></trkpt><trkpt lat="14.595214547070139" lon="121.05889185530728"><ele>41.0</ele><time>2026-04-01T08:48:53.001Z</time></trkpt><trkpt lat="14.595150944186857" lon="121.0588687155195"><ele>41.0</ele><time>2026-04-01T08:48:54.001Z</time></trkpt><trkpt lat="14.59505037911067" lon="121.05882724830101"><ele>41.0</ele><time>2026-04-01T08:48:56.001Z</time></trkpt><trkpt lat="14.594917729970751" lon="121.05877996525298"><ele>40.99999999999999</ele><time>2026-04-01T08:48:58.001Z</time></trkpt><trkpt lat="14.5948487009819" lon="121.05875115252417"><ele>41.0</ele><time>2026-04-01T08:48:59.001Z</time></trkpt><trkpt lat="14.594771554560712" lon="121.0587300286728"><ele>41.0</ele><time>2026-04-01T08:49:00.001Z</time></trkpt><trkpt lat="14.594704636537616" lon="121.05870608943445"><ele>41.0</ele><time>2026-04-01T08:49:01.001Z</time></trkpt><trkpt lat="14.594635972498144" lon="121.05868590452226"><ele>41.0</ele><time>2026-04-01T08:49:02.001Z</time></trkpt><trkpt lat="14.594561145742585" lon="121.05866126687322"><ele>40.99999999999999</ele><time>2026-04-01T08:49:03.001Z</time></trkpt><trkpt lat="14.594498328378517" lon="121.05863506054966"><ele>41.0</ele><time>2026-04-01T08:49:04.001Z</time></trkpt><trkpt lat="14.594432945998163" lon="121.05860891182424"><ele>41.0</ele><time>2026-04-01T08:49:05.001Z</time></trkpt><trkpt lat="14.594369056265009" lon="121.05859148212019"><ele>41.0</ele><time>2026-04-01T08:49:06.001Z</time></trkpt><trkpt lat="14.594272131102487" lon="121.0585606861889"><ele>41.0</ele><time>2026-04-01T08:49:08.001Z</time></trkpt><trkpt lat="14.594205782529015" lon="121.05853688270254"><ele>41.0</ele><time>2026-04-01T08:49:10.001Z</time></trkpt><trkpt lat="14.59415130384275" lon="121.058487712067"><ele>41.0</ele><time>2026-04-01T08:51:22Z</time></trkpt><trkpt lat="14.594076296885317" lon="121.0584746664715"><ele>41.0</ele><time>2026-04-01T08:51:24Z</time></trkpt><trkpt lat="14.593977985913416" lon="121.05844685285919"><ele>41.0</ele><time>2026-04-01T08:51:26Z</time></trkpt><trkpt lat="14.59387134311604" lon="121.05842012751415"><ele>41.0</ele><time>2026-04-01T08:51:28Z</time></trkpt><trkpt lat="14.593760810911194" lon="121.05837961139365"><ele>41.0</ele><time>2026-04-01T08:51:30Z</time></trkpt><trkpt lat="14.593693804124799" lon="121.05835914545771"><ele>41.0</ele><time>2026-04-01T08:51:31Z</time></trkpt><trkpt lat="14.593633538266518" lon="121.0583343777454"><ele>41.0</ele><time>2026-04-01T08:51:32Z</time></trkpt><trkpt lat="14.59356606746364" lon="121.05831145428874"><ele>41.0</ele><time>2026-04-01T08:51:33Z</time></trkpt><trkpt lat="14.593502288189946" lon="121.05828597449688"><ele>41.83333333333333</ele><time>2026-04-01T08:51:34Z</time></trkpt><trkpt lat="14.593397440400503" lon="121.05826518277979"><ele>42.666666666666664</ele><time>2026-04-01T08:51:36Z</time></trkpt><trkpt lat="14.593337076574517" lon="121.05823918557772"><ele>43.5</ele><time>2026-04-01T08:51:37Z</time></trkpt><trkpt lat="14.593263381315785" lon="121.0582104122852"><ele>44.333333333333336</ele><time>2026-04-01T08:51:38Z</time></trkpt><trkpt lat="14.593188982329911" lon="121.05818267355717"><ele>45.16666666666667</ele><time>2026-04-01T08:51:39Z</time></trkpt><trkpt lat="14.593121137473823" lon="121.05816391363228"><ele>46.0</ele><time>2026-04-01T08:51:40Z</time></trkpt><trkpt lat="14.593035557320034" lon="121.0581413981919"><ele>46.0</ele><time>2026-04-01T08:51:41Z</time></trkpt><trkpt lat="14.5929435923498" lon="121.05813038948216"><ele>46.0</ele><time>2026-04-01T08:51:42Z</time></trkpt><trkpt lat="14.59285808853758" lon="121.0581132221579"><ele>46.0</ele><time>2026-04-01T08:51:43Z</time></trkpt><trkpt lat="14.592737762649156" lon="121.05809369391069"><ele>46.0</ele><time>2026-04-01T08:51:44Z</time></trkpt><trkpt lat="14.592641014116625" lon="121.05807645342801"><ele>46.0</ele><time>2026-04-01T08:51:45Z</time></trkpt><trkpt lat="14.592555105225047" lon="121.05801168897885"><ele>44.8</ele><time>2026-04-01T08:51:46Z</time></trkpt><trkpt lat="14.592477885172553" lon="121.0579713615237"><ele>43.599999999999994</ele><time>2026-04-01T08:51:47Z</time></trkpt><trkpt lat="14.592386732634209" lon="121.05793369512146"><ele>42.4</ele><time>2026-04-01T08:51:48Z</time></trkpt><trkpt lat="14.59230413501086" lon="121.05789437235121"><ele>41.2</ele><time>2026-04-01T08:51:49Z</time></trkpt><trkpt lat="14.592227654501142" lon="121.05785608468972"><ele>40.0</ele><time>2026-04-01T08:51:50Z</time></trkpt><trkpt lat="14.5921291012599" lon="121.05782599669398"><ele>40.0</ele><time>2026-04-01T08:51:51Z</time></trkpt><trkpt lat="14.5920203753388" lon="121.0577918176184"><ele>40.0</ele><time>2026-04-01T08:51:52Z</time></trkpt><trkpt lat="14.591919351359664" lon="121.05775912521104"><ele>40.0</ele><time>2026-04-01T08:51:53Z</time></trkpt><trkpt lat="14.591803847084975" lon="121.05773395526548"><ele>40.0</ele><time>2026-04-01T08:51:54Z</time></trkpt><trkpt lat="14.59169397565506" lon="121.0576927505213"><ele>40.4</ele><time>2026-04-01T08:51:55Z</time></trkpt><trkpt lat="14.591578581218814" lon="121.0576602393"><ele>40.8</ele><time>2026-04-01T08:51:56Z</time></trkpt><trkpt lat="14.591474251116024" lon="121.05762976566929"><ele>41.2</ele><time>2026-04-01T08:51:57Z</time></trkpt><trkpt lat="14.591370046126436" lon="121.05759619064973"><ele>41.6</ele><time>2026-04-01T08:51:58Z</time></trkpt><trkpt lat="14.591291504588062" lon="121.05757574458646"><ele>42.0</ele><time>2026-04-01T08:51:59Z</time></trkpt><trkpt lat="14.59122488930273" lon="121.05755423714251"><ele>42.166666666666664</ele><time>2026-04-01T08:52:00Z</time></trkpt><trkpt lat="14.591150774490444" lon="121.05753595143474"><ele>42.333333333333336</ele><time>2026-04-01T08:52:01Z</time></trkpt><trkpt lat="14.59104365260938" lon="121.05750860505903"><ele>42.5</ele><time>2026-04-01T08:52:03Z</time></trkpt><trkpt lat="14.590970401935484" lon="121.0574844059241"><ele>42.66666666666667</ele><time>2026-04-01T08:52:04Z</time></trkpt><trkpt lat="14.590906187101155" lon="121.05746171367588"><ele>42.833333333333336</ele><time>2026-04-01T08:52:05Z</time></trkpt><trkpt lat="14.59084010620046" lon="121.05744070477373"><ele>43.0</ele><time>2026-04-01T08:52:06Z</time></trkpt><trkpt lat="14.590763527853284" lon="121.05741933037464"><ele>43.0</ele><time>2026-04-01T08:52:07Z</time></trkpt><trkpt lat="14.590691396227305" lon="121.0573933357764"><ele>43.0</ele><time>2026-04-01T08:52:08Z</time></trkpt><trkpt lat="14.590616285813939" lon="121.05737087439479"><ele>43.0</ele><time>2026-04-01T08:52:09.001Z</time></trkpt><trkpt lat="14.59054387449069" lon="121.05735951536153"><ele>43.0</ele><time>2026-04-01T08:52:10.001Z</time></trkpt><trkpt lat="14.590464540515432" lon="121.05734820671873"><ele>43.0</ele><time>2026-04-01T08:52:11.001Z</time></trkpt><trkpt lat="14.59037453669373" lon="121.05732958706847"><ele>43.0</ele><time>2026-04-01T08:52:12.001Z</time></trkpt><trkpt lat="14.59027648953354" lon="121.05729339908217"><ele>43.25</ele><time>2026-04-01T08:52:13.001Z</time></trkpt><trkpt lat="14.590164940452757" lon="121.0572448060484"><ele>43.5</ele><time>2026-04-01T08:52:14.001Z</time></trkpt><trkpt lat="14.590044048339003" lon="121.0572039985061"><ele>43.75</ele><time>2026-04-01T08:52:15.001Z</time></trkpt><trkpt lat="14.589916503114278" lon="121.05716509373421"><ele>44.0</ele><time>2026-04-01T08:52:16.001Z</time></trkpt><trkpt lat="14.589801726598274" lon="121.05712985318519"><ele>44.0</ele><time>2026-04-01T08:52:17.001Z</time></trkpt><trkpt lat="14.589705493410191" lon="121.05709863686847"><ele>44.0</ele><time>2026-04-01T08:52:18.001Z</time></trkpt><trkpt lat="14.589622600092671" lon="121.05707204209963"><ele>44.0</ele><time>2026-04-01T08:52:19.001Z</time></trkpt><trkpt lat="14.58954451900189" lon="121.05704501441771"><ele>44.0</ele><time>2026-04-01T08:52:20.001Z</time></trkpt><trkpt lat="14.589470479640164" lon="121.05701936332845"><ele>44.0</ele><time>2026-04-01T08:52:21.001Z</time></trkpt><trkpt lat="14.589393008104226" lon="121.05699353756603"><ele>44.0</ele><time>2026-04-01T08:52:22.001Z</time></trkpt><trkpt lat="14.589312175909534" lon="121.05696941184489"><ele>44.2</ele><time>2026-04-01T08:52:23.001Z</time></trkpt><trkpt lat="14.589218604230073" lon="121.05694157750328"><ele>44.400000000000006</ele><time>2026-04-01T08:52:24.001Z</time></trkpt><trkpt lat="14.589119361181586" lon="121.05691110309748"><ele>44.6</ele><time>2026-04-01T08:52:25.001Z</time></trkpt><trkpt lat="14.589016620562676" lon="121.05688088422713"><ele>44.8</ele><time>2026-04-01T08:52:26.001Z</time></trkpt><trkpt lat="14.58891759625292" lon="121.05684735138158"><ele>45.0</ele><time>2026-04-01T08:52:27.001Z</time></trkpt><trkpt lat="14.588827646160707" lon="121.0568174196512"><ele>45.0</ele><time>2026-04-01T08:52:28.001Z</time></trkpt><trkpt lat="14.58873496553899" lon="121.05678665726856"><ele>45.0</ele><time>2026-04-01T08:52:29.001Z</time></trkpt><trkpt lat="14.58865911879735" lon="121.05675811266792"><ele>45.0</ele><time>2026-04-01T08:52:30.001Z</time></trkpt><trkpt lat="14.588586653648285" lon="121.05673824260411"><ele>45.0</ele><time>2026-04-01T08:52:31.001Z</time></trkpt><trkpt lat="14.588513992667842" lon="121.05671404049923"><ele>45.0</ele><time>2026-04-01T08:52:32.001Z</time></trkpt><trkpt lat="14.588439990608578" lon="121.05669052556162"><ele>45.0</ele><time>2026-04-01T08:52:33.001Z</time></trkpt><trkpt lat="14.588365928177469" lon="121.05666838743403"><ele>44.8</ele><time>2026-04-01T08:52:34.001Z</time></trkpt><trkpt lat="14.58830262036603" lon="121.05665126728688"><ele>44.6</ele><time>2026-04-01T08:52:35.001Z</time></trkpt><trkpt lat="14.58820574960432" lon="121.05661282963676"><ele>44.400000000000006</ele><time>2026-04-01T08:52:37.001Z</time></trkpt><trkpt lat="14.588132830806735" lon="121.05658901323957"><ele>44.2</ele><time>2026-04-01T08:52:39.001Z</time></trkpt><trkpt lat="14.588040670183474" lon="121.05655336978207"><ele>44.0</ele><time>2026-04-01T08:52:42.001Z</time></trkpt><trkpt lat="14.587934754956974" lon="121.05649914355922"><ele>43.400000000000006</ele><time>2026-04-01T08:52:45.001Z</time></trkpt><trkpt lat="14.587868763153022" lon="121.05646768832229"><ele>42.8</ele><time>2026-04-01T08:52:46.001Z</time></trkpt><trkpt lat="14.587754028030666" lon="121.05643406239992"><ele>42.2</ele><time>2026-04-01T08:52:47.001Z</time></trkpt><trkpt lat="14.587641877380296" lon="121.0564121653273"><ele>41.599999999999994</ele><time>2026-04-01T08:52:48.001Z</time></trkpt><trkpt lat="14.587538189874635" lon="121.05638734784318"><ele>41.0</ele><time>2026-04-01T08:52:49.001Z</time></trkpt><trkpt lat="14.587463593568147" lon="121.05635742830374"><ele>41.0</ele><time>2026-04-01T08:52:50.001Z</time></trkpt><trkpt lat="14.587376101779736" lon="121.05633309974935"><ele>41.0</ele><time>2026-04-01T08:52:51.001Z</time></trkpt><trkpt lat="14.5873018797151" lon="121.0563109496751"><ele>41.0</ele><time>2026-04-01T08:52:52.001Z</time></trkpt><trkpt lat="14.587219669504895" lon="121.0562957937491"><ele>41.0</ele><time>2026-04-01T08:52:53.001Z</time></trkpt><trkpt lat="14.58713978790358" lon="121.05626856577135"><ele>41.0</ele><time>2026-04-01T08:52:54.001Z</time></trkpt><trkpt lat="14.587052322170342" lon="121.05624098026885"><ele>41.0</ele><time>2026-04-01T08:52:55.001Z</time></trkpt><trkpt lat="14.586988026419501" lon="121.0562187587741"><ele>40.599999999999994</ele><time>2026-04-01T08:52:56.001Z</time></trkpt><trkpt lat="14.586908639754117" lon="121.05620072271473"><ele>40.199999999999996</ele><time>2026-04-01T08:52:57.001Z</time></trkpt><trkpt lat="14.586821723708564" lon="121.05617433563019"><ele>39.8</ele><time>2026-04-01T08:52:58.001Z</time></trkpt><trkpt lat="14.586728648697536" lon="121.05614365377693"><ele>39.4</ele><time>2026-04-01T08:52:59.001Z</time></trkpt><trkpt lat="14.586634779877567" lon="121.05611413502068"><ele>39.0</ele><time>2026-04-01T08:53:00.001Z</time></trkpt><trkpt lat="14.586550987601594" lon="121.05608681031289"><ele>39.0</ele><time>2026-04-01T08:53:01.001Z</time></trkpt><trkpt lat="14.586474205807985" lon="121.05605996894192"><ele>39.0</ele><time>2026-04-01T08:53:02.001Z</time></trkpt><trkpt lat="14.586397550740742" lon="121.05603716820475"><ele>39.0</ele><time>2026-04-01T08:53:03.001Z</time></trkpt><trkpt lat="14.586314133480062" lon="121.05601361625617"><ele>39.0</ele><time>2026-04-01T08:53:04.001Z</time></trkpt><trkpt lat="14.586228445776046" lon="121.05598556988538"><ele>39.0</ele><time>2026-04-01T08:53:05.001Z</time></trkpt><trkpt lat="14.586143920762119" lon="121.05595978430708"><ele>39.0</ele><time>2026-04-01T08:53:06.001Z</time></trkpt><trkpt lat="14.586068003362167" lon="121.05593880418925"><ele>38.6</ele><time>2026-04-01T08:53:07.001Z</time></trkpt><trkpt lat="14.58598971351731" lon="121.0559039149344"><ele>38.2</ele><time>2026-04-01T08:53:08.001Z</time></trkpt><trkpt lat="14.585896140907158" lon="121.0558803129152"><ele>37.800000000000004</ele><time>2026-04-01T08:53:09.001Z</time></trkpt><trkpt lat="14.585808066325772" lon="121.0558530272641"><ele>37.4</ele><time>2026-04-01T08:53:10.001Z</time></trkpt><trkpt lat="14.58568990570571" lon="121.05581126541787"><ele>37.0</ele><time>2026-04-01T08:53:12.001Z</time></trkpt><trkpt lat="14.585582236890763" lon="121.05577698155817"><ele>37.0</ele><time>2026-04-01T08:53:14.001Z</time></trkpt><trkpt lat="14.585521348238279" lon="121.05575747752268"><ele>37.0</ele><time>2026-04-01T08:53:15.001Z</time></trkpt><trkpt lat="14.58541518360221" lon="121.05570647723415"><ele>37.0</ele><time>2026-04-01T08:53:17.001Z</time></trkpt><trkpt lat="14.585298673570753" lon="121.05565989759761"><ele>37.0</ele><time>2026-04-01T08:53:19.001Z</time></trkpt><trkpt lat="14.585229321827834" lon="121.05563252480428"><ele>37.0</ele><time>2026-04-01T08:53:20.001Z</time></trkpt><trkpt lat="14.585163799135035" lon="121.05561177882645"><ele>37.0</ele><time>2026-04-01T08:53:21.001Z</time></trkpt><trkpt lat="14.585096242518176" lon="121.05559944950255"><ele>37.2</ele><time>2026-04-01T08:53:22.001Z</time></trkpt><trkpt lat="14.585019111831627" lon="121.05556363202051"><ele>37.400000000000006</ele><time>2026-04-01T08:53:23.001Z</time></trkpt><trkpt lat="14.584942063326" lon="121.05553408102364"><ele>37.599999999999994</ele><time>2026-04-01T08:53:24.001Z</time></trkpt><trkpt lat="14.58485666298576" lon="121.05551040700864"><ele>37.8</ele><time>2026-04-01T08:53:25.001Z</time></trkpt><trkpt lat="14.58477508281883" lon="121.05549284926259"><ele>38.0</ele><time>2026-04-01T08:53:26Z</time></trkpt><trkpt lat="14.584660640925774" lon="121.0554784707422"><ele>38.0</ele><time>2026-04-01T08:53:28Z</time></trkpt><trkpt lat="14.584565232021804" lon="121.05541305467402"><ele>38.0</ele><time>2026-04-01T08:53:30Z</time></trkpt><trkpt lat="14.584458091105589" lon="121.0554150204666"><ele>38.0</ele><time>2026-04-01T08:53:32Z</time></trkpt><trkpt lat="14.58439834341372" lon="121.05538065510994"><ele>38.0</ele><time>2026-04-01T08:53:35Z</time></trkpt><trkpt lat="14.584345263391677" lon="121.05533532089088"><ele>38.0</ele><time>2026-04-01T08:53:38Z</time></trkpt><trkpt lat="14.584262596838172" lon="121.05528269417361"><ele>37.857142857142854</ele><time>2026-04-01T08:53:40Z</time></trkpt><trkpt lat="14.584183237199436" lon="121.0552632290254"><ele>37.714285714285715</ele><time>2026-04-01T08:53:41Z</time></trkpt><trkpt lat="14.584116303563324" lon="121.05522108501017"><ele>37.57142857142857</ele><time>2026-04-01T08:53:42Z</time></trkpt><trkpt lat="14.584046946607119" lon="121.05519745788384"><ele>37.42857142857143</ele><time>2026-04-01T08:53:43Z</time></trkpt><trkpt lat="14.583987859668898" lon="121.05516612289551"><ele>37.285714285714285</ele><time>2026-04-01T08:53:44Z</time></trkpt><trkpt lat="14.58391689890866" lon="121.05513212938644"><ele>37.142857142857146</ele><time>2026-04-01T08:53:45Z</time></trkpt><trkpt lat="14.583859034525098" lon="121.05510140108733"><ele>37.0</ele><time>2026-04-01T08:53:46Z</time></trkpt><trkpt lat="14.583753669231005" lon="121.05505065341991"><ele>37.0</ele><time>2026-04-01T08:53:48Z</time></trkpt><trkpt lat="14.583693781079315" lon="121.0550231248261"><ele>37.0</ele><time>2026-04-01T08:53:49Z</time></trkpt><trkpt lat="14.583636941626985" lon="121.05498728576447"><ele>37.0</ele><time>2026-04-01T08:53:50Z</time></trkpt><trkpt lat="14.583528433958058" lon="121.05493023510226"><ele>37.0</ele><time>2026-04-01T08:53:52Z</time></trkpt><trkpt lat="14.583427502205621" lon="121.05487517196573"><ele>37.0</ele><time>2026-04-01T08:53:54Z</time></trkpt><trkpt lat="14.583346882484433" lon="121.05482867170626"><ele>38.333333333333336</ele><time>2026-04-01T08:53:56Z</time></trkpt><trkpt lat="14.583281310110301" lon="121.05479631790912"><ele>39.66666666666667</ele><time>2026-04-01T08:53:58Z</time></trkpt><trkpt lat="14.583204412253874" lon="121.05474809854643"><ele>41.0</ele><time>2026-04-01T08:54:01Z</time></trkpt><trkpt lat="14.583142954343854" lon="121.0547046271788"><ele>42.333333333333336</ele><time>2026-04-01T08:54:04Z</time></trkpt><trkpt lat="14.583057809437069" lon="121.05465860342292"><ele>43.666666666666664</ele><time>2026-04-01T08:54:07Z</time></trkpt><trkpt lat="14.582999047395877" lon="121.05461711617707"><ele>45.0</ele><time>2026-04-01T08:54:09Z</time></trkpt><trkpt lat="14.582944324871438" lon="121.05458256426353"><ele>45.0</ele><time>2026-04-01T08:54:11.001Z</time></trkpt><trkpt lat="14.582889075582417" lon="121.05454280704862"><ele>45.0</ele><time>2026-04-01T08:54:17.001Z</time></trkpt><trkpt lat="14.582828969391029" lon="121.05450162762384"><ele>45.0</ele><time>2026-04-01T08:54:21.001Z</time></trkpt><trkpt lat="14.582772520067655" lon="121.05446517068852"><ele>45.0</ele><time>2026-04-01T08:54:24.001Z</time></trkpt><trkpt lat="14.582689481646982" lon="121.05440052368785"><ele>45.0</ele><time>2026-04-01T08:54:27.001Z</time></trkpt><trkpt lat="14.582604501712838" lon="121.05434050247167"><ele>45.0</ele><time>2026-04-01T08:54:29.001Z</time></trkpt><trkpt lat="14.582508587725107" lon="121.05427139571059"><ele>45.333333333333336</ele><time>2026-04-01T08:54:31.001Z</time></trkpt><trkpt lat="14.58240468505434" lon="121.05419731311216"><ele>45.666666666666664</ele><time>2026-04-01T08:54:33.001Z</time></trkpt><trkpt lat="14.582346101712846" lon="121.05415624047433"><ele>46.0</ele><time>2026-04-01T08:54:34.001Z</time></trkpt><trkpt lat="14.582291896507229" lon="121.05412298327033"><ele>46.33333333333333</ele><time>2026-04-01T08:54:35.001Z</time></trkpt><trkpt lat="14.58224082637609" lon="121.05408156287409"><ele>46.666666666666664</ele><time>2026-04-01T08:54:37.001Z</time></trkpt><trkpt lat="14.582151337279225" lon="121.05404337100467"><ele>47.0</ele><time>2026-04-01T08:54:41.001Z</time></trkpt><trkpt lat="14.582089341038461" lon="121.05397213267544"><ele>47.166666666666664</ele><time>2026-04-01T08:54:43.001Z</time></trkpt><trkpt lat="14.581992015847884" lon="121.05390428923157"><ele>47.33333333333333</ele><time>2026-04-01T08:54:45.001Z</time></trkpt><trkpt lat="14.581937148603126" lon="121.05387195636968"><ele>47.5</ele><time>2026-04-01T08:54:46.001Z</time></trkpt><trkpt lat="14.581887863737933" lon="121.05382142639635"><ele>47.666666666666664</ele><time>2026-04-01T08:54:47.001Z</time></trkpt><trkpt lat="14.581836636061661" lon="121.05377563786459"><ele>47.833333333333336</ele><time>2026-04-01T08:54:48.001Z</time></trkpt><trkpt lat="14.581779228091602" lon="121.05374770344764"><ele>48.0</ele><time>2026-04-01T08:54:49.001Z</time></trkpt><trkpt lat="14.58170743001822" lon="121.05370465689198"><ele>48.0</ele><time>2026-04-01T08:54:51.001Z</time></trkpt><trkpt lat="14.581642977914404" lon="121.05366794213205"><ele>48.0</ele><time>2026-04-01T08:54:53.001Z</time></trkpt><trkpt lat="14.581570911958261" lon="121.05361289005658"><ele>48.0</ele><time>2026-04-01T08:54:56.001Z</time></trkpt><trkpt lat="14.581495739801499" lon="121.05355606728158"><ele>48.0</ele><time>2026-04-01T08:54:58.001Z</time></trkpt><trkpt lat="14.581423157247892" lon="121.05348350497752"><ele>48.0</ele><time>2026-04-01T08:55:00.001Z</time></trkpt><trkpt lat="14.58136138580223" lon="121.0534344301992"><ele>48.0</ele><time>2026-04-01T08:55:02.001Z</time></trkpt><trkpt lat="14.581309737341787" lon="121.05339144675234"><ele>48.0</ele><time>2026-04-01T08:55:04.001Z</time></trkpt><trkpt lat="14.581274704470072" lon="121.05333330986116"><ele>48.0</ele><time>2026-04-01T08:55:08.001Z</time></trkpt><trkpt lat="14.581203843073167" lon="121.05331722899328"><ele>48.0</ele><time>2026-04-01T08:55:10.001Z</time></trkpt><trkpt lat="14.581131210444346" lon="121.053277160034"><ele>48.0</ele><time>2026-04-01T08:55:13.001Z</time></trkpt><trkpt lat="14.58103823280516" lon="121.05325636507638"><ele>48.0</ele><time>2026-04-01T08:55:16.001Z</time></trkpt><trkpt lat="14.580827841748818" lon="121.05314217265085"><ele>46.333333333333336</ele><time>2026-04-01T08:55:18.001Z</time></trkpt><trkpt lat="14.580667527067849" lon="121.05292854193476"><ele>44.66666666666667</ele><time>2026-04-01T08:55:19.001Z</time></trkpt><trkpt lat="14.580534811559419" lon="121.05286900616215"><ele>43.0</ele><time>2026-04-01T08:55:20.001Z</time></trkpt><trkpt lat="14.58043006579895" lon="121.05280744745357"><ele>43.4</ele><time>2026-04-01T08:55:21.001Z</time></trkpt><trkpt lat="14.580336758470231" lon="121.05275883353939"><ele>43.8</ele><time>2026-04-01T08:55:22.001Z</time></trkpt><trkpt lat="14.580252822207548" lon="121.05270057282318"><ele>44.2</ele><time>2026-04-01T08:55:23.001Z</time></trkpt><trkpt lat="14.580172680344235" lon="121.05265732462853"><ele>44.6</ele><time>2026-04-01T08:55:24.001Z</time></trkpt><trkpt lat="14.580092907279523" lon="121.05260188029439"><ele>45.0</ele><time>2026-04-01T08:55:25.001Z</time></trkpt><trkpt lat="14.580015856816402" lon="121.05253688109998"><ele>45.0</ele><time>2026-04-01T08:55:26.001Z</time></trkpt><trkpt lat="14.57994005130172" lon="121.05248183866415"><ele>45.0</ele><time>2026-04-01T08:55:27.001Z</time></trkpt><trkpt lat="14.579860432273506" lon="121.05242455446749"><ele>45.0</ele><time>2026-04-01T08:55:28.001Z</time></trkpt><trkpt lat="14.579786106961116" lon="121.05236406763036"><ele>45.0</ele><time>2026-04-01T08:55:29.001Z</time></trkpt><trkpt lat="14.57970867898738" lon="121.05231609841903"><ele>45.0</ele><time>2026-04-01T08:55:30.001Z</time></trkpt><trkpt lat="14.579631647666801" lon="121.05225763753864"><ele>44.8</ele><time>2026-04-01T08:55:31.001Z</time></trkpt><trkpt lat="14.579554560546393" lon="121.05219171358468"><ele>44.6</ele><time>2026-04-01T08:55:32Z</time></trkpt><trkpt lat="14.579476363612924" lon="121.05215112125013"><ele>44.400000000000006</ele><time>2026-04-01T08:55:33Z</time></trkpt><trkpt lat="14.579401783773172" lon="121.05209276155948"><ele>44.2</ele><time>2026-04-01T08:55:34Z</time></trkpt><trkpt lat="14.579325139003927" lon="121.05203636406095"><ele>44.0</ele><time>2026-04-01T08:55:35Z</time></trkpt><trkpt lat="14.579250518271383" lon="121.0519761400912"><ele>44.0</ele><time>2026-04-01T08:55:36Z</time></trkpt><trkpt lat="14.579178371055624" lon="121.05191343962257"><ele>44.0</ele><time>2026-04-01T08:55:37Z</time></trkpt><trkpt lat="14.5790951716125" lon="121.05185778638992"><ele>44.0</ele><time>2026-04-01T08:55:38Z</time></trkpt><trkpt lat="14.579019553713092" lon="121.05180086630335"><ele>44.0</ele><time>2026-04-01T08:55:39Z</time></trkpt><trkpt lat="14.578936636760451" lon="121.05174374742099"><ele>44.0</ele><time>2026-04-01T08:55:40Z</time></trkpt><trkpt lat="14.578868077919434" lon="121.0517031318492"><ele>44.0</ele><time>2026-04-01T08:55:41Z</time></trkpt><trkpt lat="14.578801462404103" lon="121.05167223753331"><ele>44.0</ele><time>2026-04-01T08:55:42Z</time></trkpt><trkpt lat="14.578735852499008" lon="121.05162449206092"><ele>44.0</ele><time>2026-04-01T08:55:43Z</time></trkpt><trkpt lat="14.578663050185428" lon="121.05157573383994"><ele>44.0</ele><time>2026-04-01T08:55:44Z</time></trkpt><trkpt lat="14.57858473172727" lon="121.05153297726474"><ele>44.0</ele><time>2026-04-01T08:55:45Z</time></trkpt><trkpt lat="14.57851778772033" lon="121.051484786948"><ele>44.0</ele><time>2026-04-01T08:55:46Z</time></trkpt><trkpt lat="14.578431835919183" lon="121.0514273979766"><ele>43.400000000000006</ele><time>2026-04-01T08:55:47Z</time></trkpt><trkpt lat="14.578342248204393" lon="121.05137320206528"><ele>42.8</ele><time>2026-04-01T08:55:48Z</time></trkpt><trkpt lat="14.578255058518764" lon="121.05130627561313"><ele>42.2</ele><time>2026-04-01T08:55:49Z</time></trkpt><trkpt lat="14.578169946155972" lon="121.0512426317163"><ele>41.599999999999994</ele><time>2026-04-01T08:55:50Z</time></trkpt><trkpt lat="14.578079929581781" lon="121.05117348120393"><ele>41.0</ele><time>2026-04-01T08:55:51Z</time></trkpt><trkpt lat="14.577992366486582" lon="121.05111596278749"><ele>41.0</ele><time>2026-04-01T08:55:52.001Z</time></trkpt><trkpt lat="14.577918004833395" lon="121.0510535030812"><ele>41.0</ele><time>2026-04-01T08:55:53.001Z</time></trkpt><trkpt lat="14.577843049960748" lon="121.05098654284953"><ele>41.0</ele><time>2026-04-01T08:55:54.001Z</time></trkpt><trkpt lat="14.577764402318499" lon="121.0509289522291"><ele>41.0</ele><time>2026-04-01T08:55:55.001Z</time></trkpt><trkpt lat="14.577684892265163" lon="121.05086810496257"><ele>41.0</ele><time>2026-04-01T08:55:56.001Z</time></trkpt><trkpt lat="14.577593595985299" lon="121.05080100402466"><ele>42.0</ele><time>2026-04-01T08:55:57.001Z</time></trkpt><trkpt lat="14.57750402973649" lon="121.05073416935564"><ele>43.0</ele><time>2026-04-01T08:55:58.001Z</time></trkpt><trkpt lat="14.57741299622437" lon="121.0506638570884"><ele>44.0</ele><time>2026-04-01T08:55:59.001Z</time></trkpt><trkpt lat="14.577316961263355" lon="121.05060009577427"><ele>45.0</ele><time>2026-04-01T08:56:00.001Z</time></trkpt><trkpt lat="14.577218851108622" lon="121.05053840921722"><ele>45.0</ele><time>2026-04-01T08:56:01.001Z</time></trkpt><trkpt lat="14.577124625467164" lon="121.05046401778857"><ele>45.0</ele><time>2026-04-01T08:56:02.001Z</time></trkpt><trkpt lat="14.577030556418999" lon="121.05039981162611"><ele>45.0</ele><time>2026-04-01T08:56:03.001Z</time></trkpt><trkpt lat="14.576935831883475" lon="121.05033300132109"><ele>45.0</ele><time>2026-04-01T08:56:04.001Z</time></trkpt><trkpt lat="14.576841746795411" lon="121.05026285268943"><ele>45.25</ele><time>2026-04-01T08:56:05.001Z</time></trkpt><trkpt lat="14.576750407350547" lon="121.05019014639393"><ele>45.5</ele><time>2026-04-01T08:56:06.001Z</time></trkpt><trkpt lat="14.576656496306859" lon="121.0501154913304"><ele>45.75</ele><time>2026-04-01T08:56:07.001Z</time></trkpt><trkpt lat="14.576563463157866" lon="121.05004418481381"><ele>46.0</ele><time>2026-04-01T08:56:08.001Z</time></trkpt><trkpt lat="14.576471357305913" lon="121.04997866266848"><ele>45.0</ele><time>2026-04-01T08:56:09.001Z</time></trkpt><trkpt lat="14.576384294988642" lon="121.04991175543708"><ele>44.0</ele><time>2026-04-01T08:56:10.001Z</time></trkpt><trkpt lat="14.576295163677063" lon="121.04985004634246"><ele>43.0</ele><time>2026-04-01T08:56:11.001Z</time></trkpt><trkpt lat="14.57620902315911" lon="121.04978438296692"><ele>42.0</ele><time>2026-04-01T08:56:12.001Z</time></trkpt><trkpt lat="14.576124161252555" lon="121.04971278171763"><ele>41.0</ele><time>2026-04-01T08:56:13.001Z</time></trkpt><trkpt lat="14.576037793687425" lon="121.04964038750896"><ele>40.8</ele><time>2026-04-01T08:56:14.001Z</time></trkpt><trkpt lat="14.575950158060081" lon="121.04957668379362"><ele>40.599999999999994</ele><time>2026-04-01T08:56:15.001Z</time></trkpt><trkpt lat="14.575862452619782" lon="121.04951543220756"><ele>40.4</ele><time>2026-04-01T08:56:16.001Z</time></trkpt><trkpt lat="14.575780570903282" lon="121.04945030026227"><ele>40.2</ele><time>2026-04-01T08:56:17.001Z</time></trkpt><trkpt lat="14.57569505444553" lon="121.04938728033714"><ele>40.0</ele><time>2026-04-01T08:56:18.001Z</time></trkpt><trkpt lat="14.575608192616894" lon="121.04932675634751"><ele>40.0</ele><time>2026-04-01T08:56:19.001Z</time></trkpt><trkpt lat="14.575519063715435" lon="121.04926225516475"><ele>40.0</ele><time>2026-04-01T08:56:20.001Z</time></trkpt><trkpt lat="14.575441044203961" lon="121.0491933720245"><ele>40.0</ele><time>2026-04-01T08:56:21.001Z</time></trkpt><trkpt lat="14.575360052804413" lon="121.0491275828003"><ele>40.0</ele><time>2026-04-01T08:56:22.001Z</time></trkpt><trkpt lat="14.575276166353916" lon="121.0490638696034"><ele>40.0</ele><time>2026-04-01T08:56:23.001Z</time></trkpt><trkpt lat="14.575191337479685" lon="121.04899831498044"><ele>39.6</ele><time>2026-04-01T08:56:24.001Z</time></trkpt><trkpt lat="14.575094693473902" lon="121.0489338195818"><ele>39.2</ele><time>2026-04-01T08:56:25.001Z</time></trkpt><trkpt lat="14.575007029584905" lon="121.04886975149498"><ele>38.8</ele><time>2026-04-01T08:56:26.001Z</time></trkpt><trkpt lat="14.574928364819495" lon="121.04880593800199"><ele>38.4</ele><time>2026-04-01T08:56:27.001Z</time></trkpt><trkpt lat="14.57484899615615" lon="121.0487432404259"><ele>38.0</ele><time>2026-04-01T08:56:28.001Z</time></trkpt><trkpt lat="14.574761182761929" lon="121.04866991213879"><ele>38.0</ele><time>2026-04-01T08:56:29.001Z</time></trkpt><trkpt lat="14.574676744340515" lon="121.04860494926407"><ele>38.0</ele><time>2026-04-01T08:56:30.001Z</time></trkpt><trkpt lat="14.574589397370884" lon="121.04854579561476"><ele>38.0</ele><time>2026-04-01T08:56:31.001Z</time></trkpt><trkpt lat="14.574488822453683" lon="121.0484759263661"><ele>38.0</ele><time>2026-04-01T08:56:32.001Z</time></trkpt><trkpt lat="14.574397259553914" lon="121.0484071847593"><ele>38.0</ele><time>2026-04-01T08:56:33.001Z</time></trkpt><trkpt lat="14.574313082583025" lon="121.0483383791076"><ele>38.199999999999996</ele><time>2026-04-01T08:56:34.001Z</time></trkpt><trkpt lat="14.574228720297555" lon="121.04827651618297"><ele>38.4</ele><time>2026-04-01T08:56:35.001Z</time></trkpt><trkpt lat="14.574141379924075" lon="121.04822310969975"><ele>38.599999999999994</ele><time>2026-04-01T08:56:36.001Z</time></trkpt><trkpt lat="14.574055101122525" lon="121.04815928160725"><ele>38.8</ele><time>2026-04-01T08:56:37.001Z</time></trkpt><trkpt lat="14.573983527689277" lon="121.0480981546241"><ele>39.0</ele><time>2026-04-01T08:56:38.001Z</time></trkpt><trkpt lat="14.573902962039625" lon="121.04804186113724"><ele>39.0</ele><time>2026-04-01T08:56:39.001Z</time></trkpt><trkpt lat="14.573817737736869" lon="121.04799307919798"><ele>39.0</ele><time>2026-04-01T08:56:40.001Z</time></trkpt><trkpt lat="14.573741027330188" lon="121.04793318751311"><ele>39.0</ele><time>2026-04-01T08:56:41.001Z</time></trkpt><trkpt lat="14.573661588129124" lon="121.04787730068746"><ele>39.0</ele><time>2026-04-01T08:56:42.001Z</time></trkpt><trkpt lat="14.573587063319104" lon="121.04781750251466"><ele>39.0</ele><time>2026-04-01T08:56:43.001Z</time></trkpt><trkpt lat="14.573525165632102" lon="121.04777020761037"><ele>38.6</ele><time>2026-04-01T08:56:44.001Z</time></trkpt><trkpt lat="14.573448155892683" lon="121.04772826093189"><ele>38.2</ele><time>2026-04-01T08:56:45.001Z</time></trkpt><trkpt lat="14.57339713263052" lon="121.04766901099197"><ele>37.800000000000004</ele><time>2026-04-01T08:56:46.001Z</time></trkpt><trkpt lat="14.573310054705878" lon="121.04763996461433"><ele>37.4</ele><time>2026-04-01T08:56:48.001Z</time></trkpt><trkpt lat="14.573218744245866" lon="121.0476037435334"><ele>37.0</ele><time>2026-04-01T08:56:50.001Z</time></trkpt><trkpt lat="14.573101411944164" lon="121.0475480662234"><ele>37.0</ele><time>2026-04-01T08:56:52.001Z</time></trkpt><trkpt lat="14.573027259774593" lon="121.04750617427105"><ele>37.0</ele><time>2026-04-01T08:56:53.001Z</time></trkpt><trkpt lat="14.572965457407566" lon="121.04746430451671"><ele>37.0</ele><time>2026-04-01T08:56:54.001Z</time></trkpt><trkpt lat="14.572892259486725" lon="121.04742714221031"><ele>37.0</ele><time>2026-04-01T08:56:55.001Z</time></trkpt><trkpt lat="14.572826897071579" lon="121.04738530960014"><ele>37.0</ele><time>2026-04-01T08:56:56.001Z</time></trkpt><trkpt lat="14.572759061588004" lon="121.04734615767853"><ele>37.0</ele><time>2026-04-01T08:56:57.001Z</time></trkpt><trkpt lat="14.572640181620633" lon="121.04727478112152"><ele>36.16666666666667</ele><time>2026-04-01T08:56:59.001Z</time></trkpt><trkpt lat="14.572573039706969" lon="121.04723317952745"><ele>35.333333333333336</ele><time>2026-04-01T08:57:00.001Z</time></trkpt><trkpt lat="14.572497914112905" lon="121.04718804605265"><ele>34.5</ele><time>2026-04-01T08:57:01.001Z</time></trkpt><trkpt lat="14.572431541125109" lon="121.04715359843675"><ele>33.666666666666664</ele><time>2026-04-01T08:57:02.001Z</time></trkpt><trkpt lat="14.572352505691782" lon="121.04710799890249"><ele>32.83333333333333</ele><time>2026-04-01T08:57:03.001Z</time></trkpt><trkpt lat="14.572266632032976" lon="121.0470638747869"><ele>32.0</ele><time>2026-04-01T08:57:04.001Z</time></trkpt><trkpt lat="14.572172621689624" lon="121.04702137784959"><ele>32.0</ele><time>2026-04-01T08:57:05.001Z</time></trkpt><trkpt lat="14.572072646112174" lon="121.04696925801612"><ele>32.0</ele><time>2026-04-01T08:57:06.001Z</time></trkpt><trkpt lat="14.571971726809887" lon="121.04692839582133"><ele>32.0</ele><time>2026-04-01T08:57:07.001Z</time></trkpt><trkpt lat="14.571859576420417" lon="121.04687966619571"><ele>32.0</ele><time>2026-04-01T08:57:08.001Z</time></trkpt><trkpt lat="14.57174399580039" lon="121.04683686396812"><ele>32.25</ele><time>2026-04-01T08:57:09.001Z</time></trkpt><trkpt lat="14.571642827506018" lon="121.04679003076556"><ele>32.5</ele><time>2026-04-01T08:57:10.001Z</time></trkpt><trkpt lat="14.571537270828133" lon="121.04675626220106"><ele>32.75</ele><time>2026-04-01T08:57:11.001Z</time></trkpt><trkpt lat="14.571430953981922" lon="121.04671469764448"><ele>33.0</ele><time>2026-04-01T08:57:12.001Z</time></trkpt><trkpt lat="14.571320015221868" lon="121.04668020671522"><ele>33.0</ele><time>2026-04-01T08:57:13.001Z</time></trkpt><trkpt lat="14.57120875360275" lon="121.04666979797085"><ele>33.0</ele><time>2026-04-01T08:57:14.001Z</time></trkpt><trkpt lat="14.571102563291612" lon="121.04660931432714"><ele>33.0</ele><time>2026-04-01T08:57:15.001Z</time></trkpt><trkpt lat="14.571001758466542" lon="121.04657792426683"><ele>33.0</ele><time>2026-04-01T08:57:16.001Z</time></trkpt><trkpt lat="14.570897739722948" lon="121.04654583170979"><ele>33.0</ele><time>2026-04-01T08:57:17.001Z</time></trkpt><trkpt lat="14.570807234098513" lon="121.04648864937248"><ele>30.75</ele><time>2026-04-01T08:57:18.001Z</time></trkpt><trkpt lat="14.570662113080733" lon="121.04646299366267"><ele>28.5</ele><time>2026-04-01T08:57:19.001Z</time></trkpt><trkpt lat="14.570530261746034" lon="121.04641489597569"><ele>26.25</ele><time>2026-04-01T08:57:20.001Z</time></trkpt><trkpt lat="14.570385752367848" lon="121.04636937744196"><ele>24.0</ele><time>2026-04-01T08:57:21.001Z</time></trkpt><trkpt lat="14.570248390649196" lon="121.04633584433331"><ele>22.5</ele><time>2026-04-01T08:57:22.001Z</time></trkpt><trkpt lat="14.570118609581108" lon="121.0462999437855"><ele>21.0</ele><time>2026-04-01T08:57:23.001Z</time></trkpt><trkpt lat="14.569989302452719" lon="121.04627101498595"><ele>19.5</ele><time>2026-04-01T08:57:24.001Z</time></trkpt><trkpt lat="14.569871295241434" lon="121.04623872730534"><ele>18.0</ele><time>2026-04-01T08:57:25.001Z</time></trkpt><trkpt lat="14.569758366986859" lon="121.04621028690725"><ele>18.0</ele><time>2026-04-01T08:57:26.001Z</time></trkpt><trkpt lat="14.569660653756477" lon="121.04618417666933"><ele>18.0</ele><time>2026-04-01T08:57:27.001Z</time></trkpt><trkpt lat="14.56956328642013" lon="121.04615834739155"><ele>18.0</ele><time>2026-04-01T08:57:28.001Z</time></trkpt><trkpt lat="14.569472880823998" lon="121.04612775029189"><ele>18.0</ele><time>2026-04-01T08:57:29.001Z</time></trkpt><trkpt lat="14.569381831042236" lon="121.04610093890379"><ele>18.0</ele><time>2026-04-01T08:57:30.001Z</time></trkpt><trkpt lat="14.569287121424045" lon="121.04607611007555"><ele>16.8</ele><time>2026-04-01T08:57:31.001Z</time></trkpt><trkpt lat="14.569191602057161" lon="121.04605154885958"><ele>15.600000000000001</ele><time>2026-04-01T08:57:32.001Z</time></trkpt><trkpt lat="14.569092688745947" lon="121.04602448215917"><ele>14.399999999999999</ele><time>2026-04-01T08:57:33.001Z</time></trkpt><trkpt lat="14.568998866964085" lon="121.04600383871609"><ele>13.2</ele><time>2026-04-01T08:57:34.001Z</time></trkpt><trkpt lat="14.56891322216965" lon="121.04598633155999"><ele>12.0</ele><time>2026-04-01T08:57:35.001Z</time></trkpt><trkpt lat="14.568839163613676" lon="121.04596797696796"><ele>12.0</ele><time>2026-04-01T08:57:36.001Z</time></trkpt><trkpt lat="14.568764313151878" lon="121.0459460747437"><ele>12.0</ele><time>2026-04-01T08:57:37.001Z</time></trkpt><trkpt lat="14.568680938636525" lon="121.04592363118704"><ele>12.0</ele><time>2026-04-01T08:57:38.001Z</time></trkpt><trkpt lat="14.568597148055167" lon="121.04590320500165"><ele>12.0</ele><time>2026-04-01T08:57:39.001Z</time></trkpt><trkpt lat="14.568508094651158" lon="121.0458783375265"><ele>12.0</ele><time>2026-04-01T08:57:40.001Z</time></trkpt><trkpt lat="14.568415308290632" lon="121.0458565867255"><ele>12.0</ele><time>2026-04-01T08:57:41.001Z</time></trkpt><trkpt lat="14.568322727964" lon="121.04583375355219"><ele>11.333333333333334</ele><time>2026-04-01T08:57:42.001Z</time></trkpt><trkpt lat="14.56824151882485" lon="121.0458084729342"><ele>10.666666666666666</ele><time>2026-04-01T08:57:43.001Z</time></trkpt><trkpt lat="14.568159016276653" lon="121.04578633243861"><ele>10.0</ele><time>2026-04-01T08:57:44.001Z</time></trkpt><trkpt lat="14.568074639096109" lon="121.04576109474"><ele>9.333333333333332</ele><time>2026-04-01T08:57:45.001Z</time></trkpt><trkpt lat="14.567989110794842" lon="121.04573544069446"><ele>8.666666666666666</ele><time>2026-04-01T08:57:46.001Z</time></trkpt><trkpt lat="14.567901742924972" lon="121.04570717885208"><ele>8.0</ele><time>2026-04-01T08:57:47.001Z</time></trkpt><trkpt lat="14.567812882073579" lon="121.04567652554185"><ele>11.0</ele><time>2026-04-01T08:57:48.001Z</time></trkpt><trkpt lat="14.56772498919506" lon="121.04564988370939"><ele>14.0</ele><time>2026-04-01T08:57:49.001Z</time></trkpt><trkpt lat="14.567631231359186" lon="121.04562195891113"><ele>17.0</ele><time>2026-04-01T08:57:50.001Z</time></trkpt><trkpt lat="14.567541197894409" lon="121.04558770250755"><ele>20.0</ele><time>2026-04-01T08:57:51.001Z</time></trkpt><trkpt lat="14.567448815220319" lon="121.04555791002734"><ele>23.0</ele><time>2026-04-01T08:57:52.001Z</time></trkpt><trkpt lat="14.567351039993172" lon="121.04552529027596"><ele>23.0</ele><time>2026-04-01T08:57:53.001Z</time></trkpt><trkpt lat="14.567253791447204" lon="121.04549499812518"><ele>23.0</ele><time>2026-04-01T08:57:54.001Z</time></trkpt><trkpt lat="14.567167676222034" lon="121.04545696560258"><ele>23.0</ele><time>2026-04-01T08:57:55.001Z</time></trkpt><trkpt lat="14.567085789492165" lon="121.04543240930096"><ele>23.0</ele><time>2026-04-01T08:57:56.001Z</time></trkpt><trkpt lat="14.567006631772818" lon="121.04540983823442"><ele>23.0</ele><time>2026-04-01T08:57:57.001Z</time></trkpt><trkpt lat="14.566926168448777" lon="121.04539073127867"><ele>23.0</ele><time>2026-04-01T08:57:58.001Z</time></trkpt><trkpt lat="14.566841663370086" lon="121.04537020636226"><ele>23.4</ele><time>2026-04-01T08:57:59.001Z</time></trkpt><trkpt lat="14.566751622974648" lon="121.04534801732464"><ele>23.799999999999997</ele><time>2026-04-01T08:58:00.001Z</time></trkpt><trkpt lat="14.566659148755626" lon="121.04532388067221"><ele>24.2</ele><time>2026-04-01T08:58:01.001Z</time></trkpt><trkpt lat="14.566556417878994" lon="121.04530088573429"><ele>24.6</ele><time>2026-04-01T08:58:02.001Z</time></trkpt><trkpt lat="14.566463338238231" lon="121.04526539136059"><ele>25.0</ele><time>2026-04-01T08:58:03.001Z</time></trkpt><trkpt lat="14.566360399685307" lon="121.0452391151967"><ele>25.0</ele><time>2026-04-01T08:58:04.001Z</time></trkpt><trkpt lat="14.566263062226428" lon="121.04523281977329"><ele>25.0</ele><time>2026-04-01T08:58:05.001Z</time></trkpt><trkpt lat="14.566168083824127" lon="121.04521022025318"><ele>25.0</ele><time>2026-04-01T08:58:06.001Z</time></trkpt><trkpt lat="14.566064751252492" lon="121.04518394535603"><ele>25.0</ele><time>2026-04-01T08:58:07.001Z</time></trkpt><trkpt lat="14.565978840034191" lon="121.04514788017003"><ele>25.0</ele><time>2026-04-01T08:58:08.001Z</time></trkpt><trkpt lat="14.565914222461927" lon="121.04510369073752"><ele>24.4</ele><time>2026-04-01T08:58:09.001Z</time></trkpt><trkpt lat="14.565857709329835" lon="121.04505926248976"><ele>23.8</ele><time>2026-04-01T08:58:10.001Z</time></trkpt><trkpt lat="14.565697162563689" lon="121.04505334581063"><ele>23.200000000000003</ele><time>2026-04-01T08:58:11.001Z</time></trkpt><trkpt lat="14.565604006054107" lon="121.04502861329469"><ele>22.6</ele><time>2026-04-01T08:58:12.001Z</time></trkpt><trkpt lat="14.565507622088965" lon="121.0450001004308"><ele>22.0</ele><time>2026-04-01T08:58:13.001Z</time></trkpt><trkpt lat="14.565408366780346" lon="121.04496332173461"><ele>22.0</ele><time>2026-04-01T08:58:14.001Z</time></trkpt><trkpt lat="14.565305133044147" lon="121.04492733096421"><ele>22.0</ele><time>2026-04-01T08:58:15.001Z</time></trkpt><trkpt lat="14.565197267754055" lon="121.04489391873379"><ele>22.0</ele><time>2026-04-01T08:58:16.001Z</time></trkpt><trkpt lat="14.565089535167738" lon="121.04486158530845"><ele>22.0</ele><time>2026-04-01T08:58:17.001Z</time></trkpt><trkpt lat="14.564980492093762" lon="121.04482829064989"><ele>22.0</ele><time>2026-04-01T08:58:18.001Z</time></trkpt><trkpt lat="14.564867158927703" lon="121.04478998955913"><ele>22.0</ele><time>2026-04-01T08:58:19.001Z</time></trkpt><trkpt lat="14.5647571487986" lon="121.04474793866804"><ele>22.0</ele><time>2026-04-01T08:58:20.001Z</time></trkpt><trkpt lat="14.564650602833398" lon="121.0447057964727"><ele>22.0</ele><time>2026-04-01T08:58:21.001Z</time></trkpt><trkpt lat="14.564539887596666" lon="121.0446673686683"><ele>22.0</ele><time>2026-04-01T08:58:22.001Z</time></trkpt><trkpt lat="14.56443724998554" lon="121.04462071781633"><ele>22.75</ele><time>2026-04-01T08:58:23.001Z</time></trkpt><trkpt lat="14.56433242351391" lon="121.04457148135492"><ele>23.5</ele><time>2026-04-01T08:58:24.001Z</time></trkpt><trkpt lat="14.564228912608737" lon="121.04452272568719"><ele>24.25</ele><time>2026-04-01T08:58:25.001Z</time></trkpt><trkpt lat="14.564120808926006" lon="121.04447114778355"><ele>25.0</ele><time>2026-04-01T08:58:26.001Z</time></trkpt><trkpt lat="14.564007467054143" lon="121.0444170829042"><ele>25.0</ele><time>2026-04-01T08:58:27.001Z</time></trkpt><trkpt lat="14.563889361082156" lon="121.04435879063662"><ele>25.0</ele><time>2026-04-01T08:58:28.001Z</time></trkpt><trkpt lat="14.563772052071231" lon="121.0442960404294"><ele>25.0</ele><time>2026-04-01T08:58:29.001Z</time></trkpt><trkpt lat="14.563654479762768" lon="121.04423137509197"><ele>25.0</ele><time>2026-04-01T08:58:30.001Z</time></trkpt><trkpt lat="14.563536388302417" lon="121.04416606315637"><ele>24.5</ele><time>2026-04-01T08:58:31.001Z</time></trkpt><trkpt lat="14.56341792801697" lon="121.0440978305259"><ele>24.0</ele><time>2026-04-01T08:58:32.001Z</time></trkpt><trkpt lat="14.563297179729958" lon="121.0440162704114"><ele>23.5</ele><time>2026-04-01T08:58:33.001Z</time></trkpt><trkpt lat="14.56318015226554" lon="121.04394435442521"><ele>23.0</ele><time>2026-04-01T08:58:34.001Z</time></trkpt><trkpt lat="14.563059708532272" lon="121.04387100806836"><ele>23.0</ele><time>2026-04-01T08:58:35.001Z</time></trkpt><trkpt lat="14.562939934024069" lon="121.04379041673721"><ele>23.0</ele><time>2026-04-01T08:58:36.001Z</time></trkpt><trkpt lat="14.56281578917104" lon="121.04371170339414"><ele>23.0</ele><time>2026-04-01T08:58:37.001Z</time></trkpt><trkpt lat="14.562708441122183" lon="121.04361707776914"><ele>23.0</ele><time>2026-04-01T08:58:38.001Z</time></trkpt><trkpt lat="14.562628074605362" lon="121.04350421067166"><ele>22.75</ele><time>2026-04-01T08:58:39.001Z</time></trkpt><trkpt lat="14.562535477630954" lon="121.04340063530937"><ele>22.5</ele><time>2026-04-01T08:58:40.001Z</time></trkpt><trkpt lat="14.56237738235237" lon="121.04335370538594"><ele>22.25</ele><time>2026-04-01T08:58:41.001Z</time></trkpt><trkpt lat="14.562272853553697" lon="121.04327050641879"><ele>22.0</ele><time>2026-04-01T08:58:42.001Z</time></trkpt><trkpt lat="14.562173373871193" lon="121.04317919393033"><ele>22.25</ele><time>2026-04-01T08:58:43.001Z</time></trkpt><trkpt lat="14.56207854087097" lon="121.0430919985467"><ele>22.5</ele><time>2026-04-01T08:58:44.001Z</time></trkpt><trkpt lat="14.561963893363739" lon="121.04300366726751"><ele>22.75</ele><time>2026-04-01T08:58:45.001Z</time></trkpt><trkpt lat="14.561862642727053" lon="121.04291384769802"><ele>23.0</ele><time>2026-04-01T08:58:46.001Z</time></trkpt><trkpt lat="14.561751008195861" lon="121.0428062043733"><ele>23.0</ele><time>2026-04-01T08:58:47.001Z</time></trkpt><trkpt lat="14.561644370890095" lon="121.04269210863526"><ele>23.0</ele><time>2026-04-01T08:58:48.001Z</time></trkpt><trkpt lat="14.561532173702428" lon="121.0425714266484"><ele>23.0</ele><time>2026-04-01T08:58:49.001Z</time></trkpt><trkpt lat="14.561420241340167" lon="121.04244564391365"><ele>19.666666666666668</ele><time>2026-04-01T08:58:50.001Z</time></trkpt><trkpt lat="14.56130858968398" lon="121.04231401661285"><ele>16.333333333333332</ele><time>2026-04-01T08:58:51.001Z</time></trkpt><trkpt lat="14.561194763225789" lon="121.04217879909082"><ele>13.0</ele><time>2026-04-01T08:58:52.001Z</time></trkpt><trkpt lat="14.561079607650736" lon="121.04203988678867"><ele>12.0</ele><time>2026-04-01T08:58:53.001Z</time></trkpt><trkpt lat="14.560967258902568" lon="121.04190452922086"><ele>11.0</ele><time>2026-04-01T08:58:54.001Z</time></trkpt><trkpt lat="14.560858784764788" lon="121.04177234259414"><ele>10.0</ele><time>2026-04-01T08:58:55.001Z</time></trkpt><trkpt lat="14.560754795934574" lon="121.04164636058711"><ele>10.75</ele><time>2026-04-01T08:58:56.001Z</time></trkpt><trkpt lat="14.560656059887544" lon="121.04152802061505"><ele>11.5</ele><time>2026-04-01T08:58:57.001Z</time></trkpt><trkpt lat="14.560567814940956" lon="121.04142302032635"><ele>12.25</ele><time>2026-04-01T08:58:58.001Z</time></trkpt><trkpt lat="14.560489374107297" lon="121.0413262225974"><ele>13.0</ele><time>2026-04-01T08:58:59.001Z</time></trkpt><trkpt lat="14.560407715681981" lon="121.04122723194375"><ele>14.0</ele><time>2026-04-01T08:59:00.001Z</time></trkpt><trkpt lat="14.560332067535121" lon="121.04113059648294"><ele>15.0</ele><time>2026-04-01T08:59:01.001Z</time></trkpt><trkpt lat="14.560267119875489" lon="121.04105190542965"><ele>16.0</ele><time>2026-04-01T08:59:02.001Z</time></trkpt><trkpt lat="14.560211716768183" lon="121.04097591109962"><ele>17.0</ele><time>2026-04-01T08:59:03.001Z</time></trkpt><trkpt lat="14.560161185020872" lon="121.04091226668505"><ele>18.0</ele><time>2026-04-01T08:59:04.001Z</time></trkpt><trkpt lat="14.560108511311483" lon="121.04084922756925"><ele>17.666666666666668</ele><time>2026-04-01T08:59:05.001Z</time></trkpt><trkpt lat="14.560057573794081" lon="121.04078691129857"><ele>17.333333333333332</ele><time>2026-04-01T08:59:06.001Z</time></trkpt><trkpt lat="14.560008189756113" lon="121.04072275970987"><ele>17.0</ele><time>2026-04-01T08:59:07.001Z</time></trkpt><trkpt lat="14.55995872848808" lon="121.04065442896221"><ele>16.666666666666664</ele><time>2026-04-01T08:59:08.001Z</time></trkpt><trkpt lat="14.559913269689403" lon="121.04059753798374"><ele>16.333333333333332</ele><time>2026-04-01T08:59:09.001Z</time></trkpt><trkpt lat="14.559832681840984" lon="121.04050888291259"><ele>16.0</ele><time>2026-04-01T08:59:11.001Z</time></trkpt><trkpt lat="14.559752586872108" lon="121.04041714530685"><ele>15.999999999999998</ele><time>2026-04-01T08:59:13.001Z</time></trkpt><trkpt lat="14.559662118333899" lon="121.04031771978218"><ele>16.0</ele><time>2026-04-01T08:59:15.001Z</time></trkpt><trkpt lat="14.559620084025424" lon="121.04025039048378"><ele>16.0</ele><time>2026-04-01T08:59:16.001Z</time></trkpt><trkpt lat="14.55956146029908" lon="121.04020165448898"><ele>16.0</ele><time>2026-04-01T08:59:17.001Z</time></trkpt><trkpt lat="14.55951275992616" lon="121.04013759587136"><ele>15.999999999999998</ele><time>2026-04-01T08:59:18.001Z</time></trkpt><trkpt lat="14.559465383605728" lon="121.04007794992675"><ele>16.0</ele><time>2026-04-01T08:59:19.001Z</time></trkpt><trkpt lat="14.559410646783467" lon="121.0400174943585"><ele>16.833333333333332</ele><time>2026-04-01T08:59:20.001Z</time></trkpt><trkpt lat="14.559353717304626" lon="121.03994909585974"><ele>17.666666666666664</ele><time>2026-04-01T08:59:21.001Z</time></trkpt><trkpt lat="14.559298831666068" lon="121.03988638091673"><ele>18.5</ele><time>2026-04-01T08:59:22.001Z</time></trkpt><trkpt lat="14.559249013646859" lon="121.039823921111"><ele>19.333333333333332</ele><time>2026-04-01T08:59:23.001Z</time></trkpt><trkpt lat="14.559194853181564" lon="121.03976194068566"><ele>20.166666666666668</ele><time>2026-04-01T08:59:24.001Z</time></trkpt><trkpt lat="14.559138083365664" lon="121.03969074907727"><ele>21.0</ele><time>2026-04-01T08:59:25.001Z</time></trkpt><trkpt lat="14.55908363141464" lon="121.03962441389713"><ele>21.0</ele><time>2026-04-01T08:59:26.001Z</time></trkpt><trkpt lat="14.559008512142203" lon="121.03953503061487"><ele>21.0</ele><time>2026-04-01T08:59:27.001Z</time></trkpt><trkpt lat="14.55893518366199" lon="121.03944401960628"><ele>21.0</ele><time>2026-04-01T08:59:28.001Z</time></trkpt><trkpt lat="14.55886102850238" lon="121.03935547417258"><ele>21.0</ele><time>2026-04-01T08:59:29.001Z</time></trkpt><trkpt lat="14.558789234430307" lon="121.03926958201495"><ele>21.0</ele><time>2026-04-01T08:59:30.001Z</time></trkpt><trkpt lat="14.558712343570518" lon="121.03917631470777"><ele>21.0</ele><time>2026-04-01T08:59:31.001Z</time></trkpt><trkpt lat="14.55864627815959" lon="121.03910078089022"><ele>21.0</ele><time>2026-04-01T08:59:32.001Z</time></trkpt><trkpt lat="14.558582491133173" lon="121.03901905231358"><ele>21.0</ele><time>2026-04-01T08:59:33.001Z</time></trkpt><trkpt lat="14.558529184600378" lon="121.03895169688234"><ele>21.0</ele><time>2026-04-01T08:59:34.001Z</time></trkpt><trkpt lat="14.558470164094766" lon="121.03887982247643"><ele>21.0</ele><time>2026-04-01T08:59:35.001Z</time></trkpt><trkpt lat="14.558415603601423" lon="121.03881143255578"><ele>21.0</ele><time>2026-04-01T08:59:36.001Z</time></trkpt><trkpt lat="14.558356503328076" lon="121.03874632359755"><ele>21.0</ele><time>2026-04-01T08:59:37.001Z</time></trkpt><trkpt lat="14.55828920851384" lon="121.03867430034322"><ele>21.0</ele><time>2026-04-01T08:59:38.001Z</time></trkpt><trkpt lat="14.558219801633323" lon="121.03859701070903"><ele>21.0</ele><time>2026-04-01T08:59:39.001Z</time></trkpt><trkpt lat="14.558148427876064" lon="121.03850798800822"><ele>21.0</ele><time>2026-04-01T08:59:40.001Z</time></trkpt><trkpt lat="14.55807702929916" lon="121.03842237118864"><ele>21.0</ele><time>2026-04-01T08:59:41.001Z</time></trkpt><trkpt lat="14.558008713510153" lon="121.03833798216775"><ele>21.0</ele><time>2026-04-01T08:59:42.001Z</time></trkpt><trkpt lat="14.557937817283767" lon="121.03824769324618"><ele>21.0</ele><time>2026-04-01T08:59:43.001Z</time></trkpt><trkpt lat="14.557868548042709" lon="121.0381625032401"><ele>21.0</ele><time>2026-04-01T08:59:44.001Z</time></trkpt><trkpt lat="14.557802671778212" lon="121.03807958333023"><ele>22.166666666666668</ele><time>2026-04-01T08:59:45.001Z</time></trkpt><trkpt lat="14.55774120577279" lon="121.03800050367063"><ele>23.333333333333336</ele><time>2026-04-01T08:59:46.001Z</time></trkpt><trkpt lat="14.557687586832989" lon="121.03793100746623"><ele>24.5</ele><time>2026-04-01T08:59:47.001Z</time></trkpt><trkpt lat="14.557637983761007" lon="121.03787070962531"><ele>25.666666666666668</ele><time>2026-04-01T08:59:48.001Z</time></trkpt><trkpt lat="14.557596138827515" lon="121.03781382628328"><ele>26.833333333333336</ele><time>2026-04-01T08:59:49.001Z</time></trkpt><trkpt lat="14.557550100847678" lon="121.03775526457575"><ele>28.0</ele><time>2026-04-01T08:59:50.001Z</time></trkpt><trkpt lat="14.557494326527788" lon="121.03768381960515"><ele>28.0</ele><time>2026-04-01T08:59:51.001Z</time></trkpt><trkpt lat="14.557439492178494" lon="121.03761112877183"><ele>27.999999999999996</ele><time>2026-04-01T08:59:52.001Z</time></trkpt><trkpt lat="14.557364420764523" lon="121.03752946524678"><ele>27.999999999999996</ele><time>2026-04-01T08:59:53.001Z</time></trkpt><trkpt lat="14.557298458816907" lon="121.03744359203583"><ele>28.0</ele><time>2026-04-01T08:59:54.001Z</time></trkpt><trkpt lat="14.557217546854977" lon="121.03735374401774"><ele>28.0</ele><time>2026-04-01T08:59:55.001Z</time></trkpt><trkpt lat="14.557128728463537" lon="121.0372542824134"><ele>27.75</ele><time>2026-04-01T08:59:56.001Z</time></trkpt><trkpt lat="14.557047120129159" lon="121.03715285860812"><ele>27.5</ele><time>2026-04-01T08:59:57.001Z</time></trkpt><trkpt lat="14.55694767671362" lon="121.03704853157201"><ele>27.25</ele><time>2026-04-01T08:59:58.001Z</time></trkpt><trkpt lat="14.556856560707319" lon="121.03693844736426"><ele>27.0</ele><time>2026-04-01T08:59:59.001Z</time></trkpt><trkpt lat="14.556767143053525" lon="121.03682467387584"><ele>26.75</ele><time>2026-04-01T09:00:00.001Z</time></trkpt><trkpt lat="14.556672699886882" lon="121.03671029271887"><ele>26.5</ele><time>2026-04-01T09:00:01.001Z</time></trkpt><trkpt lat="14.556586761204798" lon="121.03660563984548"><ele>26.25</ele><time>2026-04-01T09:00:02.001Z</time></trkpt><trkpt lat="14.55649294904475" lon="121.03649647564612"><ele>26.0</ele><time>2026-04-01T09:00:03.001Z</time></trkpt><trkpt lat="14.556406691841994" lon="121.0363902804979"><ele>26.0</ele><time>2026-04-01T09:00:04.001Z</time></trkpt><trkpt lat="14.556319225968208" lon="121.03628620900083"><ele>26.0</ele><time>2026-04-01T09:00:05.001Z</time></trkpt><trkpt lat="14.556231872262765" lon="121.03618459198215"><ele>26.0</ele><time>2026-04-01T09:00:06.001Z</time></trkpt><trkpt lat="14.556149455386752" lon="121.03608771375866"><ele>26.0</ele><time>2026-04-01T09:00:07.001Z</time></trkpt><trkpt lat="14.556065068482187" lon="121.03599113737626"><ele>25.5</ele><time>2026-04-01T09:00:08.001Z</time></trkpt><trkpt lat="14.555982263117484" lon="121.0358882444696"><ele>25.0</ele><time>2026-04-01T09:00:09.001Z</time></trkpt><trkpt lat="14.55590072076021" lon="121.03579149314925"><ele>24.5</ele><time>2026-04-01T09:00:10.001Z</time></trkpt><trkpt lat="14.555825627938761" lon="121.03569913357728"><ele>24.0</ele><time>2026-04-01T09:00:11.001Z</time></trkpt><trkpt lat="14.555749805405112" lon="121.03560691220767"><ele>23.6</ele><time>2026-04-01T09:00:12.001Z</time></trkpt><trkpt lat="14.555677582190205" lon="121.03551781376467"><ele>23.2</ele><time>2026-04-01T09:00:13.001Z</time></trkpt><trkpt lat="14.555608485592945" lon="121.0354333079946"><ele>22.8</ele><time>2026-04-01T09:00:14.001Z</time></trkpt><trkpt lat="14.555543620746107" lon="121.03535844342947"><ele>22.400000000000002</ele><time>2026-04-01T09:00:15.001Z</time></trkpt><trkpt lat="14.555485476030402" lon="121.03529112016332"><ele>22.0</ele><time>2026-04-01T09:00:16.001Z</time></trkpt><trkpt lat="14.555430721958095" lon="121.03522821741029"><ele>22.0</ele><time>2026-04-01T09:00:17.001Z</time></trkpt><trkpt lat="14.555378111367212" lon="121.03516760370147"><ele>22.0</ele><time>2026-04-01T09:00:18.001Z</time></trkpt><trkpt lat="14.555332210046064" lon="121.03510924674255"><ele>22.0</ele><time>2026-04-01T09:00:19.001Z</time></trkpt><trkpt lat="14.555289809611951" lon="121.03504635833353"><ele>22.0</ele><time>2026-04-01T09:00:20.001Z</time></trkpt><trkpt lat="14.555230135055936" lon="121.03497675782253"><ele>22.0</ele><time>2026-04-01T09:00:21.001Z</time></trkpt><trkpt lat="14.555168944303883" lon="121.03491588559234"><ele>22.0</ele><time>2026-04-01T09:00:22.001Z</time></trkpt><trkpt lat="14.555107821196664" lon="121.03484754812095"><ele>21.8</ele><time>2026-04-01T09:00:23.001Z</time></trkpt><trkpt lat="14.555048732104284" lon="121.03477433437311"><ele>21.6</ele><time>2026-04-01T09:00:24.001Z</time></trkpt><trkpt lat="14.554987420282188" lon="121.03470536015674"><ele>21.400000000000002</ele><time>2026-04-01T09:00:25.001Z</time></trkpt><trkpt lat="14.554926373343093" lon="121.03462656239117"><ele>21.200000000000003</ele><time>2026-04-01T09:00:26.001Z</time></trkpt><trkpt lat="14.554860538646198" lon="121.03454116329492"><ele>21.0</ele><time>2026-04-01T09:00:27.001Z</time></trkpt><trkpt lat="14.55478274421252" lon="121.03445803979909"><ele>21.0</ele><time>2026-04-01T09:00:28.001Z</time></trkpt><trkpt lat="14.554707510935497" lon="121.03436813110511"><ele>21.0</ele><time>2026-04-01T09:00:29.001Z</time></trkpt><trkpt lat="14.554625400065438" lon="121.03427700426718"><ele>21.0</ele><time>2026-04-01T09:00:30.001Z</time></trkpt><trkpt lat="14.554543896444605" lon="121.03417937323734"><ele>21.0</ele><time>2026-04-01T09:00:31.001Z</time></trkpt><trkpt lat="14.554460770958052" lon="121.03408245184154"><ele>21.75</ele><time>2026-04-01T09:00:32.001Z</time></trkpt><trkpt lat="14.55437423371318" lon="121.03398251243733"><ele>22.5</ele><time>2026-04-01T09:00:33.001Z</time></trkpt><trkpt lat="14.554295784745777" lon="121.03388842070846"><ele>23.25</ele><time>2026-04-01T09:00:34.001Z</time></trkpt><trkpt lat="14.554215478740145" lon="121.03379339843164"><ele>24.0</ele><time>2026-04-01T09:00:35.001Z</time></trkpt><trkpt lat="14.554132119390962" lon="121.03369642761203"><ele>24.0</ele><time>2026-04-01T09:00:36.001Z</time></trkpt><trkpt lat="14.554045032410706" lon="121.03359945487094"><ele>24.0</ele><time>2026-04-01T09:00:37.001Z</time></trkpt><trkpt lat="14.55395744122211" lon="121.0335055145783"><ele>24.0</ele><time>2026-04-01T09:00:38.001Z</time></trkpt><trkpt lat="14.553873765190412" lon="121.03340525318463"><ele>24.0</ele><time>2026-04-01T09:00:39.001Z</time></trkpt><trkpt lat="14.553791260128891" lon="121.0333112448125"><ele>23.0</ele><time>2026-04-01T09:00:40.001Z</time></trkpt><trkpt lat="14.553709330572262" lon="121.03321523820631"><ele>22.0</ele><time>2026-04-01T09:00:41.001Z</time></trkpt><trkpt lat="14.55363276988725" lon="121.03312241354972"><ele>21.0</ele><time>2026-04-01T09:00:42.001Z</time></trkpt><trkpt lat="14.553563806480028" lon="121.03303373899317"><ele>20.0</ele><time>2026-04-01T09:00:43.001Z</time></trkpt><trkpt lat="14.553489083652515" lon="121.0329346103218"><ele>19.5</ele><time>2026-04-01T09:00:44.001Z</time></trkpt><trkpt lat="14.553409967178704" lon="121.03283295186422"><ele>19.0</ele><time>2026-04-01T09:00:45.001Z</time></trkpt><trkpt lat="14.553327219395733" lon="121.03273590010771"><ele>18.5</ele><time>2026-04-01T09:00:46.001Z</time></trkpt><trkpt lat="14.553240709689561" lon="121.03263110018545"><ele>18.0</ele><time>2026-04-01T09:00:47.001Z</time></trkpt><trkpt lat="14.553152162094348" lon="121.03252725227767"><ele>18.25</ele><time>2026-04-01T09:00:48.001Z</time></trkpt><trkpt lat="14.553059613828111" lon="121.03241934971291"><ele>18.5</ele><time>2026-04-01T09:00:49.001Z</time></trkpt><trkpt lat="14.552967720126423" lon="121.03231363128215"><ele>18.75</ele><time>2026-04-01T09:00:50.001Z</time></trkpt><trkpt lat="14.552879576268095" lon="121.03221300829676"><ele>19.0</ele><time>2026-04-01T09:00:51.001Z</time></trkpt><trkpt lat="14.552799390146445" lon="121.03211663428705"><ele>18.4</ele><time>2026-04-01T09:00:52.001Z</time></trkpt><trkpt lat="14.55272896420108" lon="121.03203197220662"><ele>17.799999999999997</ele><time>2026-04-01T09:00:53.001Z</time></trkpt><trkpt lat="14.552660471867778" lon="121.03195649800176"><ele>17.200000000000003</ele><time>2026-04-01T09:00:54.001Z</time></trkpt><trkpt lat="14.552595636741003" lon="121.03188602808237"><ele>16.6</ele><time>2026-04-01T09:00:55.001Z</time></trkpt><trkpt lat="14.552529255645233" lon="121.03181740391717"><ele>16.0</ele><time>2026-04-01T09:00:56.001Z</time></trkpt><trkpt lat="14.552466507353063" lon="121.031741054612"><ele>15.999999999999998</ele><time>2026-04-01T09:00:57.001Z</time></trkpt><trkpt lat="14.552403110349553" lon="121.03167196599743"><ele>16.0</ele><time>2026-04-01T09:00:58.001Z</time></trkpt><trkpt lat="14.552340079537466" lon="121.03160079305248"><ele>16.0</ele><time>2026-04-01T09:00:59.001Z</time></trkpt><trkpt lat="14.552281210488237" lon="121.03153104307782"><ele>16.0</ele><time>2026-04-01T09:01:00.001Z</time></trkpt><trkpt lat="14.552226927867792" lon="121.03146512783893"><ele>15.999999999999998</ele><time>2026-04-01T09:01:01.001Z</time></trkpt><trkpt lat="14.55216840137002" lon="121.03140025655847"><ele>16.0</ele><time>2026-04-01T09:01:02.001Z</time></trkpt><trkpt lat="14.552106388332923" lon="121.03132622797598"><ele>15.8</ele><time>2026-04-01T09:01:03.001Z</time></trkpt><trkpt lat="14.552044594859487" lon="121.03125372617366"><ele>15.600000000000001</ele><time>2026-04-01T09:01:04.001Z</time></trkpt><trkpt lat="14.551980127207457" lon="121.03117656572678"><ele>15.4</ele><time>2026-04-01T09:01:05.001Z</time></trkpt><trkpt lat="14.55191585974095" lon="121.03110214623176"><ele>15.2</ele><time>2026-04-01T09:01:06.001Z</time></trkpt><trkpt lat="14.551853262820137" lon="121.03102929737098"><ele>15.0</ele><time>2026-04-01T09:01:07.001Z</time></trkpt><trkpt lat="14.551785309995617" lon="121.03095162259882"><ele>15.8</ele><time>2026-04-01T09:01:08.001Z</time></trkpt><trkpt lat="14.551715052206978" lon="121.03086695697326"><ele>16.6</ele><time>2026-04-01T09:01:09.001Z</time></trkpt><trkpt lat="14.551643700255836" lon="121.03078231457248"><ele>17.4</ele><time>2026-04-01T09:01:10.001Z</time></trkpt><trkpt lat="14.55156885424501" lon="121.03069465183171"><ele>18.2</ele><time>2026-04-01T09:01:11.001Z</time></trkpt><trkpt lat="14.551491215133924" lon="121.03060447795518"><ele>19.0</ele><time>2026-04-01T09:01:12.001Z</time></trkpt><trkpt lat="14.551414035817157" lon="121.03052505643494"><ele>19.2</ele><time>2026-04-01T09:01:13.001Z</time></trkpt><trkpt lat="14.551338679969865" lon="121.03045374333436"><ele>19.4</ele><time>2026-04-01T09:01:14.001Z</time></trkpt><trkpt lat="14.55128388186999" lon="121.03036546529871"><ele>19.6</ele><time>2026-04-01T09:01:15.001Z</time></trkpt><trkpt lat="14.551222993483005" lon="121.03029234835827"><ele>19.8</ele><time>2026-04-01T09:01:16.001Z</time></trkpt><trkpt lat="14.551155238258557" lon="121.03021385716697"><ele>20.0</ele><time>2026-04-01T09:01:17.001Z</time></trkpt><trkpt lat="14.551083975154931" lon="121.03012958289405"><ele>20.0</ele><time>2026-04-01T09:01:18.001Z</time></trkpt><trkpt lat="14.551026201558534" lon="121.03006273210954"><ele>20.0</ele><time>2026-04-01T09:01:19.001Z</time></trkpt><trkpt lat="14.550961894755673" lon="121.02999279685034"><ele>20.0</ele><time>2026-04-01T09:01:20.001Z</time></trkpt><trkpt lat="14.55090796591787" lon="121.02993329444853"><ele>20.0</ele><time>2026-04-01T09:01:21.001Z</time></trkpt><trkpt lat="14.55084068767793" lon="121.02985495292482"><ele>20.0</ele><time>2026-04-01T09:01:22.001Z</time></trkpt><trkpt lat="14.550784305872433" lon="121.02978596048048"><ele>20.0</ele><time>2026-04-01T09:01:23.001Z</time></trkpt><trkpt lat="14.550717537369652" lon="121.02970742005526"><ele>21.75</ele><time>2026-04-01T09:01:24.001Z</time></trkpt><trkpt lat="14.550644165386217" lon="121.02962266185072"><ele>23.5</ele><time>2026-04-01T09:01:25.001Z</time></trkpt><trkpt lat="14.550562368659483" lon="121.02952420224479"><ele>25.25</ele><time>2026-04-01T09:01:26.001Z</time></trkpt><trkpt lat="14.550472244674049" lon="121.02941053019657"><ele>27.0</ele><time>2026-04-01T09:01:27.001Z</time></trkpt><trkpt lat="14.550379112917652" lon="121.0292876207561"><ele>25.0</ele><time>2026-04-01T09:01:28.001Z</time></trkpt><trkpt lat="14.55028818008659" lon="121.02915755841244"><ele>23.0</ele><time>2026-04-01T09:01:29.001Z</time></trkpt><trkpt lat="14.55019691536372" lon="121.02902732032628"><ele>21.0</ele><time>2026-04-01T09:01:30.001Z</time></trkpt><trkpt lat="14.55010929787011" lon="121.02890512533668"><ele>21.0</ele><time>2026-04-01T09:01:31.001Z</time></trkpt><trkpt lat="14.550017327329538" lon="121.02878344885438"><ele>21.0</ele><time>2026-04-01T09:01:32.001Z</time></trkpt><trkpt lat="14.54991588880944" lon="121.02865483958995"><ele>21.0</ele><time>2026-04-01T09:01:33.001Z</time></trkpt><trkpt lat="14.549780363629655" lon="121.0285015796211"><ele>21.0</ele><time>2026-04-01T09:01:34.088Z</time></trkpt><trkpt lat="14.549661999005073" lon="121.02835621277666"><ele>21.0</ele><time>2026-04-01T09:01:35.072Z</time></trkpt><trkpt lat="14.54952694326814" lon="121.02821200380963"><ele>21.0</ele><time>2026-04-01T09:01:36.064Z</time></trkpt><trkpt lat="14.549455177979397" lon="121.02813940368895"><ele>21.0</ele><time>2026-04-01T09:01:37.063Z</time></trkpt><trkpt lat="14.54933952063802" lon="121.0280226800376"><ele>21.0</ele><time>2026-04-01T09:01:38.058Z</time></trkpt><trkpt lat="14.54923766365739" lon="121.02789727359657"><ele>21.0</ele><time>2026-04-01T09:01:39.053Z</time></trkpt><trkpt lat="14.549138399669445" lon="121.02775124991882"><ele>21.0</ele><time>2026-04-01T09:01:40.044Z</time></trkpt><trkpt lat="14.549045598909258" lon="121.02763223361798"><ele>21.0</ele><time>2026-04-01T09:01:41.046Z</time></trkpt><trkpt lat="14.548955419884047" lon="121.02750592754202"><ele>21.0</ele><time>2026-04-01T09:01:42.041Z</time></trkpt><trkpt lat="14.546989383194617" lon="121.02532950848709"><ele>19.6</ele><time>2026-04-01T09:02:04.001Z</time></trkpt><trkpt lat="14.546956292391068" lon="121.02526237861653"><ele>18.200000000000003</ele><time>2026-04-01T09:02:05.001Z</time></trkpt><trkpt lat="14.546875530479209" lon="121.02519256306641"><ele>16.799999999999997</ele><time>2026-04-01T09:02:06.001Z</time></trkpt><trkpt lat="14.546807651544247" lon="121.0250988109264"><ele>15.399999999999999</ele><time>2026-04-01T09:02:07.001Z</time></trkpt><trkpt lat="14.546722066634976" lon="121.02501617534517"><ele>14.0</ele><time>2026-04-01T09:02:08.001Z</time></trkpt><trkpt lat="14.54664307883451" lon="121.02493111206805"><ele>14.0</ele><time>2026-04-01T09:02:09.001Z</time></trkpt><trkpt lat="14.546564910710376" lon="121.02484159506925"><ele>13.999999999999998</ele><time>2026-04-01T09:02:10.001Z</time></trkpt><trkpt lat="14.546495608133833" lon="121.02475750132194"><ele>13.999999999999998</ele><time>2026-04-01T09:02:11.001Z</time></trkpt><trkpt lat="14.546416824919577" lon="121.02467819232677"><ele>14.0</ele><time>2026-04-01T09:02:12.001Z</time></trkpt><trkpt lat="14.546334568603351" lon="121.02460886404184"><ele>14.0</ele><time>2026-04-01T09:02:13.001Z</time></trkpt><trkpt lat="14.546305258925333" lon="121.02452564943454"><ele>14.0</ele><time>2026-04-01T09:02:14.001Z</time></trkpt><trkpt lat="14.546244656722807" lon="121.02444634760145"><ele>13.999999999999998</ele><time>2026-04-01T09:02:15.001Z</time></trkpt><trkpt lat="14.546173329136387" lon="121.02436659807012"><ele>13.999999999999998</ele><time>2026-04-01T09:02:16.001Z</time></trkpt><trkpt lat="14.54609996494802" lon="121.02428169558839"><ele>14.0</ele><time>2026-04-01T09:02:17.001Z</time></trkpt><trkpt lat="14.546022545128416" lon="121.0241961368147"><ele>14.0</ele><time>2026-04-01T09:02:18.001Z</time></trkpt><trkpt lat="14.5459359766062" lon="121.024101870552"><ele>14.25</ele><time>2026-04-01T09:02:19.001Z</time></trkpt><trkpt lat="14.54584429363701" lon="121.0239992208729"><ele>14.5</ele><time>2026-04-01T09:02:20.001Z</time></trkpt><trkpt lat="14.54575426819957" lon="121.02388804242769"><ele>14.75</ele><time>2026-04-01T09:02:21.001Z</time></trkpt><trkpt lat="14.545671263400498" lon="121.02378389540218"><ele>15.0</ele><time>2026-04-01T09:02:22.001Z</time></trkpt><trkpt lat="14.545590878044665" lon="121.02369657115247"><ele>15.0</ele><time>2026-04-01T09:02:23.001Z</time></trkpt><trkpt lat="14.545511263928159" lon="121.02360752783314"><ele>15.0</ele><time>2026-04-01T09:02:24.001Z</time></trkpt><trkpt lat="14.545429055339492" lon="121.0235114595177"><ele>15.0</ele><time>2026-04-01T09:02:25.001Z</time></trkpt><trkpt lat="14.54534598195322" lon="121.02341187397442"><ele>15.0</ele><time>2026-04-01T09:02:26.001Z</time></trkpt><trkpt lat="14.54526238449992" lon="121.02331006488643"><ele>15.0</ele><time>2026-04-01T09:02:27.001Z</time></trkpt><trkpt lat="14.545176280344112" lon="121.02321260380671"><ele>15.0</ele><time>2026-04-01T09:02:28.001Z</time></trkpt><trkpt lat="14.545091397602457" lon="121.02311265006604"><ele>15.0</ele><time>2026-04-01T09:02:29.001Z</time></trkpt><trkpt lat="14.545004519924909" lon="121.02301137861288"><ele>15.0</ele><time>2026-04-01T09:02:30.001Z</time></trkpt><trkpt lat="14.544920330049667" lon="121.02290584972677"><ele>15.0</ele><time>2026-04-01T09:02:31.001Z</time></trkpt><trkpt lat="14.544833218183923" lon="121.02279872713184"><ele>15.0</ele><time>2026-04-01T09:02:32.001Z</time></trkpt><trkpt lat="14.54473860327696" lon="121.02268559560042"><ele>15.0</ele><time>2026-04-01T09:02:33.001Z</time></trkpt><trkpt lat="14.544640471062129" lon="121.02256969064591"><ele>15.0</ele><time>2026-04-01T09:02:34.001Z</time></trkpt><trkpt lat="14.544539749623054" lon="121.02245195854258"><ele>15.25</ele><time>2026-04-01T09:02:35.001Z</time></trkpt><trkpt lat="14.54442965982008" lon="121.02232779477069"><ele>15.5</ele><time>2026-04-01T09:02:36.001Z</time></trkpt><trkpt lat="14.544337045765966" lon="121.0222151110315"><ele>15.75</ele><time>2026-04-01T09:02:37.001Z</time></trkpt><trkpt lat="14.54424912569713" lon="121.02211233803891"><ele>16.0</ele><time>2026-04-01T09:02:38.001Z</time></trkpt><trkpt lat="14.544158391200888" lon="121.02200375816598"><ele>16.0</ele><time>2026-04-01T09:02:39.001Z</time></trkpt><trkpt lat="14.544071009553889" lon="121.02189845217421"><ele>16.0</ele><time>2026-04-01T09:02:40.001Z</time></trkpt><trkpt lat="14.543984680087675" lon="121.02179518016231"><ele>16.0</ele><time>2026-04-01T09:02:41.001Z</time></trkpt><trkpt lat="14.543898047933347" lon="121.02169246744862"><ele>16.0</ele><time>2026-04-01T09:02:42.001Z</time></trkpt><trkpt lat="14.543814151587771" lon="121.02159159332354"><ele>16.0</ele><time>2026-04-01T09:02:43.001Z</time></trkpt><trkpt lat="14.543728481119244" lon="121.02148951864093"><ele>16.0</ele><time>2026-04-01T09:02:44.001Z</time></trkpt><trkpt lat="14.543639643991497" lon="121.02138106702543"><ele>16.0</ele><time>2026-04-01T09:02:45.001Z</time></trkpt><trkpt lat="14.543549256736783" lon="121.02126978628645"><ele>16.0</ele><time>2026-04-01T09:02:46.001Z</time></trkpt><trkpt lat="14.543456540994747" lon="121.02115215358917"><ele>16.0</ele><time>2026-04-01T09:02:47.001Z</time></trkpt><trkpt lat="14.543357929553762" lon="121.02103307416884"><ele>16.0</ele><time>2026-04-01T09:02:48.001Z</time></trkpt><trkpt lat="14.543254749928202" lon="121.02090987396024"><ele>16.0</ele><time>2026-04-01T09:02:49.001Z</time></trkpt><trkpt lat="14.543152636104614" lon="121.02078384369017"><ele>15.333333333333332</ele><time>2026-04-01T09:02:50.001Z</time></trkpt><trkpt lat="14.543048848603695" lon="121.02065832263693"><ele>14.666666666666668</ele><time>2026-04-01T09:02:51.001Z</time></trkpt><trkpt lat="14.542951153522854" lon="121.02053947612687"><ele>14.0</ele><time>2026-04-01T09:02:52.001Z</time></trkpt><trkpt lat="14.542855940322143" lon="121.02042773046114"><ele>13.75</ele><time>2026-04-01T09:02:53.001Z</time></trkpt><trkpt lat="14.542764911717967" lon="121.0203119478187"><ele>13.5</ele><time>2026-04-01T09:02:54.001Z</time></trkpt><trkpt lat="14.542672086658303" lon="121.0201926877539"><ele>13.25</ele><time>2026-04-01T09:02:55.001Z</time></trkpt><trkpt lat="14.542576055870715" lon="121.02006814413731"><ele>13.0</ele><time>2026-04-01T09:02:56.001Z</time></trkpt><trkpt lat="14.542478689149176" lon="121.0199404230735"><ele>13.0</ele><time>2026-04-01T09:02:57.001Z</time></trkpt><trkpt lat="14.54237828061178" lon="121.01980988383501"><ele>13.0</ele><time>2026-04-01T09:02:58.001Z</time></trkpt><trkpt lat="14.542277933861394" lon="121.0196801507892"><ele>13.0</ele><time>2026-04-01T09:02:59.001Z</time></trkpt><trkpt lat="14.54217912756966" lon="121.01954494819346"><ele>13.0</ele><time>2026-04-01T09:03:00.001Z</time></trkpt><trkpt lat="14.542076877043794" lon="121.01940791286265"><ele>13.0</ele><time>2026-04-01T09:03:01.001Z</time></trkpt><trkpt lat="14.541978488701478" lon="121.01927145628868"><ele>13.0</ele><time>2026-04-01T09:03:02.001Z</time></trkpt><trkpt lat="14.541883358654589" lon="121.0191319543489"><ele>14.0</ele><time>2026-04-01T09:03:03.001Z</time></trkpt><trkpt lat="14.541785007789457" lon="121.0189925242721"><ele>15.0</ele><time>2026-04-01T09:03:04.001Z</time></trkpt><trkpt lat="14.541690838434723" lon="121.01885605332717"><ele>16.0</ele><time>2026-04-01T09:03:05.001Z</time></trkpt><trkpt lat="14.541579588220955" lon="121.01871650846381"><ele>16.0</ele><time>2026-04-01T09:03:06.001Z</time></trkpt><trkpt lat="14.541493134809631" lon="121.01854978032814"><ele>16.0</ele><time>2026-04-01T09:03:07.001Z</time></trkpt><trkpt lat="14.541402646276932" lon="121.01841613555746"><ele>16.0</ele><time>2026-04-01T09:03:08.001Z</time></trkpt><trkpt lat="14.541315600117663" lon="121.01828024799902"><ele>15.0</ele><time>2026-04-01T09:03:09.001Z</time></trkpt><trkpt lat="14.541239740596273" lon="121.01815700646993"><ele>14.0</ele><time>2026-04-01T09:03:10.001Z</time></trkpt><trkpt lat="14.541171583888707" lon="121.01803691183609"><ele>13.0</ele><time>2026-04-01T09:03:11.001Z</time></trkpt><trkpt lat="14.541107186188347" lon="121.01792025993925"><ele>12.0</ele><time>2026-04-01T09:03:12.001Z</time></trkpt><trkpt lat="14.541042507470793" lon="121.01780664391276"><ele>11.75</ele><time>2026-04-01T09:03:13.001Z</time></trkpt><trkpt lat="14.54098108643735" lon="121.01769656940773"><ele>11.5</ele><time>2026-04-01T09:03:14.001Z</time></trkpt><trkpt lat="14.540910281040322" lon="121.01758338865642"><ele>11.25</ele><time>2026-04-01T09:03:15.001Z</time></trkpt><trkpt lat="14.540846854906809" lon="121.01747206183762"><ele>11.0</ele><time>2026-04-01T09:03:16.001Z</time></trkpt><trkpt lat="14.540788578769664" lon="121.01736766011066"><ele>11.4</ele><time>2026-04-01T09:03:17.001Z</time></trkpt><trkpt lat="14.540734895909063" lon="121.01726348226504"><ele>11.8</ele><time>2026-04-01T09:03:18.001Z</time></trkpt><trkpt lat="14.540686914873744" lon="121.01716747471993"><ele>12.200000000000001</ele><time>2026-04-01T09:03:19.001Z</time></trkpt><trkpt lat="14.540635947171474" lon="121.01706736875978"><ele>12.600000000000001</ele><time>2026-04-01T09:03:20.001Z</time></trkpt><trkpt lat="14.540588009199126" lon="121.01696928455077"><ele>13.0</ele><time>2026-04-01T09:03:21.001Z</time></trkpt><trkpt lat="14.540538159418801" lon="121.01687260768607"><ele>13.0</ele><time>2026-04-01T09:03:22.001Z</time></trkpt><trkpt lat="14.540489691213796" lon="121.0167721628818"><ele>13.0</ele><time>2026-04-01T09:03:23.001Z</time></trkpt><trkpt lat="14.540440320045134" lon="121.01666488137839"><ele>13.0</ele><time>2026-04-01T09:03:24.001Z</time></trkpt><trkpt lat="14.540393100027478" lon="121.01655807068198"><ele>13.0</ele><time>2026-04-01T09:03:25.001Z</time></trkpt><trkpt lat="14.54034184979777" lon="121.01645562532634"><ele>13.0</ele><time>2026-04-01T09:03:26.001Z</time></trkpt><trkpt lat="14.54029353170417" lon="121.01634696220518"><ele>12.8</ele><time>2026-04-01T09:03:27.001Z</time></trkpt><trkpt lat="14.540242793882912" lon="121.01623520195098"><ele>12.600000000000001</ele><time>2026-04-01T09:03:28.001Z</time></trkpt><trkpt lat="14.540196905102526" lon="121.01613337470435"><ele>12.399999999999999</ele><time>2026-04-01T09:03:29.001Z</time></trkpt><trkpt lat="14.540152901551266" lon="121.01602826411853"><ele>12.2</ele><time>2026-04-01T09:03:30.001Z</time></trkpt><trkpt lat="14.540111978664836" lon="121.01593033305602"><ele>12.0</ele><time>2026-04-01T09:03:31.001Z</time></trkpt><trkpt lat="14.540073487739239" lon="121.01583460021328"><ele>12.0</ele><time>2026-04-01T09:03:32.001Z</time></trkpt><trkpt lat="14.54003511174885" lon="121.01574190727646"><ele>12.0</ele><time>2026-04-01T09:03:33.001Z</time></trkpt><trkpt lat="14.539999283957156" lon="121.01565380031923"><ele>12.0</ele><time>2026-04-01T09:03:34.001Z</time></trkpt><trkpt lat="14.539966917994406" lon="121.01556633448273"><ele>12.0</ele><time>2026-04-01T09:03:35.001Z</time></trkpt><trkpt lat="14.539931514750174" lon="121.01547540776454"><ele>12.0</ele><time>2026-04-01T09:03:36.001Z</time></trkpt><trkpt lat="14.539902679544365" lon="121.01539258557808"><ele>12.0</ele><time>2026-04-01T09:03:37.001Z</time></trkpt><trkpt lat="14.539867198067943" lon="121.01530231942151"><ele>12.0</ele><time>2026-04-01T09:03:38.001Z</time></trkpt><trkpt lat="14.539831663446883" lon="121.01521127306364"><ele>12.0</ele><time>2026-04-01T09:03:39.001Z</time></trkpt><trkpt lat="14.539796168038194" lon="121.01511780561601"><ele>12.0</ele><time>2026-04-01T09:03:40.001Z</time></trkpt><trkpt lat="14.539763815131199" lon="121.01502049119311"><ele>12.0</ele><time>2026-04-01T09:03:41.001Z</time></trkpt><trkpt lat="14.539728264293492" lon="121.01492290101557"><ele>11.4</ele><time>2026-04-01T09:03:42.001Z</time></trkpt><trkpt lat="14.53969280803278" lon="121.01482794362414"><ele>10.799999999999999</ele><time>2026-04-01T09:03:43.001Z</time></trkpt><trkpt lat="14.539659396575713" lon="121.01473122031726"><ele>10.2</ele><time>2026-04-01T09:03:44.001Z</time></trkpt><trkpt lat="14.539625994325155" lon="121.01463063128806"><ele>9.6</ele><time>2026-04-01T09:03:45.001Z</time></trkpt><trkpt lat="14.539591647867683" lon="121.01453317259022"><ele>9.0</ele><time>2026-04-01T09:03:46.001Z</time></trkpt><trkpt lat="14.53956251147684" lon="121.01443914745303"><ele>9.0</ele><time>2026-04-01T09:03:47.001Z</time></trkpt><trkpt lat="14.539532086779255" lon="121.01434580203384"><ele>9.0</ele><time>2026-04-01T09:03:48.001Z</time></trkpt><trkpt lat="14.539499688293839" lon="121.01424999341278"><ele>9.0</ele><time>2026-04-01T09:03:49.001Z</time></trkpt><trkpt lat="14.539478989970716" lon="121.01416160992143"><ele>9.0</ele><time>2026-04-01T09:03:50.001Z</time></trkpt><trkpt lat="14.539445349639495" lon="121.01406148691913"><ele>9.0</ele><time>2026-04-01T09:03:51.001Z</time></trkpt><trkpt lat="14.539415614460603" lon="121.01396163388034"><ele>9.0</ele><time>2026-04-01T09:03:52.001Z</time></trkpt><trkpt lat="14.53938317262523" lon="121.01386260447748"><ele>9.0</ele><time>2026-04-01T09:03:53.001Z</time></trkpt><trkpt lat="14.539357066544287" lon="121.01376491817304"><ele>9.0</ele><time>2026-04-01T09:03:54.001Z</time></trkpt><trkpt lat="14.5393332945105" lon="121.01366258252598"><ele>9.0</ele><time>2026-04-01T09:03:55.001Z</time></trkpt><trkpt lat="14.539311046261846" lon="121.0135613210828"><ele>9.0</ele><time>2026-04-01T09:03:56.001Z</time></trkpt><trkpt lat="14.539289937334914" lon="121.01345289137159"><ele>9.0</ele><time>2026-04-01T09:03:57.001Z</time></trkpt><trkpt lat="14.539270833435246" lon="121.01333693076506"><ele>9.0</ele><time>2026-04-01T09:03:58.001Z</time></trkpt><trkpt lat="14.539251614355168" lon="121.01321873105243"><ele>9.0</ele><time>2026-04-01T09:03:59.001Z</time></trkpt><trkpt lat="14.539229781149173" lon="121.01309936732775"><ele>9.0</ele><time>2026-04-01T09:04:00.001Z</time></trkpt><trkpt lat="14.539210143876785" lon="121.01298890550716"><ele>9.0</ele><time>2026-04-01T09:04:01.001Z</time></trkpt><trkpt lat="14.539193043292697" lon="121.01288499974103"><ele>9.0</ele><time>2026-04-01T09:04:02.001Z</time></trkpt><trkpt lat="14.539176214225359" lon="121.012784442177"><ele>9.0</ele><time>2026-04-01T09:04:03.001Z</time></trkpt><trkpt lat="14.539159232127119" lon="121.01269253330018"><ele>9.0</ele><time>2026-04-01T09:04:04.001Z</time></trkpt><trkpt lat="14.5391365664386" lon="121.01261377772438"><ele>9.0</ele><time>2026-04-01T09:04:05.001Z</time></trkpt><trkpt lat="14.539122224691708" lon="121.01253080693394"><ele>9.6</ele><time>2026-04-01T09:04:06.001Z</time></trkpt><trkpt lat="14.539101048923245" lon="121.01244314605071"><ele>10.2</ele><time>2026-04-01T09:04:07.001Z</time></trkpt><trkpt lat="14.539085301365285" lon="121.01233247124657"><ele>10.799999999999999</ele><time>2026-04-01T09:04:08.001Z</time></trkpt><trkpt lat="14.539067595259032" lon="121.01221684530499"><ele>11.4</ele><time>2026-04-01T09:04:09.001Z</time></trkpt><trkpt lat="14.539050368857895" lon="121.01209392156159"><ele>12.0</ele><time>2026-04-01T09:04:10.001Z</time></trkpt><trkpt lat="14.539033725695004" lon="121.01196282085822"><ele>12.0</ele><time>2026-04-01T09:04:11.001Z</time></trkpt><trkpt lat="14.539015086356777" lon="121.01183318468624"><ele>12.0</ele><time>2026-04-01T09:04:12.001Z</time></trkpt><trkpt lat="14.53899665390554" lon="121.01171173061422"><ele>12.0</ele><time>2026-04-01T09:04:13.001Z</time></trkpt><trkpt lat="14.538977371049501" lon="121.01158309833265"><ele>12.0</ele><time>2026-04-01T09:04:14.001Z</time></trkpt><trkpt lat="14.538958162499236" lon="121.01144967324336"><ele>11.0</ele><time>2026-04-01T09:04:15.001Z</time></trkpt><trkpt lat="14.538940262217196" lon="121.01131677510138"><ele>10.0</ele><time>2026-04-01T09:04:16.001Z</time></trkpt><trkpt lat="14.538922321763204" lon="121.01117571981064"><ele>9.0</ele><time>2026-04-01T09:04:17.001Z</time></trkpt><trkpt lat="14.538908237932926" lon="121.01103271909196"><ele>8.0</ele><time>2026-04-01T09:04:18.001Z</time></trkpt><trkpt lat="14.538890833946825" lon="121.01088738935562"><ele>7.5</ele><time>2026-04-01T09:04:19.001Z</time></trkpt><trkpt lat="14.538871830812589" lon="121.01074699078737"><ele>7.0</ele><time>2026-04-01T09:04:20.001Z</time></trkpt><trkpt lat="14.538851583495338" lon="121.01061657943704"><ele>6.5</ele><time>2026-04-01T09:04:21.001Z</time></trkpt><trkpt lat="14.538831373661997" lon="121.01048102430958"><ele>6.0</ele><time>2026-04-01T09:04:22.001Z</time></trkpt><trkpt lat="14.5388117753662" lon="121.01034334745817"><ele>6.0</ele><time>2026-04-01T09:04:23.001Z</time></trkpt><trkpt lat="14.53879794868877" lon="121.01022065678147"><ele>6.0</ele><time>2026-04-01T09:04:24.001Z</time></trkpt><trkpt lat="14.538778167528468" lon="121.01009067560811"><ele>6.0</ele><time>2026-04-01T09:04:25.001Z</time></trkpt><trkpt lat="14.53875741057361" lon="121.00996245836788"><ele>6.0</ele><time>2026-04-01T09:04:26.001Z</time></trkpt><trkpt lat="14.538742498262948" lon="121.00982688621035"><ele>6.25</ele><time>2026-04-01T09:04:27.001Z</time></trkpt><trkpt lat="14.538719067379244" lon="121.00969601634434"><ele>6.5</ele><time>2026-04-01T09:04:28.001Z</time></trkpt><trkpt lat="14.53869973113836" lon="121.00956468381708"><ele>6.75</ele><time>2026-04-01T09:04:29.001Z</time></trkpt><trkpt lat="14.538684447934887" lon="121.00944331341482"><ele>7.0</ele><time>2026-04-01T09:04:30.001Z</time></trkpt><trkpt lat="14.538667757565905" lon="121.00932576939061"><ele>7.166666666666667</ele><time>2026-04-01T09:04:31.001Z</time></trkpt><trkpt lat="14.538656208635318" lon="121.00922228742633"><ele>7.333333333333334</ele><time>2026-04-01T09:04:32.001Z</time></trkpt><trkpt lat="14.538647735638932" lon="121.0091227520277"><ele>7.5</ele><time>2026-04-01T09:04:33.001Z</time></trkpt><trkpt lat="14.538649903397134" lon="121.00904477437177"><ele>7.666666666666666</ele><time>2026-04-01T09:04:34.001Z</time></trkpt><trkpt lat="14.53865318687047" lon="121.0089764287419"><ele>7.833333333333333</ele><time>2026-04-01T09:04:35.001Z</time></trkpt><trkpt lat="14.53864931200323" lon="121.00890908164197"><ele>8.0</ele><time>2026-04-01T09:04:36.001Z</time></trkpt><trkpt lat="14.538647319607078" lon="121.00883746051649"><ele>8.0</ele><time>2026-04-01T09:04:37.001Z</time></trkpt><trkpt lat="14.538645824205837" lon="121.00873823155253"><ele>8.0</ele><time>2026-04-01T09:04:39.001Z</time></trkpt><trkpt lat="14.538632977285182" lon="121.00866471513132"><ele>8.0</ele><time>2026-04-01T09:04:43.001Z</time></trkpt><trkpt lat="14.538620339515282" lon="121.0085790791891"><ele>8.0</ele><time>2026-04-01T09:04:45.001Z</time></trkpt><trkpt lat="14.538606100535933" lon="121.00844473476378"><ele>8.0</ele><time>2026-04-01T09:04:47.001Z</time></trkpt><trkpt lat="14.538603822110824" lon="121.00831729203429"><ele>7.833333333333333</ele><time>2026-04-01T09:04:49.001Z</time></trkpt><trkpt lat="14.538600398180241" lon="121.008247778874"><ele>7.666666666666666</ele><time>2026-04-01T09:04:50.001Z</time></trkpt><trkpt lat="14.538588998804428" lon="121.00817832756726"><ele>7.5</ele><time>2026-04-01T09:04:51.001Z</time></trkpt><trkpt lat="14.53858225237287" lon="121.00810733091919"><ele>7.333333333333334</ele><time>2026-04-01T09:04:52.001Z</time></trkpt><trkpt lat="14.538573565934783" lon="121.00803973638982"><ele>7.166666666666667</ele><time>2026-04-01T09:04:53.001Z</time></trkpt><trkpt lat="14.538563616880273" lon="121.00791594008342"><ele>7.0</ele><time>2026-04-01T09:04:55.001Z</time></trkpt><trkpt lat="14.538550689575285" lon="121.00781596843399"><ele>7.000000000000001</ele><time>2026-04-01T09:04:57.001Z</time></trkpt><trkpt lat="14.5385455731813" lon="121.00774957376467"><ele>7.0</ele><time>2026-04-01T09:04:59.001Z</time></trkpt><trkpt lat="14.5385389762224" lon="121.00765220216515"><ele>7.0</ele><time>2026-04-01T09:05:02.001Z</time></trkpt><trkpt lat="14.538534197290174" lon="121.00758535557495"><ele>7.0</ele><time>2026-04-01T09:05:04.001Z</time></trkpt><trkpt lat="14.538524025424435" lon="121.00751509813797"><ele>7.000000000000001</ele><time>2026-04-01T09:05:06.001Z</time></trkpt><trkpt lat="14.538512569151303" lon="121.00743009893064"><ele>7.0</ele><time>2026-04-01T09:05:08.001Z</time></trkpt><trkpt lat="14.538500046999685" lon="121.00732597363894"><ele>7.000000000000001</ele><time>2026-04-01T09:05:10.001Z</time></trkpt><trkpt lat="14.53848085693726" lon="121.00721221254769"><ele>7.0</ele><time>2026-04-01T09:05:12.001Z</time></trkpt><trkpt lat="14.53846418692944" lon="121.0070932115582"><ele>7.0</ele><time>2026-04-01T09:05:14.001Z</time></trkpt><trkpt lat="14.538446791573055" lon="121.00702509704352"><ele>7.0</ele><time>2026-04-01T09:05:15.001Z</time></trkpt><trkpt lat="14.53843376844377" lon="121.00695196242425"><ele>7.000000000000001</ele><time>2026-04-01T09:05:16.001Z</time></trkpt><trkpt lat="14.538427052231416" lon="121.00687028656039"><ele>7.0</ele><time>2026-04-01T09:05:17.001Z</time></trkpt><trkpt lat="14.538420636308475" lon="121.0067889196867"><ele>7.000000000000001</ele><time>2026-04-01T09:05:18.001Z</time></trkpt><trkpt lat="14.538410482725599" lon="121.00671758950861"><ele>7.0</ele><time>2026-04-01T09:05:19.001Z</time></trkpt><trkpt lat="14.538400104196382" lon="121.00662958944694"><ele>7.0</ele><time>2026-04-01T09:05:21.001Z</time></trkpt><trkpt lat="14.538389891769182" lon="121.00656284136815"><ele>7.0</ele><time>2026-04-01T09:05:24.001Z</time></trkpt><trkpt lat="14.538376187090371" lon="121.00648083383135"><ele>7.000000000000001</ele><time>2026-04-01T09:05:28.001Z</time></trkpt><trkpt lat="14.538364814721227" lon="121.00640362682535"><ele>7.0</ele><time>2026-04-01T09:05:30.001Z</time></trkpt><trkpt lat="14.538352892216645" lon="121.00631244255179"><ele>7.3999999999999995</ele><time>2026-04-01T09:05:32.001Z</time></trkpt><trkpt lat="14.538337902969989" lon="121.00621106675466"><ele>7.799999999999999</ele><time>2026-04-01T09:05:34.001Z</time></trkpt><trkpt lat="14.538315654922634" lon="121.00609057837116"><ele>8.2</ele><time>2026-04-01T09:05:36.001Z</time></trkpt><trkpt lat="14.538305128316356" lon="121.0060142211676"><ele>8.6</ele><time>2026-04-01T09:05:37.001Z</time></trkpt><trkpt lat="14.538296881404271" lon="121.00592613469553"><ele>9.0</ele><time>2026-04-01T09:05:38.001Z</time></trkpt><trkpt lat="14.538286562327777" lon="121.0058309420956"><ele>8.8</ele><time>2026-04-01T09:05:39.001Z</time></trkpt><trkpt lat="14.538274952964445" lon="121.00572644354543"><ele>8.600000000000001</ele><time>2026-04-01T09:05:40.001Z</time></trkpt><trkpt lat="14.538262398208623" lon="121.00561849691046"><ele>8.4</ele><time>2026-04-01T09:05:41.001Z</time></trkpt><trkpt lat="14.538245838069079" lon="121.00552433199586"><ele>8.200000000000001</ele><time>2026-04-01T09:05:42.001Z</time></trkpt><trkpt lat="14.538233361887633" lon="121.00544768527301"><ele>8.0</ele><time>2026-04-01T09:05:43.001Z</time></trkpt><trkpt lat="14.538230204861748" lon="121.00532943529848"><ele>7.999999999999999</ele><time>2026-04-01T09:05:45.001Z</time></trkpt><trkpt lat="14.538203870724637" lon="121.0052190922244"><ele>8.0</ele><time>2026-04-01T09:05:47.001Z</time></trkpt><trkpt lat="14.5381822269142" lon="121.00511676283803"><ele>8.0</ele><time>2026-04-01T09:05:49.001Z</time></trkpt><trkpt lat="14.538171453306395" lon="121.0050502485161"><ele>8.0</ele><time>2026-04-01T09:05:50.001Z</time></trkpt><trkpt lat="14.538155046062673" lon="121.00497606898108"><ele>7.999999999999999</ele><time>2026-04-01T09:05:51.001Z</time></trkpt><trkpt lat="14.538142114580516" lon="121.00489744934312"><ele>8.0</ele><time>2026-04-01T09:05:52.001Z</time></trkpt><trkpt lat="14.53813262067048" lon="121.00481508309826"><ele>7.833333333333333</ele><time>2026-04-01T09:05:53.001Z</time></trkpt><trkpt lat="14.53812098736468" lon="121.00473197201232"><ele>7.666666666666666</ele><time>2026-04-01T09:05:54.001Z</time></trkpt><trkpt lat="14.538112733318144" lon="121.00465873765359"><ele>7.5</ele><time>2026-04-01T09:05:55.001Z</time></trkpt><trkpt lat="14.538105585643237" lon="121.00458200338193"><ele>7.333333333333334</ele><time>2026-04-01T09:05:56.001Z</time></trkpt><trkpt lat="14.538098605021903" lon="121.00450766673133"><ele>7.166666666666667</ele><time>2026-04-01T09:05:57.001Z</time></trkpt><trkpt lat="14.538092765409264" lon="121.00443571656821"><ele>7.0</ele><time>2026-04-01T09:05:58.001Z</time></trkpt><trkpt lat="14.538086149110233" lon="121.0043143676298"><ele>7.000000000000001</ele><time>2026-04-01T09:06:00.001Z</time></trkpt><trkpt lat="14.53808639646009" lon="121.00422570400092"><ele>7.0</ele><time>2026-04-01T09:06:02.001Z</time></trkpt><trkpt lat="14.538076912919228" lon="121.00411416840268"><ele>7.0</ele><time>2026-04-01T09:06:04.001Z</time></trkpt><trkpt lat="14.53807311480785" lon="121.00404873215739"><ele>7.0</ele><time>2026-04-01T09:06:05.001Z</time></trkpt><trkpt lat="14.538069968996727" lon="121.0039809059808"><ele>7.000000000000001</ele><time>2026-04-01T09:06:06.001Z</time></trkpt><trkpt lat="14.53806034013854" lon="121.00391007055147"><ele>7.0</ele><time>2026-04-01T09:06:07.001Z</time></trkpt><trkpt lat="14.538047599569941" lon="121.00383934351662"><ele>7.000000000000001</ele><time>2026-04-01T09:06:08.001Z</time></trkpt><trkpt lat="14.538035779821554" lon="121.00377162887474"><ele>7.0</ele><time>2026-04-01T09:06:09.001Z</time></trkpt><trkpt lat="14.538025550112005" lon="121.00364421730036"><ele>7.0</ele><time>2026-04-01T09:06:11.001Z</time></trkpt><trkpt lat="14.53801802707261" lon="121.00357256051674"><ele>7.0</ele><time>2026-04-01T09:06:12.001Z</time></trkpt><trkpt lat="14.538004982440794" lon="121.00349550258696"><ele>7.000000000000001</ele><time>2026-04-01T09:06:13.001Z</time></trkpt><trkpt lat="14.537995381817028" lon="121.00342458221962"><ele>7.0</ele><time>2026-04-01T09:06:14.001Z</time></trkpt><trkpt lat="14.537982861465528" lon="121.00334428162013"><ele>7.000000000000001</ele><time>2026-04-01T09:06:15.001Z</time></trkpt><trkpt lat="14.537960080720378" lon="121.00325728208632"><ele>7.0</ele><time>2026-04-01T09:06:16.001Z</time></trkpt><trkpt lat="14.537943897998748" lon="121.00316421219739"><ele>7.0</ele><time>2026-04-01T09:06:17.001Z</time></trkpt><trkpt lat="14.537930118833618" lon="121.00307901195725"><ele>7.0</ele><time>2026-04-01T09:06:18.001Z</time></trkpt><trkpt lat="14.53791857888523" lon="121.00300066328326"><ele>7.000000000000001</ele><time>2026-04-01T09:06:19.001Z</time></trkpt><trkpt lat="14.53791172469463" lon="121.00293544842745"><ele>7.0</ele><time>2026-04-01T09:06:20.001Z</time></trkpt><trkpt lat="14.537901166994219" lon="121.00285457756468"><ele>7.0</ele><time>2026-04-01T09:06:22.001Z</time></trkpt><trkpt lat="14.537897737562137" lon="121.0027802269936"><ele>7.0</ele><time>2026-04-01T09:06:25.001Z</time></trkpt><trkpt lat="14.537918665627645" lon="121.00271813917496"><ele>7.0</ele><time>2026-04-01T09:06:29Z</time></trkpt><trkpt lat="14.537914288135187" lon="121.00265060477305"><ele>7.0</ele><time>2026-04-01T09:06:32Z</time></trkpt><trkpt lat="14.537899202248411" lon="121.00255922712603"><ele>7.0</ele><time>2026-04-01T09:06:34Z</time></trkpt><trkpt lat="14.537878548251465" lon="121.0024798465462"><ele>7.0</ele><time>2026-04-01T09:06:36Z</time></trkpt><trkpt lat="14.537846932935832" lon="121.00240735095167"><ele>7.0</ele><time>2026-04-01T09:06:39Z</time></trkpt><trkpt lat="14.5378327599524" lon="121.00230733668973"><ele>7.285714285714286</ele><time>2026-04-01T09:06:42Z</time></trkpt><trkpt lat="14.53782337234122" lon="121.00223343717447"><ele>7.571428571428571</ele><time>2026-04-01T09:06:44Z</time></trkpt><trkpt lat="14.537818602212448" lon="121.002167813959"><ele>7.857142857142858</ele><time>2026-04-01T09:06:47Z</time></trkpt><trkpt lat="14.537809621356196" lon="121.00209939005522"><ele>8.142857142857142</ele><time>2026-04-01T09:07:11.001Z</time></trkpt><trkpt lat="14.537803319095568" lon="121.00202542400216"><ele>8.428571428571429</ele><time>2026-04-01T09:07:27.001Z</time></trkpt><trkpt lat="14.537798815882862" lon="121.00194948614175"><ele>8.714285714285715</ele><time>2026-04-01T09:07:32.001Z</time></trkpt><trkpt lat="14.537789066032765" lon="121.00187936577804"><ele>9.0</ele><time>2026-04-01T09:07:36.001Z</time></trkpt><trkpt lat="14.53777766309375" lon="121.00180599654185"><ele>9.0</ele><time>2026-04-01T09:07:40.001Z</time></trkpt><trkpt lat="14.537767147446955" lon="121.00173870631664"><ele>9.0</ele><time>2026-04-01T09:07:43.001Z</time></trkpt><trkpt lat="14.53775718704399" lon="121.00165819422294"><ele>9.0</ele><time>2026-04-01T09:07:45.001Z</time></trkpt><trkpt lat="14.53775202433082" lon="121.00154379597768"><ele>9.0</ele><time>2026-04-01T09:07:48.001Z</time></trkpt><trkpt lat="14.537740328118078" lon="121.00145818837814"><ele>9.0</ele><time>2026-04-01T09:07:50.001Z</time></trkpt><trkpt lat="14.537731801754086" lon="121.00138236757634"><ele>9.0</ele><time>2026-04-01T09:07:53.001Z</time></trkpt><trkpt lat="14.537719036126346" lon="121.00131535179042"><ele>9.2</ele><time>2026-04-01T09:07:56.001Z</time></trkpt><trkpt lat="14.537696067917302" lon="121.00122608606313"><ele>9.4</ele><time>2026-04-01T09:07:58.001Z</time></trkpt><trkpt lat="14.537675362319378" lon="121.00112129411204"><ele>9.6</ele><time>2026-04-01T09:07:59.001Z</time></trkpt><trkpt lat="14.53766863674646" lon="121.00102138799583"><ele>9.8</ele><time>2026-04-01T09:08:00.001Z</time></trkpt><trkpt lat="14.537661099499404" lon="121.00090750423855"><ele>10.0</ele><time>2026-04-01T09:08:02.001Z</time></trkpt><trkpt lat="14.537638582844929" lon="121.00081642215326"><ele>10.0</ele><time>2026-04-01T09:09:03Z</time></trkpt><trkpt lat="14.53762203318295" lon="121.00069246995669"><ele>10.0</ele><time>2026-04-01T09:09:05Z</time></trkpt><trkpt lat="14.537615822559866" lon="121.00060801635837"><ele>10.0</ele><time>2026-04-01T09:09:06Z</time></trkpt><trkpt lat="14.537610140657456" lon="121.00051179542578"><ele>10.0</ele><time>2026-04-01T09:09:07Z</time></trkpt><trkpt lat="14.537593199341348" lon="121.00039013292125"><ele>10.0</ele><time>2026-04-01T09:09:08Z</time></trkpt><trkpt lat="14.537592614586103" lon="121.00027430483021"><ele>10.0</ele><time>2026-04-01T09:09:09Z</time></trkpt><trkpt lat="14.537588658226271" lon="121.00016519257586"><ele>10.0</ele><time>2026-04-01T09:09:10Z</time></trkpt><trkpt lat="14.53758545876121" lon="121.00003053350488"><ele>10.0</ele><time>2026-04-01T09:09:11Z</time></trkpt><trkpt lat="14.537584685693625" lon="120.99989229861944"><ele>10.0</ele><time>2026-04-01T09:09:12Z</time></trkpt><trkpt lat="14.537584474114388" lon="120.9997542474977"><ele>10.0</ele><time>2026-04-01T09:09:13Z</time></trkpt><trkpt lat="14.53759246988561" lon="120.99960390648326"><ele>10.0</ele><time>2026-04-01T09:09:14Z</time></trkpt><trkpt lat="14.537610943059388" lon="120.9994483111828"><ele>10.0</ele><time>2026-04-01T09:09:15Z</time></trkpt><trkpt lat="14.537634051887869" lon="120.99928718419659"><ele>9.0</ele><time>2026-04-01T09:09:16Z</time></trkpt><trkpt lat="14.53765193098174" lon="120.99911811656759"><ele>8.0</ele><time>2026-04-01T09:09:17Z</time></trkpt><trkpt lat="14.537670368884406" lon="120.99894289583696"><ele>7.0</ele><time>2026-04-01T09:09:18Z</time></trkpt><trkpt lat="14.537693332291935" lon="120.99876338123741"><ele>7.0</ele><time>2026-04-01T09:09:19Z</time></trkpt><trkpt lat="14.537711102050634" lon="120.99858013117662"><ele>7.0</ele><time>2026-04-01T09:09:20Z</time></trkpt><trkpt lat="14.53773174558137" lon="120.99839271766945"><ele>7.0</ele><time>2026-04-01T09:09:21Z</time></trkpt><trkpt lat="14.537752085648712" lon="120.99820153478265"><ele>7.333333333333334</ele><time>2026-04-01T09:09:22Z</time></trkpt><trkpt lat="14.537770420703346" lon="120.99801016532045"><ele>7.666666666666666</ele><time>2026-04-01T09:09:23Z</time></trkpt><trkpt lat="14.537784974513922" lon="120.99782649279945"><ele>8.0</ele><time>2026-04-01T09:09:24Z</time></trkpt><trkpt lat="14.53779880130465" lon="120.99765707471802"><ele>8.666666666666666</ele><time>2026-04-01T09:09:25Z</time></trkpt><trkpt lat="14.537813056228682" lon="120.99749894691519"><ele>9.333333333333334</ele><time>2026-04-01T09:09:26Z</time></trkpt><trkpt lat="14.537819192682072" lon="120.99733573106074"><ele>10.0</ele><time>2026-04-01T09:09:27Z</time></trkpt><trkpt lat="14.537826679541185" lon="120.99716878671873"><ele>10.0</ele><time>2026-04-01T09:09:28Z</time></trkpt><trkpt lat="14.537832676599647" lon="120.99700719841455"><ele>10.0</ele><time>2026-04-01T09:09:29Z</time></trkpt><trkpt lat="14.53783059569843" lon="120.99684139513762"><ele>10.0</ele><time>2026-04-01T09:09:30Z</time></trkpt><trkpt lat="14.537827378117063" lon="120.99667318838388"><ele>9.0</ele><time>2026-04-01T09:09:31Z</time></trkpt><trkpt lat="14.53782282920854" lon="120.99650151244312"><ele>8.0</ele><time>2026-04-01T09:09:32Z</time></trkpt><trkpt lat="14.53781142399033" lon="120.996327528618"><ele>7.0</ele><time>2026-04-01T09:09:33Z</time></trkpt><trkpt lat="14.537802085544335" lon="120.9961632693407"><ele>7.0</ele><time>2026-04-01T09:09:34Z</time></trkpt><trkpt lat="14.537793865848798" lon="120.99600702214035"><ele>7.0</ele><time>2026-04-01T09:09:35Z</time></trkpt><trkpt lat="14.53778593456449" lon="120.99586015121311"><ele>7.0</ele><time>2026-04-01T09:09:36Z</time></trkpt><trkpt lat="14.53778063846538" lon="120.99572850503614"><ele>7.0</ele><time>2026-04-01T09:09:37Z</time></trkpt><trkpt lat="14.537770889308325" lon="120.99560898363087"><ele>7.0</ele><time>2026-04-01T09:09:38Z</time></trkpt><trkpt lat="14.53776019238069" lon="120.99549085392978"><ele>7.0</ele><time>2026-04-01T09:09:39Z</time></trkpt><trkpt lat="14.537748838103836" lon="120.99536304850953"><ele>7.0</ele><time>2026-04-01T09:09:40Z</time></trkpt><trkpt lat="14.53772836998217" lon="120.99522324885672"><ele>7.0</ele><time>2026-04-01T09:09:41Z</time></trkpt><trkpt lat="14.537709234583161" lon="120.99508002925694"><ele>7.25</ele><time>2026-04-01T09:09:42Z</time></trkpt><trkpt lat="14.537688881544025" lon="120.99493166417527"><ele>7.5</ele><time>2026-04-01T09:09:43Z</time></trkpt><trkpt lat="14.537663774122839" lon="120.99477805233299"><ele>7.75</ele><time>2026-04-01T09:09:44Z</time></trkpt><trkpt lat="14.53763216645973" lon="120.99462974766165"><ele>8.0</ele><time>2026-04-01T09:09:45Z</time></trkpt><trkpt lat="14.537600259676873" lon="120.99448805613352"><ele>8.0</ele><time>2026-04-01T09:09:46Z</time></trkpt><trkpt lat="14.537576851878848" lon="120.99435809753577"><ele>8.0</ele><time>2026-04-01T09:09:47Z</time></trkpt><trkpt lat="14.537561186148723" lon="120.99423504300157"><ele>8.0</ele><time>2026-04-01T09:09:48Z</time></trkpt><trkpt lat="14.537553270963201" lon="120.99411973770412"><ele>8.0</ele><time>2026-04-01T09:09:49Z</time></trkpt><trkpt lat="14.537544826056013" lon="120.99401397999289"><ele>8.200000000000001</ele><time>2026-04-01T09:09:50Z</time></trkpt><trkpt lat="14.537534653506631" lon="120.99390883211348"><ele>8.4</ele><time>2026-04-01T09:09:51Z</time></trkpt><trkpt lat="14.537511531519506" lon="120.9938031063521"><ele>8.600000000000001</ele><time>2026-04-01T09:09:52Z</time></trkpt><trkpt lat="14.53748621469121" lon="120.99369058574807"><ele>8.8</ele><time>2026-04-01T09:09:53Z</time></trkpt><trkpt lat="14.537459745644055" lon="120.99356516800067"><ele>9.0</ele><time>2026-04-01T09:09:54Z</time></trkpt><trkpt lat="14.537435489490212" lon="120.99343839212409"><ele>8.25</ele><time>2026-04-01T09:09:55Z</time></trkpt><trkpt lat="14.53741255839693" lon="120.9933031295021"><ele>7.5</ele><time>2026-04-01T09:09:56Z</time></trkpt><trkpt lat="14.537389372137962" lon="120.9931714205139"><ele>6.75</ele><time>2026-04-01T09:09:57Z</time></trkpt><trkpt lat="14.5373663122632" lon="120.9930498049475"><ele>6.0</ele><time>2026-04-01T09:09:58Z</time></trkpt><trkpt lat="14.537347278446438" lon="120.9929445107553"><ele>6.0</ele><time>2026-04-01T09:09:59Z</time></trkpt><trkpt lat="14.5373299251329" lon="120.99285095116672"><ele>6.0</ele><time>2026-04-01T09:10:00Z</time></trkpt><trkpt lat="14.537317588672703" lon="120.99276465404925"><ele>6.0</ele><time>2026-04-01T09:10:01Z</time></trkpt><trkpt lat="14.537315278495795" lon="120.99269583889796"><ele>6.0</ele><time>2026-04-01T09:10:02.001Z</time></trkpt><trkpt lat="14.5373399390135" lon="120.99259220700844"><ele>6.0</ele><time>2026-04-01T09:10:04.001Z</time></trkpt><trkpt lat="14.537429546896318" lon="120.99254472688169"><ele>6.0</ele><time>2026-04-01T09:10:06.001Z</time></trkpt><trkpt lat="14.537508185595476" lon="120.99253435003313"><ele>6.0</ele><time>2026-04-01T09:10:07.001Z</time></trkpt><trkpt lat="14.53759127411081" lon="120.99251832768391"><ele>6.0</ele><time>2026-04-01T09:10:08.001Z</time></trkpt><trkpt lat="14.53769672433109" lon="120.99250821196819"><ele>6.0</ele><time>2026-04-01T09:10:09.001Z</time></trkpt><trkpt lat="14.537807063572552" lon="120.99249144442484"><ele>6.0</ele><time>2026-04-01T09:10:10.001Z</time></trkpt><trkpt lat="14.537925260872807" lon="120.99247131739827"><ele>6.0</ele><time>2026-04-01T09:10:11.001Z</time></trkpt><trkpt lat="14.5380535765538" lon="120.9924506869479"><ele>6.75</ele><time>2026-04-01T09:10:12.001Z</time></trkpt><trkpt lat="14.538190452293952" lon="120.9924281392277"><ele>7.5</ele><time>2026-04-01T09:10:13.001Z</time></trkpt><trkpt lat="14.53834010418174" lon="120.99240953885811"><ele>8.25</ele><time>2026-04-01T09:10:14.001Z</time></trkpt><trkpt lat="14.538484316265032" lon="120.99239093650922"><ele>9.0</ele><time>2026-04-01T09:10:15.001Z</time></trkpt><trkpt lat="14.538641552429347" lon="120.99236953547235"><ele>8.0</ele><time>2026-04-01T09:10:16.001Z</time></trkpt><trkpt lat="14.538803518997303" lon="120.99235331707227"><ele>7.0</ele><time>2026-04-01T09:10:17.001Z</time></trkpt><trkpt lat="14.538959200924724" lon="120.99233468321732"><ele>6.0</ele><time>2026-04-01T09:10:18.001Z</time></trkpt><trkpt lat="14.539117489534114" lon="120.99230774793162"><ele>6.0</ele><time>2026-04-01T09:10:19.001Z</time></trkpt><trkpt lat="14.539284968449307" lon="120.9922886241264"><ele>6.0</ele><time>2026-04-01T09:10:20.001Z</time></trkpt><trkpt lat="14.539444185851458" lon="120.99226887021041"><ele>6.0</ele><time>2026-04-01T09:10:21.001Z</time></trkpt><trkpt lat="14.539595803946206" lon="120.992245000902"><ele>7.0</ele><time>2026-04-01T09:10:22.001Z</time></trkpt><trkpt lat="14.539750802072037" lon="120.99221931996269"><ele>8.0</ele><time>2026-04-01T09:10:23.001Z</time></trkpt><trkpt lat="14.539911585903237" lon="120.99220792391677"><ele>9.0</ele><time>2026-04-01T09:10:24.001Z</time></trkpt><trkpt lat="14.540069521054852" lon="120.99219314369232"><ele>9.0</ele><time>2026-04-01T09:10:25.001Z</time></trkpt><trkpt lat="14.54023322294004" lon="120.99217837294248"><ele>9.0</ele><time>2026-04-01T09:10:26.001Z</time></trkpt><trkpt lat="14.540395332934914" lon="120.992160080431"><ele>9.0</ele><time>2026-04-01T09:10:27.001Z</time></trkpt><trkpt lat="14.540557959430217" lon="120.99214462244491"><ele>12.666666666666668</ele><time>2026-04-01T09:10:28.001Z</time></trkpt><trkpt lat="14.54071914389097" lon="120.99212143981835"><ele>16.333333333333336</ele><time>2026-04-01T09:10:29.001Z</time></trkpt><trkpt lat="14.540876955016238" lon="120.9920898028123"><ele>20.0</ele><time>2026-04-01T09:10:30.001Z</time></trkpt><trkpt lat="14.541046939327966" lon="120.99206171869123"><ele>15.666666666666668</ele><time>2026-04-01T09:10:31Z</time></trkpt><trkpt lat="14.541216668604505" lon="120.99203127876719"><ele>11.333333333333334</ele><time>2026-04-01T09:10:32Z</time></trkpt><trkpt lat="14.54139199492035" lon="120.99199829747224"><ele>7.0</ele><time>2026-04-01T09:10:33Z</time></trkpt><trkpt lat="14.541567543581348" lon="120.99196852191918"><ele>7.0</ele><time>2026-04-01T09:10:34Z</time></trkpt><trkpt lat="14.541748323571802" lon="120.99193673197621"><ele>7.0</ele><time>2026-04-01T09:10:35Z</time></trkpt><trkpt lat="14.541928968904868" lon="120.99190597911709"><ele>7.0</ele><time>2026-04-01T09:10:36Z</time></trkpt><trkpt lat="14.542116210931894" lon="120.99187630768871"><ele>7.333333333333334</ele><time>2026-04-01T09:10:37Z</time></trkpt><trkpt lat="14.54229962784537" lon="120.99184027639366"><ele>7.666666666666666</ele><time>2026-04-01T09:10:38Z</time></trkpt><trkpt lat="14.54248746783406" lon="120.99181405181406"><ele>8.0</ele><time>2026-04-01T09:10:39Z</time></trkpt><trkpt lat="14.542670628707715" lon="120.99178132623868"><ele>8.0</ele><time>2026-04-01T09:10:40Z</time></trkpt><trkpt lat="14.542855979071572" lon="120.99174641148852"><ele>8.0</ele><time>2026-04-01T09:10:41Z</time></trkpt><trkpt lat="14.543046407701318" lon="120.99171581381376"><ele>8.0</ele><time>2026-04-01T09:10:42Z</time></trkpt><trkpt lat="14.54322214918866" lon="120.99168611255577"><ele>8.0</ele><time>2026-04-01T09:10:43Z</time></trkpt><trkpt lat="14.543386910604726" lon="120.99165758360947"><ele>8.0</ele><time>2026-04-01T09:10:44Z</time></trkpt><trkpt lat="14.543557873490267" lon="120.99162475177552"><ele>8.0</ele><time>2026-04-01T09:10:45Z</time></trkpt><trkpt lat="14.543726604177216" lon="120.9915923811539"><ele>8.0</ele><time>2026-04-01T09:10:46Z</time></trkpt><trkpt lat="14.543900353091132" lon="120.99155835091805"><ele>8.0</ele><time>2026-04-01T09:10:47Z</time></trkpt><trkpt lat="14.544076735321262" lon="120.99152204865278"><ele>8.0</ele><time>2026-04-01T09:10:48Z</time></trkpt><trkpt lat="14.544257331772336" lon="120.99148492170052"><ele>8.0</ele><time>2026-04-01T09:10:49Z</time></trkpt><trkpt lat="14.544436103950655" lon="120.99144803022698"><ele>8.0</ele><time>2026-04-01T09:10:50Z</time></trkpt><trkpt lat="14.54460724078005" lon="120.99141204450694"><ele>8.0</ele><time>2026-04-01T09:10:51Z</time></trkpt><trkpt lat="14.544786348431964" lon="120.99137436625634"><ele>9.0</ele><time>2026-04-01T09:10:52Z</time></trkpt><trkpt lat="14.54494981935237" lon="120.99134180042475"><ele>10.0</ele><time>2026-04-01T09:10:53Z</time></trkpt><trkpt lat="14.545105635962077" lon="120.99130706364502"><ele>11.0</ele><time>2026-04-01T09:10:54Z</time></trkpt><trkpt lat="14.545259233050674" lon="120.99127106853932"><ele>9.666666666666666</ele><time>2026-04-01T09:10:55Z</time></trkpt><trkpt lat="14.545421794148526" lon="120.99123603444791"><ele>8.333333333333334</ele><time>2026-04-01T09:10:56Z</time></trkpt><trkpt lat="14.545576414431064" lon="120.99119495317038"><ele>7.0</ele><time>2026-04-01T09:10:57Z</time></trkpt><trkpt lat="14.545744781127162" lon="120.99115690916305"><ele>7.0</ele><time>2026-04-01T09:10:58Z</time></trkpt><trkpt lat="14.545908982461478" lon="120.99111213000846"><ele>7.0</ele><time>2026-04-01T09:10:59Z</time></trkpt><trkpt lat="14.546063365865368" lon="120.991074329758"><ele>7.0</ele><time>2026-04-01T09:11:00Z</time></trkpt><trkpt lat="14.546241429832364" lon="120.99103025272403"><ele>8.666666666666668</ele><time>2026-04-01T09:11:01Z</time></trkpt><trkpt lat="14.546404624809176" lon="120.99098434658033"><ele>10.333333333333334</ele><time>2026-04-01T09:11:02Z</time></trkpt><trkpt lat="14.546566915788024" lon="120.99095325384634"><ele>12.0</ele><time>2026-04-01T09:11:03Z</time></trkpt><trkpt lat="14.54673968154285" lon="120.99091643334934"><ele>12.0</ele><time>2026-04-01T09:11:04Z</time></trkpt><trkpt lat="14.54691583669452" lon="120.99088207416004"><ele>12.0</ele><time>2026-04-01T09:11:05Z</time></trkpt><trkpt lat="14.547097764715181" lon="120.99083672360014"><ele>12.0</ele><time>2026-04-01T09:11:06Z</time></trkpt><trkpt lat="14.547277851999468" lon="120.99078654121014"><ele>10.666666666666666</ele><time>2026-04-01T09:11:07Z</time></trkpt><trkpt lat="14.54745655918583" lon="120.99073803007181"><ele>9.333333333333332</ele><time>2026-04-01T09:11:08Z</time></trkpt><trkpt lat="14.547622372761913" lon="120.99069472623773"><ele>8.0</ele><time>2026-04-01T09:11:09Z</time></trkpt><trkpt lat="14.547774139342039" lon="120.99065223439274"><ele>9.75</ele><time>2026-04-01T09:11:10Z</time></trkpt><trkpt lat="14.547921220551551" lon="120.99060938404732"><ele>11.5</ele><time>2026-04-01T09:11:11Z</time></trkpt><trkpt lat="14.548059174661196" lon="120.99057506728569"><ele>13.25</ele><time>2026-04-01T09:11:12Z</time></trkpt><trkpt lat="14.548178318770045" lon="120.99054057588054"><ele>15.0</ele><time>2026-04-01T09:11:13Z</time></trkpt><trkpt lat="14.548267065732349" lon="120.99051578509108"><ele>15.0</ele><time>2026-04-01T09:11:14Z</time></trkpt><trkpt lat="14.548363683172845" lon="120.99049710641597"><ele>15.0</ele><time>2026-04-01T09:11:15Z</time></trkpt><trkpt lat="14.548473844125816" lon="120.99046958460059"><ele>15.0</ele><time>2026-04-01T09:11:16Z</time></trkpt><trkpt lat="14.548593541489764" lon="120.99044223840754"><ele>15.0</ele><time>2026-04-01T09:11:17Z</time></trkpt><trkpt lat="14.54871752417129" lon="120.99041374569411"><ele>13.6</ele><time>2026-04-01T09:11:18Z</time></trkpt><trkpt lat="14.548832507753707" lon="120.99038618832414"><ele>12.2</ele><time>2026-04-01T09:11:19Z</time></trkpt><trkpt lat="14.548936702311462" lon="120.99035988420067"><ele>10.8</ele><time>2026-04-01T09:11:20Z</time></trkpt><trkpt lat="14.549036248039304" lon="120.99033880440349"><ele>9.4</ele><time>2026-04-01T09:11:21Z</time></trkpt><trkpt lat="14.549142583712184" lon="120.99032158001496"><ele>8.0</ele><time>2026-04-01T09:11:22Z</time></trkpt><trkpt lat="14.54925879996347" lon="120.99029338778205"><ele>8.0</ele><time>2026-04-01T09:11:23Z</time></trkpt><trkpt lat="14.549376054974532" lon="120.99025387640937"><ele>8.0</ele><time>2026-04-01T09:11:24Z</time></trkpt><trkpt lat="14.549491184887312" lon="120.99022283360371"><ele>8.0</ele><time>2026-04-01T09:11:25Z</time></trkpt><trkpt lat="14.549600354365886" lon="120.99019193591246"><ele>8.0</ele><time>2026-04-01T09:11:26Z</time></trkpt><trkpt lat="14.549701786708015" lon="120.99016247494652"><ele>8.25</ele><time>2026-04-01T09:11:27Z</time></trkpt><trkpt lat="14.549801428590856" lon="120.99013332478555"><ele>8.5</ele><time>2026-04-01T09:11:28Z</time></trkpt><trkpt lat="14.5499164283696" lon="120.99009828708112"><ele>8.75</ele><time>2026-04-01T09:11:29Z</time></trkpt><trkpt lat="14.550038067060669" lon="120.99006825397092"><ele>9.0</ele><time>2026-04-01T09:11:30Z</time></trkpt><trkpt lat="14.550153837583492" lon="120.99004083968609"><ele>8.75</ele><time>2026-04-01T09:11:31Z</time></trkpt><trkpt lat="14.550270368946414" lon="120.99000779319803"><ele>8.5</ele><time>2026-04-01T09:11:32Z</time></trkpt><trkpt lat="14.550387387706564" lon="120.98997141682179"><ele>8.25</ele><time>2026-04-01T09:11:33Z</time></trkpt><trkpt lat="14.550492574683838" lon="120.98994618386718"><ele>8.0</ele><time>2026-04-01T09:11:34Z</time></trkpt><trkpt lat="14.550604780660109" lon="120.98991626790192"><ele>7.75</ele><time>2026-04-01T09:11:35Z</time></trkpt><trkpt lat="14.55071499349336" lon="120.9898876793576"><ele>7.5</ele><time>2026-04-01T09:11:36Z</time></trkpt><trkpt lat="14.550829754425472" lon="120.98986082766062"><ele>7.25</ele><time>2026-04-01T09:11:37Z</time></trkpt><trkpt lat="14.550944950118977" lon="120.98983362022234"><ele>7.0</ele><time>2026-04-01T09:11:38Z</time></trkpt><trkpt lat="14.551064558765074" lon="120.98980542210496"><ele>7.0</ele><time>2026-04-01T09:11:39Z</time></trkpt><trkpt lat="14.551181765418532" lon="120.9897767022276"><ele>7.0</ele><time>2026-04-01T09:11:40Z</time></trkpt><trkpt lat="14.55129595176703" lon="120.98975085449264"><ele>7.0</ele><time>2026-04-01T09:11:41Z</time></trkpt><trkpt lat="14.551402369522611" lon="120.98972348957533"><ele>7.0</ele><time>2026-04-01T09:11:42Z</time></trkpt><trkpt lat="14.551503575370166" lon="120.9896989931419"><ele>7.3999999999999995</ele><time>2026-04-01T09:11:43Z</time></trkpt><trkpt lat="14.551592562894951" lon="120.98967958897703"><ele>7.799999999999999</ele><time>2026-04-01T09:11:44Z</time></trkpt><trkpt lat="14.55168129678571" lon="120.98966029413616"><ele>8.2</ele><time>2026-04-01T09:11:45Z</time></trkpt><trkpt lat="14.551770988123497" lon="120.98963537607538"><ele>8.6</ele><time>2026-04-01T09:11:46Z</time></trkpt><trkpt lat="14.551861093805906" lon="120.9896051687175"><ele>9.0</ele><time>2026-04-01T09:11:47Z</time></trkpt><trkpt lat="14.551954631377447" lon="120.98957789699304"><ele>9.2</ele><time>2026-04-01T09:11:48Z</time></trkpt><trkpt lat="14.552052878959904" lon="120.98954928618008"><ele>9.4</ele><time>2026-04-01T09:11:49Z</time></trkpt><trkpt lat="14.552153965603523" lon="120.98951695551844"><ele>9.6</ele><time>2026-04-01T09:11:50Z</time></trkpt><trkpt lat="14.552261538118401" lon="120.98948188286833"><ele>9.8</ele><time>2026-04-01T09:11:51Z</time></trkpt><trkpt lat="14.552373841233411" lon="120.98944934564824"><ele>10.0</ele><time>2026-04-01T09:11:52Z</time></trkpt><trkpt lat="14.552485173041706" lon="120.98941843727229"><ele>10.0</ele><time>2026-04-01T09:11:53Z</time></trkpt><trkpt lat="14.552596228927406" lon="120.98938414439738"><ele>10.0</ele><time>2026-04-01T09:11:54Z</time></trkpt><trkpt lat="14.552697432241212" lon="120.98935331920636"><ele>10.0</ele><time>2026-04-01T09:11:55Z</time></trkpt><trkpt lat="14.552803694647716" lon="120.98931633754333"><ele>10.0</ele><time>2026-04-01T09:11:56Z</time></trkpt><trkpt lat="14.552909671275934" lon="120.98928206588414"><ele>10.0</ele><time>2026-04-01T09:11:57Z</time></trkpt><trkpt lat="14.553006179262713" lon="120.98925231538536"><ele>9.8</ele><time>2026-04-01T09:11:58.001Z</time></trkpt><trkpt lat="14.553103273029615" lon="120.9892200802811"><ele>9.6</ele><time>2026-04-01T09:11:59.001Z</time></trkpt><trkpt lat="14.553198027048015" lon="120.98919370135485"><ele>9.4</ele><time>2026-04-01T09:12:00.001Z</time></trkpt><trkpt lat="14.553293273183243" lon="120.98916259828289"><ele>9.2</ele><time>2026-04-01T09:12:01.001Z</time></trkpt><trkpt lat="14.553381311530941" lon="120.98913501901733"><ele>9.0</ele><time>2026-04-01T09:12:02.001Z</time></trkpt><trkpt lat="14.55347474964437" lon="120.98910476405888"><ele>8.6</ele><time>2026-04-01T09:12:03.001Z</time></trkpt><trkpt lat="14.553570174049225" lon="120.98907475726476"><ele>8.2</ele><time>2026-04-01T09:12:04.001Z</time></trkpt><trkpt lat="14.553669305348235" lon="120.98904054681468"><ele>7.799999999999999</ele><time>2026-04-01T09:12:05.001Z</time></trkpt><trkpt lat="14.553766664507712" lon="120.98900926383354"><ele>7.3999999999999995</ele><time>2026-04-01T09:12:06.001Z</time></trkpt><trkpt lat="14.553859301562529" lon="120.98898315071219"><ele>7.0</ele><time>2026-04-01T09:12:07.001Z</time></trkpt><trkpt lat="14.553947063149188" lon="120.98895557892779"><ele>7.000000000000001</ele><time>2026-04-01T09:12:08.001Z</time></trkpt><trkpt lat="14.554034399089193" lon="120.98892855374672"><ele>7.0</ele><time>2026-04-01T09:12:09.001Z</time></trkpt><trkpt lat="14.554117624050845" lon="120.988902268368"><ele>7.0</ele><time>2026-04-01T09:12:10.001Z</time></trkpt><trkpt lat="14.554206765960457" lon="120.98887926479871"><ele>7.0</ele><time>2026-04-01T09:12:11.001Z</time></trkpt><trkpt lat="14.554281867419977" lon="120.98886074576053"><ele>7.000000000000001</ele><time>2026-04-01T09:12:12.001Z</time></trkpt><trkpt lat="14.554378708349095" lon="120.98883242996986"><ele>7.0</ele><time>2026-04-01T09:12:13.001Z</time></trkpt><trkpt lat="14.554488096665427" lon="120.98880616517805"><ele>6.75</ele><time>2026-04-01T09:12:14.001Z</time></trkpt><trkpt lat="14.554611098128623" lon="120.9887768898461"><ele>6.5</ele><time>2026-04-01T09:12:15.001Z</time></trkpt><trkpt lat="14.554741099281925" lon="120.98874060085707"><ele>6.25</ele><time>2026-04-01T09:12:16.001Z</time></trkpt><trkpt lat="14.55487978476282" lon="120.9887023269574"><ele>6.0</ele><time>2026-04-01T09:12:17.001Z</time></trkpt><trkpt lat="14.555023514187855" lon="120.98865991610565"><ele>6.0</ele><time>2026-04-01T09:12:18.001Z</time></trkpt><trkpt lat="14.55517816256519" lon="120.98861487122839"><ele>6.0</ele><time>2026-04-01T09:12:19.001Z</time></trkpt><trkpt lat="14.555335593338315" lon="120.98856791650583"><ele>6.0</ele><time>2026-04-01T09:12:20.001Z</time></trkpt><trkpt lat="14.555497704316386" lon="120.98851653311624"><ele>6.666666666666666</ele><time>2026-04-01T09:12:21.001Z</time></trkpt><trkpt lat="14.55565758656814" lon="120.98846708939409"><ele>7.333333333333333</ele><time>2026-04-01T09:12:22.001Z</time></trkpt><trkpt lat="14.555828437576968" lon="120.98841512623426"><ele>8.0</ele><time>2026-04-01T09:12:23.001Z</time></trkpt><trkpt lat="14.555988635369605" lon="120.98836208876759"><ele>8.0</ele><time>2026-04-01T09:12:24.001Z</time></trkpt><trkpt lat="14.556146841206788" lon="120.98831129709907"><ele>8.0</ele><time>2026-04-01T09:12:25.001Z</time></trkpt><trkpt lat="14.556292075939613" lon="120.98826755706591"><ele>8.0</ele><time>2026-04-01T09:12:26.001Z</time></trkpt><trkpt lat="14.556435514241427" lon="120.98822646572097"><ele>8.25</ele><time>2026-04-01T09:12:27.001Z</time></trkpt><trkpt lat="14.556565284151882" lon="120.9881903643224"><ele>8.5</ele><time>2026-04-01T09:12:28.001Z</time></trkpt><trkpt lat="14.556688122154148" lon="120.98814909237949"><ele>8.75</ele><time>2026-04-01T09:12:29.001Z</time></trkpt><trkpt lat="14.556809739598375" lon="120.98810806745418"><ele>9.0</ele><time>2026-04-01T09:12:30.001Z</time></trkpt><trkpt lat="14.556920934759733" lon="120.98807535405561"><ele>9.0</ele><time>2026-04-01T09:12:31.001Z</time></trkpt><trkpt lat="14.557029002972826" lon="120.98804845109736"><ele>9.0</ele><time>2026-04-01T09:12:32.001Z</time></trkpt><trkpt lat="14.55713028004499" lon="120.98802380306533"><ele>9.0</ele><time>2026-04-01T09:12:33.001Z</time></trkpt><trkpt lat="14.55722982593978" lon="120.98799404071913"><ele>9.0</ele><time>2026-04-01T09:12:34.001Z</time></trkpt><trkpt lat="14.557339857375002" lon="120.98795805540963"><ele>9.0</ele><time>2026-04-01T09:12:35.001Z</time></trkpt><trkpt lat="14.55744869708208" lon="120.98792589393202"><ele>8.4</ele><time>2026-04-01T09:12:36.001Z</time></trkpt><trkpt lat="14.557558851497836" lon="120.98789228022268"><ele>7.800000000000001</ele><time>2026-04-01T09:12:37Z</time></trkpt><trkpt lat="14.557650530355101" lon="120.98786083949939"><ele>7.199999999999999</ele><time>2026-04-01T09:12:38Z</time></trkpt><trkpt lat="14.557746378999965" lon="120.9878333160229"><ele>6.6</ele><time>2026-04-01T09:12:39Z</time></trkpt><trkpt lat="14.557837941617288" lon="120.98781560956704"><ele>6.0</ele><time>2026-04-01T09:12:40Z</time></trkpt><trkpt lat="14.557916297645559" lon="120.98778805239321"><ele>7.333333333333334</ele><time>2026-04-01T09:12:41Z</time></trkpt><trkpt lat="14.557983033693462" lon="120.98776622184928"><ele>8.666666666666668</ele><time>2026-04-01T09:12:42Z</time></trkpt><trkpt lat="14.558055014889476" lon="120.98774113760136"><ele>10.0</ele><time>2026-04-01T09:12:43Z</time></trkpt><trkpt lat="14.55817152767652" lon="120.98770990998146"><ele>11.333333333333334</ele><time>2026-04-01T09:12:45Z</time></trkpt><trkpt lat="14.558261121382026" lon="120.98768348411905"><ele>12.666666666666668</ele><time>2026-04-01T09:12:47Z</time></trkpt><trkpt lat="14.558333520904954" lon="120.98766083409919"><ele>14.0</ele><time>2026-04-01T09:12:49Z</time></trkpt><trkpt lat="14.558395769544957" lon="120.98764447319577"><ele>14.000000000000002</ele><time>2026-04-01T09:12:51Z</time></trkpt><trkpt lat="14.558469347313089" lon="120.98762072490287"><ele>14.0</ele><time>2026-04-01T09:12:53Z</time></trkpt><trkpt lat="14.558555525950869" lon="120.98759196444988"><ele>14.0</ele><time>2026-04-01T09:12:55Z</time></trkpt><trkpt lat="14.558654034689104" lon="120.98755583104297"><ele>14.0</ele><time>2026-04-01T09:12:57Z</time></trkpt><trkpt lat="14.558715302405046" lon="120.98753398669605"><ele>14.000000000000002</ele><time>2026-04-01T09:12:58Z</time></trkpt><trkpt lat="14.558804177579905" lon="120.98750031230279"><ele>14.0</ele><time>2026-04-01T09:13:00Z</time></trkpt><trkpt lat="14.558883423855585" lon="120.98747053679566"><ele>13.166666666666668</ele><time>2026-04-01T09:13:02Z</time></trkpt><trkpt lat="14.558964438893838" lon="120.98743808854624"><ele>12.333333333333334</ele><time>2026-04-01T09:13:04Z</time></trkpt><trkpt lat="14.559041420059499" lon="120.98740560652509"><ele>11.5</ele><time>2026-04-01T09:13:06Z</time></trkpt><trkpt lat="14.559122812670001" lon="120.98736995926777"><ele>10.666666666666668</ele><time>2026-04-01T09:13:08Z</time></trkpt><trkpt lat="14.559184841876432" lon="120.98733997298315"><ele>9.833333333333334</ele><time>2026-04-01T09:13:10Z</time></trkpt><trkpt lat="14.559261361210423" lon="120.98730584250035"><ele>9.0</ele><time>2026-04-01T09:13:12Z</time></trkpt><trkpt lat="14.559354854012456" lon="120.98726788617796"><ele>9.0</ele><time>2026-04-01T09:13:14Z</time></trkpt><trkpt lat="14.559434779280004" lon="120.98722845924274"><ele>9.0</ele><time>2026-04-01T09:13:16Z</time></trkpt><trkpt lat="14.559492669562855" lon="120.98720111730192"><ele>9.0</ele><time>2026-04-01T09:13:17Z</time></trkpt><trkpt lat="14.559593150016203" lon="120.98715441097127"><ele>9.0</ele><time>2026-04-01T09:13:19Z</time></trkpt><trkpt lat="14.55967758336787" lon="120.98711278846957"><ele>9.0</ele><time>2026-04-01T09:13:21Z</time></trkpt><trkpt lat="14.559769292313439" lon="120.98706559042914"><ele>8.4</ele><time>2026-04-01T09:13:23Z</time></trkpt><trkpt lat="14.559871026889281" lon="120.98702494191099"><ele>7.800000000000001</ele><time>2026-04-01T09:13:25Z</time></trkpt><trkpt lat="14.55997307329167" lon="120.98697726231387"><ele>7.199999999999999</ele><time>2026-04-01T09:13:27Z</time></trkpt><trkpt lat="14.560077099850162" lon="120.98692837396615"><ele>6.6</ele><time>2026-04-01T09:13:29Z</time></trkpt><trkpt lat="14.56014765631522" lon="120.98689111642719"><ele>6.0</ele><time>2026-04-01T09:13:30Z</time></trkpt><trkpt lat="14.56022951751121" lon="120.98685611732864"><ele>6.0</ele><time>2026-04-01T09:13:31Z</time></trkpt><trkpt lat="14.560312297170121" lon="120.9868188197134"><ele>6.0</ele><time>2026-04-01T09:13:32Z</time></trkpt><trkpt lat="14.560399238914012" lon="120.98678312409339"><ele>6.0</ele><time>2026-04-01T09:13:33Z</time></trkpt><trkpt lat="14.560485604026328" lon="120.98674887026469"><ele>6.0</ele><time>2026-04-01T09:13:34Z</time></trkpt><trkpt lat="14.560577791533138" lon="120.98671084795829"><ele>6.0</ele><time>2026-04-01T09:13:35Z</time></trkpt><trkpt lat="14.560661846328" lon="120.9866765785238"><ele>6.0</ele><time>2026-04-01T09:13:36Z</time></trkpt><trkpt lat="14.56074958810735" lon="120.98663552311822"><ele>6.0</ele><time>2026-04-01T09:13:37Z</time></trkpt><trkpt lat="14.560819192415474" lon="120.98661085733868"><ele>6.0</ele><time>2026-04-01T09:13:38Z</time></trkpt><trkpt lat="14.560899981572208" lon="120.98657267170408"><ele>6.0</ele><time>2026-04-01T09:13:39Z</time></trkpt><trkpt lat="14.56097212469223" lon="120.98653679122091"><ele>6.0</ele><time>2026-04-01T09:13:40Z</time></trkpt><trkpt lat="14.561041532688638" lon="120.98650640492751"><ele>6.0</ele><time>2026-04-01T09:13:41Z</time></trkpt><trkpt lat="14.561114577458623" lon="120.9864772415061"><ele>6.0</ele><time>2026-04-01T09:13:42Z</time></trkpt><trkpt lat="14.561190004793342" lon="120.98645419767125"><ele>6.0</ele><time>2026-04-01T09:13:43Z</time></trkpt><trkpt lat="14.561282651281534" lon="120.98641952481879"><ele>6.0</ele><time>2026-04-01T09:13:44Z</time></trkpt><trkpt lat="14.561363568677058" lon="120.98637798757287"><ele>6.0</ele><time>2026-04-01T09:13:45Z</time></trkpt><trkpt lat="14.561442297418095" lon="120.98633506610362"><ele>6.0</ele><time>2026-04-01T09:13:46Z</time></trkpt><trkpt lat="14.56150459137473" lon="120.98630783150097"><ele>6.0</ele><time>2026-04-01T09:13:47Z</time></trkpt><trkpt lat="14.561564408152535" lon="120.98628719668477"><ele>6.199999999999999</ele><time>2026-04-01T09:13:48Z</time></trkpt><trkpt lat="14.56163940471949" lon="120.98629699961151"><ele>6.3999999999999995</ele><time>2026-04-01T09:13:50Z</time></trkpt><trkpt lat="14.561699265110857" lon="120.98636623789083"><ele>6.6</ele><time>2026-04-01T09:13:52.001Z</time></trkpt><trkpt lat="14.561743089061492" lon="120.98644430520413"><ele>6.8</ele><time>2026-04-01T09:14:03.001Z</time></trkpt><trkpt lat="14.561847507040765" lon="120.98647682431017"><ele>7.0</ele><time>2026-04-01T09:14:05.001Z</time></trkpt><trkpt lat="14.561936725680882" lon="120.98643539999624"><ele>7.0</ele><time>2026-04-01T09:14:06.001Z</time></trkpt><trkpt lat="14.562029828343606" lon="120.98639297108112"><ele>7.0</ele><time>2026-04-01T09:14:07.001Z</time></trkpt><trkpt lat="14.562138805866216" lon="120.98634330764526"><ele>7.0</ele><time>2026-04-01T09:14:08.001Z</time></trkpt><trkpt lat="14.56223646171073" lon="120.9862988037588"><ele>7.0</ele><time>2026-04-01T09:14:09.001Z</time></trkpt><trkpt lat="14.562348920333594" lon="120.98624762813282"><ele>8.0</ele><time>2026-04-01T09:14:10.001Z</time></trkpt><trkpt lat="14.562458685328611" lon="120.98619793898767"><ele>9.0</ele><time>2026-04-01T09:14:11.001Z</time></trkpt><trkpt lat="14.562564315346368" lon="120.98615012168996"><ele>10.0</ele><time>2026-04-01T09:14:12.001Z</time></trkpt><trkpt lat="14.562665422550133" lon="120.98610435180683"><ele>11.0</ele><time>2026-04-01T09:14:13.001Z</time></trkpt><trkpt lat="14.562756300631566" lon="120.98606321249189"><ele>12.0</ele><time>2026-04-01T09:14:14.001Z</time></trkpt><trkpt lat="14.562845769464149" lon="120.98602072462083"><ele>11.0</ele><time>2026-04-01T09:14:15.001Z</time></trkpt><trkpt lat="14.562946826929442" lon="120.98597586442446"><ele>10.0</ele><time>2026-04-01T09:14:16.001Z</time></trkpt><trkpt lat="14.563049917256974" lon="120.98593049916255"><ele>9.0</ele><time>2026-04-01T09:14:17.001Z</time></trkpt><trkpt lat="14.563154471773954" lon="120.98585783908909"><ele>8.0</ele><time>2026-04-01T09:14:18.001Z</time></trkpt><trkpt lat="14.563270647288196" lon="120.98580835239957"><ele>8.0</ele><time>2026-04-01T09:14:19.001Z</time></trkpt><trkpt lat="14.563382541668823" lon="120.98576286453735"><ele>8.0</ele><time>2026-04-01T09:14:20.001Z</time></trkpt><trkpt lat="14.563488281106572" lon="120.98571832101992"><ele>8.0</ele><time>2026-04-01T09:14:21.001Z</time></trkpt><trkpt lat="14.563595281708842" lon="120.9856942498996"><ele>8.0</ele><time>2026-04-01T09:14:22.001Z</time></trkpt><trkpt lat="14.563671080684818" lon="120.98565952697413"><ele>8.0</ele><time>2026-04-01T09:14:23.001Z</time></trkpt><trkpt lat="14.563748820391526" lon="120.98560808169378"><ele>7.999999999999999</ele><time>2026-04-01T09:14:24.001Z</time></trkpt><trkpt lat="14.56382108465701" lon="120.98557732510046"><ele>8.0</ele><time>2026-04-01T09:14:25.001Z</time></trkpt><trkpt lat="14.56389006154404" lon="120.98554604176837"><ele>8.0</ele><time>2026-04-01T09:14:26.001Z</time></trkpt><trkpt lat="14.563950995032648" lon="120.98551879981429"><ele>8.0</ele><time>2026-04-01T09:14:27.001Z</time></trkpt><trkpt lat="14.564014063695643" lon="120.98548873678367"><ele>7.999999999999999</ele><time>2026-04-01T09:14:28.001Z</time></trkpt><trkpt lat="14.564115623085598" lon="120.98544599936287"><ele>8.0</ele><time>2026-04-01T09:14:30.001Z</time></trkpt><trkpt lat="14.564184533679029" lon="120.98542817137202"><ele>8.0</ele><time>2026-04-01T09:14:33.001Z</time></trkpt><trkpt lat="14.564264194579982" lon="120.98539469756359"><ele>8.0</ele><time>2026-04-01T09:15:42.001Z</time></trkpt><trkpt lat="14.564318566444598" lon="120.98536041747955"><ele>8.0</ele><time>2026-04-01T09:15:44.001Z</time></trkpt><trkpt lat="14.5643969601832" lon="120.9854302322623"><ele>8.0</ele><time>2026-04-01T09:15:47.001Z</time></trkpt><trkpt lat="14.564458411125033" lon="120.98554521432216"><ele>8.0</ele><time>2026-04-01T09:15:49.001Z</time></trkpt><trkpt lat="14.56449735912952" lon="120.98562389373691"><ele>7.999999999999999</ele><time>2026-04-01T09:15:50.001Z</time></trkpt><trkpt lat="14.56453980719538" lon="120.98570515246617"><ele>8.0</ele><time>2026-04-01T09:15:51.001Z</time></trkpt><trkpt lat="14.564569947322319" lon="120.98578711541545"><ele>8.0</ele><time>2026-04-01T09:15:52.001Z</time></trkpt><trkpt lat="14.564593937806281" lon="120.98585162553083"><ele>8.0</ele><time>2026-04-01T09:15:53.001Z</time></trkpt><trkpt lat="14.564617143807826" lon="120.98591352994468"><ele>7.999999999999999</ele><time>2026-04-01T09:15:54.001Z</time></trkpt><trkpt lat="14.564662929765733" lon="120.98601086278475"><ele>8.0</ele><time>2026-04-01T09:15:56.001Z</time></trkpt><trkpt lat="14.56470292261845" lon="120.98609622625035"><ele>7.499999999999999</ele><time>2026-04-01T09:15:58.001Z</time></trkpt><trkpt lat="14.564741159300022" lon="120.98620361916387"><ele>7.0</ele><time>2026-04-01T09:16:00.001Z</time></trkpt><trkpt lat="14.56476467921935" lon="120.98626734739355"><ele>6.5</ele><time>2026-04-01T09:16:01.001Z</time></trkpt><trkpt lat="14.56478562158477" lon="120.98633359706646"><ele>6.0</ele><time>2026-04-01T09:16:02.001Z</time></trkpt><trkpt lat="14.564819536057168" lon="120.9864029166212"><ele>5.5</ele><time>2026-04-01T09:16:03.001Z</time></trkpt><trkpt lat="14.564848172721181" lon="120.98647470743397"><ele>5.0</ele><time>2026-04-01T09:16:04.001Z</time></trkpt><trkpt lat="14.564902420408563" lon="120.98658914693563"><ele>6.0</ele><time>2026-04-01T09:16:06.001Z</time></trkpt><trkpt lat="14.564955097808342" lon="120.98670893778211"><ele>7.0</ele><time>2026-04-01T09:16:08.001Z</time></trkpt><trkpt lat="14.564990613068424" lon="120.9867906923615"><ele>8.0</ele><time>2026-04-01T09:16:10.001Z</time></trkpt><trkpt lat="14.56506062929148" lon="120.98691834491554"><ele>9.0</ele><time>2026-04-01T09:16:12.001Z</time></trkpt><trkpt lat="14.56510795959602" lon="120.98700023558519"><ele>10.0</ele><time>2026-04-01T09:16:13.001Z</time></trkpt><trkpt lat="14.565154890314124" lon="120.98708802799882"><ele>10.0</ele><time>2026-04-01T09:16:14.001Z</time></trkpt><trkpt lat="14.565206824823544" lon="120.98718407925885"><ele>10.0</ele><time>2026-04-01T09:16:15.001Z</time></trkpt><trkpt lat="14.565264522760085" lon="120.98728398965528"><ele>10.0</ele><time>2026-04-01T09:16:16.001Z</time></trkpt><trkpt lat="14.56531502134535" lon="120.98738586550455"><ele>10.0</ele><time>2026-04-01T09:16:17.001Z</time></trkpt><trkpt lat="14.565362261429255" lon="120.98747876185666"><ele>10.0</ele><time>2026-04-01T09:16:18.001Z</time></trkpt><trkpt lat="14.565404649856774" lon="120.98755628881776"><ele>9.833333333333334</ele><time>2026-04-01T09:16:19.001Z</time></trkpt><trkpt lat="14.565441122002781" lon="120.9876200933842"><ele>9.666666666666668</ele><time>2026-04-01T09:16:20.001Z</time></trkpt><trkpt lat="14.565492320549438" lon="120.98769176432178"><ele>9.5</ele><time>2026-04-01T09:16:21.001Z</time></trkpt><trkpt lat="14.56554611382203" lon="120.98775029590493"><ele>9.333333333333334</ele><time>2026-04-01T09:16:22.001Z</time></trkpt><trkpt lat="14.56560081941295" lon="120.98781045308479"><ele>9.166666666666666</ele><time>2026-04-01T09:16:23.001Z</time></trkpt><trkpt lat="14.56565976612423" lon="120.98786458176858"><ele>9.0</ele><time>2026-04-01T09:16:24.001Z</time></trkpt><trkpt lat="14.565722944665428" lon="120.98791426899793"><ele>9.0</ele><time>2026-04-01T09:16:25.001Z</time></trkpt><trkpt lat="14.565801290236651" lon="120.98796707855414"><ele>9.0</ele><time>2026-04-01T09:16:26.001Z</time></trkpt><trkpt lat="14.565887928372032" lon="120.98802533122075"><ele>9.0</ele><time>2026-04-01T09:16:27.001Z</time></trkpt><trkpt lat="14.565974056057675" lon="120.98809620639811"><ele>9.0</ele><time>2026-04-01T09:16:28.001Z</time></trkpt><trkpt lat="14.566058319454404" lon="120.98816839132668"><ele>9.0</ele><time>2026-04-01T09:16:29.001Z</time></trkpt><trkpt lat="14.566156124625548" lon="120.98824793849222"><ele>9.0</ele><time>2026-04-01T09:16:30.001Z</time></trkpt><trkpt lat="14.566250013889578" lon="120.98832870380122"><ele>9.0</ele><time>2026-04-01T09:16:31.001Z</time></trkpt><trkpt lat="14.566352760331217" lon="120.98840666854666"><ele>9.0</ele><time>2026-04-01T09:16:32.001Z</time></trkpt><trkpt lat="14.566465609064736" lon="120.98849428319751"><ele>9.0</ele><time>2026-04-01T09:16:33.001Z</time></trkpt><trkpt lat="14.566571355529407" lon="120.9885844608338"><ele>9.0</ele><time>2026-04-01T09:16:34.001Z</time></trkpt><trkpt lat="14.566689445750352" lon="120.98868451960057"><ele>9.0</ele><time>2026-04-01T09:16:35.001Z</time></trkpt><trkpt lat="14.56679866382728" lon="120.98877585167322"><ele>9.0</ele><time>2026-04-01T09:16:36.001Z</time></trkpt><trkpt lat="14.566900148150369" lon="120.98885377446481"><ele>9.0</ele><time>2026-04-01T09:16:37.001Z</time></trkpt><trkpt lat="14.56698038077597" lon="120.98891381257644"><ele>9.0</ele><time>2026-04-01T09:16:38.001Z</time></trkpt><trkpt lat="14.567045729985239" lon="120.98896579784567"><ele>9.0</ele><time>2026-04-01T09:16:39.001Z</time></trkpt><trkpt lat="14.567098921545243" lon="120.98900990063834"><ele>9.0</ele><time>2026-04-01T09:16:40.001Z</time></trkpt><trkpt lat="14.567153027254827" lon="120.98907664178886"><ele>9.0</ele><time>2026-04-01T09:16:42.001Z</time></trkpt><trkpt lat="14.567194591384114" lon="120.9891473890334"><ele>9.0</ele><time>2026-04-01T09:16:44.001Z</time></trkpt><trkpt lat="14.567271590524204" lon="120.9892008657582"><ele>9.0</ele><time>2026-04-01T09:16:46.001Z</time></trkpt><trkpt lat="14.567324600424191" lon="120.98924101961268"><ele>9.0</ele><time>2026-04-01T09:16:54Z</time></trkpt><trkpt lat="14.567352506736373" lon="120.98930992052435"><ele>9.0</ele><time>2026-04-01T09:17:02Z</time></trkpt><trkpt lat="14.567442892541587" lon="120.9893711522431"><ele>9.0</ele><time>2026-04-01T09:17:06Z</time></trkpt><trkpt lat="14.5675069665886" lon="120.98937990757331"><ele>9.0</ele><time>2026-04-01T09:17:08Z</time></trkpt><trkpt lat="14.567571566248063" lon="120.98941459227517"><ele>9.0</ele><time>2026-04-01T09:17:10Z</time></trkpt><trkpt lat="14.567656281650573" lon="120.989507548481"><ele>9.0</ele><time>2026-04-01T09:17:12Z</time></trkpt><trkpt lat="14.567724301203889" lon="120.989565925707"><ele>9.0</ele><time>2026-04-01T09:17:13Z</time></trkpt><trkpt lat="14.567802653879836" lon="120.98962591105185"><ele>9.0</ele><time>2026-04-01T09:17:14Z</time></trkpt><trkpt lat="14.567893122748107" lon="120.989685872551"><ele>9.0</ele><time>2026-04-01T09:17:15Z</time></trkpt><trkpt lat="14.567945678534025" lon="120.98972321454816"><ele>9.0</ele><time>2026-04-01T09:17:16Z</time></trkpt><trkpt lat="14.568027294861736" lon="120.98978786158054"><ele>9.0</ele><time>2026-04-01T09:17:17Z</time></trkpt><trkpt lat="14.568099688398522" lon="120.98984049604105"><ele>9.0</ele><time>2026-04-01T09:17:18Z</time></trkpt><trkpt lat="14.568170527514512" lon="120.9898901100616"><ele>9.0</ele><time>2026-04-01T09:17:19Z</time></trkpt><trkpt lat="14.568237618861762" lon="120.98993832407388"><ele>9.0</ele><time>2026-04-01T09:17:20Z</time></trkpt><trkpt lat="14.56830267070618" lon="120.9899885256221"><ele>9.0</ele><time>2026-04-01T09:17:21Z</time></trkpt><trkpt lat="14.568365289537061" lon="120.99004641085722"><ele>9.0</ele><time>2026-04-01T09:17:22Z</time></trkpt><trkpt lat="14.568426258556705" lon="120.99010750458999"><ele>9.0</ele><time>2026-04-01T09:17:23Z</time></trkpt><trkpt lat="14.568492987740942" lon="120.99016485423681"><ele>9.0</ele><time>2026-04-01T09:17:24Z</time></trkpt><trkpt lat="14.568563671932063" lon="120.9902254445726"><ele>9.0</ele><time>2026-04-01T09:17:25Z</time></trkpt><trkpt lat="14.568635586689192" lon="120.99028731371587"><ele>9.0</ele><time>2026-04-01T09:17:26Z</time></trkpt><trkpt lat="14.568715080741528" lon="120.99035817544619"><ele>9.0</ele><time>2026-04-01T09:17:27Z</time></trkpt><trkpt lat="14.568802061016047" lon="120.99043044610839"><ele>9.0</ele><time>2026-04-01T09:17:28Z</time></trkpt><trkpt lat="14.568893320126568" lon="120.99050842468756"><ele>8.75</ele><time>2026-04-01T09:17:29Z</time></trkpt><trkpt lat="14.568990913238679" lon="120.99058383845818"><ele>8.5</ele><time>2026-04-01T09:17:30Z</time></trkpt><trkpt lat="14.569090926831693" lon="120.9906657499301"><ele>8.25</ele><time>2026-04-01T09:17:31Z</time></trkpt><trkpt lat="14.569189974345745" lon="120.99074527509904"><ele>8.0</ele><time>2026-04-01T09:17:32Z</time></trkpt><trkpt lat="14.569284544553456" lon="120.99082380895597"><ele>8.4</ele><time>2026-04-01T09:17:33Z</time></trkpt><trkpt lat="14.569376425752623" lon="120.99089911766286"><ele>8.8</ele><time>2026-04-01T09:17:34Z</time></trkpt><trkpt lat="14.569461959499606" lon="120.99096999505157"><ele>9.2</ele><time>2026-04-01T09:17:35Z</time></trkpt><trkpt lat="14.569542497289497" lon="120.99103752018475"><ele>9.6</ele><time>2026-04-01T09:17:36Z</time></trkpt><trkpt lat="14.569620404664347" lon="120.99109956473684"><ele>10.0</ele><time>2026-04-01T09:17:37Z</time></trkpt><trkpt lat="14.569692441114212" lon="120.99115854384216"><ele>10.0</ele><time>2026-04-01T09:17:38Z</time></trkpt><trkpt lat="14.569744770629677" lon="120.99120855847065"><ele>10.0</ele><time>2026-04-01T09:17:39Z</time></trkpt><trkpt lat="14.56983190780625" lon="120.99127283081037"><ele>10.0</ele><time>2026-04-01T09:17:41Z</time></trkpt><trkpt lat="14.569924334439353" lon="120.99135655441228"><ele>10.0</ele><time>2026-04-01T09:17:43Z</time></trkpt><trkpt lat="14.569989670372557" lon="120.99141629379181"><ele>10.0</ele><time>2026-04-01T09:17:45Z</time></trkpt><trkpt lat="14.570041472888871" lon="120.99146280225447"><ele>10.0</ele><time>2026-04-01T09:17:50Z</time></trkpt><trkpt lat="14.570127710180037" lon="120.99152688724787"><ele>10.0</ele><time>2026-04-01T09:18:37Z</time></trkpt><trkpt lat="14.570206712579377" lon="120.99158546061402"><ele>10.0</ele><time>2026-04-01T09:18:38Z</time></trkpt><trkpt lat="14.570283293152876" lon="120.99167236561593"><ele>10.0</ele><time>2026-04-01T09:18:40Z</time></trkpt><trkpt lat="14.570375960451392" lon="120.99177518238935"><ele>9.5</ele><time>2026-04-01T09:18:42Z</time></trkpt><trkpt lat="14.570381188450067" lon="120.99189631704222"><ele>9.0</ele><time>2026-04-01T09:18:44Z</time></trkpt><trkpt lat="14.57038120709877" lon="120.99197605808156"><ele>8.5</ele><time>2026-04-01T09:18:45Z</time></trkpt><trkpt lat="14.57038867842438" lon="120.9920524573847"><ele>8.0</ele><time>2026-04-01T09:18:46Z</time></trkpt><trkpt lat="14.570394237097014" lon="120.99211891584498"><ele>7.500000000000001</ele><time>2026-04-01T09:18:47Z</time></trkpt><trkpt lat="14.570405810186033" lon="120.99220100437331"><ele>7.0</ele><time>2026-04-01T09:18:48Z</time></trkpt><trkpt lat="14.570428329761478" lon="120.9923025341962"><ele>7.000000000000001</ele><time>2026-04-01T09:18:50Z</time></trkpt><trkpt lat="14.57046121774265" lon="120.99240261785457"><ele>7.0</ele><time>2026-04-01T09:18:52.001Z</time></trkpt><trkpt lat="14.57048237069611" lon="120.99247295744117"><ele>7.0</ele><time>2026-04-01T09:18:54.001Z</time></trkpt><trkpt lat="14.570509473060731" lon="120.99255186262525"><ele>7.0</ele><time>2026-04-01T09:18:57Z</time></trkpt><trkpt lat="14.570529162240629" lon="120.99264064035864"><ele>7.000000000000001</ele><time>2026-04-01T09:18:59Z</time></trkpt><trkpt lat="14.570553981185254" lon="120.99270602822581"><ele>7.0</ele><time>2026-04-01T09:19:01Z</time></trkpt><trkpt lat="14.570582744172226" lon="120.99278144587119"><ele>6.833333333333334</ele><time>2026-04-01T09:19:03Z</time></trkpt><trkpt lat="14.570606398568545" lon="120.99284346859461"><ele>6.666666666666667</ele><time>2026-04-01T09:19:05Z</time></trkpt><trkpt lat="14.570659328838135" lon="120.99293845907808"><ele>6.5</ele><time>2026-04-01T09:19:07Z</time></trkpt><trkpt lat="14.570687266580869" lon="120.99305566145965"><ele>6.333333333333334</ele><time>2026-04-01T09:19:09Z</time></trkpt><trkpt lat="14.570725045529434" lon="120.99312169962329"><ele>6.166666666666667</ele><time>2026-04-01T09:19:10Z</time></trkpt><trkpt lat="14.570749333834312" lon="120.9931923040688"><ele>6.0</ele><time>2026-04-01T09:19:11Z</time></trkpt><trkpt lat="14.570771909860094" lon="120.99325465614817"><ele>6.0</ele><time>2026-04-01T09:19:12Z</time></trkpt><trkpt lat="14.570797562556983" lon="120.99332477644728"><ele>6.0</ele><time>2026-04-01T09:19:13Z</time></trkpt><trkpt lat="14.570842935878968" lon="120.99346315378894"><ele>6.0</ele><time>2026-04-01T09:19:15Z</time></trkpt><trkpt lat="14.570870177489494" lon="120.99352525304938"><ele>6.0</ele><time>2026-04-01T09:19:16Z</time></trkpt><trkpt lat="14.57089522748477" lon="120.99358833144112"><ele>6.0</ele><time>2026-04-01T09:19:17Z</time></trkpt><trkpt lat="14.570930350403376" lon="120.99368892601919"><ele>6.0</ele><time>2026-04-01T09:19:19Z</time></trkpt><trkpt lat="14.570959824780156" lon="120.99376819746746"><ele>6.199999999999999</ele><time>2026-04-01T09:19:21Z</time></trkpt><trkpt lat="14.570996060810396" lon="120.99385211258956"><ele>6.3999999999999995</ele><time>2026-04-01T09:19:23Z</time></trkpt><trkpt lat="14.571042884956315" lon="120.99396219865505"><ele>6.6</ele><time>2026-04-01T09:19:25Z</time></trkpt><trkpt lat="14.571080423643503" lon="120.99407497725667"><ele>6.8</ele><time>2026-04-01T09:19:27Z</time></trkpt><trkpt lat="14.571110221646844" lon="120.99418361932459"><ele>7.0</ele><time>2026-04-01T09:19:29Z</time></trkpt><trkpt lat="14.571153328403277" lon="120.99428521468602"><ele>7.333333333333334</ele><time>2026-04-01T09:19:31Z</time></trkpt><trkpt lat="14.571182580349758" lon="120.99434406073361"><ele>7.666666666666667</ele><time>2026-04-01T09:19:32Z</time></trkpt><trkpt lat="14.571223379124339" lon="120.99446159297015"><ele>8.0</ele><time>2026-04-01T09:19:34Z</time></trkpt><trkpt lat="14.57125194727802" lon="120.99455416290056"><ele>8.333333333333334</ele><time>2026-04-01T09:19:36Z</time></trkpt><trkpt lat="14.571276091632637" lon="120.99463234430469"><ele>8.666666666666666</ele><time>2026-04-01T09:19:39Z</time></trkpt><trkpt lat="14.571299076166044" lon="120.99470391028647"><ele>9.0</ele><time>2026-04-01T09:19:42Z</time></trkpt><trkpt lat="14.571320308918855" lon="120.99478820734782"><ele>9.0</ele><time>2026-04-01T09:19:45Z</time></trkpt><trkpt lat="14.57136537678346" lon="120.99485392582702"><ele>9.0</ele><time>2026-04-01T09:19:47Z</time></trkpt><trkpt lat="14.571269768479771" lon="120.99492135960455"><ele>9.0</ele><time>2026-04-01T09:19:52Z</time></trkpt><trkpt lat="14.57116455584019" lon="120.9949570614752"><ele>9.0</ele><time>2026-04-01T09:19:54Z</time></trkpt><trkpt lat="14.57109738118838" lon="120.99497502057233"><ele>9.0</ele><time>2026-04-01T09:19:55Z</time></trkpt><trkpt lat="14.571024131621696" lon="120.99499029695873"><ele>9.0</ele><time>2026-04-01T09:19:56Z</time></trkpt><trkpt lat="14.57095120978883" lon="120.99500571658729"><ele>8.833333333333334</ele><time>2026-04-01T09:19:57Z</time></trkpt><trkpt lat="14.570870576882928" lon="120.99503374274087"><ele>8.666666666666666</ele><time>2026-04-01T09:19:58Z</time></trkpt><trkpt lat="14.57078886292373" lon="120.99505193425192"><ele>8.5</ele><time>2026-04-01T09:19:59Z</time></trkpt><trkpt lat="14.57071321319323" lon="120.99507184076572"><ele>8.333333333333332</ele><time>2026-04-01T09:20:00Z</time></trkpt><trkpt lat="14.570646709990667" lon="120.99508703530638"><ele>8.166666666666666</ele><time>2026-04-01T09:20:01Z</time></trkpt><trkpt lat="14.570539275266395" lon="120.99510746288864"><ele>8.0</ele><time>2026-04-01T09:20:03Z</time></trkpt><trkpt lat="14.570418984609503" lon="120.99512932658267"><ele>7.499999999999999</ele><time>2026-04-01T09:20:05Z</time></trkpt><trkpt lat="14.570350003374816" lon="120.99514952624195"><ele>7.0</ele><time>2026-04-01T09:20:06Z</time></trkpt><trkpt lat="14.570277935969262" lon="120.99517099756079"><ele>6.5</ele><time>2026-04-01T09:20:07Z</time></trkpt><trkpt lat="14.570205869129014" lon="120.99518635928246"><ele>6.0</ele><time>2026-04-01T09:20:08Z</time></trkpt><trkpt lat="14.570136239909733" lon="120.99521348618133"><ele>5.5</ele><time>2026-04-01T09:20:09Z</time></trkpt><trkpt lat="14.570078746257987" lon="120.99525719292637"><ele>5.0</ele><time>2026-04-01T09:20:10Z</time></trkpt><trkpt lat="14.569992416544334" lon="120.99528354740715"><ele>5.0</ele><time>2026-04-01T09:20:11Z</time></trkpt><trkpt lat="14.5699072029402" lon="120.99530535771504"><ele>5.0</ele><time>2026-04-01T09:20:12Z</time></trkpt><trkpt lat="14.569818913433295" lon="120.99533164593988"><ele>5.0</ele><time>2026-04-01T09:20:13Z</time></trkpt><trkpt lat="14.569742971839537" lon="120.99536776857548"><ele>5.0</ele><time>2026-04-01T09:20:14Z</time></trkpt><trkpt lat="14.569668176288312" lon="120.99539643342777"><ele>5.0</ele><time>2026-04-01T09:20:15Z</time></trkpt><trkpt lat="14.569586253089978" lon="120.99543977169583"><ele>5.0</ele><time>2026-04-01T09:20:16Z</time></trkpt><trkpt lat="14.569506446532024" lon="120.9954830210095"><ele>5.0</ele><time>2026-04-01T09:20:17Z</time></trkpt><trkpt lat="14.569427898058947" lon="120.9955243746513"><ele>5.0</ele><time>2026-04-01T09:20:18Z</time></trkpt><trkpt lat="14.5693440443788" lon="120.99556325159764"><ele>5.0</ele><time>2026-04-01T09:20:19Z</time></trkpt><trkpt lat="14.569261135601998" lon="120.99560379073093"><ele>5.0</ele><time>2026-04-01T09:20:20Z</time></trkpt><trkpt lat="14.569184802688524" lon="120.99565247815066"><ele>5.0</ele><time>2026-04-01T09:20:21Z</time></trkpt><trkpt lat="14.569109817517443" lon="120.9956940494322"><ele>5.0</ele><time>2026-04-01T09:20:22Z</time></trkpt><trkpt lat="14.569032100618347" lon="120.99574163280877"><ele>5.0</ele><time>2026-04-01T09:20:23Z</time></trkpt><trkpt lat="14.568951373984135" lon="120.99578255947485"><ele>5.0</ele><time>2026-04-01T09:20:24Z</time></trkpt><trkpt lat="14.568867508318753" lon="120.99582708403511"><ele>5.0</ele><time>2026-04-01T09:20:25Z</time></trkpt><trkpt lat="14.568784175011743" lon="120.99587060344211"><ele>5.0</ele><time>2026-04-01T09:20:26Z</time></trkpt><trkpt lat="14.568699727785866" lon="120.99591884139971"><ele>5.0</ele><time>2026-04-01T09:20:27Z</time></trkpt><trkpt lat="14.56862612826493" lon="120.9959580688997"><ele>5.666666666666667</ele><time>2026-04-01T09:20:28Z</time></trkpt><trkpt lat="14.568559707743095" lon="120.99599656423376"><ele>6.333333333333334</ele><time>2026-04-01T09:20:29Z</time></trkpt><trkpt lat="14.5684985640057" lon="120.99603182873756"><ele>7.0</ele><time>2026-04-01T09:20:30.001Z</time></trkpt><trkpt lat="14.568376647526676" lon="120.99607235845454"><ele>7.666666666666667</ele><time>2026-04-01T09:20:32.001Z</time></trkpt><trkpt lat="14.568304581268622" lon="120.99609843776554"><ele>8.333333333333334</ele><time>2026-04-01T09:20:33.001Z</time></trkpt><trkpt lat="14.568235631788358" lon="120.99612363933382"><ele>9.0</ele><time>2026-04-01T09:20:34.001Z</time></trkpt><trkpt lat="14.56816875824333" lon="120.99616467848386"><ele>9.0</ele><time>2026-04-01T09:20:35.001Z</time></trkpt><trkpt lat="14.568088612287331" lon="120.99616154003517"><ele>9.0</ele><time>2026-04-01T09:20:36.001Z</time></trkpt><trkpt lat="14.568012011190843" lon="120.99618258808708"><ele>9.0</ele><time>2026-04-01T09:20:37.001Z</time></trkpt><trkpt lat="14.567943512899777" lon="120.99619998246595"><ele>9.0</ele><time>2026-04-01T09:20:38.001Z</time></trkpt><trkpt lat="14.567873249619781" lon="120.99622065160685"><ele>9.0</ele><time>2026-04-01T09:20:39.001Z</time></trkpt><trkpt lat="14.56779829960797" lon="120.99624171475077"><ele>9.0</ele><time>2026-04-01T09:20:40.001Z</time></trkpt><trkpt lat="14.567727971773616" lon="120.99626340084993"><ele>8.857142857142858</ele><time>2026-04-01T09:20:41.001Z</time></trkpt><trkpt lat="14.567652679898593" lon="120.99628673808431"><ele>8.714285714285715</ele><time>2026-04-01T09:20:42.001Z</time></trkpt><trkpt lat="14.567578283283348" lon="120.99631311654554"><ele>8.571428571428571</ele><time>2026-04-01T09:20:43.001Z</time></trkpt><trkpt lat="14.56750691809348" lon="120.99633322257093"><ele>8.428571428571429</ele><time>2026-04-01T09:20:44.001Z</time></trkpt><trkpt lat="14.567438451819898" lon="120.99635829366918"><ele>8.285714285714285</ele><time>2026-04-01T09:20:45.001Z</time></trkpt><trkpt lat="14.567370026729444" lon="120.9963768190237"><ele>8.142857142857142</ele><time>2026-04-01T09:20:46.001Z</time></trkpt><trkpt lat="14.567304480628412" lon="120.99640088064119"><ele>8.0</ele><time>2026-04-01T09:20:47.001Z</time></trkpt><trkpt lat="14.567192922759041" lon="120.99642681581136"><ele>7.999999999999999</ele><time>2026-04-01T09:20:49.001Z</time></trkpt><trkpt lat="14.567092330088103" lon="120.99646278904194"><ele>8.0</ele><time>2026-04-01T09:20:51.001Z</time></trkpt><trkpt lat="14.567014258676386" lon="120.99648314344934"><ele>8.0</ele><time>2026-04-01T09:20:53.001Z</time></trkpt><trkpt lat="14.566926498411453" lon="120.9965112073612"><ele>8.0</ele><time>2026-04-01T09:20:56.001Z</time></trkpt><trkpt lat="14.56684613382188" lon="120.99653239602812"><ele>7.999999999999999</ele><time>2026-04-01T09:20:59.001Z</time></trkpt><trkpt lat="14.566779616682956" lon="120.9965505680516"><ele>8.0</ele><time>2026-04-01T09:21:01Z</time></trkpt><trkpt lat="14.566702032626875" lon="120.99657580658716"><ele>8.166666666666666</ele><time>2026-04-01T09:21:03Z</time></trkpt><trkpt lat="14.566635587068713" lon="120.99659711658767"><ele>8.333333333333332</ele><time>2026-04-01T09:21:05Z</time></trkpt><trkpt lat="14.566549696661795" lon="120.99662133639129"><ele>8.5</ele><time>2026-04-01T09:21:07Z</time></trkpt><trkpt lat="14.566473682954795" lon="120.99664855311256"><ele>8.666666666666666</ele><time>2026-04-01T09:21:09Z</time></trkpt><trkpt lat="14.566396600502959" lon="120.9966682890135"><ele>8.833333333333334</ele><time>2026-04-01T09:21:11Z</time></trkpt><trkpt lat="14.566313168944651" lon="120.99669503184525"><ele>9.0</ele><time>2026-04-01T09:21:13Z</time></trkpt><trkpt lat="14.566214547917632" lon="120.99672760978916"><ele>9.0</ele><time>2026-04-01T09:21:15Z</time></trkpt><trkpt lat="14.566107837481479" lon="120.99675756086337"><ele>9.0</ele><time>2026-04-01T09:21:17Z</time></trkpt><trkpt lat="14.566000296155394" lon="120.99678940668755"><ele>9.0</ele><time>2026-04-01T09:21:19Z</time></trkpt><trkpt lat="14.565919362572275" lon="120.996807943167"><ele>9.0</ele><time>2026-04-01T09:21:21Z</time></trkpt><trkpt lat="14.565826063738951" lon="120.9968396547911"><ele>9.0</ele><time>2026-04-01T09:21:24Z</time></trkpt><trkpt lat="14.565748249836407" lon="120.99687609819499"><ele>9.0</ele><time>2026-04-01T09:21:27Z</time></trkpt><trkpt lat="14.565676262055915" lon="120.99689132520658"><ele>9.0</ele><time>2026-04-01T09:21:29Z</time></trkpt><trkpt lat="14.56561403848783" lon="120.99690356477021"><ele>9.0</ele><time>2026-04-01T09:21:32Z</time></trkpt><trkpt lat="14.56550784571154" lon="120.99694548548655"><ele>9.0</ele><time>2026-04-01T09:22:11Z</time></trkpt><trkpt lat="14.565391919278364" lon="120.99697965846754"><ele>9.0</ele><time>2026-04-01T09:22:13Z</time></trkpt><trkpt lat="14.565251698935803" lon="120.99702872590571"><ele>8.833333333333334</ele><time>2026-04-01T09:22:15.001Z</time></trkpt><trkpt lat="14.565188403494545" lon="120.99705231471128"><ele>8.666666666666666</ele><time>2026-04-01T09:22:16.001Z</time></trkpt><trkpt lat="14.565116243218538" lon="120.99708623754638"><ele>8.5</ele><time>2026-04-01T09:22:17.001Z</time></trkpt><trkpt lat="14.56502666044615" lon="120.9971043004263"><ele>8.333333333333332</ele><time>2026-04-01T09:22:18.001Z</time></trkpt><trkpt lat="14.56493630450616" lon="120.99713369325681"><ele>8.166666666666666</ele><time>2026-04-01T09:22:19.001Z</time></trkpt><trkpt lat="14.564850930362564" lon="120.99716504957144"><ele>8.0</ele><time>2026-04-01T09:22:20.001Z</time></trkpt><trkpt lat="14.564780438422481" lon="120.99719702641524"><ele>8.0</ele><time>2026-04-01T09:22:21.001Z</time></trkpt><trkpt lat="14.5647066766708" lon="120.9972116017281"><ele>8.0</ele><time>2026-04-01T09:22:23.001Z</time></trkpt><trkpt lat="14.564634420321147" lon="120.9972357623944"><ele>8.0</ele><time>2026-04-01T09:22:26.001Z</time></trkpt><trkpt lat="14.56451858789978" lon="120.99727494093757"><ele>8.0</ele><time>2026-04-01T09:22:28.001Z</time></trkpt><trkpt lat="14.564406993901821" lon="120.99731770330962"><ele>8.0</ele><time>2026-04-01T09:22:30.001Z</time></trkpt><trkpt lat="14.564345510242768" lon="120.99735213222901"><ele>7.999999999999999</ele><time>2026-04-01T09:22:31.001Z</time></trkpt><trkpt lat="14.564233198940052" lon="120.99739319943782"><ele>8.0</ele><time>2026-04-01T09:22:33.001Z</time></trkpt><trkpt lat="14.56416962679945" lon="120.99741573413262"><ele>8.0</ele><time>2026-04-01T09:22:34.001Z</time></trkpt><trkpt lat="14.564076446407949" lon="120.99744298961083"><ele>8.0</ele><time>2026-04-01T09:22:36.001Z</time></trkpt><trkpt lat="14.564016010141472" lon="120.9974750655035"><ele>7.999999999999999</ele><time>2026-04-01T09:22:38.001Z</time></trkpt><trkpt lat="14.563933672493949" lon="120.99749395566988"><ele>8.0</ele><time>2026-04-01T09:22:42.001Z</time></trkpt><trkpt lat="14.563863419189355" lon="120.9975183695275"><ele>7.833333333333333</ele><time>2026-04-01T09:22:44.001Z</time></trkpt><trkpt lat="14.56380447468829" lon="120.99755776138424"><ele>7.666666666666666</ele><time>2026-04-01T09:22:46.001Z</time></trkpt><trkpt lat="14.563746013748524" lon="120.997585587926"><ele>7.5</ele><time>2026-04-01T09:22:48.001Z</time></trkpt><trkpt lat="14.56378107193413" lon="120.99770992194617"><ele>7.333333333333334</ele><time>2026-04-01T09:22:49.001Z</time></trkpt><trkpt lat="14.563823215986615" lon="120.99778024583208"><ele>7.166666666666667</ele><time>2026-04-01T09:22:50.001Z</time></trkpt><trkpt lat="14.563860627905337" lon="120.99785993248116"><ele>7.0</ele><time>2026-04-01T09:22:51.001Z</time></trkpt><trkpt lat="14.563894572511456" lon="120.9979326138151"><ele>7.000000000000001</ele><time>2026-04-01T09:22:52.001Z</time></trkpt><trkpt lat="14.563943290069309" lon="120.99804141302032"><ele>7.0</ele><time>2026-04-01T09:22:54.001Z</time></trkpt><trkpt lat="14.563982466845387" lon="120.99812572062666"><ele>7.0</ele><time>2026-04-01T09:22:56.001Z</time></trkpt><trkpt lat="14.563996442365756" lon="120.99819456006806"><ele>7.0</ele><time>2026-04-01T09:22:58.001Z</time></trkpt><trkpt lat="14.563931805426245" lon="120.9982670229815"><ele>7.000000000000001</ele><time>2026-04-01T09:23:01.001Z</time></trkpt><trkpt lat="14.563876156045206" lon="120.998301046871"><ele>7.0</ele><time>2026-04-01T09:23:02.001Z</time></trkpt><trkpt lat="14.563761285136122" lon="120.99833307569716"><ele>7.000000000000001</ele><time>2026-04-01T09:23:04.001Z</time></trkpt><trkpt lat="14.56368133707422" lon="120.99835751511539"><ele>7.0</ele><time>2026-04-01T09:23:05.001Z</time></trkpt><trkpt lat="14.563597046645693" lon="120.99838558255425"><ele>7.0</ele><time>2026-04-01T09:23:06Z</time></trkpt><trkpt lat="14.563519399725017" lon="120.9984061133943"><ele>7.0</ele><time>2026-04-01T09:23:07Z</time></trkpt><trkpt lat="14.563448237716317" lon="120.9984216664075"><ele>7.000000000000001</ele><time>2026-04-01T09:23:08Z</time></trkpt><trkpt lat="14.563334086410206" lon="120.9984579934985"><ele>7.0</ele><time>2026-04-01T09:23:10Z</time></trkpt><trkpt lat="14.563250393656253" lon="120.99848907831534"><ele>7.000000000000001</ele><time>2026-04-01T09:23:12Z</time></trkpt><trkpt lat="14.563184818563629" lon="120.99850806670352"><ele>7.0</ele><time>2026-04-01T09:23:14Z</time></trkpt><trkpt lat="14.563129274163067" lon="120.99854038736147"><ele>7.0</ele><time>2026-04-01T09:23:18Z</time></trkpt><trkpt lat="14.56318916716309" lon="120.99860525538679"><ele>7.0</ele><time>2026-04-01T09:25:16.001Z</time></trkpt><trkpt lat="14.56322245862714" lon="120.99868331101753"><ele>7.000000000000001</ele><time>2026-04-01T09:25:18.001Z</time></trkpt><trkpt lat="14.563269983359957" lon="120.99875914151009"><ele>7.0</ele><time>2026-04-01T09:25:20.001Z</time></trkpt><trkpt lat="14.56329680806072" lon="120.99882217320192"><ele>7.0</ele><time>2026-04-01T09:25:22.001Z</time></trkpt><trkpt lat="14.563635117716213" lon="120.99870767521324"><ele>7.0</ele><time>2026-04-01T09:25:32Z</time></trkpt><trkpt lat="14.563693997747482" lon="120.99865793369568"><ele>7.0</ele><time>2026-04-01T09:25:34Z</time></trkpt><trkpt lat="14.563789206495565" lon="120.9986131319135"><ele>6.833333333333334</ele><time>2026-04-01T09:25:38Z</time></trkpt><trkpt lat="14.563845605768426" lon="120.99858129035881"><ele>6.666666666666667</ele><time>2026-04-01T09:25:40Z</time></trkpt><trkpt lat="14.563923766157725" lon="120.99853770148698"><ele>6.5</ele><time>2026-04-01T09:25:42Z</time></trkpt><trkpt lat="14.564011201732491" lon="120.99849971708012"><ele>6.333333333333334</ele><time>2026-04-01T09:25:44Z</time></trkpt><trkpt lat="14.564084589038385" lon="120.99846237622573"><ele>6.166666666666667</ele><time>2026-04-01T09:25:46Z</time></trkpt><trkpt lat="14.564123514203045" lon="120.99840143870897"><ele>6.0</ele><time>2026-04-01T09:25:49Z</time></trkpt><trkpt lat="14.56410657008324" lon="120.9983374055594"><ele>6.199999999999999</ele><time>2026-04-01T09:25:51Z</time></trkpt><trkpt lat="14.564072780732019" lon="120.99826293077216"><ele>6.3999999999999995</ele><time>2026-04-01T09:25:54Z</time></trkpt><trkpt lat="14.56418083698424" lon="120.99821988539088"><ele>6.6</ele><time>2026-04-01T09:26:01.001Z</time></trkpt><trkpt lat="14.564275936189524" lon="120.99819848435995"><ele>6.8</ele><time>2026-04-01T09:26:04.001Z</time></trkpt><trkpt lat="14.564364511071084" lon="120.99817855155771"><ele>7.0</ele><time>2026-04-01T09:26:06.001Z</time></trkpt><trkpt lat="14.564444056374574" lon="120.99816065076301"><ele>7.8</ele><time>2026-04-01T09:26:08.001Z</time></trkpt><trkpt lat="14.56456827500005" lon="120.99813269672661"><ele>8.6</ele><time>2026-04-01T09:26:10.001Z</time></trkpt><trkpt lat="14.564649897349634" lon="120.9981174726089"><ele>9.4</ele><time>2026-04-01T09:26:11.001Z</time></trkpt><trkpt lat="14.564737110006542" lon="120.99810129052777"><ele>10.200000000000001</ele><time>2026-04-01T09:26:12.001Z</time></trkpt><trkpt lat="14.564812712381617" lon="120.99808726270932"><ele>11.0</ele><time>2026-04-01T09:26:13.001Z</time></trkpt><trkpt lat="14.564886955946784" lon="120.9980734870131"><ele>11.0</ele><time>2026-04-01T09:26:14.001Z</time></trkpt><trkpt lat="14.564962192945666" lon="120.99805952698753"><ele>11.0</ele><time>2026-04-01T09:26:15.001Z</time></trkpt><trkpt lat="14.56503205094284" lon="120.99804656499413"><ele>11.0</ele><time>2026-04-01T09:26:16.001Z</time></trkpt><trkpt lat="14.565097584388976" lon="120.9980398446566"><ele>11.0</ele><time>2026-04-01T09:26:17.001Z</time></trkpt><trkpt lat="14.56516907828063" lon="120.99803021521421"><ele>11.0</ele><time>2026-04-01T09:26:18.001Z</time></trkpt><trkpt lat="14.565237211938282" lon="120.99802103835955"><ele>11.0</ele><time>2026-04-01T09:26:19.001Z</time></trkpt><trkpt lat="14.565302198492926" lon="120.99801228538537"><ele>11.0</ele><time>2026-04-01T09:26:20.001Z</time></trkpt><trkpt lat="14.565365661512484" lon="120.99800373761401"><ele>10.4</ele><time>2026-04-01T09:26:21.001Z</time></trkpt><trkpt lat="14.565480461919115" lon="120.99798652373359"><ele>9.8</ele><time>2026-04-01T09:26:23.001Z</time></trkpt><trkpt lat="14.56558894894434" lon="120.99796925467828"><ele>9.200000000000001</ele><time>2026-04-01T09:26:25.001Z</time></trkpt><trkpt lat="14.565675694353486" lon="120.99795544647348"><ele>8.600000000000001</ele><time>2026-04-01T09:26:27.001Z</time></trkpt><trkpt lat="14.565747417780592" lon="120.99794402948037"><ele>8.0</ele><time>2026-04-01T09:26:29.001Z</time></trkpt><trkpt lat="14.565814332482486" lon="120.99793337794027"><ele>8.0</ele><time>2026-04-01T09:26:31.001Z</time></trkpt><trkpt lat="14.565852859134527" lon="120.99778746382968"><ele>8.0</ele><time>2026-04-01T09:26:35.001Z</time></trkpt><trkpt lat="14.56578888028727" lon="120.99767035896494"><ele>8.0</ele><time>2026-04-01T09:26:37.001Z</time></trkpt><trkpt lat="14.565755544311921" lon="120.99759718072768"><ele>8.0</ele><time>2026-04-01T09:26:38.001Z</time></trkpt><trkpt lat="14.56572513979091" lon="120.99751903452278"><ele>8.0</ele><time>2026-04-01T09:26:39.001Z</time></trkpt><trkpt lat="14.565694735320305" lon="120.99744874959335"><ele>8.200000000000001</ele><time>2026-04-01T09:26:40.001Z</time></trkpt><trkpt lat="14.565655031990488" lon="120.99731987492962"><ele>8.4</ele><time>2026-04-01T09:26:42.001Z</time></trkpt><trkpt lat="14.565643636144362" lon="120.99720849134991"><ele>8.600000000000001</ele><time>2026-04-01T09:26:44.001Z</time></trkpt><trkpt lat="14.565601192495812" lon="120.99708772799636"><ele>8.8</ele><time>2026-04-01T09:26:46.001Z</time></trkpt><trkpt lat="14.565584714010116" lon="120.99702094818103"><ele>9.0</ele><time>2026-04-01T09:26:47.001Z</time></trkpt><trkpt lat="14.565563387073155" lon="120.99695245990193"><ele>9.0</ele><time>2026-04-01T09:26:48.001Z</time></trkpt><trkpt lat="14.565536874207789" lon="120.99688366179637"><ele>9.0</ele><time>2026-04-01T09:26:49.001Z</time></trkpt><trkpt lat="14.565501716068752" lon="120.99681116403012"><ele>9.0</ele><time>2026-04-01T09:26:50.001Z</time></trkpt><trkpt lat="14.56546753474306" lon="120.9967404916024"><ele>9.0</ele><time>2026-04-01T09:26:51.001Z</time></trkpt><trkpt lat="14.56543476427582" lon="120.99666108523381"><ele>9.0</ele><time>2026-04-01T09:26:52.001Z</time></trkpt><trkpt lat="14.565402102503336" lon="120.99659110378181"><ele>9.0</ele><time>2026-04-01T09:26:53.001Z</time></trkpt><trkpt lat="14.565337308749967" lon="120.99645313772758"><ele>8.833333333333334</ele><time>2026-04-01T09:26:55.001Z</time></trkpt><trkpt lat="14.565289969688209" lon="120.99636150887535"><ele>8.666666666666666</ele><time>2026-04-01T09:26:56.001Z</time></trkpt><trkpt lat="14.565258097108835" lon="120.99628252076134"><ele>8.5</ele><time>2026-04-01T09:26:57.001Z</time></trkpt><trkpt lat="14.56523266841212" lon="120.99619604272604"><ele>8.333333333333332</ele><time>2026-04-01T09:26:58.001Z</time></trkpt><trkpt lat="14.56519231102296" lon="120.99612234453232"><ele>8.166666666666666</ele><time>2026-04-01T09:26:59.001Z</time></trkpt><trkpt lat="14.56515325927997" lon="120.99604928393893"><ele>8.0</ele><time>2026-04-01T09:27:00.001Z</time></trkpt><trkpt lat="14.56511677672431" lon="120.99597686856602"><ele>7.999999999999999</ele><time>2026-04-01T09:27:01.001Z</time></trkpt><trkpt lat="14.565083579955992" lon="120.99589062835918"><ele>8.0</ele><time>2026-04-01T09:27:02.001Z</time></trkpt><trkpt lat="14.56504505818523" lon="120.99580917479639"><ele>8.0</ele><time>2026-04-01T09:27:03.001Z</time></trkpt><trkpt lat="14.56501671113435" lon="120.99573042155166"><ele>8.0</ele><time>2026-04-01T09:27:04.001Z</time></trkpt><trkpt lat="14.564993841377868" lon="120.995664764659"><ele>7.999999999999999</ele><time>2026-04-01T09:27:05.001Z</time></trkpt><trkpt lat="14.564973362434975" lon="120.99560136926621"><ele>8.0</ele><time>2026-04-01T09:27:06.001Z</time></trkpt><trkpt lat="14.564904863328438" lon="120.99548469035925"><ele>9.0</ele><time>2026-04-01T09:27:08.001Z</time></trkpt><trkpt lat="14.564868521587762" lon="120.99538368555098"><ele>10.0</ele><time>2026-04-01T09:27:09.001Z</time></trkpt><trkpt lat="14.564834164106465" lon="120.9952819092563"><ele>11.0</ele><time>2026-04-01T09:27:10.001Z</time></trkpt><trkpt lat="14.564791722759374" lon="120.99519300573968"><ele>12.0</ele><time>2026-04-01T09:27:12.001Z</time></trkpt><trkpt lat="14.564709182276594" lon="120.99502121844802"><ele>11.5</ele><time>2026-04-01T09:27:15.001Z</time></trkpt><trkpt lat="14.564672070540581" lon="120.99493880298641"><ele>11.0</ele><time>2026-04-01T09:27:16.001Z</time></trkpt><trkpt lat="14.564632455923206" lon="120.99486907674302"><ele>10.5</ele><time>2026-04-01T09:27:17.001Z</time></trkpt><trkpt lat="14.5646112345151" lon="120.9948004520543"><ele>10.0</ele><time>2026-04-01T09:27:18.001Z</time></trkpt><trkpt lat="14.564564877649422" lon="120.99470046385038"><ele>9.5</ele><time>2026-04-01T09:27:20.001Z</time></trkpt><trkpt lat="14.564522470800085" lon="120.99461668704114"><ele>9.0</ele><time>2026-04-01T09:27:22.001Z</time></trkpt><trkpt lat="14.564473026223133" lon="120.99455470004504"><ele>10.0</ele><time>2026-04-01T09:27:28.001Z</time></trkpt><trkpt lat="14.564430772294736" lon="120.99450376380743"><ele>11.0</ele><time>2026-04-01T09:28:26.001Z</time></trkpt><trkpt lat="14.564380292225078" lon="120.99442724034279"><ele>12.0</ele><time>2026-04-01T09:28:28.001Z</time></trkpt><trkpt lat="14.564326041182582" lon="120.99437818691365"><ele>13.0</ele><time>2026-04-01T09:28:30.001Z</time></trkpt><trkpt lat="14.56423877822288" lon="120.99435729164907"><ele>14.0</ele><time>2026-04-01T09:28:33.001Z</time></trkpt><trkpt lat="14.564135144878037" lon="120.99441068998071"><ele>15.0</ele><time>2026-04-01T09:28:35.001Z</time></trkpt><trkpt lat="14.564034055079526" lon="120.99446254797468"><ele>15.0</ele><time>2026-04-01T09:28:36.001Z</time></trkpt><trkpt lat="14.563949969197411" lon="120.99450942905742"><ele>15.0</ele><time>2026-04-01T09:28:37.001Z</time></trkpt><trkpt lat="14.563885439143462" lon="120.99452738369432"><ele>15.0</ele><time>2026-04-01T09:28:38.001Z</time></trkpt><trkpt lat="14.5638005345133" lon="120.99456504037335"><ele>15.0</ele><time>2026-04-01T09:28:40.001Z</time></trkpt><trkpt lat="14.5637284011942" lon="120.99455759052151"><ele>15.0</ele><time>2026-04-01T09:28:50.001Z</time></trkpt><trkpt lat="14.563668813592294" lon="120.99458171669886"><ele>15.0</ele><time>2026-04-01T09:28:51.001Z</time></trkpt><trkpt lat="14.563557326014342" lon="120.9946386843529"><ele>14.571428571428571</ele><time>2026-04-01T09:28:53.001Z</time></trkpt><trkpt lat="14.563508500065605" lon="120.99468198495553"><ele>14.142857142857142</ele><time>2026-04-01T09:28:54.001Z</time></trkpt><trkpt lat="14.563444336166885" lon="120.99471555809322"><ele>13.714285714285714</ele><time>2026-04-01T09:28:55.001Z</time></trkpt><trkpt lat="14.563390085062458" lon="120.99474889007527"><ele>13.285714285714285</ele><time>2026-04-01T09:28:56.001Z</time></trkpt><trkpt lat="14.563320169918741" lon="120.99479919600792"><ele>12.857142857142858</ele><time>2026-04-01T09:28:57.001Z</time></trkpt><trkpt lat="14.563260618973583" lon="120.99483620247769"><ele>12.428571428571427</ele><time>2026-04-01T09:28:58.001Z</time></trkpt><trkpt lat="14.563182115163979" lon="120.99485799609354"><ele>12.0</ele><time>2026-04-01T09:28:59.001Z</time></trkpt><trkpt lat="14.563118588006486" lon="120.99489464366363"><ele>12.0</ele><time>2026-04-01T09:29:00.001Z</time></trkpt><trkpt lat="14.562968622518538" lon="120.99493348565213"><ele>12.0</ele><time>2026-04-01T09:29:02.001Z</time></trkpt><trkpt lat="14.56287491652296" lon="120.99496534739993"><ele>12.0</ele><time>2026-04-01T09:29:03.001Z</time></trkpt><trkpt lat="14.562791721196145" lon="120.99499576118292"><ele>12.0</ele><time>2026-04-01T09:29:04.001Z</time></trkpt><trkpt lat="14.562718134376903" lon="120.99502622976686"><ele>12.0</ele><time>2026-04-01T09:29:05.001Z</time></trkpt><trkpt lat="14.56265317725025" lon="120.99505467170314"><ele>11.666666666666666</ele><time>2026-04-01T09:29:06.001Z</time></trkpt><trkpt lat="14.56258405718257" lon="120.99508876460155"><ele>11.333333333333334</ele><time>2026-04-01T09:29:07.001Z</time></trkpt><trkpt lat="14.562517986588327" lon="120.99510804120384"><ele>11.0</ele><time>2026-04-01T09:29:09.001Z</time></trkpt><trkpt lat="14.562433966150715" lon="120.99513067524167"><ele>10.666666666666668</ele><time>2026-04-01T09:29:12.001Z</time></trkpt><trkpt lat="14.562368271882567" lon="120.99516462429186"><ele>10.333333333333334</ele><time>2026-04-01T09:29:14.001Z</time></trkpt><trkpt lat="14.562272703874697" lon="120.99518957481929"><ele>10.0</ele><time>2026-04-01T09:29:17.001Z</time></trkpt><trkpt lat="14.56218238628508" lon="120.99522456536866"><ele>10.0</ele><time>2026-04-01T09:29:19.001Z</time></trkpt><trkpt lat="14.562092749227192" lon="120.99524628989428"><ele>10.0</ele><time>2026-04-01T09:29:21.001Z</time></trkpt><trkpt lat="14.562004254411715" lon="120.9952633773576"><ele>10.0</ele><time>2026-04-01T09:29:23.001Z</time></trkpt><trkpt lat="14.561907663952587" lon="120.99527417507277"><ele>10.0</ele><time>2026-04-01T09:29:25Z</time></trkpt><trkpt lat="14.56184769227607" lon="120.99529507094148"><ele>10.0</ele><time>2026-04-01T09:29:26Z</time></trkpt><trkpt lat="14.561783735280923" lon="120.99531532441604"><ele>10.0</ele><time>2026-04-01T09:29:27Z</time></trkpt><trkpt lat="14.561714887547113" lon="120.99533748877839"><ele>9.833333333333334</ele><time>2026-04-01T09:29:28Z</time></trkpt><trkpt lat="14.561641943367697" lon="120.99535504578152"><ele>9.666666666666668</ele><time>2026-04-01T09:29:29Z</time></trkpt><trkpt lat="14.561558169656891" lon="120.99537264239373"><ele>9.5</ele><time>2026-04-01T09:29:30Z</time></trkpt><trkpt lat="14.561485026785084" lon="120.99539187582674"><ele>9.333333333333334</ele><time>2026-04-01T09:29:31Z</time></trkpt><trkpt lat="14.561406927441622" lon="120.99541603904902"><ele>9.166666666666666</ele><time>2026-04-01T09:29:32Z</time></trkpt><trkpt lat="14.561325839185963" lon="120.99543626999187"><ele>9.0</ele><time>2026-04-01T09:29:33Z</time></trkpt><trkpt lat="14.561242815747422" lon="120.9954528870545"><ele>8.6</ele><time>2026-04-01T09:29:34Z</time></trkpt><trkpt lat="14.561166587946712" lon="120.99546942309202"><ele>8.2</ele><time>2026-04-01T09:29:35Z</time></trkpt><trkpt lat="14.561087910205444" lon="120.99550098650549"><ele>7.799999999999999</ele><time>2026-04-01T09:29:36Z</time></trkpt><trkpt lat="14.561010156643704" lon="120.99552050894967"><ele>7.3999999999999995</ele><time>2026-04-01T09:29:37Z</time></trkpt><trkpt lat="14.560906473383884" lon="120.99553749672978"><ele>7.0</ele><time>2026-04-01T09:29:38Z</time></trkpt><trkpt lat="14.560801426970974" lon="120.9955654753168"><ele>7.000000000000001</ele><time>2026-04-01T09:29:39Z</time></trkpt><trkpt lat="14.560692287322476" lon="120.99559147510996"><ele>7.0</ele><time>2026-04-01T09:29:40Z</time></trkpt><trkpt lat="14.560600508115511" lon="120.99560912216457"><ele>7.0</ele><time>2026-04-01T09:29:41Z</time></trkpt><trkpt lat="14.560509422589137" lon="120.99563494839728"><ele>7.0</ele><time>2026-04-01T09:29:42Z</time></trkpt><trkpt lat="14.560434445050296" lon="120.99564608238536"><ele>7.000000000000001</ele><time>2026-04-01T09:29:43Z</time></trkpt><trkpt lat="14.560367074750568" lon="120.99566670896054"><ele>7.0</ele><time>2026-04-01T09:29:44Z</time></trkpt><trkpt lat="14.560305785831929" lon="120.99568352716814"><ele>7.500000000000001</ele><time>2026-04-01T09:29:45Z</time></trkpt><trkpt lat="14.560208729178486" lon="120.99570583775784"><ele>8.0</ele><time>2026-04-01T09:29:47Z</time></trkpt><trkpt lat="14.560083406555203" lon="120.9957348177767"><ele>8.5</ele><time>2026-04-01T09:29:49Z</time></trkpt><trkpt lat="14.560010547019187" lon="120.99575122292416"><ele>9.0</ele><time>2026-04-01T09:29:50Z</time></trkpt><trkpt lat="14.559939114912783" lon="120.99576280266879"><ele>9.5</ele><time>2026-04-01T09:29:51Z</time></trkpt><trkpt lat="14.55987079072504" lon="120.99578416225044"><ele>10.0</ele><time>2026-04-01T09:29:52Z</time></trkpt><trkpt lat="14.559799995208563" lon="120.99579936286972"><ele>10.0</ele><time>2026-04-01T09:29:53Z</time></trkpt><trkpt lat="14.559714865103926" lon="120.99581559722812"><ele>10.0</ele><time>2026-04-01T09:29:54Z</time></trkpt><trkpt lat="14.559603258028934" lon="120.99583750835878"><ele>10.0</ele><time>2026-04-01T09:29:55Z</time></trkpt><trkpt lat="14.559481825766232" lon="120.99586866184593"><ele>10.0</ele><time>2026-04-01T09:29:57Z</time></trkpt><trkpt lat="14.559411247043336" lon="120.9958911857355"><ele>10.0</ele><time>2026-04-01T09:29:58Z</time></trkpt><trkpt lat="14.55932851059598" lon="120.99590466612608"><ele>9.833333333333334</ele><time>2026-04-01T09:29:59Z</time></trkpt><trkpt lat="14.559234755288772" lon="120.99592617948906"><ele>9.666666666666668</ele><time>2026-04-01T09:30:00Z</time></trkpt><trkpt lat="14.559152818049848" lon="120.99594506440779"><ele>9.5</ele><time>2026-04-01T09:30:01Z</time></trkpt><trkpt lat="14.559080046799844" lon="120.9959686852609"><ele>9.333333333333334</ele><time>2026-04-01T09:30:02Z</time></trkpt><trkpt lat="14.55900458358254" lon="120.99598633361556"><ele>9.166666666666666</ele><time>2026-04-01T09:30:03Z</time></trkpt><trkpt lat="14.558933101359795" lon="120.99600506007671"><ele>9.0</ele><time>2026-04-01T09:30:04Z</time></trkpt><trkpt lat="14.558849412921072" lon="120.99602357837522"><ele>9.0</ele><time>2026-04-01T09:30:05Z</time></trkpt><trkpt lat="14.55876341849208" lon="120.99604219775043"><ele>9.0</ele><time>2026-04-01T09:30:06Z</time></trkpt><trkpt lat="14.558688963372825" lon="120.99606202496646"><ele>9.0</ele><time>2026-04-01T09:30:07Z</time></trkpt><trkpt lat="14.558598362608333" lon="120.99607561956758"><ele>9.0</ele><time>2026-04-01T09:30:08Z</time></trkpt><trkpt lat="14.558518399824615" lon="120.99608815902336"><ele>9.0</ele><time>2026-04-01T09:30:09Z</time></trkpt><trkpt lat="14.558449722216057" lon="120.9961069940823"><ele>9.0</ele><time>2026-04-01T09:30:10Z</time></trkpt><trkpt lat="14.558388819718797" lon="120.99612841912338"><ele>9.0</ele><time>2026-04-01T09:30:11Z</time></trkpt><trkpt lat="14.558275441147428" lon="120.99614992588597"><ele>9.0</ele><time>2026-04-01T09:30:13Z</time></trkpt><trkpt lat="14.558202059697306" lon="120.99616314302504"><ele>9.0</ele><time>2026-04-01T09:30:15Z</time></trkpt><trkpt lat="14.558140931029884" lon="120.99614754414355"><ele>9.0</ele><time>2026-04-01T09:30:21Z</time></trkpt><trkpt lat="14.55808414968817" lon="120.99600275306257"><ele>9.0</ele><time>2026-04-01T09:30:24Z</time></trkpt><trkpt lat="14.558074616846941" lon="120.99588543649138"><ele>9.0</ele><time>2026-04-01T09:30:26Z</time></trkpt><trkpt lat="14.557995460789215" lon="120.99586226549833"><ele>9.0</ele><time>2026-04-01T09:30:28Z</time></trkpt><trkpt lat="14.557939274028278" lon="120.9957826672584"><ele>9.0</ele><time>2026-04-01T09:30:31Z</time></trkpt><trkpt lat="14.557906397214891" lon="120.99570291165888"><ele>9.0</ele><time>2026-04-01T09:30:34Z</time></trkpt><trkpt lat="14.557840909422119" lon="120.99565161900229"><ele>9.0</ele><time>2026-04-01T09:30:37Z</time></trkpt><trkpt lat="14.557782122603243" lon="120.99560793142062"><ele>9.0</ele><time>2026-04-01T09:30:40Z</time></trkpt><trkpt lat="14.557729401033471" lon="120.99556167089601"><ele>9.0</ele><time>2026-04-01T09:30:42.04Z</time></trkpt><trkpt lat="14.55766968985631" lon="120.995507179793"><ele>9.0</ele><time>2026-04-01T09:30:44.042Z</time></trkpt><trkpt lat="14.55760672670017" lon="120.99545106753379"><ele>9.0</ele><time>2026-04-01T09:30:46.041Z</time></trkpt><trkpt lat="14.557543805562661" lon="120.99538856088996"><ele>9.0</ele><time>2026-04-01T09:30:48.042Z</time></trkpt><trkpt lat="14.558186473506288" lon="120.99535901931417"><ele>9.0</ele><time>2026-04-01T09:32:21.001Z</time></trkpt><trkpt lat="14.558265008355773" lon="120.99533195683216"><ele>9.0</ele><time>2026-04-01T09:32:23.001Z</time></trkpt><trkpt lat="14.558362035733007" lon="120.99533024072609"><ele>9.0</ele><time>2026-04-01T09:36:20Z</time></trkpt><trkpt lat="14.558323835712308" lon="120.99538457605698"><ele>9.0</ele><time>2026-04-01T09:36:26Z</time></trkpt><trkpt lat="14.55834508844318" lon="120.99546033690386"><ele>9.0</ele><time>2026-04-01T09:36:36Z</time></trkpt><trkpt lat="14.558299269576663" lon="120.99551360983455"><ele>9.0</ele><time>2026-04-01T09:36:47Z</time></trkpt><trkpt lat="14.558206963781434" lon="120.99551155602497"><ele>9.0</ele><time>2026-04-01T09:36:49Z</time></trkpt><trkpt lat="14.557943429104993" lon="120.9953882038737"><ele>9.0</ele><time>2026-04-01T09:38:43.837Z</time></trkpt><trkpt lat="14.557422012266745" lon="120.99614101880012"><ele>8.5</ele><time>2026-04-01T09:38:45.011Z</time></trkpt><trkpt lat="14.5574343478476" lon="120.99576074333811"><ele>8.0</ele><time>2026-04-01T09:39:53.013Z</time></trkpt><trkpt lat="14.557365543933036" lon="120.99568096782022"><ele>8.0</ele><time>2026-04-01T09:39:55.014Z</time></trkpt><trkpt lat="14.55725412308752" lon="120.99551060971443"><ele>8.0</ele><time>2026-04-01T09:39:57.013Z</time></trkpt><trkpt lat="14.557192680187265" lon="120.99542708934612"><ele>8.0</ele><time>2026-04-01T09:39:59.015Z</time></trkpt><trkpt lat="14.557149662836187" lon="120.99537307161526"><ele>8.0</ele><time>2026-04-01T09:40:01.013Z</time></trkpt><trkpt lat="14.557102644426928" lon="120.99530547497677"><ele>8.0</ele><time>2026-04-01T09:40:03.01Z</time></trkpt><trkpt lat="14.557053045884965" lon="120.99525939394239"><ele>8.0</ele><time>2026-04-01T09:40:07.011Z</time></trkpt><trkpt lat="14.557138412511378" lon="120.99525739585215"><ele>8.0</ele><time>2026-04-01T09:40:16.008Z</time></trkpt><trkpt lat="14.557222455112257" lon="120.99526308048826"><ele>8.0</ele><time>2026-04-01T09:40:18.01Z</time></trkpt><trkpt lat="14.557383188903177" lon="120.99527270761936"><ele>8.0</ele><time>2026-04-01T09:40:34.012Z</time></trkpt><trkpt lat="14.55744702576004" lon="120.99529386275178"><ele>8.0</ele><time>2026-04-01T09:40:38.014Z</time></trkpt></trkseg></trk></gpx>